<?xml version="1.0" encoding="UTF-8" standalone="no" ?>
<gpx xmlns="http://www.topografix.com/GPX/1/1" xmlns:xsi="http://www.w3.org/2001/XMLSchema-instance" xsi:schemaLocation="http://www.topografix.com/GPX/1/1 http://www.topografix.com/GPX/1/1/gpx.xsd" version="1.1" creator="VisuGPX - https://www.visugpx.com">
  <metadata>
    <name>Champagnat Cyclisme sur route</name>
  </metadata>
  <trk>
    <name><![CDATA[Champagnat Cyclisme sur route_1]]></name>
    <trkseg>
      <trkpt lat="46.48273" lon="5.36837">
        <ele>267</ele>
        <time>2022-01-22T11:37:32Z</time>
      </trkpt>
      <trkpt lat="46.48265" lon="5.36827">
        <ele>265.6</ele>
        <time>2022-01-22T11:37:34Z</time>
      </trkpt>
      <trkpt lat="46.48256" lon="5.36817">
        <ele>264.6</ele>
        <time>2022-01-22T11:37:35Z</time>
      </trkpt>
      <trkpt lat="46.48236" lon="5.368">
        <ele>263.2</ele>
        <time>2022-01-22T11:37:37Z</time>
      </trkpt>
      <trkpt lat="46.48216" lon="5.36783">
        <ele>261.6</ele>
        <time>2022-01-22T11:37:39Z</time>
      </trkpt>
      <trkpt lat="46.48184" lon="5.36757">
        <ele>260.2</ele>
        <time>2022-01-22T11:37:41Z</time>
      </trkpt>
      <trkpt lat="46.48163" lon="5.3674">
        <ele>258.6</ele>
        <time>2022-01-22T11:37:43Z</time>
      </trkpt>
      <trkpt lat="46.48163" lon="5.3674">
        <ele>257.8</ele>
        <time>2022-01-22T11:37:44Z</time>
      </trkpt>
      <trkpt lat="46.48152" lon="5.36731">
        <ele>257</ele>
        <time>2022-01-22T11:37:45Z</time>
      </trkpt>
      <trkpt lat="46.48134" lon="5.36717">
        <ele>255.8</ele>
        <time>2022-01-22T11:37:47Z</time>
      </trkpt>
      <trkpt lat="46.4812" lon="5.36706">
        <ele>254.4</ele>
        <time>2022-01-22T11:37:49Z</time>
      </trkpt>
      <trkpt lat="46.48115" lon="5.367">
        <ele>253.6</ele>
        <time>2022-01-22T11:37:50Z</time>
      </trkpt>
      <trkpt lat="46.48112" lon="5.36693">
        <ele>252.6</ele>
        <time>2022-01-22T11:37:51Z</time>
      </trkpt>
      <trkpt lat="46.48112" lon="5.36685">
        <ele>252.2</ele>
        <time>2022-01-22T11:37:52Z</time>
      </trkpt>
      <trkpt lat="46.48115" lon="5.36679">
        <ele>251.4</ele>
        <time>2022-01-22T11:37:53Z</time>
      </trkpt>
      <trkpt lat="46.4812" lon="5.36672">
        <ele>251.2</ele>
        <time>2022-01-22T11:37:54Z</time>
      </trkpt>
      <trkpt lat="46.48133" lon="5.36659">
        <ele>250.4</ele>
        <time>2022-01-22T11:37:55Z</time>
      </trkpt>
      <trkpt lat="46.48152" lon="5.36642">
        <ele>249</ele>
        <time>2022-01-22T11:37:59Z</time>
      </trkpt>
      <trkpt lat="46.4819" lon="5.36608">
        <ele>248.2</ele>
        <time>2022-01-22T11:38:05Z</time>
      </trkpt>
      <trkpt lat="46.48206" lon="5.36603">
        <ele>248.2</ele>
        <time>2022-01-22T11:38:06Z</time>
      </trkpt>
      <trkpt lat="46.48213" lon="5.36601">
        <ele>248.2</ele>
        <time>2022-01-22T11:38:07Z</time>
      </trkpt>
      <trkpt lat="46.48223" lon="5.36588">
        <ele>248</ele>
        <time>2022-01-22T11:38:09Z</time>
      </trkpt>
      <trkpt lat="46.48225" lon="5.3658">
        <ele>248</ele>
        <time>2022-01-22T11:38:11Z</time>
      </trkpt>
      <trkpt lat="46.48232" lon="5.3656">
        <ele>247.8</ele>
        <time>2022-01-22T11:38:12Z</time>
      </trkpt>
      <trkpt lat="46.48232" lon="5.3656">
        <ele>247.8</ele>
        <time>2022-01-22T11:38:13Z</time>
      </trkpt>
      <trkpt lat="46.48238" lon="5.36553">
        <ele>247.8</ele>
        <time>2022-01-22T11:38:14Z</time>
      </trkpt>
      <trkpt lat="46.48266" lon="5.36521">
        <ele>247.2</ele>
        <time>2022-01-22T11:38:18Z</time>
      </trkpt>
      <trkpt lat="46.48277" lon="5.36509">
        <ele>246.8</ele>
        <time>2022-01-22T11:38:20Z</time>
      </trkpt>
      <trkpt lat="46.48306" lon="5.36476">
        <ele>246.2</ele>
        <time>2022-01-22T11:38:26Z</time>
      </trkpt>
      <trkpt lat="46.48319" lon="5.36461">
        <ele>245.8</ele>
        <time>2022-01-22T11:38:28Z</time>
      </trkpt>
      <trkpt lat="46.4836" lon="5.36416">
        <ele>244.4</ele>
        <time>2022-01-22T11:38:34Z</time>
      </trkpt>
      <trkpt lat="46.4836" lon="5.36416">
        <ele>244.2</ele>
        <time>2022-01-22T11:38:35Z</time>
      </trkpt>
      <trkpt lat="46.48379" lon="5.36395">
        <ele>243</ele>
        <time>2022-01-22T11:38:38Z</time>
      </trkpt>
      <trkpt lat="46.48416" lon="5.36361">
        <ele>242</ele>
        <time>2022-01-22T11:38:43Z</time>
      </trkpt>
      <trkpt lat="46.48422" lon="5.36358">
        <ele>242</ele>
        <time>2022-01-22T11:38:44Z</time>
      </trkpt>
      <trkpt lat="46.4845" lon="5.36349">
        <ele>241.2</ele>
        <time>2022-01-22T11:38:48Z</time>
      </trkpt>
      <trkpt lat="46.48462" lon="5.36347">
        <ele>240.8</ele>
        <time>2022-01-22T11:38:50Z</time>
      </trkpt>
      <trkpt lat="46.48508" lon="5.3634">
        <ele>240.6</ele>
        <time>2022-01-22T11:38:57Z</time>
      </trkpt>
      <trkpt lat="46.48533" lon="5.36336">
        <ele>240.8</ele>
        <time>2022-01-22T11:39:01Z</time>
      </trkpt>
      <trkpt lat="46.48571" lon="5.36329">
        <ele>240.6</ele>
        <time>2022-01-22T11:39:07Z</time>
      </trkpt>
      <trkpt lat="46.48603" lon="5.36324">
        <ele>239.8</ele>
        <time>2022-01-22T11:39:12Z</time>
      </trkpt>
      <trkpt lat="46.48624" lon="5.36315">
        <ele>239.2</ele>
        <time>2022-01-22T11:39:15Z</time>
      </trkpt>
      <trkpt lat="46.48633" lon="5.36298">
        <ele>238.8</ele>
        <time>2022-01-22T11:39:17Z</time>
      </trkpt>
      <trkpt lat="46.4864" lon="5.36263">
        <ele>237.6</ele>
        <time>2022-01-22T11:39:20Z</time>
      </trkpt>
      <trkpt lat="46.48641" lon="5.36251">
        <ele>237</ele>
        <time>2022-01-22T11:39:21Z</time>
      </trkpt>
      <trkpt lat="46.48641" lon="5.36251">
        <ele>236.6</ele>
        <time>2022-01-22T11:39:22Z</time>
      </trkpt>
      <trkpt lat="46.48645" lon="5.36203">
        <ele>235.6</ele>
        <time>2022-01-22T11:39:25Z</time>
      </trkpt>
      <trkpt lat="46.48648" lon="5.36167">
        <ele>234.4</ele>
        <time>2022-01-22T11:39:28Z</time>
      </trkpt>
      <trkpt lat="46.4865" lon="5.36144">
        <ele>233.8</ele>
        <time>2022-01-22T11:39:31Z</time>
      </trkpt>
      <trkpt lat="46.48664" lon="5.36077">
        <ele>233.6</ele>
        <time>2022-01-22T11:39:36Z</time>
      </trkpt>
      <trkpt lat="46.48667" lon="5.36067">
        <ele>233.4</ele>
        <time>2022-01-22T11:39:37Z</time>
      </trkpt>
      <trkpt lat="46.48676" lon="5.36023">
        <ele>233.4</ele>
        <time>2022-01-22T11:39:42Z</time>
      </trkpt>
      <trkpt lat="46.48678" lon="5.36015">
        <ele>233.4</ele>
        <time>2022-01-22T11:39:43Z</time>
      </trkpt>
      <trkpt lat="46.4868" lon="5.36">
        <ele>233.4</ele>
        <time>2022-01-22T11:39:45Z</time>
      </trkpt>
      <trkpt lat="46.48682" lon="5.35992">
        <ele>233.4</ele>
        <time>2022-01-22T11:39:46Z</time>
      </trkpt>
      <trkpt lat="46.48686" lon="5.35976">
        <ele>233.8</ele>
        <time>2022-01-22T11:39:49Z</time>
      </trkpt>
      <trkpt lat="46.48691" lon="5.35938">
        <ele>234.4</ele>
        <time>2022-01-22T11:39:52Z</time>
      </trkpt>
      <trkpt lat="46.48693" lon="5.35926">
        <ele>234.6</ele>
        <time>2022-01-22T11:39:53Z</time>
      </trkpt>
      <trkpt lat="46.48699" lon="5.35906">
        <ele>234.8</ele>
        <time>2022-01-22T11:39:55Z</time>
      </trkpt>
      <trkpt lat="46.48702" lon="5.35897">
        <ele>234.8</ele>
        <time>2022-01-22T11:39:56Z</time>
      </trkpt>
      <trkpt lat="46.48732" lon="5.35821">
        <ele>234.2</ele>
        <time>2022-01-22T11:40:04Z</time>
      </trkpt>
      <trkpt lat="46.48744" lon="5.35794">
        <ele>233.6</ele>
        <time>2022-01-22T11:40:07Z</time>
      </trkpt>
      <trkpt lat="46.48759" lon="5.3576">
        <ele>233</ele>
        <time>2022-01-22T11:40:11Z</time>
      </trkpt>
      <trkpt lat="46.48769" lon="5.35735">
        <ele>232.4</ele>
        <time>2022-01-22T11:40:14Z</time>
      </trkpt>
      <trkpt lat="46.48783" lon="5.35703">
        <ele>231.8</ele>
        <time>2022-01-22T11:40:18Z</time>
      </trkpt>
      <trkpt lat="46.48807" lon="5.35649">
        <ele>231.4</ele>
        <time>2022-01-22T11:40:26Z</time>
      </trkpt>
      <trkpt lat="46.48813" lon="5.35633">
        <ele>231.4</ele>
        <time>2022-01-22T11:40:27Z</time>
      </trkpt>
      <trkpt lat="46.48837" lon="5.3558">
        <ele>231.4</ele>
        <time>2022-01-22T11:40:34Z</time>
      </trkpt>
      <trkpt lat="46.48847" lon="5.35568">
        <ele>231.4</ele>
        <time>2022-01-22T11:40:36Z</time>
      </trkpt>
      <trkpt lat="46.48859" lon="5.35562">
        <ele>231.4</ele>
        <time>2022-01-22T11:40:38Z</time>
      </trkpt>
      <trkpt lat="46.48865" lon="5.35561">
        <ele>231.4</ele>
        <time>2022-01-22T11:40:39Z</time>
      </trkpt>
      <trkpt lat="46.48908" lon="5.3556">
        <ele>231.2</ele>
        <time>2022-01-22T11:40:45Z</time>
      </trkpt>
      <trkpt lat="46.48953" lon="5.35557">
        <ele>230.4</ele>
        <time>2022-01-22T11:40:51Z</time>
      </trkpt>
      <trkpt lat="46.4896" lon="5.35557">
        <ele>230.2</ele>
        <time>2022-01-22T11:40:52Z</time>
      </trkpt>
      <trkpt lat="46.48998" lon="5.35556">
        <ele>229.2</ele>
        <time>2022-01-22T11:40:57Z</time>
      </trkpt>
      <trkpt lat="46.49019" lon="5.35554">
        <ele>229</ele>
        <time>2022-01-22T11:41:00Z</time>
      </trkpt>
      <trkpt lat="46.49026" lon="5.35553">
        <ele>229</ele>
        <time>2022-01-22T11:41:01Z</time>
      </trkpt>
      <trkpt lat="46.49065" lon="5.35551">
        <ele>229</ele>
        <time>2022-01-22T11:41:07Z</time>
      </trkpt>
      <trkpt lat="46.49101" lon="5.3555">
        <ele>229.2</ele>
        <time>2022-01-22T11:41:13Z</time>
      </trkpt>
      <trkpt lat="46.49107" lon="5.3555">
        <ele>229.2</ele>
        <time>2022-01-22T11:41:14Z</time>
      </trkpt>
      <trkpt lat="46.49141" lon="5.35547">
        <ele>230</ele>
        <time>2022-01-22T11:41:21Z</time>
      </trkpt>
      <trkpt lat="46.49157" lon="5.35545">
        <ele>230.2</ele>
        <time>2022-01-22T11:41:24Z</time>
      </trkpt>
      <trkpt lat="46.49177" lon="5.35543">
        <ele>230.8</ele>
        <time>2022-01-22T11:41:28Z</time>
      </trkpt>
      <trkpt lat="46.49188" lon="5.35544">
        <ele>231.2</ele>
        <time>2022-01-22T11:41:30Z</time>
      </trkpt>
      <trkpt lat="46.49192" lon="5.35544">
        <ele>231.4</ele>
        <time>2022-01-22T11:41:31Z</time>
      </trkpt>
      <trkpt lat="46.49202" lon="5.35542">
        <ele>231.6</ele>
        <time>2022-01-22T11:41:33Z</time>
      </trkpt>
      <trkpt lat="46.49215" lon="5.35542">
        <ele>232</ele>
        <time>2022-01-22T11:41:35Z</time>
      </trkpt>
      <trkpt lat="46.49227" lon="5.35542">
        <ele>232.4</ele>
        <time>2022-01-22T11:41:37Z</time>
      </trkpt>
      <trkpt lat="46.49277" lon="5.35538">
        <ele>233</ele>
        <time>2022-01-22T11:41:45Z</time>
      </trkpt>
      <trkpt lat="46.49283" lon="5.35537">
        <ele>233.2</ele>
        <time>2022-01-22T11:41:46Z</time>
      </trkpt>
      <trkpt lat="46.4929" lon="5.35537">
        <ele>233.2</ele>
        <time>2022-01-22T11:41:47Z</time>
      </trkpt>
      <trkpt lat="46.49309" lon="5.35538">
        <ele>233.2</ele>
        <time>2022-01-22T11:41:50Z</time>
      </trkpt>
      <trkpt lat="46.49345" lon="5.35536">
        <ele>233.2</ele>
        <time>2022-01-22T11:41:56Z</time>
      </trkpt>
      <trkpt lat="46.49385" lon="5.35535">
        <ele>232.4</ele>
        <time>2022-01-22T11:42:02Z</time>
      </trkpt>
      <trkpt lat="46.49399" lon="5.35538">
        <ele>232.2</ele>
        <time>2022-01-22T11:42:04Z</time>
      </trkpt>
      <trkpt lat="46.49406" lon="5.3554">
        <ele>232</ele>
        <time>2022-01-22T11:42:05Z</time>
      </trkpt>
      <trkpt lat="46.49449" lon="5.35558">
        <ele>231.8</ele>
        <time>2022-01-22T11:42:12Z</time>
      </trkpt>
      <trkpt lat="46.49467" lon="5.35565">
        <ele>231.6</ele>
        <time>2022-01-22T11:42:15Z</time>
      </trkpt>
      <trkpt lat="46.49495" lon="5.35576">
        <ele>231.4</ele>
        <time>2022-01-22T11:42:20Z</time>
      </trkpt>
      <trkpt lat="46.49552" lon="5.356">
        <ele>231.2</ele>
        <time>2022-01-22T11:42:30Z</time>
      </trkpt>
      <trkpt lat="46.49563" lon="5.35604">
        <ele>231</ele>
        <time>2022-01-22T11:42:32Z</time>
      </trkpt>
      <trkpt lat="46.49591" lon="5.35614">
        <ele>230.2</ele>
        <time>2022-01-22T11:42:37Z</time>
      </trkpt>
      <trkpt lat="46.49632" lon="5.35627">
        <ele>229.4</ele>
        <time>2022-01-22T11:42:44Z</time>
      </trkpt>
      <trkpt lat="46.49638" lon="5.35629">
        <ele>229.2</ele>
        <time>2022-01-22T11:42:45Z</time>
      </trkpt>
      <trkpt lat="46.49667" lon="5.35638">
        <ele>227.8</ele>
        <time>2022-01-22T11:42:50Z</time>
      </trkpt>
      <trkpt lat="46.49674" lon="5.35641">
        <ele>227.4</ele>
        <time>2022-01-22T11:42:51Z</time>
      </trkpt>
      <trkpt lat="46.49684" lon="5.35644">
        <ele>226.8</ele>
        <time>2022-01-22T11:42:53Z</time>
      </trkpt>
      <trkpt lat="46.49693" lon="5.35648">
        <ele>226.4</ele>
        <time>2022-01-22T11:42:55Z</time>
      </trkpt>
      <trkpt lat="46.49697" lon="5.35648">
        <ele>226</ele>
        <time>2022-01-22T11:42:56Z</time>
      </trkpt>
      <trkpt lat="46.49703" lon="5.35643">
        <ele>225.6</ele>
        <time>2022-01-22T11:42:58Z</time>
      </trkpt>
      <trkpt lat="46.49706" lon="5.35633">
        <ele>225.4</ele>
        <time>2022-01-22T11:43:00Z</time>
      </trkpt>
      <trkpt lat="46.49711" lon="5.35608">
        <ele>224.4</ele>
        <time>2022-01-22T11:43:03Z</time>
      </trkpt>
      <trkpt lat="46.49713" lon="5.35591">
        <ele>224.2</ele>
        <time>2022-01-22T11:43:05Z</time>
      </trkpt>
      <trkpt lat="46.49722" lon="5.35515">
        <ele>224</ele>
        <time>2022-01-22T11:43:13Z</time>
      </trkpt>
      <trkpt lat="46.49733" lon="5.35434">
        <ele>223.8</ele>
        <time>2022-01-22T11:43:21Z</time>
      </trkpt>
      <trkpt lat="46.49736" lon="5.35405">
        <ele>223.4</ele>
        <time>2022-01-22T11:43:24Z</time>
      </trkpt>
      <trkpt lat="46.49738" lon="5.35329">
        <ele>222.4</ele>
        <time>2022-01-22T11:43:31Z</time>
      </trkpt>
      <trkpt lat="46.49731" lon="5.35284">
        <ele>222</ele>
        <time>2022-01-22T11:43:36Z</time>
      </trkpt>
      <trkpt lat="46.49718" lon="5.35227">
        <ele>222.4</ele>
        <time>2022-01-22T11:43:43Z</time>
      </trkpt>
      <trkpt lat="46.49703" lon="5.35149">
        <ele>223</ele>
        <time>2022-01-22T11:43:52Z</time>
      </trkpt>
      <trkpt lat="46.49686" lon="5.3507">
        <ele>223</ele>
        <time>2022-01-22T11:44:00Z</time>
      </trkpt>
      <trkpt lat="46.49675" lon="5.35013">
        <ele>222.8</ele>
        <time>2022-01-22T11:44:07Z</time>
      </trkpt>
      <trkpt lat="46.49663" lon="5.34957">
        <ele>223</ele>
        <time>2022-01-22T11:44:14Z</time>
      </trkpt>
      <trkpt lat="46.49661" lon="5.34949">
        <ele>223.2</ele>
        <time>2022-01-22T11:44:15Z</time>
      </trkpt>
      <trkpt lat="46.49652" lon="5.34901">
        <ele>224</ele>
        <time>2022-01-22T11:44:21Z</time>
      </trkpt>
      <trkpt lat="46.4965" lon="5.34892">
        <ele>224.2</ele>
        <time>2022-01-22T11:44:22Z</time>
      </trkpt>
      <trkpt lat="46.49639" lon="5.34831">
        <ele>225.2</ele>
        <time>2022-01-22T11:44:29Z</time>
      </trkpt>
      <trkpt lat="46.49636" lon="5.34815">
        <ele>225.2</ele>
        <time>2022-01-22T11:44:31Z</time>
      </trkpt>
      <trkpt lat="46.49632" lon="5.34773">
        <ele>224.6</ele>
        <time>2022-01-22T11:44:35Z</time>
      </trkpt>
      <trkpt lat="46.4963" lon="5.34749">
        <ele>224.2</ele>
        <time>2022-01-22T11:44:37Z</time>
      </trkpt>
      <trkpt lat="46.49632" lon="5.34713">
        <ele>223.4</ele>
        <time>2022-01-22T11:44:40Z</time>
      </trkpt>
      <trkpt lat="46.49633" lon="5.34701">
        <ele>223.2</ele>
        <time>2022-01-22T11:44:41Z</time>
      </trkpt>
      <trkpt lat="46.49639" lon="5.34636">
        <ele>221.8</ele>
        <time>2022-01-22T11:44:46Z</time>
      </trkpt>
      <trkpt lat="46.49646" lon="5.3458">
        <ele>220.4</ele>
        <time>2022-01-22T11:44:50Z</time>
      </trkpt>
      <trkpt lat="46.49653" lon="5.34543">
        <ele>219.2</ele>
        <time>2022-01-22T11:44:53Z</time>
      </trkpt>
      <trkpt lat="46.49654" lon="5.34534">
        <ele>219</ele>
        <time>2022-01-22T11:44:54Z</time>
      </trkpt>
      <trkpt lat="46.49666" lon="5.34491">
        <ele>218.2</ele>
        <time>2022-01-22T11:44:58Z</time>
      </trkpt>
      <trkpt lat="46.49668" lon="5.34483">
        <ele>218</ele>
        <time>2022-01-22T11:44:59Z</time>
      </trkpt>
      <trkpt lat="46.49685" lon="5.34424">
        <ele>218.4</ele>
        <time>2022-01-22T11:45:06Z</time>
      </trkpt>
      <trkpt lat="46.49693" lon="5.34395">
        <ele>219.2</ele>
        <time>2022-01-22T11:45:10Z</time>
      </trkpt>
      <trkpt lat="46.49695" lon="5.34388">
        <ele>219.2</ele>
        <time>2022-01-22T11:45:11Z</time>
      </trkpt>
      <trkpt lat="46.49702" lon="5.34361">
        <ele>219.8</ele>
        <time>2022-01-22T11:45:15Z</time>
      </trkpt>
      <trkpt lat="46.49707" lon="5.34348">
        <ele>220</ele>
        <time>2022-01-22T11:45:17Z</time>
      </trkpt>
      <trkpt lat="46.49709" lon="5.34341">
        <ele>220.4</ele>
        <time>2022-01-22T11:45:18Z</time>
      </trkpt>
      <trkpt lat="46.49717" lon="5.34321">
        <ele>221</ele>
        <time>2022-01-22T11:45:21Z</time>
      </trkpt>
      <trkpt lat="46.4972" lon="5.34313">
        <ele>221.2</ele>
        <time>2022-01-22T11:45:22Z</time>
      </trkpt>
      <trkpt lat="46.49724" lon="5.34306">
        <ele>221.4</ele>
        <time>2022-01-22T11:45:23Z</time>
      </trkpt>
      <trkpt lat="46.49734" lon="5.34285">
        <ele>221.4</ele>
        <time>2022-01-22T11:45:26Z</time>
      </trkpt>
      <trkpt lat="46.49771" lon="5.3422">
        <ele>222</ele>
        <time>2022-01-22T11:45:35Z</time>
      </trkpt>
      <trkpt lat="46.49779" lon="5.34205">
        <ele>222</ele>
        <time>2022-01-22T11:45:37Z</time>
      </trkpt>
      <trkpt lat="46.4979" lon="5.34187">
        <ele>222.2</ele>
        <time>2022-01-22T11:45:40Z</time>
      </trkpt>
      <trkpt lat="46.49807" lon="5.34162">
        <ele>222.4</ele>
        <time>2022-01-22T11:45:44Z</time>
      </trkpt>
      <trkpt lat="46.49831" lon="5.34119">
        <ele>223.2</ele>
        <time>2022-01-22T11:45:51Z</time>
      </trkpt>
      <trkpt lat="46.49835" lon="5.34112">
        <ele>223.2</ele>
        <time>2022-01-22T11:45:52Z</time>
      </trkpt>
      <trkpt lat="46.49865" lon="5.34067">
        <ele>223.6</ele>
        <time>2022-01-22T11:45:59Z</time>
      </trkpt>
      <trkpt lat="46.49909" lon="5.34016">
        <ele>223</ele>
        <time>2022-01-22T11:46:08Z</time>
      </trkpt>
      <trkpt lat="46.49934" lon="5.33988">
        <ele>223</ele>
        <time>2022-01-22T11:46:14Z</time>
      </trkpt>
      <trkpt lat="46.49957" lon="5.33962">
        <ele>223.6</ele>
        <time>2022-01-22T11:46:20Z</time>
      </trkpt>
      <trkpt lat="46.49973" lon="5.33946">
        <ele>224.2</ele>
        <time>2022-01-22T11:46:24Z</time>
      </trkpt>
      <trkpt lat="46.49977" lon="5.33943">
        <ele>224.2</ele>
        <time>2022-01-22T11:46:25Z</time>
      </trkpt>
      <trkpt lat="46.49981" lon="5.33939">
        <ele>224.4</ele>
        <time>2022-01-22T11:46:26Z</time>
      </trkpt>
      <trkpt lat="46.50005" lon="5.33911">
        <ele>225.2</ele>
        <time>2022-01-22T11:46:31Z</time>
      </trkpt>
      <trkpt lat="46.50015" lon="5.33899">
        <ele>225.2</ele>
        <time>2022-01-22T11:46:33Z</time>
      </trkpt>
      <trkpt lat="46.50045" lon="5.33868">
        <ele>225.4</ele>
        <time>2022-01-22T11:46:38Z</time>
      </trkpt>
      <trkpt lat="46.50091" lon="5.33815">
        <ele>224.4</ele>
        <time>2022-01-22T11:46:46Z</time>
      </trkpt>
      <trkpt lat="46.50097" lon="5.33809">
        <ele>224.4</ele>
        <time>2022-01-22T11:46:47Z</time>
      </trkpt>
      <trkpt lat="46.50104" lon="5.33801">
        <ele>224</ele>
        <time>2022-01-22T11:46:48Z</time>
      </trkpt>
      <trkpt lat="46.5014" lon="5.33763">
        <ele>223.2</ele>
        <time>2022-01-22T11:46:54Z</time>
      </trkpt>
      <trkpt lat="46.50172" lon="5.33729">
        <ele>222.6</ele>
        <time>2022-01-22T11:47:00Z</time>
      </trkpt>
      <trkpt lat="46.50193" lon="5.33707">
        <ele>222.6</ele>
        <time>2022-01-22T11:47:04Z</time>
      </trkpt>
      <trkpt lat="46.50203" lon="5.33696">
        <ele>222.6</ele>
        <time>2022-01-22T11:47:06Z</time>
      </trkpt>
      <trkpt lat="46.50228" lon="5.3367">
        <ele>222.4</ele>
        <time>2022-01-22T11:47:11Z</time>
      </trkpt>
      <trkpt lat="46.50277" lon="5.33617">
        <ele>222.4</ele>
        <time>2022-01-22T11:47:20Z</time>
      </trkpt>
      <trkpt lat="46.50282" lon="5.33611">
        <ele>222.4</ele>
        <time>2022-01-22T11:47:21Z</time>
      </trkpt>
      <trkpt lat="46.50326" lon="5.33563">
        <ele>221.8</ele>
        <time>2022-01-22T11:47:29Z</time>
      </trkpt>
      <trkpt lat="46.50332" lon="5.33557">
        <ele>221.6</ele>
        <time>2022-01-22T11:47:30Z</time>
      </trkpt>
      <trkpt lat="46.50377" lon="5.33508">
        <ele>221.2</ele>
        <time>2022-01-22T11:47:38Z</time>
      </trkpt>
      <trkpt lat="46.50394" lon="5.33491">
        <ele>221</ele>
        <time>2022-01-22T11:47:41Z</time>
      </trkpt>
      <trkpt lat="46.50429" lon="5.33453">
        <ele>220.6</ele>
        <time>2022-01-22T11:47:47Z</time>
      </trkpt>
      <trkpt lat="46.5044" lon="5.33439">
        <ele>220.2</ele>
        <time>2022-01-22T11:47:49Z</time>
      </trkpt>
      <trkpt lat="46.50445" lon="5.33432">
        <ele>220</ele>
        <time>2022-01-22T11:47:50Z</time>
      </trkpt>
      <trkpt lat="46.50449" lon="5.33424">
        <ele>219.8</ele>
        <time>2022-01-22T11:47:51Z</time>
      </trkpt>
      <trkpt lat="46.50461" lon="5.33396">
        <ele>219.4</ele>
        <time>2022-01-22T11:47:54Z</time>
      </trkpt>
      <trkpt lat="46.50464" lon="5.33386">
        <ele>219.2</ele>
        <time>2022-01-22T11:47:55Z</time>
      </trkpt>
      <trkpt lat="46.50469" lon="5.33345">
        <ele>218.6</ele>
        <time>2022-01-22T11:47:59Z</time>
      </trkpt>
      <trkpt lat="46.50471" lon="5.33278">
        <ele>218.2</ele>
        <time>2022-01-22T11:48:06Z</time>
      </trkpt>
      <trkpt lat="46.50473" lon="5.33223">
        <ele>218.4</ele>
        <time>2022-01-22T11:48:12Z</time>
      </trkpt>
      <trkpt lat="46.50473" lon="5.33167">
        <ele>218.8</ele>
        <time>2022-01-22T11:48:18Z</time>
      </trkpt>
      <trkpt lat="46.50476" lon="5.33091">
        <ele>218.4</ele>
        <time>2022-01-22T11:48:25Z</time>
      </trkpt>
      <trkpt lat="46.50477" lon="5.33079">
        <ele>218</ele>
        <time>2022-01-22T11:48:26Z</time>
      </trkpt>
      <trkpt lat="46.50479" lon="5.33042">
        <ele>216.8</ele>
        <time>2022-01-22T11:48:29Z</time>
      </trkpt>
      <trkpt lat="46.50479" lon="5.32999">
        <ele>215.6</ele>
        <time>2022-01-22T11:48:32Z</time>
      </trkpt>
      <trkpt lat="46.50479" lon="5.32954">
        <ele>214.2</ele>
        <time>2022-01-22T11:48:35Z</time>
      </trkpt>
      <trkpt lat="46.50479" lon="5.32939">
        <ele>214</ele>
        <time>2022-01-22T11:48:36Z</time>
      </trkpt>
      <trkpt lat="46.5048" lon="5.3291">
        <ele>212.4</ele>
        <time>2022-01-22T11:48:38Z</time>
      </trkpt>
      <trkpt lat="46.50482" lon="5.32864">
        <ele>211.4</ele>
        <time>2022-01-22T11:48:41Z</time>
      </trkpt>
      <trkpt lat="46.50482" lon="5.32837">
        <ele>210.8</ele>
        <time>2022-01-22T11:48:43Z</time>
      </trkpt>
      <trkpt lat="46.50482" lon="5.32822">
        <ele>210</ele>
        <time>2022-01-22T11:48:44Z</time>
      </trkpt>
      <trkpt lat="46.50482" lon="5.32804">
        <ele>209</ele>
        <time>2022-01-22T11:48:45Z</time>
      </trkpt>
      <trkpt lat="46.50483" lon="5.32779">
        <ele>207.4</ele>
        <time>2022-01-22T11:48:47Z</time>
      </trkpt>
      <trkpt lat="46.50483" lon="5.32726">
        <ele>206.2</ele>
        <time>2022-01-22T11:48:51Z</time>
      </trkpt>
      <trkpt lat="46.50485" lon="5.32638">
        <ele>205.4</ele>
        <time>2022-01-22T11:48:58Z</time>
      </trkpt>
      <trkpt lat="46.50485" lon="5.32626">
        <ele>205.4</ele>
        <time>2022-01-22T11:48:59Z</time>
      </trkpt>
      <trkpt lat="46.50485" lon="5.32613">
        <ele>205.2</ele>
        <time>2022-01-22T11:49:00Z</time>
      </trkpt>
      <trkpt lat="46.50481" lon="5.32529">
        <ele>204.4</ele>
        <time>2022-01-22T11:49:07Z</time>
      </trkpt>
      <trkpt lat="46.5048" lon="5.32506">
        <ele>204</ele>
        <time>2022-01-22T11:49:09Z</time>
      </trkpt>
      <trkpt lat="46.50472" lon="5.32437">
        <ele>203.2</ele>
        <time>2022-01-22T11:49:15Z</time>
      </trkpt>
      <trkpt lat="46.50468" lon="5.32415">
        <ele>203</ele>
        <time>2022-01-22T11:49:17Z</time>
      </trkpt>
      <trkpt lat="46.50456" lon="5.32362">
        <ele>202.4</ele>
        <time>2022-01-22T11:49:22Z</time>
      </trkpt>
      <trkpt lat="46.50446" lon="5.32319">
        <ele>202</ele>
        <time>2022-01-22T11:49:26Z</time>
      </trkpt>
      <trkpt lat="46.50439" lon="5.32281">
        <ele>201.6</ele>
        <time>2022-01-22T11:49:30Z</time>
      </trkpt>
      <trkpt lat="46.50435" lon="5.32228">
        <ele>201.4</ele>
        <time>2022-01-22T11:49:35Z</time>
      </trkpt>
      <trkpt lat="46.50434" lon="5.32218">
        <ele>201.4</ele>
        <time>2022-01-22T11:49:36Z</time>
      </trkpt>
      <trkpt lat="46.50435" lon="5.32211">
        <ele>201.6</ele>
        <time>2022-01-22T11:49:37Z</time>
      </trkpt>
      <trkpt lat="46.50443" lon="5.32195">
        <ele>201.6</ele>
        <time>2022-01-22T11:49:39Z</time>
      </trkpt>
      <trkpt lat="46.50454" lon="5.32185">
        <ele>201.6</ele>
        <time>2022-01-22T11:49:41Z</time>
      </trkpt>
      <trkpt lat="46.50459" lon="5.32179">
        <ele>201.6</ele>
        <time>2022-01-22T11:49:42Z</time>
      </trkpt>
      <trkpt lat="46.50464" lon="5.32172">
        <ele>201.4</ele>
        <time>2022-01-22T11:49:43Z</time>
      </trkpt>
      <trkpt lat="46.5047" lon="5.32156">
        <ele>201.6</ele>
        <time>2022-01-22T11:49:45Z</time>
      </trkpt>
      <trkpt lat="46.50472" lon="5.32147">
        <ele>201.6</ele>
        <time>2022-01-22T11:49:46Z</time>
      </trkpt>
      <trkpt lat="46.50492" lon="5.32089">
        <ele>201.8</ele>
        <time>2022-01-22T11:49:53Z</time>
      </trkpt>
      <trkpt lat="46.50524" lon="5.32032">
        <ele>202.2</ele>
        <time>2022-01-22T11:50:01Z</time>
      </trkpt>
      <trkpt lat="46.50543" lon="5.32005">
        <ele>202.4</ele>
        <time>2022-01-22T11:50:06Z</time>
      </trkpt>
      <trkpt lat="46.50546" lon="5.32001">
        <ele>202.4</ele>
        <time>2022-01-22T11:50:07Z</time>
      </trkpt>
      <trkpt lat="46.50553" lon="5.3199">
        <ele>202.4</ele>
        <time>2022-01-22T11:50:09Z</time>
      </trkpt>
      <trkpt lat="46.50561" lon="5.31971">
        <ele>202.4</ele>
        <time>2022-01-22T11:50:12Z</time>
      </trkpt>
      <trkpt lat="46.50567" lon="5.31954">
        <ele>202.8</ele>
        <time>2022-01-22T11:50:15Z</time>
      </trkpt>
      <trkpt lat="46.50569" lon="5.31948">
        <ele>203.2</ele>
        <time>2022-01-22T11:50:16Z</time>
      </trkpt>
      <trkpt lat="46.50574" lon="5.31932">
        <ele>203.6</ele>
        <time>2022-01-22T11:50:19Z</time>
      </trkpt>
      <trkpt lat="46.50578" lon="5.3192">
        <ele>204.2</ele>
        <time>2022-01-22T11:50:21Z</time>
      </trkpt>
      <trkpt lat="46.50586" lon="5.319">
        <ele>205.8</ele>
        <time>2022-01-22T11:50:25Z</time>
      </trkpt>
      <trkpt lat="46.50588" lon="5.31895">
        <ele>206</ele>
        <time>2022-01-22T11:50:26Z</time>
      </trkpt>
      <trkpt lat="46.50596" lon="5.31877">
        <ele>206.8</ele>
        <time>2022-01-22T11:50:30Z</time>
      </trkpt>
      <trkpt lat="46.50599" lon="5.31868">
        <ele>207.2</ele>
        <time>2022-01-22T11:50:32Z</time>
      </trkpt>
      <trkpt lat="46.50605" lon="5.31848">
        <ele>207.8</ele>
        <time>2022-01-22T11:50:36Z</time>
      </trkpt>
      <trkpt lat="46.50613" lon="5.31826">
        <ele>208.6</ele>
        <time>2022-01-22T11:50:40Z</time>
      </trkpt>
      <trkpt lat="46.50616" lon="5.31815">
        <ele>209</ele>
        <time>2022-01-22T11:50:42Z</time>
      </trkpt>
      <trkpt lat="46.50625" lon="5.3179">
        <ele>210</ele>
        <time>2022-01-22T11:50:46Z</time>
      </trkpt>
      <trkpt lat="46.50629" lon="5.31779">
        <ele>210.6</ele>
        <time>2022-01-22T11:50:48Z</time>
      </trkpt>
      <trkpt lat="46.50635" lon="5.31765">
        <ele>210.8</ele>
        <time>2022-01-22T11:50:50Z</time>
      </trkpt>
      <trkpt lat="46.50646" lon="5.3174">
        <ele>210.8</ele>
        <time>2022-01-22T11:50:54Z</time>
      </trkpt>
      <trkpt lat="46.5065" lon="5.31734">
        <ele>210.8</ele>
        <time>2022-01-22T11:50:55Z</time>
      </trkpt>
      <trkpt lat="46.50658" lon="5.31725">
        <ele>211</ele>
        <time>2022-01-22T11:50:57Z</time>
      </trkpt>
      <trkpt lat="46.50668" lon="5.31718">
        <ele>211</ele>
        <time>2022-01-22T11:50:59Z</time>
      </trkpt>
      <trkpt lat="46.507" lon="5.31712">
        <ele>211</ele>
        <time>2022-01-22T11:51:05Z</time>
      </trkpt>
      <trkpt lat="46.50706" lon="5.31712">
        <ele>211</ele>
        <time>2022-01-22T11:51:06Z</time>
      </trkpt>
      <trkpt lat="46.50734" lon="5.31708">
        <ele>211.2</ele>
        <time>2022-01-22T11:51:11Z</time>
      </trkpt>
      <trkpt lat="46.50769" lon="5.31707">
        <ele>211.4</ele>
        <time>2022-01-22T11:51:17Z</time>
      </trkpt>
      <trkpt lat="46.5078" lon="5.31711">
        <ele>211.6</ele>
        <time>2022-01-22T11:51:19Z</time>
      </trkpt>
      <trkpt lat="46.50814" lon="5.31737">
        <ele>211.6</ele>
        <time>2022-01-22T11:51:26Z</time>
      </trkpt>
      <trkpt lat="46.50834" lon="5.31748">
        <ele>211.8</ele>
        <time>2022-01-22T11:51:30Z</time>
      </trkpt>
      <trkpt lat="46.50842" lon="5.31748">
        <ele>212</ele>
        <time>2022-01-22T11:51:32Z</time>
      </trkpt>
      <trkpt lat="46.50847" lon="5.31746">
        <ele>212</ele>
        <time>2022-01-22T11:51:33Z</time>
      </trkpt>
      <trkpt lat="46.50853" lon="5.31744">
        <ele>212.2</ele>
        <time>2022-01-22T11:51:34Z</time>
      </trkpt>
      <trkpt lat="46.50862" lon="5.31736">
        <ele>212.2</ele>
        <time>2022-01-22T11:51:36Z</time>
      </trkpt>
      <trkpt lat="46.50888" lon="5.31709">
        <ele>213.2</ele>
        <time>2022-01-22T11:51:42Z</time>
      </trkpt>
      <trkpt lat="46.50903" lon="5.31693">
        <ele>213.2</ele>
        <time>2022-01-22T11:51:45Z</time>
      </trkpt>
      <trkpt lat="46.50938" lon="5.31655">
        <ele>213</ele>
        <time>2022-01-22T11:51:52Z</time>
      </trkpt>
      <trkpt lat="46.50967" lon="5.31625">
        <ele>212</ele>
        <time>2022-01-22T11:51:57Z</time>
      </trkpt>
      <trkpt lat="46.50989" lon="5.31602">
        <ele>211.6</ele>
        <time>2022-01-22T11:52:01Z</time>
      </trkpt>
      <trkpt lat="46.51013" lon="5.31578">
        <ele>211.6</ele>
        <time>2022-01-22T11:52:06Z</time>
      </trkpt>
      <trkpt lat="46.51034" lon="5.31551">
        <ele>212.2</ele>
        <time>2022-01-22T11:52:11Z</time>
      </trkpt>
      <trkpt lat="46.51037" lon="5.31544">
        <ele>212.2</ele>
        <time>2022-01-22T11:52:12Z</time>
      </trkpt>
      <trkpt lat="46.5104" lon="5.31536">
        <ele>212.2</ele>
        <time>2022-01-22T11:52:13Z</time>
      </trkpt>
      <trkpt lat="46.51049" lon="5.31501">
        <ele>212.2</ele>
        <time>2022-01-22T11:52:17Z</time>
      </trkpt>
      <trkpt lat="46.51067" lon="5.31427">
        <ele>211.6</ele>
        <time>2022-01-22T11:52:24Z</time>
      </trkpt>
      <trkpt lat="46.51073" lon="5.31394">
        <ele>211</ele>
        <time>2022-01-22T11:52:27Z</time>
      </trkpt>
      <trkpt lat="46.51074" lon="5.31383">
        <ele>210.8</ele>
        <time>2022-01-22T11:52:28Z</time>
      </trkpt>
      <trkpt lat="46.51074" lon="5.31371">
        <ele>210.4</ele>
        <time>2022-01-22T11:52:29Z</time>
      </trkpt>
      <trkpt lat="46.51073" lon="5.31359">
        <ele>209.8</ele>
        <time>2022-01-22T11:52:30Z</time>
      </trkpt>
      <trkpt lat="46.51071" lon="5.31336">
        <ele>209.2</ele>
        <time>2022-01-22T11:52:32Z</time>
      </trkpt>
      <trkpt lat="46.51072" lon="5.31327">
        <ele>209</ele>
        <time>2022-01-22T11:52:33Z</time>
      </trkpt>
      <trkpt lat="46.51076" lon="5.31314">
        <ele>208.8</ele>
        <time>2022-01-22T11:52:34Z</time>
      </trkpt>
      <trkpt lat="46.5108" lon="5.31303">
        <ele>208.2</ele>
        <time>2022-01-22T11:52:35Z</time>
      </trkpt>
      <trkpt lat="46.51087" lon="5.31295">
        <ele>208.2</ele>
        <time>2022-01-22T11:52:36Z</time>
      </trkpt>
      <trkpt lat="46.51099" lon="5.31279">
        <ele>207.6</ele>
        <time>2022-01-22T11:52:38Z</time>
      </trkpt>
      <trkpt lat="46.51121" lon="5.31253">
        <ele>206.4</ele>
        <time>2022-01-22T11:52:41Z</time>
      </trkpt>
      <trkpt lat="46.51128" lon="5.31244">
        <ele>206.2</ele>
        <time>2022-01-22T11:52:42Z</time>
      </trkpt>
      <trkpt lat="46.5114" lon="5.31227">
        <ele>205.2</ele>
        <time>2022-01-22T11:52:44Z</time>
      </trkpt>
      <trkpt lat="46.51165" lon="5.31197">
        <ele>204</ele>
        <time>2022-01-22T11:52:48Z</time>
      </trkpt>
      <trkpt lat="46.51186" lon="5.31175">
        <ele>203.4</ele>
        <time>2022-01-22T11:52:51Z</time>
      </trkpt>
      <trkpt lat="46.51204" lon="5.31152">
        <ele>203</ele>
        <time>2022-01-22T11:52:54Z</time>
      </trkpt>
      <trkpt lat="46.51234" lon="5.31116">
        <ele>201.8</ele>
        <time>2022-01-22T11:52:59Z</time>
      </trkpt>
      <trkpt lat="46.5124" lon="5.31108">
        <ele>201.6</ele>
        <time>2022-01-22T11:53:00Z</time>
      </trkpt>
      <trkpt lat="46.51259" lon="5.3109">
        <ele>201.2</ele>
        <time>2022-01-22T11:53:03Z</time>
      </trkpt>
      <trkpt lat="46.51268" lon="5.31085">
        <ele>200.8</ele>
        <time>2022-01-22T11:53:04Z</time>
      </trkpt>
      <trkpt lat="46.51284" lon="5.31083">
        <ele>200.4</ele>
        <time>2022-01-22T11:53:06Z</time>
      </trkpt>
      <trkpt lat="46.51305" lon="5.31082">
        <ele>200</ele>
        <time>2022-01-22T11:53:09Z</time>
      </trkpt>
      <trkpt lat="46.51339" lon="5.31081">
        <ele>199.8</ele>
        <time>2022-01-22T11:53:14Z</time>
      </trkpt>
      <trkpt lat="46.51389" lon="5.31078">
        <ele>200.4</ele>
        <time>2022-01-22T11:53:22Z</time>
      </trkpt>
      <trkpt lat="46.51435" lon="5.31075">
        <ele>200.6</ele>
        <time>2022-01-22T11:53:30Z</time>
      </trkpt>
      <trkpt lat="46.51494" lon="5.31075">
        <ele>200</ele>
        <time>2022-01-22T11:53:40Z</time>
      </trkpt>
      <trkpt lat="46.5155" lon="5.31079">
        <ele>200</ele>
        <time>2022-01-22T11:53:50Z</time>
      </trkpt>
      <trkpt lat="46.51598" lon="5.31088">
        <ele>200.4</ele>
        <time>2022-01-22T11:53:59Z</time>
      </trkpt>
      <trkpt lat="46.51631" lon="5.31106">
        <ele>200.4</ele>
        <time>2022-01-22T11:54:06Z</time>
      </trkpt>
      <trkpt lat="46.5164" lon="5.31109">
        <ele>200.6</ele>
        <time>2022-01-22T11:54:08Z</time>
      </trkpt>
      <trkpt lat="46.51652" lon="5.31107">
        <ele>201</ele>
        <time>2022-01-22T11:54:11Z</time>
      </trkpt>
      <trkpt lat="46.51665" lon="5.31106">
        <ele>201.4</ele>
        <time>2022-01-22T11:54:14Z</time>
      </trkpt>
      <trkpt lat="46.51673" lon="5.31111">
        <ele>201.6</ele>
        <time>2022-01-22T11:54:16Z</time>
      </trkpt>
      <trkpt lat="46.51675" lon="5.31115">
        <ele>201.8</ele>
        <time>2022-01-22T11:54:17Z</time>
      </trkpt>
      <trkpt lat="46.51679" lon="5.31122">
        <ele>201.8</ele>
        <time>2022-01-22T11:54:18Z</time>
      </trkpt>
      <trkpt lat="46.51686" lon="5.31135">
        <ele>202</ele>
        <time>2022-01-22T11:54:20Z</time>
      </trkpt>
      <trkpt lat="46.51699" lon="5.31153">
        <ele>202</ele>
        <time>2022-01-22T11:54:23Z</time>
      </trkpt>
      <trkpt lat="46.51709" lon="5.31164">
        <ele>202</ele>
        <time>2022-01-22T11:54:25Z</time>
      </trkpt>
      <trkpt lat="46.51719" lon="5.31171">
        <ele>202</ele>
        <time>2022-01-22T11:54:27Z</time>
      </trkpt>
      <trkpt lat="46.51741" lon="5.3118">
        <ele>202</ele>
        <time>2022-01-22T11:54:30Z</time>
      </trkpt>
      <trkpt lat="46.51786" lon="5.31183">
        <ele>200.8</ele>
        <time>2022-01-22T11:54:36Z</time>
      </trkpt>
      <trkpt lat="46.51794" lon="5.31183">
        <ele>200.6</ele>
        <time>2022-01-22T11:54:37Z</time>
      </trkpt>
      <trkpt lat="46.5182" lon="5.31185">
        <ele>199.2</ele>
        <time>2022-01-22T11:54:40Z</time>
      </trkpt>
      <trkpt lat="46.51837" lon="5.3119">
        <ele>198.4</ele>
        <time>2022-01-22T11:54:42Z</time>
      </trkpt>
      <trkpt lat="46.51853" lon="5.31199">
        <ele>197.8</ele>
        <time>2022-01-22T11:54:44Z</time>
      </trkpt>
      <trkpt lat="46.51867" lon="5.31212">
        <ele>197</ele>
        <time>2022-01-22T11:54:46Z</time>
      </trkpt>
      <trkpt lat="46.51873" lon="5.31219">
        <ele>196.4</ele>
        <time>2022-01-22T11:54:47Z</time>
      </trkpt>
      <trkpt lat="46.51893" lon="5.31249">
        <ele>195.4</ele>
        <time>2022-01-22T11:54:51Z</time>
      </trkpt>
      <trkpt lat="46.51928" lon="5.31301">
        <ele>194.8</ele>
        <time>2022-01-22T11:54:58Z</time>
      </trkpt>
      <trkpt lat="46.51966" lon="5.31357">
        <ele>194.8</ele>
        <time>2022-01-22T11:55:06Z</time>
      </trkpt>
      <trkpt lat="46.51979" lon="5.31377">
        <ele>194.8</ele>
        <time>2022-01-22T11:55:09Z</time>
      </trkpt>
      <trkpt lat="46.52008" lon="5.3142">
        <ele>195.2</ele>
        <time>2022-01-22T11:55:16Z</time>
      </trkpt>
      <trkpt lat="46.5205" lon="5.31479">
        <ele>196.2</ele>
        <time>2022-01-22T11:55:26Z</time>
      </trkpt>
      <trkpt lat="46.52057" lon="5.3149">
        <ele>196.6</ele>
        <time>2022-01-22T11:55:28Z</time>
      </trkpt>
      <trkpt lat="46.5208" lon="5.31524">
        <ele>197</ele>
        <time>2022-01-22T11:55:34Z</time>
      </trkpt>
      <trkpt lat="46.52094" lon="5.31546">
        <ele>197.6</ele>
        <time>2022-01-22T11:55:38Z</time>
      </trkpt>
      <trkpt lat="46.52101" lon="5.31556">
        <ele>198</ele>
        <time>2022-01-22T11:55:40Z</time>
      </trkpt>
      <trkpt lat="46.52116" lon="5.31574">
        <ele>198.6</ele>
        <time>2022-01-22T11:55:44Z</time>
      </trkpt>
      <trkpt lat="46.5212" lon="5.31581">
        <ele>198.8</ele>
        <time>2022-01-22T11:55:45Z</time>
      </trkpt>
      <trkpt lat="46.52123" lon="5.31586">
        <ele>199</ele>
        <time>2022-01-22T11:55:46Z</time>
      </trkpt>
      <trkpt lat="46.52131" lon="5.31595">
        <ele>199.2</ele>
        <time>2022-01-22T11:55:48Z</time>
      </trkpt>
      <trkpt lat="46.52138" lon="5.31605">
        <ele>199.6</ele>
        <time>2022-01-22T11:55:50Z</time>
      </trkpt>
      <trkpt lat="46.52145" lon="5.31614">
        <ele>200</ele>
        <time>2022-01-22T11:55:52Z</time>
      </trkpt>
      <trkpt lat="46.52156" lon="5.3163">
        <ele>200.8</ele>
        <time>2022-01-22T11:55:55Z</time>
      </trkpt>
      <trkpt lat="46.52173" lon="5.31655">
        <ele>201.6</ele>
        <time>2022-01-22T11:56:00Z</time>
      </trkpt>
      <trkpt lat="46.52176" lon="5.3166">
        <ele>201.8</ele>
        <time>2022-01-22T11:56:01Z</time>
      </trkpt>
      <trkpt lat="46.52192" lon="5.31683">
        <ele>202.8</ele>
        <time>2022-01-22T11:56:06Z</time>
      </trkpt>
      <trkpt lat="46.52204" lon="5.31701">
        <ele>203.4</ele>
        <time>2022-01-22T11:56:10Z</time>
      </trkpt>
      <trkpt lat="46.52215" lon="5.31716">
        <ele>204</ele>
        <time>2022-01-22T11:56:13Z</time>
      </trkpt>
      <trkpt lat="46.52231" lon="5.31739">
        <ele>204.8</ele>
        <time>2022-01-22T11:56:18Z</time>
      </trkpt>
      <trkpt lat="46.52237" lon="5.31748">
        <ele>205</ele>
        <time>2022-01-22T11:56:20Z</time>
      </trkpt>
      <trkpt lat="46.52263" lon="5.31785">
        <ele>206</ele>
        <time>2022-01-22T11:56:28Z</time>
      </trkpt>
      <trkpt lat="46.52266" lon="5.31788">
        <ele>206.2</ele>
        <time>2022-01-22T11:56:29Z</time>
      </trkpt>
      <trkpt lat="46.52289" lon="5.31822">
        <ele>207.4</ele>
        <time>2022-01-22T11:56:36Z</time>
      </trkpt>
      <trkpt lat="46.52299" lon="5.31834">
        <ele>207.8</ele>
        <time>2022-01-22T11:56:39Z</time>
      </trkpt>
      <trkpt lat="46.52305" lon="5.31843">
        <ele>208</ele>
        <time>2022-01-22T11:56:41Z</time>
      </trkpt>
      <trkpt lat="46.52311" lon="5.31852">
        <ele>208.4</ele>
        <time>2022-01-22T11:56:43Z</time>
      </trkpt>
      <trkpt lat="46.5232" lon="5.31864">
        <ele>208.8</ele>
        <time>2022-01-22T11:56:46Z</time>
      </trkpt>
      <trkpt lat="46.52335" lon="5.31886">
        <ele>209.4</ele>
        <time>2022-01-22T11:56:51Z</time>
      </trkpt>
      <trkpt lat="46.52345" lon="5.319">
        <ele>210</ele>
        <time>2022-01-22T11:56:54Z</time>
      </trkpt>
      <trkpt lat="46.52351" lon="5.31909">
        <ele>210.2</ele>
        <time>2022-01-22T11:56:56Z</time>
      </trkpt>
      <trkpt lat="46.52361" lon="5.31923">
        <ele>210.6</ele>
        <time>2022-01-22T11:56:59Z</time>
      </trkpt>
      <trkpt lat="46.52369" lon="5.31934">
        <ele>210.8</ele>
        <time>2022-01-22T11:57:01Z</time>
      </trkpt>
      <trkpt lat="46.52394" lon="5.3197">
        <ele>210.8</ele>
        <time>2022-01-22T11:57:07Z</time>
      </trkpt>
      <trkpt lat="46.52427" lon="5.32018">
        <ele>209.6</ele>
        <time>2022-01-22T11:57:14Z</time>
      </trkpt>
      <trkpt lat="46.52431" lon="5.32025">
        <ele>209.2</ele>
        <time>2022-01-22T11:57:15Z</time>
      </trkpt>
      <trkpt lat="46.52463" lon="5.32069">
        <ele>208</ele>
        <time>2022-01-22T11:57:21Z</time>
      </trkpt>
      <trkpt lat="46.52468" lon="5.32076">
        <ele>207.8</ele>
        <time>2022-01-22T11:57:22Z</time>
      </trkpt>
      <trkpt lat="46.52478" lon="5.32092">
        <ele>207</ele>
        <time>2022-01-22T11:57:24Z</time>
      </trkpt>
      <trkpt lat="46.52499" lon="5.32121">
        <ele>206</ele>
        <time>2022-01-22T11:57:28Z</time>
      </trkpt>
      <trkpt lat="46.52514" lon="5.32142">
        <ele>205.4</ele>
        <time>2022-01-22T11:57:31Z</time>
      </trkpt>
      <trkpt lat="46.52524" lon="5.32156">
        <ele>204.8</ele>
        <time>2022-01-22T11:57:33Z</time>
      </trkpt>
      <trkpt lat="46.5254" lon="5.32174">
        <ele>204.4</ele>
        <time>2022-01-22T11:57:36Z</time>
      </trkpt>
      <trkpt lat="46.52551" lon="5.32185">
        <ele>203.8</ele>
        <time>2022-01-22T11:57:38Z</time>
      </trkpt>
      <trkpt lat="46.52557" lon="5.3219">
        <ele>203.4</ele>
        <time>2022-01-22T11:57:39Z</time>
      </trkpt>
      <trkpt lat="46.52569" lon="5.32193">
        <ele>202.6</ele>
        <time>2022-01-22T11:57:41Z</time>
      </trkpt>
      <trkpt lat="46.52578" lon="5.32182">
        <ele>201.8</ele>
        <time>2022-01-22T11:57:43Z</time>
      </trkpt>
      <trkpt lat="46.52582" lon="5.32174">
        <ele>201.4</ele>
        <time>2022-01-22T11:57:44Z</time>
      </trkpt>
      <trkpt lat="46.52595" lon="5.32147">
        <ele>200.6</ele>
        <time>2022-01-22T11:57:48Z</time>
      </trkpt>
      <trkpt lat="46.52601" lon="5.32134">
        <ele>200.4</ele>
        <time>2022-01-22T11:57:50Z</time>
      </trkpt>
      <trkpt lat="46.52611" lon="5.32109">
        <ele>200.6</ele>
        <time>2022-01-22T11:57:54Z</time>
      </trkpt>
      <trkpt lat="46.52626" lon="5.32073">
        <ele>202</ele>
        <time>2022-01-22T11:58:00Z</time>
      </trkpt>
      <trkpt lat="46.52635" lon="5.32048">
        <ele>202.6</ele>
        <time>2022-01-22T11:58:04Z</time>
      </trkpt>
      <trkpt lat="46.52642" lon="5.32026">
        <ele>203.2</ele>
        <time>2022-01-22T11:58:08Z</time>
      </trkpt>
      <trkpt lat="46.52644" lon="5.3202">
        <ele>203.4</ele>
        <time>2022-01-22T11:58:09Z</time>
      </trkpt>
      <trkpt lat="46.52645" lon="5.32014">
        <ele>203.6</ele>
        <time>2022-01-22T11:58:10Z</time>
      </trkpt>
      <trkpt lat="46.52652" lon="5.31993">
        <ele>204.8</ele>
        <time>2022-01-22T11:58:14Z</time>
      </trkpt>
      <trkpt lat="46.52656" lon="5.31979">
        <ele>205.6</ele>
        <time>2022-01-22T11:58:17Z</time>
      </trkpt>
      <trkpt lat="46.52657" lon="5.31974">
        <ele>205.8</ele>
        <time>2022-01-22T11:58:18Z</time>
      </trkpt>
      <trkpt lat="46.52661" lon="5.31953">
        <ele>207</ele>
        <time>2022-01-22T11:58:22Z</time>
      </trkpt>
      <trkpt lat="46.52664" lon="5.31943">
        <ele>207.6</ele>
        <time>2022-01-22T11:58:24Z</time>
      </trkpt>
      <trkpt lat="46.52665" lon="5.31938">
        <ele>208</ele>
        <time>2022-01-22T11:58:25Z</time>
      </trkpt>
      <trkpt lat="46.52671" lon="5.31915">
        <ele>209</ele>
        <time>2022-01-22T11:58:30Z</time>
      </trkpt>
      <trkpt lat="46.52671" lon="5.31911">
        <ele>209.2</ele>
        <time>2022-01-22T11:58:31Z</time>
      </trkpt>
      <trkpt lat="46.52677" lon="5.31893">
        <ele>210.2</ele>
        <time>2022-01-22T11:58:35Z</time>
      </trkpt>
      <trkpt lat="46.52678" lon="5.3189">
        <ele>210.4</ele>
        <time>2022-01-22T11:58:36Z</time>
      </trkpt>
      <trkpt lat="46.52682" lon="5.31872">
        <ele>211.2</ele>
        <time>2022-01-22T11:58:40Z</time>
      </trkpt>
      <trkpt lat="46.52689" lon="5.31853">
        <ele>212.2</ele>
        <time>2022-01-22T11:58:44Z</time>
      </trkpt>
      <trkpt lat="46.52691" lon="5.31848">
        <ele>212.6</ele>
        <time>2022-01-22T11:58:45Z</time>
      </trkpt>
      <trkpt lat="46.52702" lon="5.31826">
        <ele>213.4</ele>
        <time>2022-01-22T11:58:50Z</time>
      </trkpt>
      <trkpt lat="46.52705" lon="5.31822">
        <ele>213.6</ele>
        <time>2022-01-22T11:58:51Z</time>
      </trkpt>
      <trkpt lat="46.52728" lon="5.31799">
        <ele>214.6</ele>
        <time>2022-01-22T11:58:57Z</time>
      </trkpt>
      <trkpt lat="46.52769" lon="5.3178">
        <ele>214.8</ele>
        <time>2022-01-22T11:59:06Z</time>
      </trkpt>
      <trkpt lat="46.52811" lon="5.31761">
        <ele>215.2</ele>
        <time>2022-01-22T11:59:15Z</time>
      </trkpt>
      <trkpt lat="46.52825" lon="5.31755">
        <ele>215.2</ele>
        <time>2022-01-22T11:59:18Z</time>
      </trkpt>
      <trkpt lat="46.52845" lon="5.31747">
        <ele>215.4</ele>
        <time>2022-01-22T11:59:22Z</time>
      </trkpt>
      <trkpt lat="46.52855" lon="5.31742">
        <ele>215.6</ele>
        <time>2022-01-22T11:59:24Z</time>
      </trkpt>
      <trkpt lat="46.52894" lon="5.31728">
        <ele>215.2</ele>
        <time>2022-01-22T11:59:31Z</time>
      </trkpt>
      <trkpt lat="46.52905" lon="5.31725">
        <ele>214.8</ele>
        <time>2022-01-22T11:59:33Z</time>
      </trkpt>
      <trkpt lat="46.52914" lon="5.31729">
        <ele>214.6</ele>
        <time>2022-01-22T11:59:35Z</time>
      </trkpt>
      <trkpt lat="46.52924" lon="5.31738">
        <ele>214.2</ele>
        <time>2022-01-22T11:59:37Z</time>
      </trkpt>
      <trkpt lat="46.52934" lon="5.31747">
        <ele>214</ele>
        <time>2022-01-22T11:59:39Z</time>
      </trkpt>
      <trkpt lat="46.5297" lon="5.31779">
        <ele>214</ele>
        <time>2022-01-22T11:59:46Z</time>
      </trkpt>
      <trkpt lat="46.52984" lon="5.31782">
        <ele>214</ele>
        <time>2022-01-22T11:59:48Z</time>
      </trkpt>
      <trkpt lat="46.52995" lon="5.3178">
        <ele>214</ele>
        <time>2022-01-22T11:59:50Z</time>
      </trkpt>
      <trkpt lat="46.53007" lon="5.31771">
        <ele>213.8</ele>
        <time>2022-01-22T11:59:52Z</time>
      </trkpt>
      <trkpt lat="46.53012" lon="5.31765">
        <ele>213.6</ele>
        <time>2022-01-22T11:59:53Z</time>
      </trkpt>
      <trkpt lat="46.53016" lon="5.31757">
        <ele>213.6</ele>
        <time>2022-01-22T11:59:54Z</time>
      </trkpt>
      <trkpt lat="46.53019" lon="5.31751">
        <ele>213.4</ele>
        <time>2022-01-22T11:59:55Z</time>
      </trkpt>
      <trkpt lat="46.53029" lon="5.31724">
        <ele>213.2</ele>
        <time>2022-01-22T11:59:58Z</time>
      </trkpt>
      <trkpt lat="46.53055" lon="5.31663">
        <ele>212.6</ele>
        <time>2022-01-22T12:00:05Z</time>
      </trkpt>
      <trkpt lat="46.53069" lon="5.31648">
        <ele>212.4</ele>
        <time>2022-01-22T12:00:07Z</time>
      </trkpt>
      <trkpt lat="46.53076" lon="5.31643">
        <ele>212</ele>
        <time>2022-01-22T12:00:08Z</time>
      </trkpt>
      <trkpt lat="46.53084" lon="5.31639">
        <ele>211.8</ele>
        <time>2022-01-22T12:00:09Z</time>
      </trkpt>
      <trkpt lat="46.53101" lon="5.31632">
        <ele>211.2</ele>
        <time>2022-01-22T12:00:11Z</time>
      </trkpt>
      <trkpt lat="46.53109" lon="5.31629">
        <ele>210.8</ele>
        <time>2022-01-22T12:00:12Z</time>
      </trkpt>
      <trkpt lat="46.53117" lon="5.31625">
        <ele>210.2</ele>
        <time>2022-01-22T12:00:13Z</time>
      </trkpt>
      <trkpt lat="46.53141" lon="5.31615">
        <ele>208.8</ele>
        <time>2022-01-22T12:00:16Z</time>
      </trkpt>
      <trkpt lat="46.53157" lon="5.31609">
        <ele>208</ele>
        <time>2022-01-22T12:00:18Z</time>
      </trkpt>
      <trkpt lat="46.53165" lon="5.31606">
        <ele>207.6</ele>
        <time>2022-01-22T12:00:19Z</time>
      </trkpt>
      <trkpt lat="46.53189" lon="5.31596">
        <ele>206.4</ele>
        <time>2022-01-22T12:00:22Z</time>
      </trkpt>
      <trkpt lat="46.53204" lon="5.31589">
        <ele>205.2</ele>
        <time>2022-01-22T12:00:24Z</time>
      </trkpt>
      <trkpt lat="46.53234" lon="5.31575">
        <ele>204</ele>
        <time>2022-01-22T12:00:28Z</time>
      </trkpt>
      <trkpt lat="46.53264" lon="5.31556">
        <ele>202.8</ele>
        <time>2022-01-22T12:00:32Z</time>
      </trkpt>
      <trkpt lat="46.53278" lon="5.31544">
        <ele>201.8</ele>
        <time>2022-01-22T12:00:34Z</time>
      </trkpt>
      <trkpt lat="46.53285" lon="5.31538">
        <ele>201</ele>
        <time>2022-01-22T12:00:35Z</time>
      </trkpt>
      <trkpt lat="46.53305" lon="5.31521">
        <ele>199.8</ele>
        <time>2022-01-22T12:00:38Z</time>
      </trkpt>
      <trkpt lat="46.53319" lon="5.31508">
        <ele>198.6</ele>
        <time>2022-01-22T12:00:40Z</time>
      </trkpt>
      <trkpt lat="46.53339" lon="5.31491">
        <ele>197.4</ele>
        <time>2022-01-22T12:00:43Z</time>
      </trkpt>
      <trkpt lat="46.53357" lon="5.31476">
        <ele>196.2</ele>
        <time>2022-01-22T12:00:46Z</time>
      </trkpt>
      <trkpt lat="46.53362" lon="5.31471">
        <ele>196.2</ele>
        <time>2022-01-22T12:00:47Z</time>
      </trkpt>
      <trkpt lat="46.53366" lon="5.31468">
        <ele>196</ele>
        <time>2022-01-22T12:00:48Z</time>
      </trkpt>
      <trkpt lat="46.5338" lon="5.3145">
        <ele>195.8</ele>
        <time>2022-01-22T12:00:51Z</time>
      </trkpt>
      <trkpt lat="46.53387" lon="5.31438">
        <ele>195.8</ele>
        <time>2022-01-22T12:00:53Z</time>
      </trkpt>
      <trkpt lat="46.53407" lon="5.31395">
        <ele>196</ele>
        <time>2022-01-22T12:00:59Z</time>
      </trkpt>
      <trkpt lat="46.53433" lon="5.31337">
        <ele>195.4</ele>
        <time>2022-01-22T12:01:06Z</time>
      </trkpt>
      <trkpt lat="46.53437" lon="5.31328">
        <ele>195.2</ele>
        <time>2022-01-22T12:01:07Z</time>
      </trkpt>
      <trkpt lat="46.53467" lon="5.31263">
        <ele>194.6</ele>
        <time>2022-01-22T12:01:15Z</time>
      </trkpt>
      <trkpt lat="46.53487" lon="5.31212">
        <ele>194.6</ele>
        <time>2022-01-22T12:01:22Z</time>
      </trkpt>
      <trkpt lat="46.53491" lon="5.31198">
        <ele>194.6</ele>
        <time>2022-01-22T12:01:24Z</time>
      </trkpt>
      <trkpt lat="46.53492" lon="5.31184">
        <ele>194.8</ele>
        <time>2022-01-22T12:01:26Z</time>
      </trkpt>
      <trkpt lat="46.53493" lon="5.31178">
        <ele>195</ele>
        <time>2022-01-22T12:01:27Z</time>
      </trkpt>
      <trkpt lat="46.53499" lon="5.31137">
        <ele>195.8</ele>
        <time>2022-01-22T12:01:33Z</time>
      </trkpt>
      <trkpt lat="46.53505" lon="5.31121">
        <ele>196.4</ele>
        <time>2022-01-22T12:01:36Z</time>
      </trkpt>
      <trkpt lat="46.53512" lon="5.31111">
        <ele>197</ele>
        <time>2022-01-22T12:01:38Z</time>
      </trkpt>
      <trkpt lat="46.53519" lon="5.31103">
        <ele>197.6</ele>
        <time>2022-01-22T12:01:40Z</time>
      </trkpt>
      <trkpt lat="46.53531" lon="5.31095">
        <ele>198.2</ele>
        <time>2022-01-22T12:01:43Z</time>
      </trkpt>
      <trkpt lat="46.5354" lon="5.31091">
        <ele>198.6</ele>
        <time>2022-01-22T12:01:45Z</time>
      </trkpt>
      <trkpt lat="46.53573" lon="5.31073">
        <ele>199.6</ele>
        <time>2022-01-22T12:01:52Z</time>
      </trkpt>
      <trkpt lat="46.53578" lon="5.31071">
        <ele>199.8</ele>
        <time>2022-01-22T12:01:53Z</time>
      </trkpt>
      <trkpt lat="46.53618" lon="5.31046">
        <ele>200</ele>
        <time>2022-01-22T12:02:01Z</time>
      </trkpt>
      <trkpt lat="46.5365" lon="5.31028">
        <ele>199.8</ele>
        <time>2022-01-22T12:02:07Z</time>
      </trkpt>
      <trkpt lat="46.53661" lon="5.31025">
        <ele>200</ele>
        <time>2022-01-22T12:02:09Z</time>
      </trkpt>
      <trkpt lat="46.53666" lon="5.31024">
        <ele>200</ele>
        <time>2022-01-22T12:02:10Z</time>
      </trkpt>
      <trkpt lat="46.53687" lon="5.31027">
        <ele>199.6</ele>
        <time>2022-01-22T12:02:14Z</time>
      </trkpt>
      <trkpt lat="46.53735" lon="5.31031">
        <ele>200</ele>
        <time>2022-01-22T12:02:23Z</time>
      </trkpt>
      <trkpt lat="46.53784" lon="5.31017">
        <ele>199.8</ele>
        <time>2022-01-22T12:02:31Z</time>
      </trkpt>
      <trkpt lat="46.53791" lon="5.31015">
        <ele>199.8</ele>
        <time>2022-01-22T12:02:32Z</time>
      </trkpt>
      <trkpt lat="46.53803" lon="5.31004">
        <ele>199.4</ele>
        <time>2022-01-22T12:02:34Z</time>
      </trkpt>
      <trkpt lat="46.53813" lon="5.30986">
        <ele>198.8</ele>
        <time>2022-01-22T12:02:36Z</time>
      </trkpt>
      <trkpt lat="46.5382" lon="5.30969">
        <ele>198.2</ele>
        <time>2022-01-22T12:02:38Z</time>
      </trkpt>
      <trkpt lat="46.53835" lon="5.3093">
        <ele>197.6</ele>
        <time>2022-01-22T12:02:42Z</time>
      </trkpt>
      <trkpt lat="46.53856" lon="5.30881">
        <ele>197.2</ele>
        <time>2022-01-22T12:02:48Z</time>
      </trkpt>
      <trkpt lat="46.53871" lon="5.30845">
        <ele>197.2</ele>
        <time>2022-01-22T12:02:53Z</time>
      </trkpt>
      <trkpt lat="46.53886" lon="5.30802">
        <ele>198</ele>
        <time>2022-01-22T12:03:00Z</time>
      </trkpt>
      <trkpt lat="46.53891" lon="5.30775">
        <ele>198.6</ele>
        <time>2022-01-22T12:03:05Z</time>
      </trkpt>
      <trkpt lat="46.53892" lon="5.30768">
        <ele>198.8</ele>
        <time>2022-01-22T12:03:06Z</time>
      </trkpt>
      <trkpt lat="46.53893" lon="5.30763">
        <ele>199.2</ele>
        <time>2022-01-22T12:03:07Z</time>
      </trkpt>
      <trkpt lat="46.53893" lon="5.30757">
        <ele>199.4</ele>
        <time>2022-01-22T12:03:08Z</time>
      </trkpt>
      <trkpt lat="46.53893" lon="5.30751">
        <ele>199.8</ele>
        <time>2022-01-22T12:03:09Z</time>
      </trkpt>
      <trkpt lat="46.53894" lon="5.30729">
        <ele>200.6</ele>
        <time>2022-01-22T12:03:13Z</time>
      </trkpt>
      <trkpt lat="46.53894" lon="5.30723">
        <ele>201</ele>
        <time>2022-01-22T12:03:14Z</time>
      </trkpt>
      <trkpt lat="46.53896" lon="5.30693">
        <ele>202</ele>
        <time>2022-01-22T12:03:19Z</time>
      </trkpt>
      <trkpt lat="46.53897" lon="5.3068">
        <ele>202.4</ele>
        <time>2022-01-22T12:03:21Z</time>
      </trkpt>
      <trkpt lat="46.53902" lon="5.30655">
        <ele>203.2</ele>
        <time>2022-01-22T12:03:25Z</time>
      </trkpt>
      <trkpt lat="46.53908" lon="5.30638">
        <ele>203.4</ele>
        <time>2022-01-22T12:03:28Z</time>
      </trkpt>
      <trkpt lat="46.53918" lon="5.3061">
        <ele>204.2</ele>
        <time>2022-01-22T12:03:33Z</time>
      </trkpt>
      <trkpt lat="46.53928" lon="5.30583">
        <ele>205.2</ele>
        <time>2022-01-22T12:03:38Z</time>
      </trkpt>
      <trkpt lat="46.53931" lon="5.30578">
        <ele>205.4</ele>
        <time>2022-01-22T12:03:39Z</time>
      </trkpt>
      <trkpt lat="46.53933" lon="5.30574">
        <ele>205.6</ele>
        <time>2022-01-22T12:03:40Z</time>
      </trkpt>
      <trkpt lat="46.53944" lon="5.30559">
        <ele>206.4</ele>
        <time>2022-01-22T12:03:44Z</time>
      </trkpt>
      <trkpt lat="46.5395" lon="5.30553">
        <ele>207</ele>
        <time>2022-01-22T12:03:46Z</time>
      </trkpt>
      <trkpt lat="46.53963" lon="5.30542">
        <ele>207.6</ele>
        <time>2022-01-22T12:03:50Z</time>
      </trkpt>
      <trkpt lat="46.53973" lon="5.30536">
        <ele>207.8</ele>
        <time>2022-01-22T12:03:53Z</time>
      </trkpt>
      <trkpt lat="46.53989" lon="5.30528">
        <ele>208.6</ele>
        <time>2022-01-22T12:03:58Z</time>
      </trkpt>
      <trkpt lat="46.53993" lon="5.30526">
        <ele>208.6</ele>
        <time>2022-01-22T12:03:59Z</time>
      </trkpt>
      <trkpt lat="46.54003" lon="5.30519">
        <ele>209.6</ele>
        <time>2022-01-22T12:04:02Z</time>
      </trkpt>
      <trkpt lat="46.54022" lon="5.30502">
        <ele>210.6</ele>
        <time>2022-01-22T12:04:08Z</time>
      </trkpt>
      <trkpt lat="46.54026" lon="5.30497">
        <ele>210.8</ele>
        <time>2022-01-22T12:04:09Z</time>
      </trkpt>
      <trkpt lat="46.54048" lon="5.30458">
        <ele>211.8</ele>
        <time>2022-01-22T12:04:17Z</time>
      </trkpt>
      <trkpt lat="46.54051" lon="5.30452">
        <ele>212</ele>
        <time>2022-01-22T12:04:18Z</time>
      </trkpt>
      <trkpt lat="46.5406" lon="5.30415">
        <ele>212</ele>
        <time>2022-01-22T12:04:23Z</time>
      </trkpt>
      <trkpt lat="46.54073" lon="5.3036">
        <ele>212</ele>
        <time>2022-01-22T12:04:31Z</time>
      </trkpt>
      <trkpt lat="46.54093" lon="5.30289">
        <ele>212.2</ele>
        <time>2022-01-22T12:04:41Z</time>
      </trkpt>
      <trkpt lat="46.54112" lon="5.30232">
        <ele>212.4</ele>
        <time>2022-01-22T12:04:49Z</time>
      </trkpt>
      <trkpt lat="46.54136" lon="5.3016">
        <ele>212.8</ele>
        <time>2022-01-22T12:04:59Z</time>
      </trkpt>
      <trkpt lat="46.54138" lon="5.30153">
        <ele>212.8</ele>
        <time>2022-01-22T12:05:00Z</time>
      </trkpt>
      <trkpt lat="46.5415" lon="5.30116">
        <ele>212.6</ele>
        <time>2022-01-22T12:05:05Z</time>
      </trkpt>
      <trkpt lat="46.54153" lon="5.30111">
        <ele>212.6</ele>
        <time>2022-01-22T12:05:06Z</time>
      </trkpt>
      <trkpt lat="46.54158" lon="5.30106">
        <ele>212.6</ele>
        <time>2022-01-22T12:05:07Z</time>
      </trkpt>
      <trkpt lat="46.54198" lon="5.30093">
        <ele>212.4</ele>
        <time>2022-01-22T12:05:14Z</time>
      </trkpt>
      <trkpt lat="46.54231" lon="5.30095">
        <ele>212.6</ele>
        <time>2022-01-22T12:05:20Z</time>
      </trkpt>
      <trkpt lat="46.5427" lon="5.30102">
        <ele>212.6</ele>
        <time>2022-01-22T12:05:27Z</time>
      </trkpt>
      <trkpt lat="46.54277" lon="5.30103">
        <ele>212.4</ele>
        <time>2022-01-22T12:05:28Z</time>
      </trkpt>
      <trkpt lat="46.54328" lon="5.30111">
        <ele>211.8</ele>
        <time>2022-01-22T12:05:37Z</time>
      </trkpt>
      <trkpt lat="46.54367" lon="5.30126">
        <ele>210.8</ele>
        <time>2022-01-22T12:05:43Z</time>
      </trkpt>
      <trkpt lat="46.5438" lon="5.30132">
        <ele>210.4</ele>
        <time>2022-01-22T12:05:45Z</time>
      </trkpt>
      <trkpt lat="46.54393" lon="5.30138">
        <ele>209.6</ele>
        <time>2022-01-22T12:05:47Z</time>
      </trkpt>
      <trkpt lat="46.54413" lon="5.30144">
        <ele>208.6</ele>
        <time>2022-01-22T12:05:50Z</time>
      </trkpt>
      <trkpt lat="46.54434" lon="5.30147">
        <ele>207.6</ele>
        <time>2022-01-22T12:05:53Z</time>
      </trkpt>
      <trkpt lat="46.54441" lon="5.30147">
        <ele>207.4</ele>
        <time>2022-01-22T12:05:54Z</time>
      </trkpt>
      <trkpt lat="46.54469" lon="5.30143">
        <ele>206.2</ele>
        <time>2022-01-22T12:05:58Z</time>
      </trkpt>
      <trkpt lat="46.54476" lon="5.30141">
        <ele>206</ele>
        <time>2022-01-22T12:05:59Z</time>
      </trkpt>
      <trkpt lat="46.54497" lon="5.30132">
        <ele>205</ele>
        <time>2022-01-22T12:06:02Z</time>
      </trkpt>
      <trkpt lat="46.54519" lon="5.3012">
        <ele>203.8</ele>
        <time>2022-01-22T12:06:05Z</time>
      </trkpt>
      <trkpt lat="46.54534" lon="5.30111">
        <ele>203</ele>
        <time>2022-01-22T12:06:07Z</time>
      </trkpt>
      <trkpt lat="46.54542" lon="5.30107">
        <ele>202.4</ele>
        <time>2022-01-22T12:06:08Z</time>
      </trkpt>
      <trkpt lat="46.54572" lon="5.30089">
        <ele>200.8</ele>
        <time>2022-01-22T12:06:12Z</time>
      </trkpt>
      <trkpt lat="46.54587" lon="5.3008">
        <ele>200.2</ele>
        <time>2022-01-22T12:06:14Z</time>
      </trkpt>
      <trkpt lat="46.546" lon="5.30072">
        <ele>199.8</ele>
        <time>2022-01-22T12:06:16Z</time>
      </trkpt>
      <trkpt lat="46.54621" lon="5.30058">
        <ele>198.6</ele>
        <time>2022-01-22T12:06:19Z</time>
      </trkpt>
      <trkpt lat="46.54636" lon="5.3005">
        <ele>197.6</ele>
        <time>2022-01-22T12:06:21Z</time>
      </trkpt>
      <trkpt lat="46.54643" lon="5.30046">
        <ele>197.2</ele>
        <time>2022-01-22T12:06:22Z</time>
      </trkpt>
      <trkpt lat="46.54658" lon="5.30037">
        <ele>196</ele>
        <time>2022-01-22T12:06:24Z</time>
      </trkpt>
      <trkpt lat="46.5468" lon="5.30023">
        <ele>194.8</ele>
        <time>2022-01-22T12:06:27Z</time>
      </trkpt>
      <trkpt lat="46.54695" lon="5.30014">
        <ele>193.8</ele>
        <time>2022-01-22T12:06:29Z</time>
      </trkpt>
      <trkpt lat="46.5471" lon="5.30004">
        <ele>192.4</ele>
        <time>2022-01-22T12:06:31Z</time>
      </trkpt>
      <trkpt lat="46.54718" lon="5.29998">
        <ele>192</ele>
        <time>2022-01-22T12:06:32Z</time>
      </trkpt>
      <trkpt lat="46.54731" lon="5.29987">
        <ele>191.2</ele>
        <time>2022-01-22T12:06:34Z</time>
      </trkpt>
      <trkpt lat="46.54758" lon="5.29965">
        <ele>190</ele>
        <time>2022-01-22T12:06:38Z</time>
      </trkpt>
      <trkpt lat="46.5477" lon="5.29954">
        <ele>189.6</ele>
        <time>2022-01-22T12:06:40Z</time>
      </trkpt>
      <trkpt lat="46.54782" lon="5.29942">
        <ele>189</ele>
        <time>2022-01-22T12:06:42Z</time>
      </trkpt>
      <trkpt lat="46.54815" lon="5.29904">
        <ele>188.6</ele>
        <time>2022-01-22T12:06:48Z</time>
      </trkpt>
      <trkpt lat="46.5485" lon="5.2986">
        <ele>188</ele>
        <time>2022-01-22T12:06:55Z</time>
      </trkpt>
      <trkpt lat="46.54855" lon="5.29854">
        <ele>188</ele>
        <time>2022-01-22T12:06:56Z</time>
      </trkpt>
      <trkpt lat="46.54894" lon="5.29802">
        <ele>187.8</ele>
        <time>2022-01-22T12:07:05Z</time>
      </trkpt>
      <trkpt lat="46.54915" lon="5.29767">
        <ele>187.8</ele>
        <time>2022-01-22T12:07:10Z</time>
      </trkpt>
      <trkpt lat="46.54923" lon="5.29752">
        <ele>188</ele>
        <time>2022-01-22T12:07:12Z</time>
      </trkpt>
      <trkpt lat="46.54945" lon="5.29707">
        <ele>187.8</ele>
        <time>2022-01-22T12:07:18Z</time>
      </trkpt>
      <trkpt lat="46.54948" lon="5.29699">
        <ele>187.6</ele>
        <time>2022-01-22T12:07:19Z</time>
      </trkpt>
      <trkpt lat="46.54958" lon="5.2965">
        <ele>187.6</ele>
        <time>2022-01-22T12:07:25Z</time>
      </trkpt>
      <trkpt lat="46.54966" lon="5.29609">
        <ele>187.8</ele>
        <time>2022-01-22T12:07:31Z</time>
      </trkpt>
      <trkpt lat="46.54972" lon="5.29592">
        <ele>188</ele>
        <time>2022-01-22T12:07:34Z</time>
      </trkpt>
      <trkpt lat="46.54979" lon="5.29578">
        <ele>188.4</ele>
        <time>2022-01-22T12:07:37Z</time>
      </trkpt>
      <trkpt lat="46.54988" lon="5.29564">
        <ele>189</ele>
        <time>2022-01-22T12:07:40Z</time>
      </trkpt>
      <trkpt lat="46.55002" lon="5.29542">
        <ele>190.4</ele>
        <time>2022-01-22T12:07:45Z</time>
      </trkpt>
      <trkpt lat="46.55023" lon="5.29511">
        <ele>191.6</ele>
        <time>2022-01-22T12:07:52Z</time>
      </trkpt>
      <trkpt lat="46.55027" lon="5.29508">
        <ele>191.6</ele>
        <time>2022-01-22T12:07:53Z</time>
      </trkpt>
      <trkpt lat="46.5504" lon="5.29498">
        <ele>192</ele>
        <time>2022-01-22T12:07:57Z</time>
      </trkpt>
      <trkpt lat="46.55047" lon="5.29496">
        <ele>192.6</ele>
        <time>2022-01-22T12:07:59Z</time>
      </trkpt>
      <trkpt lat="46.55065" lon="5.29495">
        <ele>193.8</ele>
        <time>2022-01-22T12:08:04Z</time>
      </trkpt>
      <trkpt lat="46.55082" lon="5.295">
        <ele>194.8</ele>
        <time>2022-01-22T12:08:08Z</time>
      </trkpt>
      <trkpt lat="46.55085" lon="5.29502">
        <ele>195</ele>
        <time>2022-01-22T12:08:09Z</time>
      </trkpt>
      <trkpt lat="46.55101" lon="5.29509">
        <ele>196</ele>
        <time>2022-01-22T12:08:13Z</time>
      </trkpt>
      <trkpt lat="46.55117" lon="5.29516">
        <ele>197</ele>
        <time>2022-01-22T12:08:17Z</time>
      </trkpt>
      <trkpt lat="46.55121" lon="5.29518">
        <ele>197.2</ele>
        <time>2022-01-22T12:08:18Z</time>
      </trkpt>
      <trkpt lat="46.55149" lon="5.2953">
        <ele>198.2</ele>
        <time>2022-01-22T12:08:25Z</time>
      </trkpt>
      <trkpt lat="46.55158" lon="5.29533">
        <ele>198.6</ele>
        <time>2022-01-22T12:08:27Z</time>
      </trkpt>
      <trkpt lat="46.55174" lon="5.29539">
        <ele>198.6</ele>
        <time>2022-01-22T12:08:31Z</time>
      </trkpt>
      <trkpt lat="46.55186" lon="5.2954">
        <ele>199</ele>
        <time>2022-01-22T12:08:34Z</time>
      </trkpt>
      <trkpt lat="46.55194" lon="5.29539">
        <ele>199.4</ele>
        <time>2022-01-22T12:08:36Z</time>
      </trkpt>
      <trkpt lat="46.55198" lon="5.29538">
        <ele>199.4</ele>
        <time>2022-01-22T12:08:37Z</time>
      </trkpt>
      <trkpt lat="46.55214" lon="5.29532">
        <ele>199.6</ele>
        <time>2022-01-22T12:08:41Z</time>
      </trkpt>
      <trkpt lat="46.55228" lon="5.29524">
        <ele>200.2</ele>
        <time>2022-01-22T12:08:45Z</time>
      </trkpt>
      <trkpt lat="46.55243" lon="5.29515">
        <ele>201</ele>
        <time>2022-01-22T12:08:49Z</time>
      </trkpt>
      <trkpt lat="46.5525" lon="5.2951">
        <ele>201.2</ele>
        <time>2022-01-22T12:08:51Z</time>
      </trkpt>
      <trkpt lat="46.55277" lon="5.29496">
        <ele>202.2</ele>
        <time>2022-01-22T12:08:58Z</time>
      </trkpt>
      <trkpt lat="46.55282" lon="5.29495">
        <ele>202.2</ele>
        <time>2022-01-22T12:08:59Z</time>
      </trkpt>
      <trkpt lat="46.55287" lon="5.29496">
        <ele>202.4</ele>
        <time>2022-01-22T12:09:00Z</time>
      </trkpt>
      <trkpt lat="46.55298" lon="5.29501">
        <ele>202.4</ele>
        <time>2022-01-22T12:09:02Z</time>
      </trkpt>
      <trkpt lat="46.55303" lon="5.29504">
        <ele>202.2</ele>
        <time>2022-01-22T12:09:03Z</time>
      </trkpt>
      <trkpt lat="46.55321" lon="5.29509">
        <ele>202</ele>
        <time>2022-01-22T12:09:06Z</time>
      </trkpt>
      <trkpt lat="46.55359" lon="5.29515">
        <ele>201.4</ele>
        <time>2022-01-22T12:09:12Z</time>
      </trkpt>
      <trkpt lat="46.55366" lon="5.29517">
        <ele>201.2</ele>
        <time>2022-01-22T12:09:13Z</time>
      </trkpt>
      <trkpt lat="46.55403" lon="5.29532">
        <ele>200.6</ele>
        <time>2022-01-22T12:09:19Z</time>
      </trkpt>
      <trkpt lat="46.55449" lon="5.29561">
        <ele>200.8</ele>
        <time>2022-01-22T12:09:27Z</time>
      </trkpt>
      <trkpt lat="46.55494" lon="5.29594">
        <ele>200.8</ele>
        <time>2022-01-22T12:09:36Z</time>
      </trkpt>
      <trkpt lat="46.55544" lon="5.2963">
        <ele>200.6</ele>
        <time>2022-01-22T12:09:46Z</time>
      </trkpt>
      <trkpt lat="46.55582" lon="5.29656">
        <ele>200.6</ele>
        <time>2022-01-22T12:09:54Z</time>
      </trkpt>
      <trkpt lat="46.55626" lon="5.2968">
        <ele>201.6</ele>
        <time>2022-01-22T12:10:03Z</time>
      </trkpt>
      <trkpt lat="46.5566" lon="5.29693">
        <ele>202.2</ele>
        <time>2022-01-22T12:10:10Z</time>
      </trkpt>
      <trkpt lat="46.55669" lon="5.29694">
        <ele>202.6</ele>
        <time>2022-01-22T12:10:12Z</time>
      </trkpt>
      <trkpt lat="46.55698" lon="5.29696">
        <ele>202.6</ele>
        <time>2022-01-22T12:10:19Z</time>
      </trkpt>
      <trkpt lat="46.55715" lon="5.29699">
        <ele>203</ele>
        <time>2022-01-22T12:10:23Z</time>
      </trkpt>
      <trkpt lat="46.55723" lon="5.297">
        <ele>203.4</ele>
        <time>2022-01-22T12:10:25Z</time>
      </trkpt>
      <trkpt lat="46.55727" lon="5.29701">
        <ele>203.4</ele>
        <time>2022-01-22T12:10:26Z</time>
      </trkpt>
      <trkpt lat="46.55731" lon="5.29703">
        <ele>203.8</ele>
        <time>2022-01-22T12:10:27Z</time>
      </trkpt>
      <trkpt lat="46.55746" lon="5.29711">
        <ele>204.4</ele>
        <time>2022-01-22T12:10:31Z</time>
      </trkpt>
      <trkpt lat="46.5575" lon="5.29714">
        <ele>204.8</ele>
        <time>2022-01-22T12:10:32Z</time>
      </trkpt>
      <trkpt lat="46.55765" lon="5.29724">
        <ele>205.6</ele>
        <time>2022-01-22T12:10:36Z</time>
      </trkpt>
      <trkpt lat="46.55771" lon="5.29731">
        <ele>206.2</ele>
        <time>2022-01-22T12:10:38Z</time>
      </trkpt>
      <trkpt lat="46.55774" lon="5.29735">
        <ele>206.4</ele>
        <time>2022-01-22T12:10:39Z</time>
      </trkpt>
      <trkpt lat="46.55784" lon="5.29749">
        <ele>206.8</ele>
        <time>2022-01-22T12:10:42Z</time>
      </trkpt>
      <trkpt lat="46.55794" lon="5.29763">
        <ele>207</ele>
        <time>2022-01-22T12:10:45Z</time>
      </trkpt>
      <trkpt lat="46.55807" lon="5.29781">
        <ele>207.8</ele>
        <time>2022-01-22T12:10:49Z</time>
      </trkpt>
      <trkpt lat="46.5583" lon="5.29813">
        <ele>208.2</ele>
        <time>2022-01-22T12:10:56Z</time>
      </trkpt>
      <trkpt lat="46.55852" lon="5.29844">
        <ele>209</ele>
        <time>2022-01-22T12:11:03Z</time>
      </trkpt>
      <trkpt lat="46.55856" lon="5.29849">
        <ele>209</ele>
        <time>2022-01-22T12:11:04Z</time>
      </trkpt>
      <trkpt lat="46.55881" lon="5.29881">
        <ele>209.2</ele>
        <time>2022-01-22T12:11:10Z</time>
      </trkpt>
      <trkpt lat="46.55913" lon="5.29924">
        <ele>207.8</ele>
        <time>2022-01-22T12:11:17Z</time>
      </trkpt>
      <trkpt lat="46.55918" lon="5.2993">
        <ele>207.8</ele>
        <time>2022-01-22T12:11:18Z</time>
      </trkpt>
      <trkpt lat="46.55927" lon="5.29943">
        <ele>206.6</ele>
        <time>2022-01-22T12:11:20Z</time>
      </trkpt>
      <trkpt lat="46.55942" lon="5.29964">
        <ele>205.6</ele>
        <time>2022-01-22T12:11:23Z</time>
      </trkpt>
      <trkpt lat="46.55961" lon="5.2999">
        <ele>204.4</ele>
        <time>2022-01-22T12:11:27Z</time>
      </trkpt>
      <trkpt lat="46.55986" lon="5.30023">
        <ele>204.2</ele>
        <time>2022-01-22T12:11:33Z</time>
      </trkpt>
      <trkpt lat="46.56011" lon="5.30056">
        <ele>204.6</ele>
        <time>2022-01-22T12:11:40Z</time>
      </trkpt>
      <trkpt lat="46.56031" lon="5.30083">
        <ele>205.6</ele>
        <time>2022-01-22T12:11:46Z</time>
      </trkpt>
      <trkpt lat="46.56034" lon="5.30087">
        <ele>205.8</ele>
        <time>2022-01-22T12:11:47Z</time>
      </trkpt>
      <trkpt lat="46.56037" lon="5.30092">
        <ele>206</ele>
        <time>2022-01-22T12:11:48Z</time>
      </trkpt>
      <trkpt lat="46.56047" lon="5.30104">
        <ele>206.6</ele>
        <time>2022-01-22T12:11:51Z</time>
      </trkpt>
      <trkpt lat="46.56053" lon="5.30112">
        <ele>206.8</ele>
        <time>2022-01-22T12:11:53Z</time>
      </trkpt>
      <trkpt lat="46.56059" lon="5.30121">
        <ele>207.2</ele>
        <time>2022-01-22T12:11:55Z</time>
      </trkpt>
      <trkpt lat="46.56068" lon="5.30134">
        <ele>207.8</ele>
        <time>2022-01-22T12:11:58Z</time>
      </trkpt>
      <trkpt lat="46.56081" lon="5.30151">
        <ele>208.8</ele>
        <time>2022-01-22T12:12:02Z</time>
      </trkpt>
      <trkpt lat="46.56088" lon="5.3016">
        <ele>209.2</ele>
        <time>2022-01-22T12:12:04Z</time>
      </trkpt>
      <trkpt lat="46.56109" lon="5.30187">
        <ele>210</ele>
        <time>2022-01-22T12:12:10Z</time>
      </trkpt>
      <trkpt lat="46.56127" lon="5.30211">
        <ele>210.2</ele>
        <time>2022-01-22T12:12:15Z</time>
      </trkpt>
      <trkpt lat="46.56133" lon="5.30221">
        <ele>210.2</ele>
        <time>2022-01-22T12:12:17Z</time>
      </trkpt>
      <trkpt lat="46.56147" lon="5.30239">
        <ele>210.4</ele>
        <time>2022-01-22T12:12:21Z</time>
      </trkpt>
      <trkpt lat="46.5618" lon="5.30283">
        <ele>210.6</ele>
        <time>2022-01-22T12:12:30Z</time>
      </trkpt>
      <trkpt lat="46.56209" lon="5.30326">
        <ele>210.4</ele>
        <time>2022-01-22T12:12:38Z</time>
      </trkpt>
      <trkpt lat="46.56234" lon="5.30372">
        <ele>210.4</ele>
        <time>2022-01-22T12:12:46Z</time>
      </trkpt>
      <trkpt lat="46.56268" lon="5.3042">
        <ele>210.8</ele>
        <time>2022-01-22T12:12:55Z</time>
      </trkpt>
      <trkpt lat="46.56282" lon="5.30439">
        <ele>211</ele>
        <time>2022-01-22T12:12:59Z</time>
      </trkpt>
      <trkpt lat="46.56299" lon="5.30464">
        <ele>211</ele>
        <time>2022-01-22T12:13:04Z</time>
      </trkpt>
      <trkpt lat="46.56336" lon="5.30514">
        <ele>210.6</ele>
        <time>2022-01-22T12:13:14Z</time>
      </trkpt>
      <trkpt lat="46.56367" lon="5.30557">
        <ele>210.6</ele>
        <time>2022-01-22T12:13:22Z</time>
      </trkpt>
      <trkpt lat="46.56401" lon="5.30604">
        <ele>210</ele>
        <time>2022-01-22T12:13:31Z</time>
      </trkpt>
      <trkpt lat="46.56405" lon="5.30609">
        <ele>209.8</ele>
        <time>2022-01-22T12:13:32Z</time>
      </trkpt>
      <trkpt lat="46.5641" lon="5.30622">
        <ele>209.6</ele>
        <time>2022-01-22T12:13:35Z</time>
      </trkpt>
      <trkpt lat="46.56413" lon="5.30628">
        <ele>209.4</ele>
        <time>2022-01-22T12:13:37Z</time>
      </trkpt>
      <trkpt lat="46.56417" lon="5.30628">
        <ele>209.4</ele>
        <time>2022-01-22T12:13:38Z</time>
      </trkpt>
      <trkpt lat="46.56436" lon="5.30629">
        <ele>209</ele>
        <time>2022-01-22T12:13:42Z</time>
      </trkpt>
      <trkpt lat="46.56441" lon="5.30628">
        <ele>209</ele>
        <time>2022-01-22T12:13:43Z</time>
      </trkpt>
      <trkpt lat="46.56472" lon="5.30619">
        <ele>209</ele>
        <time>2022-01-22T12:13:49Z</time>
      </trkpt>
      <trkpt lat="46.56512" lon="5.30611">
        <ele>209</ele>
        <time>2022-01-22T12:13:56Z</time>
      </trkpt>
      <trkpt lat="46.56517" lon="5.3061">
        <ele>208.8</ele>
        <time>2022-01-22T12:13:57Z</time>
      </trkpt>
      <trkpt lat="46.56576" lon="5.30602">
        <ele>208.6</ele>
        <time>2022-01-22T12:14:07Z</time>
      </trkpt>
      <trkpt lat="46.56617" lon="5.30605">
        <ele>209</ele>
        <time>2022-01-22T12:14:14Z</time>
      </trkpt>
      <trkpt lat="46.56662" lon="5.30621">
        <ele>208.8</ele>
        <time>2022-01-22T12:14:22Z</time>
      </trkpt>
      <trkpt lat="46.56701" lon="5.30652">
        <ele>208.4</ele>
        <time>2022-01-22T12:14:29Z</time>
      </trkpt>
      <trkpt lat="46.56733" lon="5.30696">
        <ele>208.6</ele>
        <time>2022-01-22T12:14:36Z</time>
      </trkpt>
      <trkpt lat="46.56752" lon="5.30734">
        <ele>208</ele>
        <time>2022-01-22T12:14:41Z</time>
      </trkpt>
      <trkpt lat="46.56772" lon="5.30773">
        <ele>207</ele>
        <time>2022-01-22T12:14:46Z</time>
      </trkpt>
      <trkpt lat="46.56775" lon="5.30781">
        <ele>206.6</ele>
        <time>2022-01-22T12:14:47Z</time>
      </trkpt>
      <trkpt lat="46.56786" lon="5.30806">
        <ele>206.4</ele>
        <time>2022-01-22T12:14:50Z</time>
      </trkpt>
      <trkpt lat="46.56794" lon="5.30833">
        <ele>206.2</ele>
        <time>2022-01-22T12:14:53Z</time>
      </trkpt>
      <trkpt lat="46.568" lon="5.30861">
        <ele>205.6</ele>
        <time>2022-01-22T12:14:56Z</time>
      </trkpt>
      <trkpt lat="46.56806" lon="5.30899">
        <ele>204.8</ele>
        <time>2022-01-22T12:15:00Z</time>
      </trkpt>
      <trkpt lat="46.56809" lon="5.3092">
        <ele>204.4</ele>
        <time>2022-01-22T12:15:02Z</time>
      </trkpt>
      <trkpt lat="46.56809" lon="5.30966">
        <ele>204.2</ele>
        <time>2022-01-22T12:15:07Z</time>
      </trkpt>
      <trkpt lat="46.56806" lon="5.31041">
        <ele>203.8</ele>
        <time>2022-01-22T12:15:16Z</time>
      </trkpt>
      <trkpt lat="46.56808" lon="5.31057">
        <ele>203.8</ele>
        <time>2022-01-22T12:15:18Z</time>
      </trkpt>
      <trkpt lat="46.56814" lon="5.31081">
        <ele>204</ele>
        <time>2022-01-22T12:15:21Z</time>
      </trkpt>
      <trkpt lat="46.56829" lon="5.31115">
        <ele>204.6</ele>
        <time>2022-01-22T12:15:26Z</time>
      </trkpt>
      <trkpt lat="46.56833" lon="5.31121">
        <ele>204.6</ele>
        <time>2022-01-22T12:15:27Z</time>
      </trkpt>
      <trkpt lat="46.56859" lon="5.31147">
        <ele>205.2</ele>
        <time>2022-01-22T12:15:33Z</time>
      </trkpt>
      <trkpt lat="46.56886" lon="5.31158">
        <ele>205.4</ele>
        <time>2022-01-22T12:15:39Z</time>
      </trkpt>
      <trkpt lat="46.569" lon="5.31159">
        <ele>205.6</ele>
        <time>2022-01-22T12:15:42Z</time>
      </trkpt>
      <trkpt lat="46.56914" lon="5.31161">
        <ele>205.6</ele>
        <time>2022-01-22T12:15:45Z</time>
      </trkpt>
      <trkpt lat="46.56937" lon="5.31169">
        <ele>206</ele>
        <time>2022-01-22T12:15:50Z</time>
      </trkpt>
      <trkpt lat="46.56946" lon="5.31175">
        <ele>206</ele>
        <time>2022-01-22T12:15:52Z</time>
      </trkpt>
      <trkpt lat="46.5695" lon="5.31178">
        <ele>206</ele>
        <time>2022-01-22T12:15:53Z</time>
      </trkpt>
      <trkpt lat="46.56974" lon="5.312">
        <ele>206.2</ele>
        <time>2022-01-22T12:15:59Z</time>
      </trkpt>
      <trkpt lat="46.57002" lon="5.31226">
        <ele>206.6</ele>
        <time>2022-01-22T12:16:06Z</time>
      </trkpt>
      <trkpt lat="46.57014" lon="5.31237">
        <ele>206.8</ele>
        <time>2022-01-22T12:16:09Z</time>
      </trkpt>
      <trkpt lat="46.57058" lon="5.31277">
        <ele>207.2</ele>
        <time>2022-01-22T12:16:20Z</time>
      </trkpt>
      <trkpt lat="46.57093" lon="5.31297">
        <ele>207.4</ele>
        <time>2022-01-22T12:16:28Z</time>
      </trkpt>
      <trkpt lat="46.57106" lon="5.313">
        <ele>207.6</ele>
        <time>2022-01-22T12:16:31Z</time>
      </trkpt>
      <trkpt lat="46.57119" lon="5.31301">
        <ele>208</ele>
        <time>2022-01-22T12:16:34Z</time>
      </trkpt>
      <trkpt lat="46.57127" lon="5.31301">
        <ele>208.4</ele>
        <time>2022-01-22T12:16:36Z</time>
      </trkpt>
      <trkpt lat="46.5714" lon="5.31302">
        <ele>208.6</ele>
        <time>2022-01-22T12:16:39Z</time>
      </trkpt>
      <trkpt lat="46.57153" lon="5.31304">
        <ele>209</ele>
        <time>2022-01-22T12:16:42Z</time>
      </trkpt>
      <trkpt lat="46.57165" lon="5.31308">
        <ele>209.2</ele>
        <time>2022-01-22T12:16:45Z</time>
      </trkpt>
      <trkpt lat="46.57173" lon="5.31313">
        <ele>209.4</ele>
        <time>2022-01-22T12:16:47Z</time>
      </trkpt>
      <trkpt lat="46.57181" lon="5.31319">
        <ele>209.8</ele>
        <time>2022-01-22T12:16:49Z</time>
      </trkpt>
      <trkpt lat="46.57187" lon="5.31326">
        <ele>210.2</ele>
        <time>2022-01-22T12:16:51Z</time>
      </trkpt>
      <trkpt lat="46.57201" lon="5.31343">
        <ele>210.8</ele>
        <time>2022-01-22T12:16:55Z</time>
      </trkpt>
      <trkpt lat="46.57213" lon="5.31362">
        <ele>211.4</ele>
        <time>2022-01-22T12:16:59Z</time>
      </trkpt>
      <trkpt lat="46.57218" lon="5.31374">
        <ele>212.2</ele>
        <time>2022-01-22T12:17:01Z</time>
      </trkpt>
      <trkpt lat="46.57227" lon="5.31404">
        <ele>212.4</ele>
        <time>2022-01-22T12:17:06Z</time>
      </trkpt>
      <trkpt lat="46.57241" lon="5.31453">
        <ele>213.2</ele>
        <time>2022-01-22T12:17:14Z</time>
      </trkpt>
      <trkpt lat="46.57243" lon="5.31459">
        <ele>213.2</ele>
        <time>2022-01-22T12:17:15Z</time>
      </trkpt>
      <trkpt lat="46.57266" lon="5.31499">
        <ele>214</ele>
        <time>2022-01-22T12:17:22Z</time>
      </trkpt>
      <trkpt lat="46.5728" lon="5.31521">
        <ele>214.2</ele>
        <time>2022-01-22T12:17:26Z</time>
      </trkpt>
      <trkpt lat="46.57301" lon="5.31554">
        <ele>214.6</ele>
        <time>2022-01-22T12:17:32Z</time>
      </trkpt>
      <trkpt lat="46.57334" lon="5.31597">
        <ele>214.4</ele>
        <time>2022-01-22T12:17:40Z</time>
      </trkpt>
      <trkpt lat="46.57339" lon="5.31602">
        <ele>214.2</ele>
        <time>2022-01-22T12:17:41Z</time>
      </trkpt>
      <trkpt lat="46.57361" lon="5.31615">
        <ele>214.2</ele>
        <time>2022-01-22T12:17:45Z</time>
      </trkpt>
      <trkpt lat="46.57366" lon="5.31616">
        <ele>214</ele>
        <time>2022-01-22T12:17:46Z</time>
      </trkpt>
      <trkpt lat="46.57396" lon="5.31619">
        <ele>214</ele>
        <time>2022-01-22T12:17:51Z</time>
      </trkpt>
      <trkpt lat="46.57437" lon="5.31617">
        <ele>214.6</ele>
        <time>2022-01-22T12:17:58Z</time>
      </trkpt>
      <trkpt lat="46.57476" lon="5.31615">
        <ele>214.6</ele>
        <time>2022-01-22T12:18:05Z</time>
      </trkpt>
      <trkpt lat="46.57525" lon="5.3161">
        <ele>214.4</ele>
        <time>2022-01-22T12:18:14Z</time>
      </trkpt>
      <trkpt lat="46.5758" lon="5.31601">
        <ele>214.2</ele>
        <time>2022-01-22T12:18:24Z</time>
      </trkpt>
      <trkpt lat="46.57585" lon="5.31601">
        <ele>214.2</ele>
        <time>2022-01-22T12:18:25Z</time>
      </trkpt>
      <trkpt lat="46.57625" lon="5.31595">
        <ele>214.4</ele>
        <time>2022-01-22T12:18:32Z</time>
      </trkpt>
      <trkpt lat="46.57678" lon="5.31587">
        <ele>214.2</ele>
        <time>2022-01-22T12:18:41Z</time>
      </trkpt>
      <trkpt lat="46.57722" lon="5.31569">
        <ele>214</ele>
        <time>2022-01-22T12:18:48Z</time>
      </trkpt>
      <trkpt lat="46.57774" lon="5.31531">
        <ele>213.4</ele>
        <time>2022-01-22T12:18:56Z</time>
      </trkpt>
      <trkpt lat="46.5778" lon="5.31526">
        <ele>213.4</ele>
        <time>2022-01-22T12:18:57Z</time>
      </trkpt>
      <trkpt lat="46.57827" lon="5.31495">
        <ele>212.8</ele>
        <time>2022-01-22T12:19:04Z</time>
      </trkpt>
      <trkpt lat="46.57854" lon="5.31485">
        <ele>212.2</ele>
        <time>2022-01-22T12:19:08Z</time>
      </trkpt>
      <trkpt lat="46.57874" lon="5.31478">
        <ele>212</ele>
        <time>2022-01-22T12:19:11Z</time>
      </trkpt>
      <trkpt lat="46.5792" lon="5.31464">
        <ele>211.2</ele>
        <time>2022-01-22T12:19:18Z</time>
      </trkpt>
      <trkpt lat="46.57939" lon="5.31459">
        <ele>210.8</ele>
        <time>2022-01-22T12:19:21Z</time>
      </trkpt>
      <trkpt lat="46.57989" lon="5.31443">
        <ele>210.2</ele>
        <time>2022-01-22T12:19:29Z</time>
      </trkpt>
      <trkpt lat="46.58043" lon="5.3143">
        <ele>209.8</ele>
        <time>2022-01-22T12:19:38Z</time>
      </trkpt>
      <trkpt lat="46.58079" lon="5.31432">
        <ele>209.8</ele>
        <time>2022-01-22T12:19:45Z</time>
      </trkpt>
      <trkpt lat="46.58109" lon="5.31436">
        <ele>209.8</ele>
        <time>2022-01-22T12:19:51Z</time>
      </trkpt>
      <trkpt lat="46.58129" lon="5.31433">
        <ele>209.8</ele>
        <time>2022-01-22T12:19:55Z</time>
      </trkpt>
      <trkpt lat="46.58134" lon="5.31432">
        <ele>209.8</ele>
        <time>2022-01-22T12:19:56Z</time>
      </trkpt>
      <trkpt lat="46.58153" lon="5.3142">
        <ele>209.8</ele>
        <time>2022-01-22T12:20:00Z</time>
      </trkpt>
      <trkpt lat="46.58195" lon="5.31387">
        <ele>209</ele>
        <time>2022-01-22T12:20:08Z</time>
      </trkpt>
      <trkpt lat="46.58244" lon="5.31347">
        <ele>208.2</ele>
        <time>2022-01-22T12:20:17Z</time>
      </trkpt>
      <trkpt lat="46.5825" lon="5.31343">
        <ele>208</ele>
        <time>2022-01-22T12:20:18Z</time>
      </trkpt>
      <trkpt lat="46.583" lon="5.31302">
        <ele>207</ele>
        <time>2022-01-22T12:20:27Z</time>
      </trkpt>
      <trkpt lat="46.58305" lon="5.31298">
        <ele>207</ele>
        <time>2022-01-22T12:20:28Z</time>
      </trkpt>
      <trkpt lat="46.58317" lon="5.31288">
        <ele>206.8</ele>
        <time>2022-01-22T12:20:30Z</time>
      </trkpt>
      <trkpt lat="46.58341" lon="5.31273">
        <ele>206.6</ele>
        <time>2022-01-22T12:20:34Z</time>
      </trkpt>
      <trkpt lat="46.58389" lon="5.31251">
        <ele>205.8</ele>
        <time>2022-01-22T12:20:42Z</time>
      </trkpt>
      <trkpt lat="46.58436" lon="5.3123">
        <ele>205.6</ele>
        <time>2022-01-22T12:20:50Z</time>
      </trkpt>
      <trkpt lat="46.58489" lon="5.31207">
        <ele>205.6</ele>
        <time>2022-01-22T12:20:59Z</time>
      </trkpt>
      <trkpt lat="46.58507" lon="5.31199">
        <ele>205.6</ele>
        <time>2022-01-22T12:21:02Z</time>
      </trkpt>
      <trkpt lat="46.58554" lon="5.31172">
        <ele>205.4</ele>
        <time>2022-01-22T12:21:10Z</time>
      </trkpt>
      <trkpt lat="46.58603" lon="5.31126">
        <ele>205</ele>
        <time>2022-01-22T12:21:19Z</time>
      </trkpt>
      <trkpt lat="46.58608" lon="5.3112">
        <ele>205</ele>
        <time>2022-01-22T12:21:20Z</time>
      </trkpt>
      <trkpt lat="46.58614" lon="5.31114">
        <ele>204.8</ele>
        <time>2022-01-22T12:21:21Z</time>
      </trkpt>
      <trkpt lat="46.58662" lon="5.31065">
        <ele>203.8</ele>
        <time>2022-01-22T12:21:30Z</time>
      </trkpt>
      <trkpt lat="46.58672" lon="5.31055">
        <ele>203.8</ele>
        <time>2022-01-22T12:21:32Z</time>
      </trkpt>
      <trkpt lat="46.587" lon="5.31025">
        <ele>203.8</ele>
        <time>2022-01-22T12:21:38Z</time>
      </trkpt>
      <trkpt lat="46.58736" lon="5.30989">
        <ele>204.2</ele>
        <time>2022-01-22T12:21:46Z</time>
      </trkpt>
      <trkpt lat="46.58772" lon="5.30949">
        <ele>205</ele>
        <time>2022-01-22T12:21:55Z</time>
      </trkpt>
      <trkpt lat="46.58795" lon="5.30925">
        <ele>205.8</ele>
        <time>2022-01-22T12:22:01Z</time>
      </trkpt>
      <trkpt lat="46.58803" lon="5.30919">
        <ele>206.4</ele>
        <time>2022-01-22T12:22:03Z</time>
      </trkpt>
      <trkpt lat="46.58824" lon="5.30908">
        <ele>207</ele>
        <time>2022-01-22T12:22:08Z</time>
      </trkpt>
      <trkpt lat="46.58833" lon="5.30905">
        <ele>207.2</ele>
        <time>2022-01-22T12:22:10Z</time>
      </trkpt>
      <trkpt lat="46.58843" lon="5.30903">
        <ele>207.4</ele>
        <time>2022-01-22T12:22:12Z</time>
      </trkpt>
      <trkpt lat="46.58869" lon="5.30899">
        <ele>207.8</ele>
        <time>2022-01-22T12:22:17Z</time>
      </trkpt>
      <trkpt lat="46.58878" lon="5.30898">
        <ele>208.2</ele>
        <time>2022-01-22T12:22:19Z</time>
      </trkpt>
      <trkpt lat="46.58918" lon="5.30892">
        <ele>208.6</ele>
        <time>2022-01-22T12:22:27Z</time>
      </trkpt>
      <trkpt lat="46.58973" lon="5.30886">
        <ele>207.8</ele>
        <time>2022-01-22T12:22:37Z</time>
      </trkpt>
      <trkpt lat="46.58997" lon="5.30882">
        <ele>207</ele>
        <time>2022-01-22T12:22:41Z</time>
      </trkpt>
      <trkpt lat="46.5903" lon="5.30878">
        <ele>206</ele>
        <time>2022-01-22T12:22:46Z</time>
      </trkpt>
      <trkpt lat="46.59037" lon="5.30878">
        <ele>205.8</ele>
        <time>2022-01-22T12:22:47Z</time>
      </trkpt>
      <trkpt lat="46.59065" lon="5.30874">
        <ele>204.8</ele>
        <time>2022-01-22T12:22:51Z</time>
      </trkpt>
      <trkpt lat="46.59086" lon="5.30871">
        <ele>203.6</ele>
        <time>2022-01-22T12:22:54Z</time>
      </trkpt>
      <trkpt lat="46.59101" lon="5.30869">
        <ele>202.6</ele>
        <time>2022-01-22T12:22:56Z</time>
      </trkpt>
      <trkpt lat="46.59108" lon="5.30868">
        <ele>202.4</ele>
        <time>2022-01-22T12:22:57Z</time>
      </trkpt>
      <trkpt lat="46.59137" lon="5.30864">
        <ele>201</ele>
        <time>2022-01-22T12:23:01Z</time>
      </trkpt>
      <trkpt lat="46.59159" lon="5.30861">
        <ele>199.8</ele>
        <time>2022-01-22T12:23:04Z</time>
      </trkpt>
      <trkpt lat="46.59174" lon="5.30859">
        <ele>199.2</ele>
        <time>2022-01-22T12:23:06Z</time>
      </trkpt>
      <trkpt lat="46.59181" lon="5.30858">
        <ele>198.6</ele>
        <time>2022-01-22T12:23:07Z</time>
      </trkpt>
      <trkpt lat="46.59224" lon="5.30853">
        <ele>197.6</ele>
        <time>2022-01-22T12:23:13Z</time>
      </trkpt>
      <trkpt lat="46.59246" lon="5.3085">
        <ele>196.4</ele>
        <time>2022-01-22T12:23:16Z</time>
      </trkpt>
      <trkpt lat="46.59277" lon="5.30847">
        <ele>195.2</ele>
        <time>2022-01-22T12:23:20Z</time>
      </trkpt>
      <trkpt lat="46.59314" lon="5.30842">
        <ele>193.4</ele>
        <time>2022-01-22T12:23:25Z</time>
      </trkpt>
      <trkpt lat="46.59322" lon="5.30841">
        <ele>193.2</ele>
        <time>2022-01-22T12:23:26Z</time>
      </trkpt>
      <trkpt lat="46.59352" lon="5.30837">
        <ele>192.4</ele>
        <time>2022-01-22T12:23:30Z</time>
      </trkpt>
      <trkpt lat="46.59374" lon="5.30835">
        <ele>191.2</ele>
        <time>2022-01-22T12:23:33Z</time>
      </trkpt>
      <trkpt lat="46.59382" lon="5.30833">
        <ele>191</ele>
        <time>2022-01-22T12:23:34Z</time>
      </trkpt>
      <trkpt lat="46.59404" lon="5.3083">
        <ele>190.2</ele>
        <time>2022-01-22T12:23:37Z</time>
      </trkpt>
      <trkpt lat="46.59434" lon="5.30826">
        <ele>189.2</ele>
        <time>2022-01-22T12:23:41Z</time>
      </trkpt>
      <trkpt lat="46.59455" lon="5.30823">
        <ele>188.6</ele>
        <time>2022-01-22T12:23:44Z</time>
      </trkpt>
      <trkpt lat="46.59482" lon="5.30819">
        <ele>188.2</ele>
        <time>2022-01-22T12:23:48Z</time>
      </trkpt>
      <trkpt lat="46.59515" lon="5.30815">
        <ele>187.8</ele>
        <time>2022-01-22T12:23:53Z</time>
      </trkpt>
      <trkpt lat="46.59564" lon="5.30808">
        <ele>187.4</ele>
        <time>2022-01-22T12:24:01Z</time>
      </trkpt>
      <trkpt lat="46.59618" lon="5.30801">
        <ele>188</ele>
        <time>2022-01-22T12:24:10Z</time>
      </trkpt>
      <trkpt lat="46.59629" lon="5.308">
        <ele>188</ele>
        <time>2022-01-22T12:24:12Z</time>
      </trkpt>
      <trkpt lat="46.59665" lon="5.30795">
        <ele>187.8</ele>
        <time>2022-01-22T12:24:19Z</time>
      </trkpt>
      <trkpt lat="46.59701" lon="5.30793">
        <ele>188.6</ele>
        <time>2022-01-22T12:24:27Z</time>
      </trkpt>
      <trkpt lat="46.59727" lon="5.30792">
        <ele>189.4</ele>
        <time>2022-01-22T12:24:33Z</time>
      </trkpt>
      <trkpt lat="46.59739" lon="5.3079">
        <ele>190.2</ele>
        <time>2022-01-22T12:24:36Z</time>
      </trkpt>
      <trkpt lat="46.59743" lon="5.3079">
        <ele>190.6</ele>
        <time>2022-01-22T12:24:37Z</time>
      </trkpt>
      <trkpt lat="46.59763" lon="5.30789">
        <ele>191.6</ele>
        <time>2022-01-22T12:24:42Z</time>
      </trkpt>
      <trkpt lat="46.59771" lon="5.30788">
        <ele>192</ele>
        <time>2022-01-22T12:24:44Z</time>
      </trkpt>
      <trkpt lat="46.59786" lon="5.3079">
        <ele>192.6</ele>
        <time>2022-01-22T12:24:48Z</time>
      </trkpt>
      <trkpt lat="46.59797" lon="5.30795">
        <ele>193.4</ele>
        <time>2022-01-22T12:24:51Z</time>
      </trkpt>
      <trkpt lat="46.59805" lon="5.30798">
        <ele>193.8</ele>
        <time>2022-01-22T12:24:53Z</time>
      </trkpt>
      <trkpt lat="46.59819" lon="5.30805">
        <ele>195</ele>
        <time>2022-01-22T12:24:57Z</time>
      </trkpt>
      <trkpt lat="46.59831" lon="5.3081">
        <ele>195.2</ele>
        <time>2022-01-22T12:25:00Z</time>
      </trkpt>
      <trkpt lat="46.5986" lon="5.30818">
        <ele>196</ele>
        <time>2022-01-22T12:25:07Z</time>
      </trkpt>
      <trkpt lat="46.59892" lon="5.30826">
        <ele>196.8</ele>
        <time>2022-01-22T12:25:15Z</time>
      </trkpt>
      <trkpt lat="46.59904" lon="5.30828">
        <ele>197.2</ele>
        <time>2022-01-22T12:25:18Z</time>
      </trkpt>
      <trkpt lat="46.59924" lon="5.30832">
        <ele>198</ele>
        <time>2022-01-22T12:25:23Z</time>
      </trkpt>
      <trkpt lat="46.59932" lon="5.30833">
        <ele>198.2</ele>
        <time>2022-01-22T12:25:25Z</time>
      </trkpt>
      <trkpt lat="46.59959" lon="5.3084">
        <ele>198.6</ele>
        <time>2022-01-22T12:25:32Z</time>
      </trkpt>
      <trkpt lat="46.59979" lon="5.30858">
        <ele>199.2</ele>
        <time>2022-01-22T12:25:38Z</time>
      </trkpt>
      <trkpt lat="46.59982" lon="5.30862">
        <ele>199.4</ele>
        <time>2022-01-22T12:25:39Z</time>
      </trkpt>
      <trkpt lat="46.60007" lon="5.30887">
        <ele>200.2</ele>
        <time>2022-01-22T12:25:47Z</time>
      </trkpt>
      <trkpt lat="46.60016" lon="5.30897">
        <ele>200.4</ele>
        <time>2022-01-22T12:25:50Z</time>
      </trkpt>
      <trkpt lat="46.60022" lon="5.30905">
        <ele>200.6</ele>
        <time>2022-01-22T12:25:52Z</time>
      </trkpt>
      <trkpt lat="46.60044" lon="5.30931">
        <ele>201.6</ele>
        <time>2022-01-22T12:25:59Z</time>
      </trkpt>
      <trkpt lat="46.6005" lon="5.30939">
        <ele>202</ele>
        <time>2022-01-22T12:26:01Z</time>
      </trkpt>
      <trkpt lat="46.60061" lon="5.30951">
        <ele>202.4</ele>
        <time>2022-01-22T12:26:04Z</time>
      </trkpt>
      <trkpt lat="46.60068" lon="5.3096">
        <ele>202.8</ele>
        <time>2022-01-22T12:26:06Z</time>
      </trkpt>
      <trkpt lat="46.60071" lon="5.30964">
        <ele>202.8</ele>
        <time>2022-01-22T12:26:07Z</time>
      </trkpt>
      <trkpt lat="46.60089" lon="5.30982">
        <ele>203.6</ele>
        <time>2022-01-22T12:26:12Z</time>
      </trkpt>
      <trkpt lat="46.60093" lon="5.30986">
        <ele>203.8</ele>
        <time>2022-01-22T12:26:13Z</time>
      </trkpt>
      <trkpt lat="46.60105" lon="5.31">
        <ele>204.2</ele>
        <time>2022-01-22T12:26:17Z</time>
      </trkpt>
      <trkpt lat="46.60107" lon="5.31003">
        <ele>204.2</ele>
        <time>2022-01-22T12:26:18Z</time>
      </trkpt>
      <trkpt lat="46.60106" lon="5.3101">
        <ele>204.2</ele>
        <time>2022-01-22T12:26:20Z</time>
      </trkpt>
      <trkpt lat="46.60101" lon="5.31019">
        <ele>204.2</ele>
        <time>2022-01-22T12:26:22Z</time>
      </trkpt>
      <trkpt lat="46.60087" lon="5.31043">
        <ele>204</ele>
        <time>2022-01-22T12:26:26Z</time>
      </trkpt>
      <trkpt lat="46.60081" lon="5.31056">
        <ele>204</ele>
        <time>2022-01-22T12:26:28Z</time>
      </trkpt>
      <trkpt lat="46.60074" lon="5.31076">
        <ele>204</ele>
        <time>2022-01-22T12:26:31Z</time>
      </trkpt>
      <trkpt lat="46.60068" lon="5.31128">
        <ele>204.2</ele>
        <time>2022-01-22T12:26:37Z</time>
      </trkpt>
      <trkpt lat="46.60062" lon="5.31214">
        <ele>204.6</ele>
        <time>2022-01-22T12:26:47Z</time>
      </trkpt>
      <trkpt lat="46.60059" lon="5.31277">
        <ele>204.8</ele>
        <time>2022-01-22T12:26:54Z</time>
      </trkpt>
      <trkpt lat="46.60054" lon="5.31363">
        <ele>204.4</ele>
        <time>2022-01-22T12:27:03Z</time>
      </trkpt>
      <trkpt lat="46.60052" lon="5.31451">
        <ele>203.8</ele>
        <time>2022-01-22T12:27:12Z</time>
      </trkpt>
      <trkpt lat="46.60061" lon="5.31497">
        <ele>203.8</ele>
        <time>2022-01-22T12:27:17Z</time>
      </trkpt>
      <trkpt lat="46.6007" lon="5.31521">
        <ele>203.8</ele>
        <time>2022-01-22T12:27:20Z</time>
      </trkpt>
      <trkpt lat="46.6008" lon="5.31544">
        <ele>203.8</ele>
        <time>2022-01-22T12:27:23Z</time>
      </trkpt>
      <trkpt lat="46.60111" lon="5.31605">
        <ele>203.6</ele>
        <time>2022-01-22T12:27:31Z</time>
      </trkpt>
      <trkpt lat="46.60139" lon="5.31661">
        <ele>203.2</ele>
        <time>2022-01-22T12:27:39Z</time>
      </trkpt>
      <trkpt lat="46.60154" lon="5.31688">
        <ele>202.8</ele>
        <time>2022-01-22T12:27:43Z</time>
      </trkpt>
      <trkpt lat="46.6017" lon="5.3172">
        <ele>202.6</ele>
        <time>2022-01-22T12:27:48Z</time>
      </trkpt>
      <trkpt lat="46.60197" lon="5.31776">
        <ele>203.8</ele>
        <time>2022-01-22T12:27:57Z</time>
      </trkpt>
      <trkpt lat="46.6022" lon="5.31821">
        <ele>205.2</ele>
        <time>2022-01-22T12:28:04Z</time>
      </trkpt>
      <trkpt lat="46.60223" lon="5.31828">
        <ele>205.2</ele>
        <time>2022-01-22T12:28:05Z</time>
      </trkpt>
      <trkpt lat="46.60243" lon="5.31867">
        <ele>206</ele>
        <time>2022-01-22T12:28:11Z</time>
      </trkpt>
      <trkpt lat="46.60262" lon="5.31903">
        <ele>206.2</ele>
        <time>2022-01-22T12:28:17Z</time>
      </trkpt>
      <trkpt lat="46.60295" lon="5.31969">
        <ele>206.8</ele>
        <time>2022-01-22T12:28:27Z</time>
      </trkpt>
      <trkpt lat="46.60301" lon="5.3198">
        <ele>207</ele>
        <time>2022-01-22T12:28:29Z</time>
      </trkpt>
      <trkpt lat="46.60304" lon="5.31987">
        <ele>207</ele>
        <time>2022-01-22T12:28:30Z</time>
      </trkpt>
      <trkpt lat="46.60334" lon="5.32046">
        <ele>207.6</ele>
        <time>2022-01-22T12:28:39Z</time>
      </trkpt>
      <trkpt lat="46.6036" lon="5.32096">
        <ele>208</ele>
        <time>2022-01-22T12:28:46Z</time>
      </trkpt>
      <trkpt lat="46.60371" lon="5.32116">
        <ele>207.8</ele>
        <time>2022-01-22T12:28:49Z</time>
      </trkpt>
      <trkpt lat="46.60405" lon="5.32182">
        <ele>207.8</ele>
        <time>2022-01-22T12:28:58Z</time>
      </trkpt>
      <trkpt lat="46.60436" lon="5.32249">
        <ele>207.6</ele>
        <time>2022-01-22T12:29:07Z</time>
      </trkpt>
      <trkpt lat="46.60463" lon="5.32315">
        <ele>208</ele>
        <time>2022-01-22T12:29:16Z</time>
      </trkpt>
      <trkpt lat="46.60487" lon="5.32386">
        <ele>207.8</ele>
        <time>2022-01-22T12:29:25Z</time>
      </trkpt>
      <trkpt lat="46.60489" lon="5.32393">
        <ele>207.8</ele>
        <time>2022-01-22T12:29:26Z</time>
      </trkpt>
      <trkpt lat="46.60512" lon="5.32464">
        <ele>208.6</ele>
        <time>2022-01-22T12:29:35Z</time>
      </trkpt>
      <trkpt lat="46.60517" lon="5.3248">
        <ele>208.8</ele>
        <time>2022-01-22T12:29:37Z</time>
      </trkpt>
      <trkpt lat="46.60543" lon="5.32559">
        <ele>208.8</ele>
        <time>2022-01-22T12:29:47Z</time>
      </trkpt>
      <trkpt lat="46.60547" lon="5.32575">
        <ele>208.8</ele>
        <time>2022-01-22T12:29:49Z</time>
      </trkpt>
      <trkpt lat="46.60555" lon="5.32628">
        <ele>208.6</ele>
        <time>2022-01-22T12:29:55Z</time>
      </trkpt>
      <trkpt lat="46.60555" lon="5.32702">
        <ele>208.4</ele>
        <time>2022-01-22T12:30:03Z</time>
      </trkpt>
      <trkpt lat="46.60555" lon="5.32786">
        <ele>208.2</ele>
        <time>2022-01-22T12:30:11Z</time>
      </trkpt>
      <trkpt lat="46.60554" lon="5.32844">
        <ele>206.8</ele>
        <time>2022-01-22T12:30:16Z</time>
      </trkpt>
      <trkpt lat="46.60554" lon="5.32868">
        <ele>206</ele>
        <time>2022-01-22T12:30:18Z</time>
      </trkpt>
      <trkpt lat="46.60554" lon="5.32881">
        <ele>205.6</ele>
        <time>2022-01-22T12:30:19Z</time>
      </trkpt>
      <trkpt lat="46.60554" lon="5.32963">
        <ele>205.2</ele>
        <time>2022-01-22T12:30:27Z</time>
      </trkpt>
      <trkpt lat="46.60554" lon="5.33012">
        <ele>205.4</ele>
        <time>2022-01-22T12:30:32Z</time>
      </trkpt>
      <trkpt lat="46.60554" lon="5.33052">
        <ele>205.6</ele>
        <time>2022-01-22T12:30:37Z</time>
      </trkpt>
      <trkpt lat="46.60555" lon="5.33125">
        <ele>206.8</ele>
        <time>2022-01-22T12:30:46Z</time>
      </trkpt>
      <trkpt lat="46.60554" lon="5.33133">
        <ele>207</ele>
        <time>2022-01-22T12:30:47Z</time>
      </trkpt>
      <trkpt lat="46.60548" lon="5.33181">
        <ele>208</ele>
        <time>2022-01-22T12:30:53Z</time>
      </trkpt>
      <trkpt lat="46.60534" lon="5.33237">
        <ele>208.2</ele>
        <time>2022-01-22T12:30:59Z</time>
      </trkpt>
      <trkpt lat="46.60516" lon="5.33313">
        <ele>207.2</ele>
        <time>2022-01-22T12:31:07Z</time>
      </trkpt>
      <trkpt lat="46.60513" lon="5.33321">
        <ele>207.2</ele>
        <time>2022-01-22T12:31:08Z</time>
      </trkpt>
      <trkpt lat="46.60502" lon="5.33369">
        <ele>207.8</ele>
        <time>2022-01-22T12:31:14Z</time>
      </trkpt>
      <trkpt lat="46.60488" lon="5.33424">
        <ele>208.6</ele>
        <time>2022-01-22T12:31:21Z</time>
      </trkpt>
      <trkpt lat="46.60482" lon="5.33448">
        <ele>209.2</ele>
        <time>2022-01-22T12:31:24Z</time>
      </trkpt>
      <trkpt lat="46.60464" lon="5.33521">
        <ele>209.6</ele>
        <time>2022-01-22T12:31:33Z</time>
      </trkpt>
      <trkpt lat="46.60447" lon="5.33596">
        <ele>210</ele>
        <time>2022-01-22T12:31:42Z</time>
      </trkpt>
      <trkpt lat="46.60437" lon="5.33665">
        <ele>210.4</ele>
        <time>2022-01-22T12:31:50Z</time>
      </trkpt>
      <trkpt lat="46.6043" lon="5.33736">
        <ele>210.2</ele>
        <time>2022-01-22T12:31:58Z</time>
      </trkpt>
      <trkpt lat="46.60423" lon="5.33816">
        <ele>210.2</ele>
        <time>2022-01-22T12:32:07Z</time>
      </trkpt>
      <trkpt lat="46.60421" lon="5.33843">
        <ele>210.2</ele>
        <time>2022-01-22T12:32:10Z</time>
      </trkpt>
      <trkpt lat="46.6042" lon="5.33921">
        <ele>210.6</ele>
        <time>2022-01-22T12:32:19Z</time>
      </trkpt>
      <trkpt lat="46.60427" lon="5.3397">
        <ele>211.4</ele>
        <time>2022-01-22T12:32:25Z</time>
      </trkpt>
      <trkpt lat="46.60428" lon="5.33978">
        <ele>211.4</ele>
        <time>2022-01-22T12:32:26Z</time>
      </trkpt>
      <trkpt lat="46.60444" lon="5.34057">
        <ele>211.4</ele>
        <time>2022-01-22T12:32:36Z</time>
      </trkpt>
      <trkpt lat="46.60463" lon="5.34098">
        <ele>211.6</ele>
        <time>2022-01-22T12:32:42Z</time>
      </trkpt>
      <trkpt lat="46.60496" lon="5.34153">
        <ele>211.2</ele>
        <time>2022-01-22T12:32:50Z</time>
      </trkpt>
      <trkpt lat="46.60508" lon="5.34177">
        <ele>210.8</ele>
        <time>2022-01-22T12:32:53Z</time>
      </trkpt>
      <trkpt lat="46.60514" lon="5.34195">
        <ele>210.6</ele>
        <time>2022-01-22T12:32:55Z</time>
      </trkpt>
      <trkpt lat="46.60517" lon="5.34227">
        <ele>210.2</ele>
        <time>2022-01-22T12:32:58Z</time>
      </trkpt>
      <trkpt lat="46.60518" lon="5.34238">
        <ele>210</ele>
        <time>2022-01-22T12:32:59Z</time>
      </trkpt>
      <trkpt lat="46.60521" lon="5.34299">
        <ele>208.6</ele>
        <time>2022-01-22T12:33:04Z</time>
      </trkpt>
      <trkpt lat="46.60522" lon="5.34325">
        <ele>207.8</ele>
        <time>2022-01-22T12:33:06Z</time>
      </trkpt>
      <trkpt lat="46.60522" lon="5.34338">
        <ele>207.4</ele>
        <time>2022-01-22T12:33:07Z</time>
      </trkpt>
      <trkpt lat="46.60525" lon="5.34392">
        <ele>205.8</ele>
        <time>2022-01-22T12:33:11Z</time>
      </trkpt>
      <trkpt lat="46.60526" lon="5.3442">
        <ele>204.6</ele>
        <time>2022-01-22T12:33:13Z</time>
      </trkpt>
      <trkpt lat="46.60528" lon="5.34448">
        <ele>203.8</ele>
        <time>2022-01-22T12:33:15Z</time>
      </trkpt>
      <trkpt lat="46.60528" lon="5.34462">
        <ele>203.4</ele>
        <time>2022-01-22T12:33:16Z</time>
      </trkpt>
      <trkpt lat="46.6053" lon="5.3449">
        <ele>202.2</ele>
        <time>2022-01-22T12:33:18Z</time>
      </trkpt>
      <trkpt lat="46.60531" lon="5.34516">
        <ele>201.2</ele>
        <time>2022-01-22T12:33:20Z</time>
      </trkpt>
      <trkpt lat="46.60533" lon="5.34551">
        <ele>200.4</ele>
        <time>2022-01-22T12:33:23Z</time>
      </trkpt>
      <trkpt lat="46.60533" lon="5.34562">
        <ele>200.2</ele>
        <time>2022-01-22T12:33:24Z</time>
      </trkpt>
      <trkpt lat="46.60535" lon="5.34611">
        <ele>199.2</ele>
        <time>2022-01-22T12:33:29Z</time>
      </trkpt>
      <trkpt lat="46.6054" lon="5.34697">
        <ele>198.6</ele>
        <time>2022-01-22T12:33:38Z</time>
      </trkpt>
      <trkpt lat="46.6054" lon="5.34707">
        <ele>198.6</ele>
        <time>2022-01-22T12:33:39Z</time>
      </trkpt>
      <trkpt lat="46.60542" lon="5.34738">
        <ele>198.2</ele>
        <time>2022-01-22T12:33:42Z</time>
      </trkpt>
      <trkpt lat="46.60544" lon="5.34791">
        <ele>197.2</ele>
        <time>2022-01-22T12:33:47Z</time>
      </trkpt>
      <trkpt lat="46.60547" lon="5.3485">
        <ele>196</ele>
        <time>2022-01-22T12:33:52Z</time>
      </trkpt>
      <trkpt lat="46.60548" lon="5.34886">
        <ele>195.2</ele>
        <time>2022-01-22T12:33:55Z</time>
      </trkpt>
      <trkpt lat="46.60549" lon="5.34897">
        <ele>195</ele>
        <time>2022-01-22T12:33:56Z</time>
      </trkpt>
      <trkpt lat="46.60553" lon="5.34959">
        <ele>194.4</ele>
        <time>2022-01-22T12:34:02Z</time>
      </trkpt>
      <trkpt lat="46.60554" lon="5.35008">
        <ele>194.4</ele>
        <time>2022-01-22T12:34:07Z</time>
      </trkpt>
      <trkpt lat="46.60556" lon="5.35063">
        <ele>195.2</ele>
        <time>2022-01-22T12:34:14Z</time>
      </trkpt>
      <trkpt lat="46.60558" lon="5.35086">
        <ele>196.2</ele>
        <time>2022-01-22T12:34:17Z</time>
      </trkpt>
      <trkpt lat="46.6056" lon="5.35126">
        <ele>197.4</ele>
        <time>2022-01-22T12:34:22Z</time>
      </trkpt>
      <trkpt lat="46.60559" lon="5.35144">
        <ele>197.4</ele>
        <time>2022-01-22T12:34:24Z</time>
      </trkpt>
      <trkpt lat="46.60558" lon="5.35153">
        <ele>197.4</ele>
        <time>2022-01-22T12:34:25Z</time>
      </trkpt>
      <trkpt lat="46.60552" lon="5.3518">
        <ele>197.6</ele>
        <time>2022-01-22T12:34:28Z</time>
      </trkpt>
      <trkpt lat="46.60545" lon="5.35199">
        <ele>197.6</ele>
        <time>2022-01-22T12:34:30Z</time>
      </trkpt>
      <trkpt lat="46.60536" lon="5.35216">
        <ele>197.6</ele>
        <time>2022-01-22T12:34:32Z</time>
      </trkpt>
      <trkpt lat="46.60509" lon="5.35262">
        <ele>196.4</ele>
        <time>2022-01-22T12:34:37Z</time>
      </trkpt>
      <trkpt lat="46.60503" lon="5.35272">
        <ele>195.8</ele>
        <time>2022-01-22T12:34:38Z</time>
      </trkpt>
      <trkpt lat="46.60491" lon="5.35291">
        <ele>195</ele>
        <time>2022-01-22T12:34:40Z</time>
      </trkpt>
      <trkpt lat="46.6048" lon="5.35309">
        <ele>193.8</ele>
        <time>2022-01-22T12:34:42Z</time>
      </trkpt>
      <trkpt lat="46.60457" lon="5.35344">
        <ele>193</ele>
        <time>2022-01-22T12:34:46Z</time>
      </trkpt>
      <trkpt lat="46.60441" lon="5.35367">
        <ele>192.8</ele>
        <time>2022-01-22T12:34:49Z</time>
      </trkpt>
      <trkpt lat="46.6042" lon="5.35398">
        <ele>192.6</ele>
        <time>2022-01-22T12:34:53Z</time>
      </trkpt>
      <trkpt lat="46.6038" lon="5.35457">
        <ele>192.4</ele>
        <time>2022-01-22T12:35:01Z</time>
      </trkpt>
      <trkpt lat="46.60341" lon="5.35513">
        <ele>193</ele>
        <time>2022-01-22T12:35:09Z</time>
      </trkpt>
      <trkpt lat="46.60333" lon="5.35528">
        <ele>193</ele>
        <time>2022-01-22T12:35:11Z</time>
      </trkpt>
      <trkpt lat="46.60313" lon="5.35582">
        <ele>193</ele>
        <time>2022-01-22T12:35:17Z</time>
      </trkpt>
      <trkpt lat="46.60306" lon="5.35619">
        <ele>193</ele>
        <time>2022-01-22T12:35:21Z</time>
      </trkpt>
      <trkpt lat="46.60304" lon="5.35641">
        <ele>193.2</ele>
        <time>2022-01-22T12:35:23Z</time>
      </trkpt>
      <trkpt lat="46.60306" lon="5.35688">
        <ele>193.8</ele>
        <time>2022-01-22T12:35:28Z</time>
      </trkpt>
      <trkpt lat="46.60307" lon="5.35706">
        <ele>194</ele>
        <time>2022-01-22T12:35:30Z</time>
      </trkpt>
      <trkpt lat="46.60311" lon="5.35731">
        <ele>194.2</ele>
        <time>2022-01-22T12:35:33Z</time>
      </trkpt>
      <trkpt lat="46.60312" lon="5.35738">
        <ele>194.4</ele>
        <time>2022-01-22T12:35:34Z</time>
      </trkpt>
      <trkpt lat="46.60314" lon="5.35745">
        <ele>194.6</ele>
        <time>2022-01-22T12:35:35Z</time>
      </trkpt>
      <trkpt lat="46.60318" lon="5.35774">
        <ele>194.8</ele>
        <time>2022-01-22T12:35:39Z</time>
      </trkpt>
      <trkpt lat="46.60319" lon="5.35783">
        <ele>194.8</ele>
        <time>2022-01-22T12:35:40Z</time>
      </trkpt>
      <trkpt lat="46.60324" lon="5.35812">
        <ele>195</ele>
        <time>2022-01-22T12:35:44Z</time>
      </trkpt>
      <trkpt lat="46.60326" lon="5.35821">
        <ele>195</ele>
        <time>2022-01-22T12:35:45Z</time>
      </trkpt>
      <trkpt lat="46.60336" lon="5.35882">
        <ele>196</ele>
        <time>2022-01-22T12:35:53Z</time>
      </trkpt>
      <trkpt lat="46.60337" lon="5.35891">
        <ele>196</ele>
        <time>2022-01-22T12:35:54Z</time>
      </trkpt>
      <trkpt lat="46.60341" lon="5.35942">
        <ele>197</ele>
        <time>2022-01-22T12:36:00Z</time>
      </trkpt>
      <trkpt lat="46.60341" lon="5.35951">
        <ele>197.2</ele>
        <time>2022-01-22T12:36:01Z</time>
      </trkpt>
      <trkpt lat="46.6034" lon="5.35993">
        <ele>197.6</ele>
        <time>2022-01-22T12:36:06Z</time>
      </trkpt>
      <trkpt lat="46.60336" lon="5.36019">
        <ele>197.8</ele>
        <time>2022-01-22T12:36:09Z</time>
      </trkpt>
      <trkpt lat="46.60318" lon="5.3609">
        <ele>197.6</ele>
        <time>2022-01-22T12:36:17Z</time>
      </trkpt>
      <trkpt lat="46.60295" lon="5.36166">
        <ele>196.6</ele>
        <time>2022-01-22T12:36:25Z</time>
      </trkpt>
      <trkpt lat="46.60287" lon="5.36196">
        <ele>196</ele>
        <time>2022-01-22T12:36:28Z</time>
      </trkpt>
      <trkpt lat="46.60278" lon="5.36236">
        <ele>195.6</ele>
        <time>2022-01-22T12:36:32Z</time>
      </trkpt>
      <trkpt lat="46.6027" lon="5.36274">
        <ele>195</ele>
        <time>2022-01-22T12:36:36Z</time>
      </trkpt>
      <trkpt lat="46.60263" lon="5.36308">
        <ele>194.6</ele>
        <time>2022-01-22T12:36:40Z</time>
      </trkpt>
      <trkpt lat="46.6026" lon="5.3632">
        <ele>194.6</ele>
        <time>2022-01-22T12:36:41Z</time>
      </trkpt>
      <trkpt lat="46.60255" lon="5.36347">
        <ele>194.8</ele>
        <time>2022-01-22T12:36:44Z</time>
      </trkpt>
      <trkpt lat="46.60251" lon="5.36381">
        <ele>195.2</ele>
        <time>2022-01-22T12:36:48Z</time>
      </trkpt>
      <trkpt lat="46.60252" lon="5.36389">
        <ele>195.2</ele>
        <time>2022-01-22T12:36:49Z</time>
      </trkpt>
      <trkpt lat="46.60253" lon="5.36418">
        <ele>195.6</ele>
        <time>2022-01-22T12:36:53Z</time>
      </trkpt>
      <trkpt lat="46.60255" lon="5.36432">
        <ele>195.8</ele>
        <time>2022-01-22T12:36:55Z</time>
      </trkpt>
      <trkpt lat="46.60257" lon="5.36439">
        <ele>196.2</ele>
        <time>2022-01-22T12:36:56Z</time>
      </trkpt>
      <trkpt lat="46.60263" lon="5.36459">
        <ele>197</ele>
        <time>2022-01-22T12:36:59Z</time>
      </trkpt>
      <trkpt lat="46.60269" lon="5.36477">
        <ele>197.2</ele>
        <time>2022-01-22T12:37:02Z</time>
      </trkpt>
      <trkpt lat="46.60272" lon="5.36483">
        <ele>197.6</ele>
        <time>2022-01-22T12:37:03Z</time>
      </trkpt>
      <trkpt lat="46.60286" lon="5.3651">
        <ele>198.2</ele>
        <time>2022-01-22T12:37:08Z</time>
      </trkpt>
      <trkpt lat="46.60289" lon="5.36514">
        <ele>198.4</ele>
        <time>2022-01-22T12:37:09Z</time>
      </trkpt>
      <trkpt lat="46.60296" lon="5.36522">
        <ele>198.6</ele>
        <time>2022-01-22T12:37:11Z</time>
      </trkpt>
      <trkpt lat="46.60314" lon="5.36541">
        <ele>199.8</ele>
        <time>2022-01-22T12:37:16Z</time>
      </trkpt>
      <trkpt lat="46.60324" lon="5.3655">
        <ele>200.6</ele>
        <time>2022-01-22T12:37:19Z</time>
      </trkpt>
      <trkpt lat="46.60327" lon="5.36553">
        <ele>200.8</ele>
        <time>2022-01-22T12:37:20Z</time>
      </trkpt>
      <trkpt lat="46.60347" lon="5.36571">
        <ele>201.6</ele>
        <time>2022-01-22T12:37:26Z</time>
      </trkpt>
      <trkpt lat="46.60357" lon="5.36581">
        <ele>201.8</ele>
        <time>2022-01-22T12:37:29Z</time>
      </trkpt>
      <trkpt lat="46.60376" lon="5.36599">
        <ele>202.8</ele>
        <time>2022-01-22T12:37:35Z</time>
      </trkpt>
      <trkpt lat="46.60397" lon="5.36621">
        <ele>203.8</ele>
        <time>2022-01-22T12:37:42Z</time>
      </trkpt>
      <trkpt lat="46.604" lon="5.36624">
        <ele>203.8</ele>
        <time>2022-01-22T12:37:43Z</time>
      </trkpt>
      <trkpt lat="46.60417" lon="5.36649">
        <ele>204.6</ele>
        <time>2022-01-22T12:37:49Z</time>
      </trkpt>
      <trkpt lat="46.60432" lon="5.36682">
        <ele>205</ele>
        <time>2022-01-22T12:37:55Z</time>
      </trkpt>
      <trkpt lat="46.60437" lon="5.36695">
        <ele>205.2</ele>
        <time>2022-01-22T12:37:57Z</time>
      </trkpt>
      <trkpt lat="46.60449" lon="5.36745">
        <ele>205.2</ele>
        <time>2022-01-22T12:38:04Z</time>
      </trkpt>
      <trkpt lat="46.60453" lon="5.3679">
        <ele>204.6</ele>
        <time>2022-01-22T12:38:09Z</time>
      </trkpt>
      <trkpt lat="46.60455" lon="5.36832">
        <ele>204</ele>
        <time>2022-01-22T12:38:13Z</time>
      </trkpt>
      <trkpt lat="46.60456" lon="5.36865">
        <ele>203</ele>
        <time>2022-01-22T12:38:16Z</time>
      </trkpt>
      <trkpt lat="46.60455" lon="5.36876">
        <ele>202.8</ele>
        <time>2022-01-22T12:38:17Z</time>
      </trkpt>
      <trkpt lat="46.60452" lon="5.36912">
        <ele>201.8</ele>
        <time>2022-01-22T12:38:20Z</time>
      </trkpt>
      <trkpt lat="46.60442" lon="5.36975">
        <ele>200.4</ele>
        <time>2022-01-22T12:38:25Z</time>
      </trkpt>
      <trkpt lat="46.6044" lon="5.36987">
        <ele>200.2</ele>
        <time>2022-01-22T12:38:26Z</time>
      </trkpt>
      <trkpt lat="46.60435" lon="5.37025">
        <ele>199.4</ele>
        <time>2022-01-22T12:38:29Z</time>
      </trkpt>
      <trkpt lat="46.60426" lon="5.37082">
        <ele>198.6</ele>
        <time>2022-01-22T12:38:34Z</time>
      </trkpt>
      <trkpt lat="46.60421" lon="5.37121">
        <ele>198.4</ele>
        <time>2022-01-22T12:38:38Z</time>
      </trkpt>
      <trkpt lat="46.60418" lon="5.37148">
        <ele>198.4</ele>
        <time>2022-01-22T12:38:41Z</time>
      </trkpt>
      <trkpt lat="46.60413" lon="5.37202">
        <ele>199.2</ele>
        <time>2022-01-22T12:38:48Z</time>
      </trkpt>
      <trkpt lat="46.60411" lon="5.37218">
        <ele>199.6</ele>
        <time>2022-01-22T12:38:50Z</time>
      </trkpt>
      <trkpt lat="46.60403" lon="5.37263">
        <ele>200.2</ele>
        <time>2022-01-22T12:38:56Z</time>
      </trkpt>
      <trkpt lat="46.60396" lon="5.37284">
        <ele>200.6</ele>
        <time>2022-01-22T12:38:59Z</time>
      </trkpt>
      <trkpt lat="46.6039" lon="5.37296">
        <ele>200.8</ele>
        <time>2022-01-22T12:39:01Z</time>
      </trkpt>
      <trkpt lat="46.60384" lon="5.37307">
        <ele>201</ele>
        <time>2022-01-22T12:39:03Z</time>
      </trkpt>
      <trkpt lat="46.6038" lon="5.37311">
        <ele>201.2</ele>
        <time>2022-01-22T12:39:04Z</time>
      </trkpt>
      <trkpt lat="46.60373" lon="5.37318">
        <ele>201.6</ele>
        <time>2022-01-22T12:39:06Z</time>
      </trkpt>
      <trkpt lat="46.60369" lon="5.3732">
        <ele>201.8</ele>
        <time>2022-01-22T12:39:07Z</time>
      </trkpt>
      <trkpt lat="46.6036" lon="5.37324">
        <ele>202.6</ele>
        <time>2022-01-22T12:39:09Z</time>
      </trkpt>
      <trkpt lat="46.60348" lon="5.37328">
        <ele>203.8</ele>
        <time>2022-01-22T12:39:12Z</time>
      </trkpt>
      <trkpt lat="46.60344" lon="5.37329">
        <ele>204.4</ele>
        <time>2022-01-22T12:39:13Z</time>
      </trkpt>
      <trkpt lat="46.60335" lon="5.37331">
        <ele>205.2</ele>
        <time>2022-01-22T12:39:15Z</time>
      </trkpt>
      <trkpt lat="46.60327" lon="5.37334">
        <ele>205.6</ele>
        <time>2022-01-22T12:39:17Z</time>
      </trkpt>
      <trkpt lat="46.60315" lon="5.37338">
        <ele>206.4</ele>
        <time>2022-01-22T12:39:20Z</time>
      </trkpt>
      <trkpt lat="46.60299" lon="5.37344">
        <ele>207.4</ele>
        <time>2022-01-22T12:39:24Z</time>
      </trkpt>
      <trkpt lat="46.60285" lon="5.37348">
        <ele>208.2</ele>
        <time>2022-01-22T12:39:27Z</time>
      </trkpt>
      <trkpt lat="46.60281" lon="5.37349">
        <ele>208.6</ele>
        <time>2022-01-22T12:39:28Z</time>
      </trkpt>
      <trkpt lat="46.60276" lon="5.3735">
        <ele>208.8</ele>
        <time>2022-01-22T12:39:29Z</time>
      </trkpt>
      <trkpt lat="46.60263" lon="5.3736">
        <ele>209.2</ele>
        <time>2022-01-22T12:39:32Z</time>
      </trkpt>
      <trkpt lat="46.6026" lon="5.37365">
        <ele>209.6</ele>
        <time>2022-01-22T12:39:33Z</time>
      </trkpt>
      <trkpt lat="46.60256" lon="5.3737">
        <ele>209.8</ele>
        <time>2022-01-22T12:39:34Z</time>
      </trkpt>
      <trkpt lat="46.6025" lon="5.37384">
        <ele>210.2</ele>
        <time>2022-01-22T12:39:36Z</time>
      </trkpt>
      <trkpt lat="46.60233" lon="5.37437">
        <ele>210.4</ele>
        <time>2022-01-22T12:39:42Z</time>
      </trkpt>
      <trkpt lat="46.60217" lon="5.37494">
        <ele>208.4</ele>
        <time>2022-01-22T12:39:47Z</time>
      </trkpt>
      <trkpt lat="46.60209" lon="5.37533">
        <ele>207.2</ele>
        <time>2022-01-22T12:39:50Z</time>
      </trkpt>
      <trkpt lat="46.60203" lon="5.3756">
        <ele>206.2</ele>
        <time>2022-01-22T12:39:52Z</time>
      </trkpt>
      <trkpt lat="46.60195" lon="5.37602">
        <ele>205</ele>
        <time>2022-01-22T12:39:55Z</time>
      </trkpt>
      <trkpt lat="46.60187" lon="5.37644">
        <ele>203.6</ele>
        <time>2022-01-22T12:39:58Z</time>
      </trkpt>
      <trkpt lat="46.60185" lon="5.37658">
        <ele>203.4</ele>
        <time>2022-01-22T12:39:59Z</time>
      </trkpt>
      <trkpt lat="46.60177" lon="5.37698">
        <ele>202.6</ele>
        <time>2022-01-22T12:40:02Z</time>
      </trkpt>
      <trkpt lat="46.6017" lon="5.37738">
        <ele>201.4</ele>
        <time>2022-01-22T12:40:05Z</time>
      </trkpt>
      <trkpt lat="46.60163" lon="5.37777">
        <ele>200.4</ele>
        <time>2022-01-22T12:40:08Z</time>
      </trkpt>
      <trkpt lat="46.60161" lon="5.37789">
        <ele>199.8</ele>
        <time>2022-01-22T12:40:09Z</time>
      </trkpt>
      <trkpt lat="46.6015" lon="5.37845">
        <ele>199.2</ele>
        <time>2022-01-22T12:40:14Z</time>
      </trkpt>
      <trkpt lat="46.60138" lon="5.37902">
        <ele>199.4</ele>
        <time>2022-01-22T12:40:20Z</time>
      </trkpt>
      <trkpt lat="46.60132" lon="5.37935">
        <ele>199.8</ele>
        <time>2022-01-22T12:40:24Z</time>
      </trkpt>
      <trkpt lat="46.60127" lon="5.3796">
        <ele>200</ele>
        <time>2022-01-22T12:40:27Z</time>
      </trkpt>
      <trkpt lat="46.60112" lon="5.38041">
        <ele>201.2</ele>
        <time>2022-01-22T12:40:37Z</time>
      </trkpt>
      <trkpt lat="46.60106" lon="5.38085">
        <ele>202.2</ele>
        <time>2022-01-22T12:40:42Z</time>
      </trkpt>
      <trkpt lat="46.60102" lon="5.38111">
        <ele>202.6</ele>
        <time>2022-01-22T12:40:45Z</time>
      </trkpt>
      <trkpt lat="46.60094" lon="5.38192">
        <ele>202.2</ele>
        <time>2022-01-22T12:40:54Z</time>
      </trkpt>
      <trkpt lat="46.60093" lon="5.38275">
        <ele>201.6</ele>
        <time>2022-01-22T12:41:03Z</time>
      </trkpt>
      <trkpt lat="46.60093" lon="5.38303">
        <ele>201.4</ele>
        <time>2022-01-22T12:41:06Z</time>
      </trkpt>
      <trkpt lat="46.60092" lon="5.38321">
        <ele>201.2</ele>
        <time>2022-01-22T12:41:08Z</time>
      </trkpt>
      <trkpt lat="46.60093" lon="5.38401">
        <ele>201.2</ele>
        <time>2022-01-22T12:41:17Z</time>
      </trkpt>
      <trkpt lat="46.60093" lon="5.38468">
        <ele>201.8</ele>
        <time>2022-01-22T12:41:25Z</time>
      </trkpt>
      <trkpt lat="46.60092" lon="5.38485">
        <ele>201.8</ele>
        <time>2022-01-22T12:41:27Z</time>
      </trkpt>
      <trkpt lat="46.60091" lon="5.38522">
        <ele>201.4</ele>
        <time>2022-01-22T12:41:31Z</time>
      </trkpt>
      <trkpt lat="46.60089" lon="5.3855">
        <ele>201.2</ele>
        <time>2022-01-22T12:41:34Z</time>
      </trkpt>
      <trkpt lat="46.60087" lon="5.38568">
        <ele>201</ele>
        <time>2022-01-22T12:41:36Z</time>
      </trkpt>
      <trkpt lat="46.60072" lon="5.38641">
        <ele>200.2</ele>
        <time>2022-01-22T12:41:43Z</time>
      </trkpt>
      <trkpt lat="46.6007" lon="5.38651">
        <ele>200</ele>
        <time>2022-01-22T12:41:44Z</time>
      </trkpt>
      <trkpt lat="46.60052" lon="5.38727">
        <ele>199.6</ele>
        <time>2022-01-22T12:41:52Z</time>
      </trkpt>
      <trkpt lat="46.60044" lon="5.38763">
        <ele>200.2</ele>
        <time>2022-01-22T12:41:57Z</time>
      </trkpt>
      <trkpt lat="46.60035" lon="5.38791">
        <ele>201.2</ele>
        <time>2022-01-22T12:42:02Z</time>
      </trkpt>
      <trkpt lat="46.60033" lon="5.38796">
        <ele>201.6</ele>
        <time>2022-01-22T12:42:03Z</time>
      </trkpt>
      <trkpt lat="46.60028" lon="5.38811">
        <ele>202.8</ele>
        <time>2022-01-22T12:42:06Z</time>
      </trkpt>
      <trkpt lat="46.60022" lon="5.38826">
        <ele>203.8</ele>
        <time>2022-01-22T12:42:09Z</time>
      </trkpt>
      <trkpt lat="46.6002" lon="5.38832">
        <ele>204.2</ele>
        <time>2022-01-22T12:42:10Z</time>
      </trkpt>
      <trkpt lat="46.60015" lon="5.38846">
        <ele>204.8</ele>
        <time>2022-01-22T12:42:13Z</time>
      </trkpt>
      <trkpt lat="46.6001" lon="5.38866">
        <ele>206</ele>
        <time>2022-01-22T12:42:17Z</time>
      </trkpt>
      <trkpt lat="46.60003" lon="5.38881">
        <ele>207.2</ele>
        <time>2022-01-22T12:42:20Z</time>
      </trkpt>
      <trkpt lat="46.59997" lon="5.38901">
        <ele>208.6</ele>
        <time>2022-01-22T12:42:24Z</time>
      </trkpt>
      <trkpt lat="46.59991" lon="5.38921">
        <ele>209.4</ele>
        <time>2022-01-22T12:42:28Z</time>
      </trkpt>
      <trkpt lat="46.59989" lon="5.38926">
        <ele>209.6</ele>
        <time>2022-01-22T12:42:29Z</time>
      </trkpt>
      <trkpt lat="46.59984" lon="5.38948">
        <ele>210.8</ele>
        <time>2022-01-22T12:42:33Z</time>
      </trkpt>
      <trkpt lat="46.59982" lon="5.3896">
        <ele>211.4</ele>
        <time>2022-01-22T12:42:35Z</time>
      </trkpt>
      <trkpt lat="46.5998" lon="5.38978">
        <ele>211.8</ele>
        <time>2022-01-22T12:42:38Z</time>
      </trkpt>
      <trkpt lat="46.59976" lon="5.39008">
        <ele>213</ele>
        <time>2022-01-22T12:42:43Z</time>
      </trkpt>
      <trkpt lat="46.59975" lon="5.39013">
        <ele>213.4</ele>
        <time>2022-01-22T12:42:44Z</time>
      </trkpt>
      <trkpt lat="46.59971" lon="5.39048">
        <ele>214.4</ele>
        <time>2022-01-22T12:42:50Z</time>
      </trkpt>
      <trkpt lat="46.5997" lon="5.39054">
        <ele>214.6</ele>
        <time>2022-01-22T12:42:51Z</time>
      </trkpt>
      <trkpt lat="46.59966" lon="5.39087">
        <ele>215.2</ele>
        <time>2022-01-22T12:42:57Z</time>
      </trkpt>
      <trkpt lat="46.59961" lon="5.39102">
        <ele>215.6</ele>
        <time>2022-01-22T12:43:00Z</time>
      </trkpt>
      <trkpt lat="46.59959" lon="5.39106">
        <ele>215.8</ele>
        <time>2022-01-22T12:43:01Z</time>
      </trkpt>
      <trkpt lat="46.59947" lon="5.39123">
        <ele>216.6</ele>
        <time>2022-01-22T12:43:05Z</time>
      </trkpt>
      <trkpt lat="46.59937" lon="5.39143">
        <ele>217</ele>
        <time>2022-01-22T12:43:09Z</time>
      </trkpt>
      <trkpt lat="46.59923" lon="5.39167">
        <ele>217.2</ele>
        <time>2022-01-22T12:43:14Z</time>
      </trkpt>
      <trkpt lat="46.59919" lon="5.39176">
        <ele>217.4</ele>
        <time>2022-01-22T12:43:16Z</time>
      </trkpt>
      <trkpt lat="46.59922" lon="5.39185">
        <ele>217.4</ele>
        <time>2022-01-22T12:43:18Z</time>
      </trkpt>
      <trkpt lat="46.59926" lon="5.39187">
        <ele>217.4</ele>
        <time>2022-01-22T12:43:19Z</time>
      </trkpt>
      <trkpt lat="46.59937" lon="5.39187">
        <ele>217.4</ele>
        <time>2022-01-22T12:43:21Z</time>
      </trkpt>
      <trkpt lat="46.59976" lon="5.39188">
        <ele>216.6</ele>
        <time>2022-01-22T12:43:27Z</time>
      </trkpt>
      <trkpt lat="46.59983" lon="5.3919">
        <ele>216.6</ele>
        <time>2022-01-22T12:43:28Z</time>
      </trkpt>
      <trkpt lat="46.60007" lon="5.39202">
        <ele>216</ele>
        <time>2022-01-22T12:43:32Z</time>
      </trkpt>
      <trkpt lat="46.60018" lon="5.39211">
        <ele>215.4</ele>
        <time>2022-01-22T12:43:34Z</time>
      </trkpt>
      <trkpt lat="46.60029" lon="5.39224">
        <ele>215.2</ele>
        <time>2022-01-22T12:43:36Z</time>
      </trkpt>
      <trkpt lat="46.60034" lon="5.39231">
        <ele>214.8</ele>
        <time>2022-01-22T12:43:37Z</time>
      </trkpt>
      <trkpt lat="46.60038" lon="5.3924">
        <ele>214.8</ele>
        <time>2022-01-22T12:43:38Z</time>
      </trkpt>
      <trkpt lat="46.60046" lon="5.3926">
        <ele>214.4</ele>
        <time>2022-01-22T12:43:40Z</time>
      </trkpt>
      <trkpt lat="46.60049" lon="5.39271">
        <ele>214.2</ele>
        <time>2022-01-22T12:43:41Z</time>
      </trkpt>
      <trkpt lat="46.60052" lon="5.39307">
        <ele>213</ele>
        <time>2022-01-22T12:43:44Z</time>
      </trkpt>
      <trkpt lat="46.60052" lon="5.39319">
        <ele>212.8</ele>
        <time>2022-01-22T12:43:45Z</time>
      </trkpt>
      <trkpt lat="46.60049" lon="5.39357">
        <ele>211.4</ele>
        <time>2022-01-22T12:43:48Z</time>
      </trkpt>
      <trkpt lat="46.60045" lon="5.39381">
        <ele>210.4</ele>
        <time>2022-01-22T12:43:50Z</time>
      </trkpt>
      <trkpt lat="46.60043" lon="5.39393">
        <ele>210.2</ele>
        <time>2022-01-22T12:43:51Z</time>
      </trkpt>
      <trkpt lat="46.60035" lon="5.39434">
        <ele>209.2</ele>
        <time>2022-01-22T12:43:55Z</time>
      </trkpt>
      <trkpt lat="46.60033" lon="5.39453">
        <ele>209.2</ele>
        <time>2022-01-22T12:43:57Z</time>
      </trkpt>
      <trkpt lat="46.60035" lon="5.39473">
        <ele>209.2</ele>
        <time>2022-01-22T12:43:59Z</time>
      </trkpt>
      <trkpt lat="46.60036" lon="5.39482">
        <ele>209.2</ele>
        <time>2022-01-22T12:44:00Z</time>
      </trkpt>
      <trkpt lat="46.60041" lon="5.39501">
        <ele>209.2</ele>
        <time>2022-01-22T12:44:02Z</time>
      </trkpt>
      <trkpt lat="46.60045" lon="5.3951">
        <ele>209.2</ele>
        <time>2022-01-22T12:44:03Z</time>
      </trkpt>
      <trkpt lat="46.60058" lon="5.39538">
        <ele>209.2</ele>
        <time>2022-01-22T12:44:06Z</time>
      </trkpt>
      <trkpt lat="46.60062" lon="5.39547">
        <ele>209</ele>
        <time>2022-01-22T12:44:07Z</time>
      </trkpt>
      <trkpt lat="46.6008" lon="5.39585">
        <ele>207.8</ele>
        <time>2022-01-22T12:44:11Z</time>
      </trkpt>
      <trkpt lat="46.60086" lon="5.39606">
        <ele>207</ele>
        <time>2022-01-22T12:44:13Z</time>
      </trkpt>
      <trkpt lat="46.60088" lon="5.39617">
        <ele>206.6</ele>
        <time>2022-01-22T12:44:14Z</time>
      </trkpt>
      <trkpt lat="46.60089" lon="5.39628">
        <ele>206.2</ele>
        <time>2022-01-22T12:44:15Z</time>
      </trkpt>
      <trkpt lat="46.60088" lon="5.39652">
        <ele>205.6</ele>
        <time>2022-01-22T12:44:17Z</time>
      </trkpt>
      <trkpt lat="46.60086" lon="5.39664">
        <ele>205</ele>
        <time>2022-01-22T12:44:18Z</time>
      </trkpt>
      <trkpt lat="46.60082" lon="5.39676">
        <ele>204.6</ele>
        <time>2022-01-22T12:44:19Z</time>
      </trkpt>
      <trkpt lat="46.60077" lon="5.39687">
        <ele>204.2</ele>
        <time>2022-01-22T12:44:20Z</time>
      </trkpt>
      <trkpt lat="46.60068" lon="5.39708">
        <ele>204</ele>
        <time>2022-01-22T12:44:22Z</time>
      </trkpt>
      <trkpt lat="46.60064" lon="5.39719">
        <ele>203.4</ele>
        <time>2022-01-22T12:44:23Z</time>
      </trkpt>
      <trkpt lat="46.60063" lon="5.39732">
        <ele>202.6</ele>
        <time>2022-01-22T12:44:24Z</time>
      </trkpt>
      <trkpt lat="46.60064" lon="5.39744">
        <ele>202</ele>
        <time>2022-01-22T12:44:25Z</time>
      </trkpt>
      <trkpt lat="46.60066" lon="5.39755">
        <ele>201.8</ele>
        <time>2022-01-22T12:44:26Z</time>
      </trkpt>
      <trkpt lat="46.60069" lon="5.39766">
        <ele>201.4</ele>
        <time>2022-01-22T12:44:27Z</time>
      </trkpt>
      <trkpt lat="46.6009" lon="5.39814">
        <ele>201.2</ele>
        <time>2022-01-22T12:44:32Z</time>
      </trkpt>
      <trkpt lat="46.60101" lon="5.39828">
        <ele>200.8</ele>
        <time>2022-01-22T12:44:34Z</time>
      </trkpt>
      <trkpt lat="46.60107" lon="5.39834">
        <ele>200.8</ele>
        <time>2022-01-22T12:44:35Z</time>
      </trkpt>
      <trkpt lat="46.60113" lon="5.39839">
        <ele>200.8</ele>
        <time>2022-01-22T12:44:36Z</time>
      </trkpt>
      <trkpt lat="46.60141" lon="5.39865">
        <ele>200.2</ele>
        <time>2022-01-22T12:44:41Z</time>
      </trkpt>
      <trkpt lat="46.60161" lon="5.39883">
        <ele>199.8</ele>
        <time>2022-01-22T12:44:45Z</time>
      </trkpt>
      <trkpt lat="46.6017" lon="5.39894">
        <ele>199.8</ele>
        <time>2022-01-22T12:44:47Z</time>
      </trkpt>
      <trkpt lat="46.60177" lon="5.39907">
        <ele>199.8</ele>
        <time>2022-01-22T12:44:49Z</time>
      </trkpt>
      <trkpt lat="46.60182" lon="5.39921">
        <ele>199.8</ele>
        <time>2022-01-22T12:44:51Z</time>
      </trkpt>
      <trkpt lat="46.60185" lon="5.39937">
        <ele>199.8</ele>
        <time>2022-01-22T12:44:53Z</time>
      </trkpt>
      <trkpt lat="46.60187" lon="5.39959">
        <ele>200</ele>
        <time>2022-01-22T12:44:56Z</time>
      </trkpt>
      <trkpt lat="46.60188" lon="5.40016">
        <ele>200.8</ele>
        <time>2022-01-22T12:45:04Z</time>
      </trkpt>
      <trkpt lat="46.6019" lon="5.40059">
        <ele>202</ele>
        <time>2022-01-22T12:45:10Z</time>
      </trkpt>
      <trkpt lat="46.6019" lon="5.40066">
        <ele>202.2</ele>
        <time>2022-01-22T12:45:11Z</time>
      </trkpt>
      <trkpt lat="46.60191" lon="5.40116">
        <ele>202.8</ele>
        <time>2022-01-22T12:45:18Z</time>
      </trkpt>
      <trkpt lat="46.60189" lon="5.4013">
        <ele>203</ele>
        <time>2022-01-22T12:45:20Z</time>
      </trkpt>
      <trkpt lat="46.60188" lon="5.40136">
        <ele>203.2</ele>
        <time>2022-01-22T12:45:21Z</time>
      </trkpt>
      <trkpt lat="46.60186" lon="5.40143">
        <ele>203.2</ele>
        <time>2022-01-22T12:45:22Z</time>
      </trkpt>
      <trkpt lat="46.60179" lon="5.40174">
        <ele>204</ele>
        <time>2022-01-22T12:45:26Z</time>
      </trkpt>
      <trkpt lat="46.60176" lon="5.40191">
        <ele>204.2</ele>
        <time>2022-01-22T12:45:28Z</time>
      </trkpt>
      <trkpt lat="46.60175" lon="5.40208">
        <ele>204.4</ele>
        <time>2022-01-22T12:45:30Z</time>
      </trkpt>
      <trkpt lat="46.60176" lon="5.40216">
        <ele>204.4</ele>
        <time>2022-01-22T12:45:31Z</time>
      </trkpt>
      <trkpt lat="46.60179" lon="5.40233">
        <ele>204.6</ele>
        <time>2022-01-22T12:45:33Z</time>
      </trkpt>
      <trkpt lat="46.60186" lon="5.40256">
        <ele>204.6</ele>
        <time>2022-01-22T12:45:36Z</time>
      </trkpt>
      <trkpt lat="46.60212" lon="5.40326">
        <ele>204.8</ele>
        <time>2022-01-22T12:45:46Z</time>
      </trkpt>
      <trkpt lat="46.60219" lon="5.40353">
        <ele>205</ele>
        <time>2022-01-22T12:45:50Z</time>
      </trkpt>
      <trkpt lat="46.60221" lon="5.40377">
        <ele>205</ele>
        <time>2022-01-22T12:45:53Z</time>
      </trkpt>
      <trkpt lat="46.6022" lon="5.40428">
        <ele>204.4</ele>
        <time>2022-01-22T12:45:58Z</time>
      </trkpt>
      <trkpt lat="46.60219" lon="5.40477">
        <ele>203.4</ele>
        <time>2022-01-22T12:46:02Z</time>
      </trkpt>
      <trkpt lat="46.60221" lon="5.4049">
        <ele>203.2</ele>
        <time>2022-01-22T12:46:03Z</time>
      </trkpt>
      <trkpt lat="46.60233" lon="5.40549">
        <ele>202.2</ele>
        <time>2022-01-22T12:46:08Z</time>
      </trkpt>
      <trkpt lat="46.60235" lon="5.4056">
        <ele>201.8</ele>
        <time>2022-01-22T12:46:09Z</time>
      </trkpt>
      <trkpt lat="46.60236" lon="5.40583">
        <ele>201.2</ele>
        <time>2022-01-22T12:46:11Z</time>
      </trkpt>
      <trkpt lat="46.60234" lon="5.40595">
        <ele>201</ele>
        <time>2022-01-22T12:46:12Z</time>
      </trkpt>
      <trkpt lat="46.60232" lon="5.40606">
        <ele>201</ele>
        <time>2022-01-22T12:46:13Z</time>
      </trkpt>
      <trkpt lat="46.60225" lon="5.40627">
        <ele>200.6</ele>
        <time>2022-01-22T12:46:15Z</time>
      </trkpt>
      <trkpt lat="46.60205" lon="5.40662">
        <ele>199.4</ele>
        <time>2022-01-22T12:46:19Z</time>
      </trkpt>
      <trkpt lat="46.60195" lon="5.40679">
        <ele>199.4</ele>
        <time>2022-01-22T12:46:21Z</time>
      </trkpt>
      <trkpt lat="46.60178" lon="5.40714">
        <ele>198.8</ele>
        <time>2022-01-22T12:46:25Z</time>
      </trkpt>
      <trkpt lat="46.60175" lon="5.40724">
        <ele>198.8</ele>
        <time>2022-01-22T12:46:26Z</time>
      </trkpt>
      <trkpt lat="46.60173" lon="5.40735">
        <ele>198.8</ele>
        <time>2022-01-22T12:46:27Z</time>
      </trkpt>
      <trkpt lat="46.60172" lon="5.40756">
        <ele>198.8</ele>
        <time>2022-01-22T12:46:29Z</time>
      </trkpt>
      <trkpt lat="46.60172" lon="5.40767">
        <ele>198.6</ele>
        <time>2022-01-22T12:46:30Z</time>
      </trkpt>
      <trkpt lat="46.60173" lon="5.40778">
        <ele>198.6</ele>
        <time>2022-01-22T12:46:31Z</time>
      </trkpt>
      <trkpt lat="46.60178" lon="5.40797">
        <ele>198.6</ele>
        <time>2022-01-22T12:46:33Z</time>
      </trkpt>
      <trkpt lat="46.60182" lon="5.40806">
        <ele>198.6</ele>
        <time>2022-01-22T12:46:34Z</time>
      </trkpt>
      <trkpt lat="46.60187" lon="5.40813">
        <ele>198.6</ele>
        <time>2022-01-22T12:46:35Z</time>
      </trkpt>
      <trkpt lat="46.60203" lon="5.40831">
        <ele>198.6</ele>
        <time>2022-01-22T12:46:38Z</time>
      </trkpt>
      <trkpt lat="46.60235" lon="5.40859">
        <ele>199</ele>
        <time>2022-01-22T12:46:44Z</time>
      </trkpt>
      <trkpt lat="46.60264" lon="5.4088">
        <ele>199.4</ele>
        <time>2022-01-22T12:46:50Z</time>
      </trkpt>
      <trkpt lat="46.60289" lon="5.40902">
        <ele>200</ele>
        <time>2022-01-22T12:46:56Z</time>
      </trkpt>
      <trkpt lat="46.603" lon="5.40915">
        <ele>200.4</ele>
        <time>2022-01-22T12:46:59Z</time>
      </trkpt>
      <trkpt lat="46.60308" lon="5.4093">
        <ele>200.8</ele>
        <time>2022-01-22T12:47:02Z</time>
      </trkpt>
      <trkpt lat="46.60319" lon="5.40953">
        <ele>201.8</ele>
        <time>2022-01-22T12:47:07Z</time>
      </trkpt>
      <trkpt lat="46.60324" lon="5.40963">
        <ele>202.4</ele>
        <time>2022-01-22T12:47:09Z</time>
      </trkpt>
      <trkpt lat="46.60326" lon="5.40966">
        <ele>202.6</ele>
        <time>2022-01-22T12:47:10Z</time>
      </trkpt>
      <trkpt lat="46.60328" lon="5.4097">
        <ele>203</ele>
        <time>2022-01-22T12:47:11Z</time>
      </trkpt>
      <trkpt lat="46.60337" lon="5.40982">
        <ele>204</ele>
        <time>2022-01-22T12:47:15Z</time>
      </trkpt>
      <trkpt lat="46.60339" lon="5.40985">
        <ele>204.4</ele>
        <time>2022-01-22T12:47:16Z</time>
      </trkpt>
      <trkpt lat="46.60349" lon="5.40996">
        <ele>205.6</ele>
        <time>2022-01-22T12:47:20Z</time>
      </trkpt>
      <trkpt lat="46.60359" lon="5.41003">
        <ele>206.4</ele>
        <time>2022-01-22T12:47:23Z</time>
      </trkpt>
      <trkpt lat="46.60366" lon="5.41006">
        <ele>207</ele>
        <time>2022-01-22T12:47:25Z</time>
      </trkpt>
      <trkpt lat="46.6038" lon="5.41015">
        <ele>208</ele>
        <time>2022-01-22T12:47:29Z</time>
      </trkpt>
      <trkpt lat="46.60387" lon="5.4102">
        <ele>208.8</ele>
        <time>2022-01-22T12:47:31Z</time>
      </trkpt>
      <trkpt lat="46.6039" lon="5.41024">
        <ele>209.2</ele>
        <time>2022-01-22T12:47:32Z</time>
      </trkpt>
      <trkpt lat="46.60404" lon="5.41043">
        <ele>210</ele>
        <time>2022-01-22T12:47:37Z</time>
      </trkpt>
      <trkpt lat="46.60407" lon="5.41047">
        <ele>210.6</ele>
        <time>2022-01-22T12:47:38Z</time>
      </trkpt>
      <trkpt lat="46.60421" lon="5.41082">
        <ele>211.6</ele>
        <time>2022-01-22T12:47:45Z</time>
      </trkpt>
      <trkpt lat="46.60423" lon="5.41088">
        <ele>211.6</ele>
        <time>2022-01-22T12:47:46Z</time>
      </trkpt>
      <trkpt lat="46.60431" lon="5.41106">
        <ele>212</ele>
        <time>2022-01-22T12:47:49Z</time>
      </trkpt>
      <trkpt lat="46.60439" lon="5.41118">
        <ele>212</ele>
        <time>2022-01-22T12:47:51Z</time>
      </trkpt>
      <trkpt lat="46.60454" lon="5.4113">
        <ele>211.8</ele>
        <time>2022-01-22T12:47:54Z</time>
      </trkpt>
      <trkpt lat="46.6046" lon="5.41133">
        <ele>211.8</ele>
        <time>2022-01-22T12:47:55Z</time>
      </trkpt>
      <trkpt lat="46.60478" lon="5.41138">
        <ele>211.4</ele>
        <time>2022-01-22T12:47:58Z</time>
      </trkpt>
      <trkpt lat="46.60491" lon="5.41139">
        <ele>211</ele>
        <time>2022-01-22T12:48:00Z</time>
      </trkpt>
      <trkpt lat="46.60512" lon="5.4114">
        <ele>210.6</ele>
        <time>2022-01-22T12:48:03Z</time>
      </trkpt>
      <trkpt lat="46.60542" lon="5.41142">
        <ele>209.6</ele>
        <time>2022-01-22T12:48:07Z</time>
      </trkpt>
      <trkpt lat="46.6055" lon="5.41142">
        <ele>209.2</ele>
        <time>2022-01-22T12:48:08Z</time>
      </trkpt>
      <trkpt lat="46.60589" lon="5.41149">
        <ele>208</ele>
        <time>2022-01-22T12:48:13Z</time>
      </trkpt>
      <trkpt lat="46.60604" lon="5.41153">
        <ele>207.6</ele>
        <time>2022-01-22T12:48:15Z</time>
      </trkpt>
      <trkpt lat="46.60619" lon="5.41158">
        <ele>207</ele>
        <time>2022-01-22T12:48:17Z</time>
      </trkpt>
      <trkpt lat="46.6065" lon="5.41169">
        <ele>205.8</ele>
        <time>2022-01-22T12:48:21Z</time>
      </trkpt>
      <trkpt lat="46.60693" lon="5.41188">
        <ele>205</ele>
        <time>2022-01-22T12:48:27Z</time>
      </trkpt>
      <trkpt lat="46.60699" lon="5.41194">
        <ele>204.8</ele>
        <time>2022-01-22T12:48:28Z</time>
      </trkpt>
      <trkpt lat="46.60705" lon="5.412">
        <ele>204.6</ele>
        <time>2022-01-22T12:48:29Z</time>
      </trkpt>
      <trkpt lat="46.60715" lon="5.41213">
        <ele>204.4</ele>
        <time>2022-01-22T12:48:31Z</time>
      </trkpt>
      <trkpt lat="46.60748" lon="5.41255">
        <ele>204.6</ele>
        <time>2022-01-22T12:48:38Z</time>
      </trkpt>
      <trkpt lat="46.6078" lon="5.41289">
        <ele>204.8</ele>
        <time>2022-01-22T12:48:45Z</time>
      </trkpt>
      <trkpt lat="46.60807" lon="5.41318">
        <ele>204.6</ele>
        <time>2022-01-22T12:48:50Z</time>
      </trkpt>
      <trkpt lat="46.60814" lon="5.41323">
        <ele>204.4</ele>
        <time>2022-01-22T12:48:51Z</time>
      </trkpt>
      <trkpt lat="46.60828" lon="5.41331">
        <ele>203.6</ele>
        <time>2022-01-22T12:48:53Z</time>
      </trkpt>
      <trkpt lat="46.60835" lon="5.41333">
        <ele>203</ele>
        <time>2022-01-22T12:48:54Z</time>
      </trkpt>
      <trkpt lat="46.60841" lon="5.41333">
        <ele>202.8</ele>
        <time>2022-01-22T12:48:55Z</time>
      </trkpt>
      <trkpt lat="46.60846" lon="5.41332">
        <ele>202</ele>
        <time>2022-01-22T12:48:56Z</time>
      </trkpt>
      <trkpt lat="46.60851" lon="5.41329">
        <ele>201.8</ele>
        <time>2022-01-22T12:48:57Z</time>
      </trkpt>
      <trkpt lat="46.60862" lon="5.41322">
        <ele>201.2</ele>
        <time>2022-01-22T12:48:59Z</time>
      </trkpt>
      <trkpt lat="46.60867" lon="5.41317">
        <ele>200.8</ele>
        <time>2022-01-22T12:49:00Z</time>
      </trkpt>
      <trkpt lat="46.60877" lon="5.41305">
        <ele>200.2</ele>
        <time>2022-01-22T12:49:02Z</time>
      </trkpt>
      <trkpt lat="46.60892" lon="5.41285">
        <ele>199.8</ele>
        <time>2022-01-22T12:49:05Z</time>
      </trkpt>
      <trkpt lat="46.60922" lon="5.41247">
        <ele>199.2</ele>
        <time>2022-01-22T12:49:11Z</time>
      </trkpt>
      <trkpt lat="46.60932" lon="5.41237">
        <ele>198.6</ele>
        <time>2022-01-22T12:49:13Z</time>
      </trkpt>
      <trkpt lat="46.60952" lon="5.41215">
        <ele>198.2</ele>
        <time>2022-01-22T12:49:17Z</time>
      </trkpt>
      <trkpt lat="46.60967" lon="5.412">
        <ele>197.8</ele>
        <time>2022-01-22T12:49:20Z</time>
      </trkpt>
      <trkpt lat="46.60979" lon="5.41188">
        <ele>197.8</ele>
        <time>2022-01-22T12:49:23Z</time>
      </trkpt>
      <trkpt lat="46.60984" lon="5.41183">
        <ele>197.6</ele>
        <time>2022-01-22T12:49:25Z</time>
      </trkpt>
      <trkpt lat="46.60984" lon="5.41181">
        <ele>197.6</ele>
        <time>2022-01-22T12:49:26Z</time>
      </trkpt>
      <trkpt lat="46.60976" lon="5.41184">
        <ele>197.4</ele>
        <time>2022-01-22T12:49:29Z</time>
      </trkpt>
      <trkpt lat="46.60966" lon="5.41194">
        <ele>197</ele>
        <time>2022-01-22T12:49:32Z</time>
      </trkpt>
      <trkpt lat="46.60959" lon="5.41202">
        <ele>196.8</ele>
        <time>2022-01-22T12:49:34Z</time>
      </trkpt>
      <trkpt lat="46.60935" lon="5.41226">
        <ele>196.8</ele>
        <time>2022-01-22T12:49:39Z</time>
      </trkpt>
      <trkpt lat="46.60899" lon="5.41267">
        <ele>197.6</ele>
        <time>2022-01-22T12:49:47Z</time>
      </trkpt>
      <trkpt lat="46.60858" lon="5.41322">
        <ele>198.8</ele>
        <time>2022-01-22T12:49:57Z</time>
      </trkpt>
      <trkpt lat="46.6085" lon="5.41334">
        <ele>199.2</ele>
        <time>2022-01-22T12:49:59Z</time>
      </trkpt>
      <trkpt lat="46.60837" lon="5.41369">
        <ele>200</ele>
        <time>2022-01-22T12:50:04Z</time>
      </trkpt>
      <trkpt lat="46.60832" lon="5.41383">
        <ele>200</ele>
        <time>2022-01-22T12:50:06Z</time>
      </trkpt>
      <trkpt lat="46.60812" lon="5.41435">
        <ele>200</ele>
        <time>2022-01-22T12:50:13Z</time>
      </trkpt>
      <trkpt lat="46.60808" lon="5.41441">
        <ele>200</ele>
        <time>2022-01-22T12:50:14Z</time>
      </trkpt>
      <trkpt lat="46.60789" lon="5.41473">
        <ele>200.2</ele>
        <time>2022-01-22T12:50:19Z</time>
      </trkpt>
      <trkpt lat="46.60783" lon="5.41487">
        <ele>200.2</ele>
        <time>2022-01-22T12:50:21Z</time>
      </trkpt>
      <trkpt lat="46.60767" lon="5.41524">
        <ele>201</ele>
        <time>2022-01-22T12:50:27Z</time>
      </trkpt>
      <trkpt lat="46.60764" lon="5.4153">
        <ele>201.2</ele>
        <time>2022-01-22T12:50:28Z</time>
      </trkpt>
      <trkpt lat="46.60739" lon="5.4158">
        <ele>201.8</ele>
        <time>2022-01-22T12:50:35Z</time>
      </trkpt>
      <trkpt lat="46.60719" lon="5.41628">
        <ele>202</ele>
        <time>2022-01-22T12:50:41Z</time>
      </trkpt>
      <trkpt lat="46.60716" lon="5.41636">
        <ele>202.2</ele>
        <time>2022-01-22T12:50:42Z</time>
      </trkpt>
      <trkpt lat="46.60713" lon="5.41644">
        <ele>202.2</ele>
        <time>2022-01-22T12:50:43Z</time>
      </trkpt>
      <trkpt lat="46.60704" lon="5.41674">
        <ele>202.4</ele>
        <time>2022-01-22T12:50:47Z</time>
      </trkpt>
      <trkpt lat="46.60683" lon="5.41753">
        <ele>202</ele>
        <time>2022-01-22T12:50:56Z</time>
      </trkpt>
      <trkpt lat="46.60663" lon="5.41826">
        <ele>202.4</ele>
        <time>2022-01-22T12:51:05Z</time>
      </trkpt>
      <trkpt lat="46.60661" lon="5.41834">
        <ele>202.6</ele>
        <time>2022-01-22T12:51:06Z</time>
      </trkpt>
      <trkpt lat="46.60643" lon="5.41895">
        <ele>203</ele>
        <time>2022-01-22T12:51:13Z</time>
      </trkpt>
      <trkpt lat="46.60638" lon="5.41913">
        <ele>203.2</ele>
        <time>2022-01-22T12:51:15Z</time>
      </trkpt>
      <trkpt lat="46.60623" lon="5.41962">
        <ele>204</ele>
        <time>2022-01-22T12:51:21Z</time>
      </trkpt>
      <trkpt lat="46.60617" lon="5.41979">
        <ele>204</ele>
        <time>2022-01-22T12:51:23Z</time>
      </trkpt>
      <trkpt lat="46.6061" lon="5.42003">
        <ele>204</ele>
        <time>2022-01-22T12:51:26Z</time>
      </trkpt>
      <trkpt lat="46.60605" lon="5.42018">
        <ele>204.2</ele>
        <time>2022-01-22T12:51:28Z</time>
      </trkpt>
      <trkpt lat="46.60584" lon="5.4209">
        <ele>205</ele>
        <time>2022-01-22T12:51:37Z</time>
      </trkpt>
      <trkpt lat="46.60582" lon="5.42098">
        <ele>205</ele>
        <time>2022-01-22T12:51:38Z</time>
      </trkpt>
      <trkpt lat="46.60574" lon="5.4213">
        <ele>205.4</ele>
        <time>2022-01-22T12:51:42Z</time>
      </trkpt>
      <trkpt lat="46.60567" lon="5.42153">
        <ele>205.6</ele>
        <time>2022-01-22T12:51:45Z</time>
      </trkpt>
      <trkpt lat="46.60548" lon="5.42224">
        <ele>206</ele>
        <time>2022-01-22T12:51:54Z</time>
      </trkpt>
      <trkpt lat="46.60524" lon="5.42296">
        <ele>206</ele>
        <time>2022-01-22T12:52:03Z</time>
      </trkpt>
      <trkpt lat="46.60506" lon="5.42351">
        <ele>206</ele>
        <time>2022-01-22T12:52:10Z</time>
      </trkpt>
      <trkpt lat="46.60502" lon="5.42368">
        <ele>206</ele>
        <time>2022-01-22T12:52:12Z</time>
      </trkpt>
      <trkpt lat="46.60502" lon="5.42377">
        <ele>206</ele>
        <time>2022-01-22T12:52:13Z</time>
      </trkpt>
      <trkpt lat="46.60502" lon="5.42403">
        <ele>206.2</ele>
        <time>2022-01-22T12:52:16Z</time>
      </trkpt>
      <trkpt lat="46.60504" lon="5.42411">
        <ele>206.4</ele>
        <time>2022-01-22T12:52:17Z</time>
      </trkpt>
      <trkpt lat="46.60506" lon="5.42419">
        <ele>206.4</ele>
        <time>2022-01-22T12:52:18Z</time>
      </trkpt>
      <trkpt lat="46.60512" lon="5.42434">
        <ele>206.6</ele>
        <time>2022-01-22T12:52:20Z</time>
      </trkpt>
      <trkpt lat="46.60521" lon="5.42459">
        <ele>206.6</ele>
        <time>2022-01-22T12:52:23Z</time>
      </trkpt>
      <trkpt lat="46.60524" lon="5.42478">
        <ele>206.6</ele>
        <time>2022-01-22T12:52:25Z</time>
      </trkpt>
      <trkpt lat="46.60524" lon="5.42499">
        <ele>206.4</ele>
        <time>2022-01-22T12:52:27Z</time>
      </trkpt>
      <trkpt lat="46.6052" lon="5.4252">
        <ele>206</ele>
        <time>2022-01-22T12:52:29Z</time>
      </trkpt>
      <trkpt lat="46.60511" lon="5.42562">
        <ele>205.2</ele>
        <time>2022-01-22T12:52:33Z</time>
      </trkpt>
      <trkpt lat="46.60502" lon="5.42593">
        <ele>204.8</ele>
        <time>2022-01-22T12:52:36Z</time>
      </trkpt>
      <trkpt lat="46.6049" lon="5.4263">
        <ele>204.6</ele>
        <time>2022-01-22T12:52:40Z</time>
      </trkpt>
      <trkpt lat="46.6048" lon="5.42656">
        <ele>204.8</ele>
        <time>2022-01-22T12:52:43Z</time>
      </trkpt>
      <trkpt lat="46.60461" lon="5.42704">
        <ele>204.4</ele>
        <time>2022-01-22T12:52:49Z</time>
      </trkpt>
      <trkpt lat="46.60458" lon="5.42713">
        <ele>204.2</ele>
        <time>2022-01-22T12:52:50Z</time>
      </trkpt>
      <trkpt lat="46.60434" lon="5.42777">
        <ele>203.8</ele>
        <time>2022-01-22T12:52:58Z</time>
      </trkpt>
      <trkpt lat="46.60427" lon="5.42801">
        <ele>203.6</ele>
        <time>2022-01-22T12:53:01Z</time>
      </trkpt>
      <trkpt lat="46.60426" lon="5.42817">
        <ele>203.8</ele>
        <time>2022-01-22T12:53:03Z</time>
      </trkpt>
      <trkpt lat="46.60426" lon="5.42837">
        <ele>203.8</ele>
        <time>2022-01-22T12:53:05Z</time>
      </trkpt>
      <trkpt lat="46.60429" lon="5.42865">
        <ele>203.8</ele>
        <time>2022-01-22T12:53:08Z</time>
      </trkpt>
      <trkpt lat="46.60444" lon="5.42929">
        <ele>203.6</ele>
        <time>2022-01-22T12:53:15Z</time>
      </trkpt>
      <trkpt lat="46.6045" lon="5.42959">
        <ele>203.4</ele>
        <time>2022-01-22T12:53:18Z</time>
      </trkpt>
      <trkpt lat="46.60452" lon="5.42986">
        <ele>203.2</ele>
        <time>2022-01-22T12:53:21Z</time>
      </trkpt>
      <trkpt lat="46.6045" lon="5.43005">
        <ele>203.2</ele>
        <time>2022-01-22T12:53:23Z</time>
      </trkpt>
      <trkpt lat="46.60444" lon="5.4303">
        <ele>203.4</ele>
        <time>2022-01-22T12:53:26Z</time>
      </trkpt>
      <trkpt lat="46.60427" lon="5.43083">
        <ele>203.8</ele>
        <time>2022-01-22T12:53:33Z</time>
      </trkpt>
      <trkpt lat="46.60425" lon="5.43096">
        <ele>204</ele>
        <time>2022-01-22T12:53:35Z</time>
      </trkpt>
      <trkpt lat="46.60425" lon="5.43105">
        <ele>204.2</ele>
        <time>2022-01-22T12:53:36Z</time>
      </trkpt>
      <trkpt lat="46.60426" lon="5.43113">
        <ele>204.4</ele>
        <time>2022-01-22T12:53:37Z</time>
      </trkpt>
      <trkpt lat="46.60431" lon="5.43162">
        <ele>204.8</ele>
        <time>2022-01-22T12:53:43Z</time>
      </trkpt>
      <trkpt lat="46.60432" lon="5.43186">
        <ele>205</ele>
        <time>2022-01-22T12:53:46Z</time>
      </trkpt>
      <trkpt lat="46.60435" lon="5.43218">
        <ele>205.6</ele>
        <time>2022-01-22T12:53:50Z</time>
      </trkpt>
      <trkpt lat="46.60441" lon="5.43274">
        <ele>206.4</ele>
        <time>2022-01-22T12:53:56Z</time>
      </trkpt>
      <trkpt lat="46.60446" lon="5.43314">
        <ele>206.6</ele>
        <time>2022-01-22T12:54:00Z</time>
      </trkpt>
      <trkpt lat="46.6045" lon="5.43351">
        <ele>206.6</ele>
        <time>2022-01-22T12:54:04Z</time>
      </trkpt>
      <trkpt lat="46.60451" lon="5.4342">
        <ele>206.2</ele>
        <time>2022-01-22T12:54:12Z</time>
      </trkpt>
      <trkpt lat="46.60442" lon="5.43489">
        <ele>207</ele>
        <time>2022-01-22T12:54:21Z</time>
      </trkpt>
      <trkpt lat="46.60437" lon="5.43535">
        <ele>207.4</ele>
        <time>2022-01-22T12:54:27Z</time>
      </trkpt>
      <trkpt lat="46.60434" lon="5.4358">
        <ele>207.8</ele>
        <time>2022-01-22T12:54:32Z</time>
      </trkpt>
      <trkpt lat="46.60435" lon="5.43591">
        <ele>207.6</ele>
        <time>2022-01-22T12:54:33Z</time>
      </trkpt>
      <trkpt lat="46.60439" lon="5.43599">
        <ele>207.6</ele>
        <time>2022-01-22T12:54:34Z</time>
      </trkpt>
      <trkpt lat="46.60451" lon="5.43611">
        <ele>207.6</ele>
        <time>2022-01-22T12:54:36Z</time>
      </trkpt>
      <trkpt lat="46.60495" lon="5.43637">
        <ele>205.8</ele>
        <time>2022-01-22T12:54:42Z</time>
      </trkpt>
      <trkpt lat="46.60502" lon="5.43643">
        <ele>205.4</ele>
        <time>2022-01-22T12:54:43Z</time>
      </trkpt>
      <trkpt lat="46.60527" lon="5.43671">
        <ele>204.8</ele>
        <time>2022-01-22T12:54:47Z</time>
      </trkpt>
      <trkpt lat="46.60532" lon="5.43679">
        <ele>204.2</ele>
        <time>2022-01-22T12:54:48Z</time>
      </trkpt>
      <trkpt lat="46.60537" lon="5.43688">
        <ele>204</ele>
        <time>2022-01-22T12:54:49Z</time>
      </trkpt>
      <trkpt lat="46.60544" lon="5.43704">
        <ele>203.4</ele>
        <time>2022-01-22T12:54:51Z</time>
      </trkpt>
      <trkpt lat="46.60552" lon="5.43724">
        <ele>203.2</ele>
        <time>2022-01-22T12:54:53Z</time>
      </trkpt>
      <trkpt lat="46.60567" lon="5.43758">
        <ele>203</ele>
        <time>2022-01-22T12:54:57Z</time>
      </trkpt>
      <trkpt lat="46.60583" lon="5.43788">
        <ele>203</ele>
        <time>2022-01-22T12:55:01Z</time>
      </trkpt>
      <trkpt lat="46.60591" lon="5.43812">
        <ele>203</ele>
        <time>2022-01-22T12:55:04Z</time>
      </trkpt>
      <trkpt lat="46.60599" lon="5.43858">
        <ele>203.2</ele>
        <time>2022-01-22T12:55:09Z</time>
      </trkpt>
      <trkpt lat="46.606" lon="5.43867">
        <ele>203.2</ele>
        <time>2022-01-22T12:55:10Z</time>
      </trkpt>
      <trkpt lat="46.60599" lon="5.43879">
        <ele>203.2</ele>
        <time>2022-01-22T12:55:11Z</time>
      </trkpt>
      <trkpt lat="46.60595" lon="5.43897">
        <ele>203.4</ele>
        <time>2022-01-22T12:55:13Z</time>
      </trkpt>
      <trkpt lat="46.60573" lon="5.43946">
        <ele>203.6</ele>
        <time>2022-01-22T12:55:19Z</time>
      </trkpt>
      <trkpt lat="46.60537" lon="5.44013">
        <ele>204</ele>
        <time>2022-01-22T12:55:28Z</time>
      </trkpt>
      <trkpt lat="46.60503" lon="5.4408">
        <ele>203.8</ele>
        <time>2022-01-22T12:55:37Z</time>
      </trkpt>
      <trkpt lat="46.605" lon="5.44088">
        <ele>203.8</ele>
        <time>2022-01-22T12:55:38Z</time>
      </trkpt>
      <trkpt lat="46.6047" lon="5.44156">
        <ele>203.6</ele>
        <time>2022-01-22T12:55:47Z</time>
      </trkpt>
      <trkpt lat="46.60463" lon="5.44173">
        <ele>203.8</ele>
        <time>2022-01-22T12:55:49Z</time>
      </trkpt>
      <trkpt lat="46.60438" lon="5.44223">
        <ele>204.2</ele>
        <time>2022-01-22T12:55:56Z</time>
      </trkpt>
      <trkpt lat="46.60426" lon="5.44246">
        <ele>204.2</ele>
        <time>2022-01-22T12:55:59Z</time>
      </trkpt>
      <trkpt lat="46.60405" lon="5.44277">
        <ele>204.4</ele>
        <time>2022-01-22T12:56:04Z</time>
      </trkpt>
      <trkpt lat="46.6036" lon="5.44325">
        <ele>204.6</ele>
        <time>2022-01-22T12:56:13Z</time>
      </trkpt>
      <trkpt lat="46.60319" lon="5.44369">
        <ele>204.4</ele>
        <time>2022-01-22T12:56:21Z</time>
      </trkpt>
      <trkpt lat="46.60315" lon="5.44376">
        <ele>204.4</ele>
        <time>2022-01-22T12:56:22Z</time>
      </trkpt>
      <trkpt lat="46.60295" lon="5.44422">
        <ele>204.4</ele>
        <time>2022-01-22T12:56:28Z</time>
      </trkpt>
      <trkpt lat="46.60285" lon="5.44445">
        <ele>204.6</ele>
        <time>2022-01-22T12:56:31Z</time>
      </trkpt>
      <trkpt lat="46.60275" lon="5.44478">
        <ele>205</ele>
        <time>2022-01-22T12:56:35Z</time>
      </trkpt>
      <trkpt lat="46.60264" lon="5.44538">
        <ele>205.2</ele>
        <time>2022-01-22T12:56:42Z</time>
      </trkpt>
      <trkpt lat="46.60261" lon="5.44562">
        <ele>205.4</ele>
        <time>2022-01-22T12:56:45Z</time>
      </trkpt>
      <trkpt lat="46.60258" lon="5.44586">
        <ele>205.4</ele>
        <time>2022-01-22T12:56:48Z</time>
      </trkpt>
      <trkpt lat="46.6025" lon="5.44618">
        <ele>205.6</ele>
        <time>2022-01-22T12:56:52Z</time>
      </trkpt>
      <trkpt lat="46.60246" lon="5.44627">
        <ele>205.6</ele>
        <time>2022-01-22T12:56:53Z</time>
      </trkpt>
      <trkpt lat="46.60218" lon="5.44673">
        <ele>205.8</ele>
        <time>2022-01-22T12:57:00Z</time>
      </trkpt>
      <trkpt lat="46.60185" lon="5.4471">
        <ele>206</ele>
        <time>2022-01-22T12:57:07Z</time>
      </trkpt>
      <trkpt lat="46.60156" lon="5.44739">
        <ele>206.2</ele>
        <time>2022-01-22T12:57:13Z</time>
      </trkpt>
      <trkpt lat="46.6013" lon="5.4476">
        <ele>206.6</ele>
        <time>2022-01-22T12:57:18Z</time>
      </trkpt>
      <trkpt lat="46.60097" lon="5.44786">
        <ele>206.6</ele>
        <time>2022-01-22T12:57:25Z</time>
      </trkpt>
      <trkpt lat="46.60092" lon="5.44791">
        <ele>206.6</ele>
        <time>2022-01-22T12:57:26Z</time>
      </trkpt>
      <trkpt lat="46.60088" lon="5.44796">
        <ele>206.6</ele>
        <time>2022-01-22T12:57:27Z</time>
      </trkpt>
      <trkpt lat="46.60084" lon="5.44809">
        <ele>206.6</ele>
        <time>2022-01-22T12:57:29Z</time>
      </trkpt>
      <trkpt lat="46.60084" lon="5.44826">
        <ele>206.6</ele>
        <time>2022-01-22T12:57:31Z</time>
      </trkpt>
      <trkpt lat="46.60085" lon="5.44833">
        <ele>206.8</ele>
        <time>2022-01-22T12:57:32Z</time>
      </trkpt>
      <trkpt lat="46.60091" lon="5.44864">
        <ele>207</ele>
        <time>2022-01-22T12:57:36Z</time>
      </trkpt>
      <trkpt lat="46.6009" lon="5.44877">
        <ele>207</ele>
        <time>2022-01-22T12:57:38Z</time>
      </trkpt>
      <trkpt lat="46.60089" lon="5.44898">
        <ele>206.8</ele>
        <time>2022-01-22T12:57:43Z</time>
      </trkpt>
      <trkpt lat="46.60089" lon="5.44899">
        <ele>206.6</ele>
        <time>2022-01-22T12:57:46Z</time>
      </trkpt>
      <trkpt lat="46.60088" lon="5.44909">
        <ele>206.4</ele>
        <time>2022-01-22T12:59:36Z</time>
      </trkpt>
      <trkpt lat="46.60084" lon="5.44937">
        <ele>206.4</ele>
        <time>2022-01-22T12:59:41Z</time>
      </trkpt>
      <trkpt lat="46.60074" lon="5.44977">
        <ele>206.6</ele>
        <time>2022-01-22T12:59:46Z</time>
      </trkpt>
      <trkpt lat="46.6006" lon="5.45028">
        <ele>207.2</ele>
        <time>2022-01-22T12:59:53Z</time>
      </trkpt>
      <trkpt lat="46.60056" lon="5.45042">
        <ele>207.4</ele>
        <time>2022-01-22T12:59:55Z</time>
      </trkpt>
      <trkpt lat="46.60054" lon="5.45049">
        <ele>207.6</ele>
        <time>2022-01-22T12:59:56Z</time>
      </trkpt>
      <trkpt lat="46.6004" lon="5.4509">
        <ele>207.8</ele>
        <time>2022-01-22T13:00:02Z</time>
      </trkpt>
      <trkpt lat="46.60021" lon="5.45142">
        <ele>207.8</ele>
        <time>2022-01-22T13:00:10Z</time>
      </trkpt>
      <trkpt lat="46.60005" lon="5.4518">
        <ele>208</ele>
        <time>2022-01-22T13:00:16Z</time>
      </trkpt>
      <trkpt lat="46.60001" lon="5.45192">
        <ele>208.2</ele>
        <time>2022-01-22T13:00:18Z</time>
      </trkpt>
      <trkpt lat="46.5999" lon="5.45216">
        <ele>208.6</ele>
        <time>2022-01-22T13:00:23Z</time>
      </trkpt>
      <trkpt lat="46.59981" lon="5.45233">
        <ele>208.8</ele>
        <time>2022-01-22T13:00:26Z</time>
      </trkpt>
      <trkpt lat="46.59977" lon="5.45239">
        <ele>208.8</ele>
        <time>2022-01-22T13:00:27Z</time>
      </trkpt>
      <trkpt lat="46.59959" lon="5.45271">
        <ele>209.4</ele>
        <time>2022-01-22T13:00:33Z</time>
      </trkpt>
      <trkpt lat="46.59954" lon="5.45282">
        <ele>209.8</ele>
        <time>2022-01-22T13:00:35Z</time>
      </trkpt>
      <trkpt lat="46.59942" lon="5.45311">
        <ele>211</ele>
        <time>2022-01-22T13:00:40Z</time>
      </trkpt>
      <trkpt lat="46.59927" lon="5.45349">
        <ele>212</ele>
        <time>2022-01-22T13:00:47Z</time>
      </trkpt>
      <trkpt lat="46.59911" lon="5.45396">
        <ele>213</ele>
        <time>2022-01-22T13:00:56Z</time>
      </trkpt>
      <trkpt lat="46.59906" lon="5.45418">
        <ele>214.2</ele>
        <time>2022-01-22T13:01:00Z</time>
      </trkpt>
      <trkpt lat="46.59899" lon="5.45444">
        <ele>215</ele>
        <time>2022-01-22T13:01:05Z</time>
      </trkpt>
      <trkpt lat="46.59897" lon="5.45455">
        <ele>215.2</ele>
        <time>2022-01-22T13:01:07Z</time>
      </trkpt>
      <trkpt lat="46.59886" lon="5.45511">
        <ele>216.2</ele>
        <time>2022-01-22T13:01:16Z</time>
      </trkpt>
      <trkpt lat="46.59884" lon="5.45517">
        <ele>216.2</ele>
        <time>2022-01-22T13:01:17Z</time>
      </trkpt>
      <trkpt lat="46.59878" lon="5.45536">
        <ele>216.2</ele>
        <time>2022-01-22T13:01:20Z</time>
      </trkpt>
      <trkpt lat="46.59875" lon="5.45544">
        <ele>216.4</ele>
        <time>2022-01-22T13:01:22Z</time>
      </trkpt>
      <trkpt lat="46.59874" lon="5.45545">
        <ele>216.4</ele>
        <time>2022-01-22T13:01:23Z</time>
      </trkpt>
      <trkpt lat="46.59874" lon="5.45546">
        <ele>216.4</ele>
        <time>2022-01-22T13:01:25Z</time>
      </trkpt>
      <trkpt lat="46.59873" lon="5.45549">
        <ele>217</ele>
        <time>2022-01-22T13:02:03Z</time>
      </trkpt>
      <trkpt lat="46.5987" lon="5.45559">
        <ele>216.8</ele>
        <time>2022-01-22T13:02:05Z</time>
      </trkpt>
      <trkpt lat="46.59855" lon="5.45588">
        <ele>216.8</ele>
        <time>2022-01-22T13:02:10Z</time>
      </trkpt>
      <trkpt lat="46.59824" lon="5.45629">
        <ele>217.4</ele>
        <time>2022-01-22T13:02:18Z</time>
      </trkpt>
      <trkpt lat="46.59802" lon="5.45662">
        <ele>217.4</ele>
        <time>2022-01-22T13:02:24Z</time>
      </trkpt>
      <trkpt lat="46.598" lon="5.45668">
        <ele>217.6</ele>
        <time>2022-01-22T13:02:25Z</time>
      </trkpt>
      <trkpt lat="46.59799" lon="5.45675">
        <ele>217.6</ele>
        <time>2022-01-22T13:02:26Z</time>
      </trkpt>
      <trkpt lat="46.598" lon="5.45698">
        <ele>217.8</ele>
        <time>2022-01-22T13:02:29Z</time>
      </trkpt>
      <trkpt lat="46.59809" lon="5.45763">
        <ele>218.2</ele>
        <time>2022-01-22T13:02:37Z</time>
      </trkpt>
      <trkpt lat="46.59815" lon="5.4582">
        <ele>218.2</ele>
        <time>2022-01-22T13:02:44Z</time>
      </trkpt>
      <trkpt lat="46.59819" lon="5.45865">
        <ele>218.8</ele>
        <time>2022-01-22T13:02:50Z</time>
      </trkpt>
      <trkpt lat="46.5982" lon="5.45877">
        <ele>219</ele>
        <time>2022-01-22T13:02:52Z</time>
      </trkpt>
      <trkpt lat="46.59821" lon="5.459">
        <ele>219.6</ele>
        <time>2022-01-22T13:02:57Z</time>
      </trkpt>
      <trkpt lat="46.59821" lon="5.45904">
        <ele>220.2</ele>
        <time>2022-01-22T13:02:59Z</time>
      </trkpt>
      <trkpt lat="46.5982" lon="5.45908">
        <ele>220.6</ele>
        <time>2022-01-22T13:03:02Z</time>
      </trkpt>
      <trkpt lat="46.5982" lon="5.4591">
        <ele>220.8</ele>
        <time>2022-01-22T13:03:04Z</time>
      </trkpt>
      <trkpt lat="46.59813" lon="5.45908">
        <ele>221.4</ele>
        <time>2022-01-22T13:03:07Z</time>
      </trkpt>
      <trkpt lat="46.5981" lon="5.45904">
        <ele>221.4</ele>
        <time>2022-01-22T13:03:08Z</time>
      </trkpt>
      <trkpt lat="46.59798" lon="5.45892">
        <ele>221.4</ele>
        <time>2022-01-22T13:03:11Z</time>
      </trkpt>
      <trkpt lat="46.59784" lon="5.45878">
        <ele>221.2</ele>
        <time>2022-01-22T13:03:14Z</time>
      </trkpt>
      <trkpt lat="46.59769" lon="5.45866">
        <ele>221.2</ele>
        <time>2022-01-22T13:03:17Z</time>
      </trkpt>
      <trkpt lat="46.59764" lon="5.45864">
        <ele>221</ele>
        <time>2022-01-22T13:03:18Z</time>
      </trkpt>
      <trkpt lat="46.5976" lon="5.45865">
        <ele>221</ele>
        <time>2022-01-22T13:03:19Z</time>
      </trkpt>
      <trkpt lat="46.59756" lon="5.45868">
        <ele>221</ele>
        <time>2022-01-22T13:03:20Z</time>
      </trkpt>
      <trkpt lat="46.5975" lon="5.45882">
        <ele>220.8</ele>
        <time>2022-01-22T13:03:22Z</time>
      </trkpt>
      <trkpt lat="46.59739" lon="5.45939">
        <ele>221</ele>
        <time>2022-01-22T13:03:29Z</time>
      </trkpt>
      <trkpt lat="46.59733" lon="5.45978">
        <ele>221.4</ele>
        <time>2022-01-22T13:03:34Z</time>
      </trkpt>
      <trkpt lat="46.5973" lon="5.45992">
        <ele>222</ele>
        <time>2022-01-22T13:03:36Z</time>
      </trkpt>
      <trkpt lat="46.59725" lon="5.4602">
        <ele>222.6</ele>
        <time>2022-01-22T13:03:40Z</time>
      </trkpt>
      <trkpt lat="46.59721" lon="5.4604">
        <ele>223</ele>
        <time>2022-01-22T13:03:43Z</time>
      </trkpt>
      <trkpt lat="46.59718" lon="5.4606">
        <ele>223.6</ele>
        <time>2022-01-22T13:03:46Z</time>
      </trkpt>
      <trkpt lat="46.59712" lon="5.46094">
        <ele>224.2</ele>
        <time>2022-01-22T13:03:51Z</time>
      </trkpt>
      <trkpt lat="46.59702" lon="5.46147">
        <ele>224.8</ele>
        <time>2022-01-22T13:03:59Z</time>
      </trkpt>
      <trkpt lat="46.59698" lon="5.46167">
        <ele>225.2</ele>
        <time>2022-01-22T13:04:02Z</time>
      </trkpt>
      <trkpt lat="46.5969" lon="5.46201">
        <ele>226</ele>
        <time>2022-01-22T13:04:07Z</time>
      </trkpt>
      <trkpt lat="46.59682" lon="5.46225">
        <ele>226.6</ele>
        <time>2022-01-22T13:04:11Z</time>
      </trkpt>
      <trkpt lat="46.59675" lon="5.4624">
        <ele>227</ele>
        <time>2022-01-22T13:04:14Z</time>
      </trkpt>
      <trkpt lat="46.59665" lon="5.46259">
        <ele>227.6</ele>
        <time>2022-01-22T13:04:18Z</time>
      </trkpt>
      <trkpt lat="46.5966" lon="5.46268">
        <ele>228</ele>
        <time>2022-01-22T13:04:20Z</time>
      </trkpt>
      <trkpt lat="46.5965" lon="5.46286">
        <ele>229.2</ele>
        <time>2022-01-22T13:04:24Z</time>
      </trkpt>
      <trkpt lat="46.59645" lon="5.46295">
        <ele>229.6</ele>
        <time>2022-01-22T13:04:26Z</time>
      </trkpt>
      <trkpt lat="46.59639" lon="5.46309">
        <ele>230.2</ele>
        <time>2022-01-22T13:04:29Z</time>
      </trkpt>
      <trkpt lat="46.59628" lon="5.46333">
        <ele>231.4</ele>
        <time>2022-01-22T13:04:34Z</time>
      </trkpt>
      <trkpt lat="46.5962" lon="5.46352">
        <ele>232.4</ele>
        <time>2022-01-22T13:04:38Z</time>
      </trkpt>
      <trkpt lat="46.59605" lon="5.46386">
        <ele>233.6</ele>
        <time>2022-01-22T13:04:45Z</time>
      </trkpt>
      <trkpt lat="46.59589" lon="5.46418">
        <ele>234.8</ele>
        <time>2022-01-22T13:04:52Z</time>
      </trkpt>
      <trkpt lat="46.59577" lon="5.46444">
        <ele>236</ele>
        <time>2022-01-22T13:04:58Z</time>
      </trkpt>
      <trkpt lat="46.59564" lon="5.46472">
        <ele>237.4</ele>
        <time>2022-01-22T13:05:04Z</time>
      </trkpt>
      <trkpt lat="46.5955" lon="5.46503">
        <ele>238.6</ele>
        <time>2022-01-22T13:05:11Z</time>
      </trkpt>
      <trkpt lat="46.59542" lon="5.4652">
        <ele>239.6</ele>
        <time>2022-01-22T13:05:15Z</time>
      </trkpt>
      <trkpt lat="46.59538" lon="5.46528">
        <ele>240</ele>
        <time>2022-01-22T13:05:17Z</time>
      </trkpt>
      <trkpt lat="46.59528" lon="5.46548">
        <ele>241.2</ele>
        <time>2022-01-22T13:05:22Z</time>
      </trkpt>
      <trkpt lat="46.59524" lon="5.46556">
        <ele>241.6</ele>
        <time>2022-01-22T13:05:24Z</time>
      </trkpt>
      <trkpt lat="46.59515" lon="5.4657">
        <ele>242.2</ele>
        <time>2022-01-22T13:05:28Z</time>
      </trkpt>
      <trkpt lat="46.59502" lon="5.46586">
        <ele>243.4</ele>
        <time>2022-01-22T13:05:33Z</time>
      </trkpt>
      <trkpt lat="46.59479" lon="5.46605">
        <ele>244.4</ele>
        <time>2022-01-22T13:05:41Z</time>
      </trkpt>
      <trkpt lat="46.59476" lon="5.46607">
        <ele>244.6</ele>
        <time>2022-01-22T13:05:42Z</time>
      </trkpt>
      <trkpt lat="46.59468" lon="5.46613">
        <ele>245.6</ele>
        <time>2022-01-22T13:05:45Z</time>
      </trkpt>
      <trkpt lat="46.59452" lon="5.46627">
        <ele>246.8</ele>
        <time>2022-01-22T13:05:51Z</time>
      </trkpt>
      <trkpt lat="46.59449" lon="5.46629">
        <ele>247</ele>
        <time>2022-01-22T13:05:52Z</time>
      </trkpt>
      <trkpt lat="46.59436" lon="5.46649">
        <ele>248</ele>
        <time>2022-01-22T13:05:58Z</time>
      </trkpt>
      <trkpt lat="46.59432" lon="5.46658">
        <ele>248.4</ele>
        <time>2022-01-22T13:06:00Z</time>
      </trkpt>
      <trkpt lat="46.59426" lon="5.4667">
        <ele>249</ele>
        <time>2022-01-22T13:06:03Z</time>
      </trkpt>
      <trkpt lat="46.59414" lon="5.46689">
        <ele>250.2</ele>
        <time>2022-01-22T13:06:08Z</time>
      </trkpt>
      <trkpt lat="46.59409" lon="5.46695">
        <ele>250.4</ele>
        <time>2022-01-22T13:06:10Z</time>
      </trkpt>
      <trkpt lat="46.59391" lon="5.46707">
        <ele>251.4</ele>
        <time>2022-01-22T13:06:16Z</time>
      </trkpt>
      <trkpt lat="46.59388" lon="5.46708">
        <ele>251.8</ele>
        <time>2022-01-22T13:06:17Z</time>
      </trkpt>
      <trkpt lat="46.59378" lon="5.46712">
        <ele>252.6</ele>
        <time>2022-01-22T13:06:20Z</time>
      </trkpt>
      <trkpt lat="46.59363" lon="5.4672">
        <ele>253.6</ele>
        <time>2022-01-22T13:06:25Z</time>
      </trkpt>
      <trkpt lat="46.59344" lon="5.46731">
        <ele>254.6</ele>
        <time>2022-01-22T13:06:31Z</time>
      </trkpt>
      <trkpt lat="46.59341" lon="5.46733">
        <ele>255</ele>
        <time>2022-01-22T13:06:32Z</time>
      </trkpt>
      <trkpt lat="46.59326" lon="5.46745">
        <ele>256</ele>
        <time>2022-01-22T13:06:37Z</time>
      </trkpt>
      <trkpt lat="46.59318" lon="5.46755">
        <ele>256.8</ele>
        <time>2022-01-22T13:06:40Z</time>
      </trkpt>
      <trkpt lat="46.5931" lon="5.46765">
        <ele>257.2</ele>
        <time>2022-01-22T13:06:43Z</time>
      </trkpt>
      <trkpt lat="46.59302" lon="5.46782">
        <ele>258.2</ele>
        <time>2022-01-22T13:06:47Z</time>
      </trkpt>
      <trkpt lat="46.59301" lon="5.46787">
        <ele>258.4</ele>
        <time>2022-01-22T13:06:48Z</time>
      </trkpt>
      <trkpt lat="46.59295" lon="5.46809">
        <ele>259.6</ele>
        <time>2022-01-22T13:06:53Z</time>
      </trkpt>
      <trkpt lat="46.59294" lon="5.46819">
        <ele>260</ele>
        <time>2022-01-22T13:06:55Z</time>
      </trkpt>
      <trkpt lat="46.59296" lon="5.46837">
        <ele>260.6</ele>
        <time>2022-01-22T13:06:59Z</time>
      </trkpt>
      <trkpt lat="46.593" lon="5.46851">
        <ele>261.6</ele>
        <time>2022-01-22T13:07:02Z</time>
      </trkpt>
      <trkpt lat="46.59306" lon="5.46873">
        <ele>262.8</ele>
        <time>2022-01-22T13:07:07Z</time>
      </trkpt>
      <trkpt lat="46.59309" lon="5.46891">
        <ele>263.6</ele>
        <time>2022-01-22T13:07:11Z</time>
      </trkpt>
      <trkpt lat="46.59308" lon="5.46905">
        <ele>263.8</ele>
        <time>2022-01-22T13:07:14Z</time>
      </trkpt>
      <trkpt lat="46.59305" lon="5.46923">
        <ele>264.8</ele>
        <time>2022-01-22T13:07:18Z</time>
      </trkpt>
      <trkpt lat="46.5929" lon="5.46966">
        <ele>266.2</ele>
        <time>2022-01-22T13:07:27Z</time>
      </trkpt>
      <trkpt lat="46.59283" lon="5.46994">
        <ele>267.2</ele>
        <time>2022-01-22T13:07:32Z</time>
      </trkpt>
      <trkpt lat="46.59282" lon="5.46999">
        <ele>267.4</ele>
        <time>2022-01-22T13:07:33Z</time>
      </trkpt>
      <trkpt lat="46.59282" lon="5.47015">
        <ele>268.2</ele>
        <time>2022-01-22T13:07:36Z</time>
      </trkpt>
      <trkpt lat="46.59282" lon="5.4703">
        <ele>269</ele>
        <time>2022-01-22T13:07:39Z</time>
      </trkpt>
      <trkpt lat="46.59285" lon="5.47038">
        <ele>269.4</ele>
        <time>2022-01-22T13:07:41Z</time>
      </trkpt>
      <trkpt lat="46.59293" lon="5.47057">
        <ele>270.2</ele>
        <time>2022-01-22T13:07:46Z</time>
      </trkpt>
      <trkpt lat="46.59296" lon="5.47066">
        <ele>270.6</ele>
        <time>2022-01-22T13:07:48Z</time>
      </trkpt>
      <trkpt lat="46.59298" lon="5.47084">
        <ele>271.4</ele>
        <time>2022-01-22T13:07:52Z</time>
      </trkpt>
      <trkpt lat="46.59298" lon="5.47094">
        <ele>272</ele>
        <time>2022-01-22T13:07:54Z</time>
      </trkpt>
      <trkpt lat="46.59295" lon="5.47107">
        <ele>272.6</ele>
        <time>2022-01-22T13:07:57Z</time>
      </trkpt>
      <trkpt lat="46.59287" lon="5.47121">
        <ele>273.2</ele>
        <time>2022-01-22T13:08:01Z</time>
      </trkpt>
      <trkpt lat="46.59282" lon="5.47126">
        <ele>273.6</ele>
        <time>2022-01-22T13:08:03Z</time>
      </trkpt>
      <trkpt lat="46.59269" lon="5.47137">
        <ele>274.2</ele>
        <time>2022-01-22T13:08:07Z</time>
      </trkpt>
      <trkpt lat="46.59256" lon="5.47144">
        <ele>275.2</ele>
        <time>2022-01-22T13:08:11Z</time>
      </trkpt>
      <trkpt lat="46.59253" lon="5.47146">
        <ele>275.2</ele>
        <time>2022-01-22T13:08:12Z</time>
      </trkpt>
      <trkpt lat="46.59239" lon="5.47158">
        <ele>276</ele>
        <time>2022-01-22T13:08:17Z</time>
      </trkpt>
      <trkpt lat="46.59234" lon="5.47164">
        <ele>276.4</ele>
        <time>2022-01-22T13:08:19Z</time>
      </trkpt>
      <trkpt lat="46.59232" lon="5.47167">
        <ele>276.6</ele>
        <time>2022-01-22T13:08:20Z</time>
      </trkpt>
      <trkpt lat="46.59219" lon="5.4719">
        <ele>277.6</ele>
        <time>2022-01-22T13:08:26Z</time>
      </trkpt>
      <trkpt lat="46.59213" lon="5.47206">
        <ele>278.6</ele>
        <time>2022-01-22T13:08:30Z</time>
      </trkpt>
      <trkpt lat="46.59211" lon="5.47211">
        <ele>278.6</ele>
        <time>2022-01-22T13:08:31Z</time>
      </trkpt>
      <trkpt lat="46.59206" lon="5.47234">
        <ele>279.8</ele>
        <time>2022-01-22T13:08:36Z</time>
      </trkpt>
      <trkpt lat="46.59206" lon="5.47244">
        <ele>280.4</ele>
        <time>2022-01-22T13:08:38Z</time>
      </trkpt>
      <trkpt lat="46.59207" lon="5.47258">
        <ele>281</ele>
        <time>2022-01-22T13:08:41Z</time>
      </trkpt>
      <trkpt lat="46.5921" lon="5.47271">
        <ele>281.8</ele>
        <time>2022-01-22T13:08:44Z</time>
      </trkpt>
      <trkpt lat="46.59211" lon="5.47275">
        <ele>282</ele>
        <time>2022-01-22T13:08:45Z</time>
      </trkpt>
      <trkpt lat="46.59221" lon="5.473">
        <ele>283.2</ele>
        <time>2022-01-22T13:08:51Z</time>
      </trkpt>
      <trkpt lat="46.59222" lon="5.47304">
        <ele>283.4</ele>
        <time>2022-01-22T13:08:52Z</time>
      </trkpt>
      <trkpt lat="46.59228" lon="5.4732">
        <ele>284.4</ele>
        <time>2022-01-22T13:08:56Z</time>
      </trkpt>
      <trkpt lat="46.5923" lon="5.47339">
        <ele>285.4</ele>
        <time>2022-01-22T13:09:00Z</time>
      </trkpt>
      <trkpt lat="46.59229" lon="5.47344">
        <ele>285.6</ele>
        <time>2022-01-22T13:09:01Z</time>
      </trkpt>
      <trkpt lat="46.59222" lon="5.47356">
        <ele>286</ele>
        <time>2022-01-22T13:09:04Z</time>
      </trkpt>
      <trkpt lat="46.59208" lon="5.47369">
        <ele>287</ele>
        <time>2022-01-22T13:09:09Z</time>
      </trkpt>
      <trkpt lat="46.59202" lon="5.47376">
        <ele>287.4</ele>
        <time>2022-01-22T13:09:11Z</time>
      </trkpt>
      <trkpt lat="46.59197" lon="5.47383">
        <ele>287.8</ele>
        <time>2022-01-22T13:09:13Z</time>
      </trkpt>
      <trkpt lat="46.59194" lon="5.47386">
        <ele>288.2</ele>
        <time>2022-01-22T13:09:14Z</time>
      </trkpt>
      <trkpt lat="46.59184" lon="5.47404">
        <ele>289.4</ele>
        <time>2022-01-22T13:09:19Z</time>
      </trkpt>
      <trkpt lat="46.59179" lon="5.47416">
        <ele>289.8</ele>
        <time>2022-01-22T13:09:22Z</time>
      </trkpt>
      <trkpt lat="46.59173" lon="5.47428">
        <ele>290.6</ele>
        <time>2022-01-22T13:09:25Z</time>
      </trkpt>
      <trkpt lat="46.59163" lon="5.47446">
        <ele>291.6</ele>
        <time>2022-01-22T13:09:30Z</time>
      </trkpt>
      <trkpt lat="46.5915" lon="5.47473">
        <ele>293</ele>
        <time>2022-01-22T13:09:37Z</time>
      </trkpt>
      <trkpt lat="46.59143" lon="5.47488">
        <ele>293.6</ele>
        <time>2022-01-22T13:09:41Z</time>
      </trkpt>
      <trkpt lat="46.59139" lon="5.47496">
        <ele>294.2</ele>
        <time>2022-01-22T13:09:43Z</time>
      </trkpt>
      <trkpt lat="46.59127" lon="5.47522">
        <ele>295.2</ele>
        <time>2022-01-22T13:09:49Z</time>
      </trkpt>
      <trkpt lat="46.59124" lon="5.4753">
        <ele>295.6</ele>
        <time>2022-01-22T13:09:51Z</time>
      </trkpt>
      <trkpt lat="46.5911" lon="5.47556">
        <ele>296.2</ele>
        <time>2022-01-22T13:09:57Z</time>
      </trkpt>
      <trkpt lat="46.59104" lon="5.47568">
        <ele>296.6</ele>
        <time>2022-01-22T13:10:00Z</time>
      </trkpt>
      <trkpt lat="46.59092" lon="5.47587">
        <ele>297.4</ele>
        <time>2022-01-22T13:10:05Z</time>
      </trkpt>
      <trkpt lat="46.59081" lon="5.47605">
        <ele>298.6</ele>
        <time>2022-01-22T13:10:10Z</time>
      </trkpt>
      <trkpt lat="46.59069" lon="5.47622">
        <ele>299.6</ele>
        <time>2022-01-22T13:10:15Z</time>
      </trkpt>
      <trkpt lat="46.59063" lon="5.47628">
        <ele>300</ele>
        <time>2022-01-22T13:10:17Z</time>
      </trkpt>
      <trkpt lat="46.59061" lon="5.4763">
        <ele>300</ele>
        <time>2022-01-22T13:10:18Z</time>
      </trkpt>
      <trkpt lat="46.59047" lon="5.47648">
        <ele>300.6</ele>
        <time>2022-01-22T13:10:23Z</time>
      </trkpt>
      <trkpt lat="46.59036" lon="5.47661">
        <ele>301.6</ele>
        <time>2022-01-22T13:10:27Z</time>
      </trkpt>
      <trkpt lat="46.59033" lon="5.47663">
        <ele>301.8</ele>
        <time>2022-01-22T13:10:28Z</time>
      </trkpt>
      <trkpt lat="46.59021" lon="5.47671">
        <ele>303</ele>
        <time>2022-01-22T13:10:33Z</time>
      </trkpt>
      <trkpt lat="46.59005" lon="5.47675">
        <ele>304.2</ele>
        <time>2022-01-22T13:10:38Z</time>
      </trkpt>
      <trkpt lat="46.58999" lon="5.47675">
        <ele>304.6</ele>
        <time>2022-01-22T13:10:40Z</time>
      </trkpt>
      <trkpt lat="46.58989" lon="5.47675">
        <ele>305.6</ele>
        <time>2022-01-22T13:10:43Z</time>
      </trkpt>
      <trkpt lat="46.5898" lon="5.47673">
        <ele>306.2</ele>
        <time>2022-01-22T13:10:46Z</time>
      </trkpt>
      <trkpt lat="46.58974" lon="5.47672">
        <ele>306.6</ele>
        <time>2022-01-22T13:10:48Z</time>
      </trkpt>
      <trkpt lat="46.58968" lon="5.4767">
        <ele>307.6</ele>
        <time>2022-01-22T13:10:50Z</time>
      </trkpt>
      <trkpt lat="46.58963" lon="5.47669">
        <ele>308</ele>
        <time>2022-01-22T13:10:52Z</time>
      </trkpt>
      <trkpt lat="46.58954" lon="5.47669">
        <ele>308.6</ele>
        <time>2022-01-22T13:10:55Z</time>
      </trkpt>
      <trkpt lat="46.58946" lon="5.47671">
        <ele>309.2</ele>
        <time>2022-01-22T13:10:58Z</time>
      </trkpt>
      <trkpt lat="46.5894" lon="5.47673">
        <ele>309.6</ele>
        <time>2022-01-22T13:11:00Z</time>
      </trkpt>
      <trkpt lat="46.58922" lon="5.4768">
        <ele>310.8</ele>
        <time>2022-01-22T13:11:06Z</time>
      </trkpt>
      <trkpt lat="46.58911" lon="5.47687">
        <ele>311.6</ele>
        <time>2022-01-22T13:11:10Z</time>
      </trkpt>
      <trkpt lat="46.58905" lon="5.47691">
        <ele>311.8</ele>
        <time>2022-01-22T13:11:12Z</time>
      </trkpt>
      <trkpt lat="46.58893" lon="5.47703">
        <ele>312.8</ele>
        <time>2022-01-22T13:11:17Z</time>
      </trkpt>
      <trkpt lat="46.58878" lon="5.4772">
        <ele>314</ele>
        <time>2022-01-22T13:11:23Z</time>
      </trkpt>
      <trkpt lat="46.58877" lon="5.47726">
        <ele>314.2</ele>
        <time>2022-01-22T13:11:24Z</time>
      </trkpt>
      <trkpt lat="46.58875" lon="5.47757">
        <ele>315.2</ele>
        <time>2022-01-22T13:11:30Z</time>
      </trkpt>
      <trkpt lat="46.58875" lon="5.47793">
        <ele>316.2</ele>
        <time>2022-01-22T13:11:37Z</time>
      </trkpt>
      <trkpt lat="46.58882" lon="5.47817">
        <ele>317</ele>
        <time>2022-01-22T13:11:42Z</time>
      </trkpt>
      <trkpt lat="46.58887" lon="5.47824">
        <ele>317.2</ele>
        <time>2022-01-22T13:11:44Z</time>
      </trkpt>
      <trkpt lat="46.58898" lon="5.47836">
        <ele>318</ele>
        <time>2022-01-22T13:11:48Z</time>
      </trkpt>
      <trkpt lat="46.58906" lon="5.47844">
        <ele>318.6</ele>
        <time>2022-01-22T13:11:51Z</time>
      </trkpt>
      <trkpt lat="46.58917" lon="5.47852">
        <ele>319.8</ele>
        <time>2022-01-22T13:11:55Z</time>
      </trkpt>
      <trkpt lat="46.5892" lon="5.47853">
        <ele>320</ele>
        <time>2022-01-22T13:11:56Z</time>
      </trkpt>
      <trkpt lat="46.58933" lon="5.4786">
        <ele>320.8</ele>
        <time>2022-01-22T13:12:00Z</time>
      </trkpt>
      <trkpt lat="46.58948" lon="5.47869">
        <ele>321.2</ele>
        <time>2022-01-22T13:12:04Z</time>
      </trkpt>
      <trkpt lat="46.58954" lon="5.47873">
        <ele>321.6</ele>
        <time>2022-01-22T13:12:06Z</time>
      </trkpt>
      <trkpt lat="46.58958" lon="5.47875">
        <ele>321.8</ele>
        <time>2022-01-22T13:12:07Z</time>
      </trkpt>
      <trkpt lat="46.5898" lon="5.47889">
        <ele>322.8</ele>
        <time>2022-01-22T13:12:14Z</time>
      </trkpt>
      <trkpt lat="46.58983" lon="5.47892">
        <ele>323</ele>
        <time>2022-01-22T13:12:15Z</time>
      </trkpt>
      <trkpt lat="46.58999" lon="5.47903">
        <ele>323.8</ele>
        <time>2022-01-22T13:12:20Z</time>
      </trkpt>
      <trkpt lat="46.59008" lon="5.47909">
        <ele>324.2</ele>
        <time>2022-01-22T13:12:23Z</time>
      </trkpt>
      <trkpt lat="46.59024" lon="5.47928">
        <ele>325.2</ele>
        <time>2022-01-22T13:12:29Z</time>
      </trkpt>
      <trkpt lat="46.59026" lon="5.47932">
        <ele>325.4</ele>
        <time>2022-01-22T13:12:30Z</time>
      </trkpt>
      <trkpt lat="46.59027" lon="5.47954">
        <ele>326.2</ele>
        <time>2022-01-22T13:12:35Z</time>
      </trkpt>
      <trkpt lat="46.59023" lon="5.47972">
        <ele>327.6</ele>
        <time>2022-01-22T13:12:39Z</time>
      </trkpt>
      <trkpt lat="46.59021" lon="5.47975">
        <ele>327.8</ele>
        <time>2022-01-22T13:12:40Z</time>
      </trkpt>
      <trkpt lat="46.59012" lon="5.47987">
        <ele>328.8</ele>
        <time>2022-01-22T13:12:44Z</time>
      </trkpt>
      <trkpt lat="46.59006" lon="5.47992">
        <ele>329.2</ele>
        <time>2022-01-22T13:12:46Z</time>
      </trkpt>
      <trkpt lat="46.58992" lon="5.48003">
        <ele>330</ele>
        <time>2022-01-22T13:12:50Z</time>
      </trkpt>
      <trkpt lat="46.58983" lon="5.48014">
        <ele>330.6</ele>
        <time>2022-01-22T13:12:53Z</time>
      </trkpt>
      <trkpt lat="46.58979" lon="5.48039">
        <ele>331</ele>
        <time>2022-01-22T13:12:58Z</time>
      </trkpt>
      <trkpt lat="46.58979" lon="5.48045">
        <ele>331.2</ele>
        <time>2022-01-22T13:12:59Z</time>
      </trkpt>
      <trkpt lat="46.58985" lon="5.4809">
        <ele>332.2</ele>
        <time>2022-01-22T13:13:07Z</time>
      </trkpt>
      <trkpt lat="46.58993" lon="5.48118">
        <ele>333.2</ele>
        <time>2022-01-22T13:13:13Z</time>
      </trkpt>
      <trkpt lat="46.58994" lon="5.48122">
        <ele>333.2</ele>
        <time>2022-01-22T13:13:14Z</time>
      </trkpt>
      <trkpt lat="46.58999" lon="5.48143">
        <ele>334.4</ele>
        <time>2022-01-22T13:13:19Z</time>
      </trkpt>
      <trkpt lat="46.59006" lon="5.48167">
        <ele>335.8</ele>
        <time>2022-01-22T13:13:25Z</time>
      </trkpt>
      <trkpt lat="46.59012" lon="5.48186">
        <ele>337</ele>
        <time>2022-01-22T13:13:30Z</time>
      </trkpt>
      <trkpt lat="46.59015" lon="5.482">
        <ele>337.4</ele>
        <time>2022-01-22T13:13:33Z</time>
      </trkpt>
      <trkpt lat="46.5902" lon="5.48214">
        <ele>338.2</ele>
        <time>2022-01-22T13:13:36Z</time>
      </trkpt>
      <trkpt lat="46.59027" lon="5.48235">
        <ele>339</ele>
        <time>2022-01-22T13:13:41Z</time>
      </trkpt>
      <trkpt lat="46.59029" lon="5.48246">
        <ele>339.4</ele>
        <time>2022-01-22T13:13:43Z</time>
      </trkpt>
      <trkpt lat="46.59036" lon="5.48266">
        <ele>340.4</ele>
        <time>2022-01-22T13:13:48Z</time>
      </trkpt>
      <trkpt lat="46.5905" lon="5.48294">
        <ele>341.4</ele>
        <time>2022-01-22T13:13:55Z</time>
      </trkpt>
      <trkpt lat="46.59052" lon="5.48298">
        <ele>341.8</ele>
        <time>2022-01-22T13:13:56Z</time>
      </trkpt>
      <trkpt lat="46.59062" lon="5.48314">
        <ele>342.4</ele>
        <time>2022-01-22T13:14:00Z</time>
      </trkpt>
      <trkpt lat="46.59064" lon="5.48318">
        <ele>342.6</ele>
        <time>2022-01-22T13:14:01Z</time>
      </trkpt>
      <trkpt lat="46.59072" lon="5.48328">
        <ele>342.8</ele>
        <time>2022-01-22T13:14:04Z</time>
      </trkpt>
      <trkpt lat="46.5908" lon="5.48337">
        <ele>343.6</ele>
        <time>2022-01-22T13:14:07Z</time>
      </trkpt>
      <trkpt lat="46.59091" lon="5.48349">
        <ele>344.2</ele>
        <time>2022-01-22T13:14:11Z</time>
      </trkpt>
      <trkpt lat="46.59096" lon="5.4836">
        <ele>344.8</ele>
        <time>2022-01-22T13:14:14Z</time>
      </trkpt>
      <trkpt lat="46.59096" lon="5.48364">
        <ele>344.8</ele>
        <time>2022-01-22T13:14:15Z</time>
      </trkpt>
      <trkpt lat="46.59095" lon="5.48368">
        <ele>345</ele>
        <time>2022-01-22T13:14:16Z</time>
      </trkpt>
      <trkpt lat="46.5909" lon="5.48376">
        <ele>345.8</ele>
        <time>2022-01-22T13:14:19Z</time>
      </trkpt>
      <trkpt lat="46.59072" lon="5.48376">
        <ele>346.8</ele>
        <time>2022-01-22T13:14:24Z</time>
      </trkpt>
      <trkpt lat="46.59057" lon="5.48365">
        <ele>348</ele>
        <time>2022-01-22T13:14:29Z</time>
      </trkpt>
      <trkpt lat="46.59053" lon="5.48361">
        <ele>348.2</ele>
        <time>2022-01-22T13:14:30Z</time>
      </trkpt>
      <trkpt lat="46.59039" lon="5.48344">
        <ele>349</ele>
        <time>2022-01-22T13:14:35Z</time>
      </trkpt>
      <trkpt lat="46.5903" lon="5.48332">
        <ele>350.2</ele>
        <time>2022-01-22T13:14:39Z</time>
      </trkpt>
      <trkpt lat="46.59027" lon="5.48329">
        <ele>350.6</ele>
        <time>2022-01-22T13:14:40Z</time>
      </trkpt>
      <trkpt lat="46.59022" lon="5.48322">
        <ele>351.2</ele>
        <time>2022-01-22T13:14:42Z</time>
      </trkpt>
      <trkpt lat="46.59014" lon="5.4831">
        <ele>352.2</ele>
        <time>2022-01-22T13:14:46Z</time>
      </trkpt>
      <trkpt lat="46.59012" lon="5.48308">
        <ele>352.4</ele>
        <time>2022-01-22T13:14:47Z</time>
      </trkpt>
      <trkpt lat="46.59002" lon="5.48293">
        <ele>353.6</ele>
        <time>2022-01-22T13:14:52Z</time>
      </trkpt>
      <trkpt lat="46.58999" lon="5.48286">
        <ele>353.8</ele>
        <time>2022-01-22T13:14:54Z</time>
      </trkpt>
      <trkpt lat="46.58992" lon="5.48273">
        <ele>354.6</ele>
        <time>2022-01-22T13:14:58Z</time>
      </trkpt>
      <trkpt lat="46.58989" lon="5.48266">
        <ele>355.2</ele>
        <time>2022-01-22T13:15:00Z</time>
      </trkpt>
      <trkpt lat="46.58986" lon="5.48258">
        <ele>355.6</ele>
        <time>2022-01-22T13:15:02Z</time>
      </trkpt>
      <trkpt lat="46.58978" lon="5.48236">
        <ele>356.8</ele>
        <time>2022-01-22T13:15:08Z</time>
      </trkpt>
      <trkpt lat="46.58976" lon="5.48228">
        <ele>357</ele>
        <time>2022-01-22T13:15:10Z</time>
      </trkpt>
      <trkpt lat="46.58972" lon="5.48218">
        <ele>357.8</ele>
        <time>2022-01-22T13:15:13Z</time>
      </trkpt>
      <trkpt lat="46.58967" lon="5.48207">
        <ele>358.4</ele>
        <time>2022-01-22T13:15:16Z</time>
      </trkpt>
      <trkpt lat="46.58955" lon="5.48202">
        <ele>359</ele>
        <time>2022-01-22T13:15:19Z</time>
      </trkpt>
      <trkpt lat="46.58945" lon="5.48194">
        <ele>359.8</ele>
        <time>2022-01-22T13:15:23Z</time>
      </trkpt>
      <trkpt lat="46.58941" lon="5.4819">
        <ele>360.4</ele>
        <time>2022-01-22T13:15:25Z</time>
      </trkpt>
      <trkpt lat="46.58928" lon="5.48179">
        <ele>361.6</ele>
        <time>2022-01-22T13:15:31Z</time>
      </trkpt>
      <trkpt lat="46.58917" lon="5.48173">
        <ele>362.8</ele>
        <time>2022-01-22T13:15:36Z</time>
      </trkpt>
      <trkpt lat="46.58908" lon="5.48169">
        <ele>363.4</ele>
        <time>2022-01-22T13:15:39Z</time>
      </trkpt>
      <trkpt lat="46.58899" lon="5.48165">
        <ele>364</ele>
        <time>2022-01-22T13:15:42Z</time>
      </trkpt>
      <trkpt lat="46.58884" lon="5.48157">
        <ele>365</ele>
        <time>2022-01-22T13:15:47Z</time>
      </trkpt>
      <trkpt lat="46.58881" lon="5.48156">
        <ele>365.2</ele>
        <time>2022-01-22T13:15:48Z</time>
      </trkpt>
      <trkpt lat="46.58864" lon="5.4815">
        <ele>366</ele>
        <time>2022-01-22T13:15:53Z</time>
      </trkpt>
      <trkpt lat="46.58861" lon="5.4815">
        <ele>366.2</ele>
        <time>2022-01-22T13:15:54Z</time>
      </trkpt>
      <trkpt lat="46.58854" lon="5.48149">
        <ele>366.4</ele>
        <time>2022-01-22T13:15:56Z</time>
      </trkpt>
      <trkpt lat="46.58839" lon="5.48149">
        <ele>367.2</ele>
        <time>2022-01-22T13:16:01Z</time>
      </trkpt>
      <trkpt lat="46.5883" lon="5.48148">
        <ele>367.4</ele>
        <time>2022-01-22T13:16:04Z</time>
      </trkpt>
      <trkpt lat="46.58811" lon="5.48148">
        <ele>368.4</ele>
        <time>2022-01-22T13:16:10Z</time>
      </trkpt>
      <trkpt lat="46.58793" lon="5.48146">
        <ele>369.6</ele>
        <time>2022-01-22T13:16:16Z</time>
      </trkpt>
      <trkpt lat="46.58776" lon="5.48138">
        <ele>370.4</ele>
        <time>2022-01-22T13:16:22Z</time>
      </trkpt>
      <trkpt lat="46.58772" lon="5.48134">
        <ele>370.8</ele>
        <time>2022-01-22T13:16:24Z</time>
      </trkpt>
      <trkpt lat="46.58765" lon="5.4813">
        <ele>371.4</ele>
        <time>2022-01-22T13:16:27Z</time>
      </trkpt>
      <trkpt lat="46.58761" lon="5.48126">
        <ele>371.8</ele>
        <time>2022-01-22T13:16:29Z</time>
      </trkpt>
      <trkpt lat="46.58755" lon="5.4812">
        <ele>372.2</ele>
        <time>2022-01-22T13:16:31Z</time>
      </trkpt>
      <trkpt lat="46.58742" lon="5.48099">
        <ele>372.8</ele>
        <time>2022-01-22T13:16:36Z</time>
      </trkpt>
      <trkpt lat="46.58726" lon="5.48083">
        <ele>373.8</ele>
        <time>2022-01-22T13:16:41Z</time>
      </trkpt>
      <trkpt lat="46.58722" lon="5.4808">
        <ele>374</ele>
        <time>2022-01-22T13:16:42Z</time>
      </trkpt>
      <trkpt lat="46.58706" lon="5.48062">
        <ele>374.8</ele>
        <time>2022-01-22T13:16:48Z</time>
      </trkpt>
      <trkpt lat="46.58702" lon="5.48052">
        <ele>375.2</ele>
        <time>2022-01-22T13:16:50Z</time>
      </trkpt>
      <trkpt lat="46.58699" lon="5.48041">
        <ele>375.6</ele>
        <time>2022-01-22T13:16:53Z</time>
      </trkpt>
      <trkpt lat="46.58696" lon="5.48028">
        <ele>376.4</ele>
        <time>2022-01-22T13:16:57Z</time>
      </trkpt>
      <trkpt lat="46.58696" lon="5.48024">
        <ele>376.4</ele>
        <time>2022-01-22T13:16:58Z</time>
      </trkpt>
      <trkpt lat="46.58695" lon="5.48011">
        <ele>377.4</ele>
        <time>2022-01-22T13:17:01Z</time>
      </trkpt>
      <trkpt lat="46.58692" lon="5.47983">
        <ele>378.4</ele>
        <time>2022-01-22T13:17:06Z</time>
      </trkpt>
      <trkpt lat="46.58692" lon="5.47966">
        <ele>379.4</ele>
        <time>2022-01-22T13:17:09Z</time>
      </trkpt>
      <trkpt lat="46.58692" lon="5.47951">
        <ele>379.8</ele>
        <time>2022-01-22T13:17:12Z</time>
      </trkpt>
      <trkpt lat="46.58692" lon="5.47939">
        <ele>380.6</ele>
        <time>2022-01-22T13:17:15Z</time>
      </trkpt>
      <trkpt lat="46.58692" lon="5.47931">
        <ele>381</ele>
        <time>2022-01-22T13:17:17Z</time>
      </trkpt>
      <trkpt lat="46.58692" lon="5.4792">
        <ele>381.8</ele>
        <time>2022-01-22T13:17:20Z</time>
      </trkpt>
      <trkpt lat="46.58691" lon="5.47901">
        <ele>383</ele>
        <time>2022-01-22T13:17:24Z</time>
      </trkpt>
      <trkpt lat="46.58692" lon="5.47871">
        <ele>384.6</ele>
        <time>2022-01-22T13:17:31Z</time>
      </trkpt>
      <trkpt lat="46.58692" lon="5.47862">
        <ele>385</ele>
        <time>2022-01-22T13:17:33Z</time>
      </trkpt>
      <trkpt lat="46.5869" lon="5.47845">
        <ele>385.8</ele>
        <time>2022-01-22T13:17:37Z</time>
      </trkpt>
      <trkpt lat="46.58684" lon="5.47827">
        <ele>386.2</ele>
        <time>2022-01-22T13:17:41Z</time>
      </trkpt>
      <trkpt lat="46.5867" lon="5.47806">
        <ele>386.8</ele>
        <time>2022-01-22T13:17:47Z</time>
      </trkpt>
      <trkpt lat="46.58667" lon="5.47803">
        <ele>386.8</ele>
        <time>2022-01-22T13:17:48Z</time>
      </trkpt>
      <trkpt lat="46.58642" lon="5.47786">
        <ele>387.8</ele>
        <time>2022-01-22T13:17:56Z</time>
      </trkpt>
      <trkpt lat="46.58639" lon="5.47784">
        <ele>387.8</ele>
        <time>2022-01-22T13:17:57Z</time>
      </trkpt>
      <trkpt lat="46.5862" lon="5.47775">
        <ele>389</ele>
        <time>2022-01-22T13:18:03Z</time>
      </trkpt>
      <trkpt lat="46.58609" lon="5.4777">
        <ele>389.6</ele>
        <time>2022-01-22T13:18:06Z</time>
      </trkpt>
      <trkpt lat="46.58599" lon="5.47767">
        <ele>390</ele>
        <time>2022-01-22T13:18:09Z</time>
      </trkpt>
      <trkpt lat="46.5859" lon="5.47766">
        <ele>390.6</ele>
        <time>2022-01-22T13:18:12Z</time>
      </trkpt>
      <trkpt lat="46.58584" lon="5.47766">
        <ele>391</ele>
        <time>2022-01-22T13:18:14Z</time>
      </trkpt>
      <trkpt lat="46.58568" lon="5.47771">
        <ele>391.6</ele>
        <time>2022-01-22T13:18:19Z</time>
      </trkpt>
      <trkpt lat="46.58559" lon="5.47777">
        <ele>392.2</ele>
        <time>2022-01-22T13:18:22Z</time>
      </trkpt>
      <trkpt lat="46.5855" lon="5.47785">
        <ele>392.6</ele>
        <time>2022-01-22T13:18:25Z</time>
      </trkpt>
      <trkpt lat="46.58544" lon="5.4779">
        <ele>393.2</ele>
        <time>2022-01-22T13:18:27Z</time>
      </trkpt>
      <trkpt lat="46.58525" lon="5.47804">
        <ele>394.2</ele>
        <time>2022-01-22T13:18:33Z</time>
      </trkpt>
      <trkpt lat="46.58522" lon="5.47807">
        <ele>394.4</ele>
        <time>2022-01-22T13:18:34Z</time>
      </trkpt>
      <trkpt lat="46.58502" lon="5.47822">
        <ele>395.2</ele>
        <time>2022-01-22T13:18:40Z</time>
      </trkpt>
      <trkpt lat="46.58491" lon="5.4783">
        <ele>395.6</ele>
        <time>2022-01-22T13:18:43Z</time>
      </trkpt>
      <trkpt lat="46.58476" lon="5.47842">
        <ele>396.2</ele>
        <time>2022-01-22T13:18:48Z</time>
      </trkpt>
      <trkpt lat="46.58468" lon="5.47849">
        <ele>397</ele>
        <time>2022-01-22T13:18:51Z</time>
      </trkpt>
      <trkpt lat="46.58464" lon="5.47856">
        <ele>397.4</ele>
        <time>2022-01-22T13:18:53Z</time>
      </trkpt>
      <trkpt lat="46.58461" lon="5.4787">
        <ele>398.2</ele>
        <time>2022-01-22T13:18:56Z</time>
      </trkpt>
      <trkpt lat="46.58462" lon="5.47874">
        <ele>398.6</ele>
        <time>2022-01-22T13:18:57Z</time>
      </trkpt>
      <trkpt lat="46.58466" lon="5.47881">
        <ele>399.4</ele>
        <time>2022-01-22T13:18:59Z</time>
      </trkpt>
      <trkpt lat="46.58469" lon="5.47882">
        <ele>400</ele>
        <time>2022-01-22T13:19:00Z</time>
      </trkpt>
      <trkpt lat="46.58481" lon="5.47881">
        <ele>400.8</ele>
        <time>2022-01-22T13:19:03Z</time>
      </trkpt>
      <trkpt lat="46.58484" lon="5.4788">
        <ele>401.2</ele>
        <time>2022-01-22T13:19:04Z</time>
      </trkpt>
      <trkpt lat="46.58506" lon="5.47873">
        <ele>402.2</ele>
        <time>2022-01-22T13:19:10Z</time>
      </trkpt>
      <trkpt lat="46.58511" lon="5.47872">
        <ele>402.4</ele>
        <time>2022-01-22T13:19:11Z</time>
      </trkpt>
      <trkpt lat="46.58531" lon="5.47872">
        <ele>403.4</ele>
        <time>2022-01-22T13:19:17Z</time>
      </trkpt>
      <trkpt lat="46.58552" lon="5.47876">
        <ele>404.4</ele>
        <time>2022-01-22T13:19:23Z</time>
      </trkpt>
      <trkpt lat="46.58555" lon="5.47878">
        <ele>404.4</ele>
        <time>2022-01-22T13:19:24Z</time>
      </trkpt>
      <trkpt lat="46.58573" lon="5.47894">
        <ele>405.4</ele>
        <time>2022-01-22T13:19:30Z</time>
      </trkpt>
      <trkpt lat="46.5858" lon="5.47908">
        <ele>406.6</ele>
        <time>2022-01-22T13:19:34Z</time>
      </trkpt>
      <trkpt lat="46.58585" lon="5.47921">
        <ele>407.2</ele>
        <time>2022-01-22T13:19:37Z</time>
      </trkpt>
      <trkpt lat="46.58588" lon="5.47934">
        <ele>407.8</ele>
        <time>2022-01-22T13:19:40Z</time>
      </trkpt>
      <trkpt lat="46.58593" lon="5.47961">
        <ele>408.8</ele>
        <time>2022-01-22T13:19:46Z</time>
      </trkpt>
      <trkpt lat="46.58594" lon="5.47965">
        <ele>409</ele>
        <time>2022-01-22T13:19:47Z</time>
      </trkpt>
      <trkpt lat="46.58597" lon="5.4799">
        <ele>410</ele>
        <time>2022-01-22T13:19:52Z</time>
      </trkpt>
      <trkpt lat="46.58601" lon="5.4801">
        <ele>410.8</ele>
        <time>2022-01-22T13:19:56Z</time>
      </trkpt>
      <trkpt lat="46.58603" lon="5.48017">
        <ele>411</ele>
        <time>2022-01-22T13:19:58Z</time>
      </trkpt>
      <trkpt lat="46.58607" lon="5.48043">
        <ele>412.2</ele>
        <time>2022-01-22T13:20:04Z</time>
      </trkpt>
      <trkpt lat="46.58608" lon="5.48049">
        <ele>412.4</ele>
        <time>2022-01-22T13:20:06Z</time>
      </trkpt>
      <trkpt lat="46.58613" lon="5.48066">
        <ele>413.2</ele>
        <time>2022-01-22T13:20:10Z</time>
      </trkpt>
      <trkpt lat="46.58617" lon="5.48076">
        <ele>413.8</ele>
        <time>2022-01-22T13:20:13Z</time>
      </trkpt>
      <trkpt lat="46.58619" lon="5.48084">
        <ele>414.4</ele>
        <time>2022-01-22T13:20:15Z</time>
      </trkpt>
      <trkpt lat="46.58627" lon="5.48104">
        <ele>415.2</ele>
        <time>2022-01-22T13:20:20Z</time>
      </trkpt>
      <trkpt lat="46.58628" lon="5.48108">
        <ele>415.6</ele>
        <time>2022-01-22T13:20:21Z</time>
      </trkpt>
      <trkpt lat="46.58636" lon="5.48134">
        <ele>416.2</ele>
        <time>2022-01-22T13:20:27Z</time>
      </trkpt>
      <trkpt lat="46.58642" lon="5.48141">
        <ele>416.6</ele>
        <time>2022-01-22T13:20:29Z</time>
      </trkpt>
      <trkpt lat="46.58651" lon="5.48163">
        <ele>417.8</ele>
        <time>2022-01-22T13:20:34Z</time>
      </trkpt>
      <trkpt lat="46.58651" lon="5.48167">
        <ele>418.2</ele>
        <time>2022-01-22T13:20:35Z</time>
      </trkpt>
      <trkpt lat="46.58654" lon="5.48182">
        <ele>418.8</ele>
        <time>2022-01-22T13:20:38Z</time>
      </trkpt>
      <trkpt lat="46.5866" lon="5.48208">
        <ele>419.8</ele>
        <time>2022-01-22T13:20:44Z</time>
      </trkpt>
      <trkpt lat="46.5866" lon="5.48212">
        <ele>420</ele>
        <time>2022-01-22T13:20:45Z</time>
      </trkpt>
      <trkpt lat="46.58664" lon="5.48234">
        <ele>421.2</ele>
        <time>2022-01-22T13:20:51Z</time>
      </trkpt>
      <trkpt lat="46.58667" lon="5.48258">
        <ele>422.2</ele>
        <time>2022-01-22T13:20:57Z</time>
      </trkpt>
      <trkpt lat="46.5867" lon="5.48281">
        <ele>423.4</ele>
        <time>2022-01-22T13:21:02Z</time>
      </trkpt>
      <trkpt lat="46.58661" lon="5.48303">
        <ele>424.4</ele>
        <time>2022-01-22T13:21:07Z</time>
      </trkpt>
      <trkpt lat="46.58656" lon="5.48306">
        <ele>424.6</ele>
        <time>2022-01-22T13:21:09Z</time>
      </trkpt>
      <trkpt lat="46.58643" lon="5.48312">
        <ele>425.4</ele>
        <time>2022-01-22T13:21:13Z</time>
      </trkpt>
      <trkpt lat="46.5863" lon="5.48316">
        <ele>425.6</ele>
        <time>2022-01-22T13:21:17Z</time>
      </trkpt>
      <trkpt lat="46.58614" lon="5.4832">
        <ele>426.4</ele>
        <time>2022-01-22T13:21:22Z</time>
      </trkpt>
      <trkpt lat="46.58608" lon="5.48321">
        <ele>426.8</ele>
        <time>2022-01-22T13:21:24Z</time>
      </trkpt>
      <trkpt lat="46.58589" lon="5.48323">
        <ele>427.8</ele>
        <time>2022-01-22T13:21:30Z</time>
      </trkpt>
      <trkpt lat="46.58586" lon="5.48323">
        <ele>428</ele>
        <time>2022-01-22T13:21:31Z</time>
      </trkpt>
      <trkpt lat="46.58566" lon="5.48321">
        <ele>429.2</ele>
        <time>2022-01-22T13:21:37Z</time>
      </trkpt>
      <trkpt lat="46.58549" lon="5.48319">
        <ele>429.8</ele>
        <time>2022-01-22T13:21:42Z</time>
      </trkpt>
      <trkpt lat="46.5854" lon="5.48318">
        <ele>430.2</ele>
        <time>2022-01-22T13:21:45Z</time>
      </trkpt>
      <trkpt lat="46.58528" lon="5.48315">
        <ele>430.8</ele>
        <time>2022-01-22T13:21:49Z</time>
      </trkpt>
      <trkpt lat="46.58519" lon="5.48311">
        <ele>431.4</ele>
        <time>2022-01-22T13:21:52Z</time>
      </trkpt>
      <trkpt lat="46.58502" lon="5.48302">
        <ele>432</ele>
        <time>2022-01-22T13:21:57Z</time>
      </trkpt>
      <trkpt lat="46.58496" lon="5.483">
        <ele>432.4</ele>
        <time>2022-01-22T13:21:59Z</time>
      </trkpt>
      <trkpt lat="46.58481" lon="5.4829">
        <ele>433.6</ele>
        <time>2022-01-22T13:22:04Z</time>
      </trkpt>
      <trkpt lat="46.58476" lon="5.48286">
        <ele>434</ele>
        <time>2022-01-22T13:22:06Z</time>
      </trkpt>
      <trkpt lat="46.58465" lon="5.48278">
        <ele>434.8</ele>
        <time>2022-01-22T13:22:10Z</time>
      </trkpt>
      <trkpt lat="46.58451" lon="5.48265">
        <ele>435.8</ele>
        <time>2022-01-22T13:22:15Z</time>
      </trkpt>
      <trkpt lat="46.58448" lon="5.48263">
        <ele>436</ele>
        <time>2022-01-22T13:22:16Z</time>
      </trkpt>
      <trkpt lat="46.58437" lon="5.48253">
        <ele>436.8</ele>
        <time>2022-01-22T13:22:20Z</time>
      </trkpt>
      <trkpt lat="46.58427" lon="5.48245">
        <ele>437.8</ele>
        <time>2022-01-22T13:22:23Z</time>
      </trkpt>
      <trkpt lat="46.58424" lon="5.48244">
        <ele>438.2</ele>
        <time>2022-01-22T13:22:24Z</time>
      </trkpt>
      <trkpt lat="46.58408" lon="5.48242">
        <ele>439</ele>
        <time>2022-01-22T13:22:28Z</time>
      </trkpt>
      <trkpt lat="46.58405" lon="5.48241">
        <ele>439.2</ele>
        <time>2022-01-22T13:22:29Z</time>
      </trkpt>
      <trkpt lat="46.58375" lon="5.48245">
        <ele>440</ele>
        <time>2022-01-22T13:22:36Z</time>
      </trkpt>
      <trkpt lat="46.58367" lon="5.48245">
        <ele>440.2</ele>
        <time>2022-01-22T13:22:38Z</time>
      </trkpt>
      <trkpt lat="46.58343" lon="5.48238">
        <ele>440.6</ele>
        <time>2022-01-22T13:22:43Z</time>
      </trkpt>
      <trkpt lat="46.58321" lon="5.48229">
        <ele>441</ele>
        <time>2022-01-22T13:22:48Z</time>
      </trkpt>
      <trkpt lat="46.5828" lon="5.4822">
        <ele>441.2</ele>
        <time>2022-01-22T13:22:55Z</time>
      </trkpt>
      <trkpt lat="46.58276" lon="5.48219">
        <ele>441.2</ele>
        <time>2022-01-22T13:22:56Z</time>
      </trkpt>
      <trkpt lat="46.58268" lon="5.48215">
        <ele>441.2</ele>
        <time>2022-01-22T13:22:58Z</time>
      </trkpt>
      <trkpt lat="46.5826" lon="5.4821">
        <ele>441.2</ele>
        <time>2022-01-22T13:23:00Z</time>
      </trkpt>
      <trkpt lat="46.58244" lon="5.48198">
        <ele>441.4</ele>
        <time>2022-01-22T13:23:04Z</time>
      </trkpt>
      <trkpt lat="46.58236" lon="5.48193">
        <ele>441.6</ele>
        <time>2022-01-22T13:23:06Z</time>
      </trkpt>
      <trkpt lat="46.582" lon="5.48184">
        <ele>442.4</ele>
        <time>2022-01-22T13:23:14Z</time>
      </trkpt>
      <trkpt lat="46.58184" lon="5.4818">
        <ele>443.4</ele>
        <time>2022-01-22T13:23:19Z</time>
      </trkpt>
      <trkpt lat="46.58181" lon="5.48179">
        <ele>443.6</ele>
        <time>2022-01-22T13:23:20Z</time>
      </trkpt>
      <trkpt lat="46.5817" lon="5.48175">
        <ele>444.4</ele>
        <time>2022-01-22T13:23:23Z</time>
      </trkpt>
      <trkpt lat="46.58164" lon="5.48171">
        <ele>444.8</ele>
        <time>2022-01-22T13:23:25Z</time>
      </trkpt>
      <trkpt lat="46.58157" lon="5.4817">
        <ele>445.4</ele>
        <time>2022-01-22T13:23:27Z</time>
      </trkpt>
      <trkpt lat="46.58154" lon="5.48168">
        <ele>445.8</ele>
        <time>2022-01-22T13:23:28Z</time>
      </trkpt>
      <trkpt lat="46.58148" lon="5.48167">
        <ele>445.8</ele>
        <time>2022-01-22T13:23:29Z</time>
      </trkpt>
      <trkpt lat="46.5814" lon="5.48167">
        <ele>446.6</ele>
        <time>2022-01-22T13:23:31Z</time>
      </trkpt>
      <trkpt lat="46.58137" lon="5.48166">
        <ele>447</ele>
        <time>2022-01-22T13:23:32Z</time>
      </trkpt>
      <trkpt lat="46.5812" lon="5.48154">
        <ele>448.2</ele>
        <time>2022-01-22T13:23:37Z</time>
      </trkpt>
      <trkpt lat="46.58117" lon="5.48149">
        <ele>448.2</ele>
        <time>2022-01-22T13:23:38Z</time>
      </trkpt>
      <trkpt lat="46.58114" lon="5.4814">
        <ele>448.8</ele>
        <time>2022-01-22T13:23:40Z</time>
      </trkpt>
      <trkpt lat="46.58113" lon="5.48133">
        <ele>449.2</ele>
        <time>2022-01-22T13:23:41Z</time>
      </trkpt>
      <trkpt lat="46.58109" lon="5.48115">
        <ele>450.2</ele>
        <time>2022-01-22T13:23:45Z</time>
      </trkpt>
      <trkpt lat="46.58105" lon="5.48102">
        <ele>451.6</ele>
        <time>2022-01-22T13:23:48Z</time>
      </trkpt>
      <trkpt lat="46.581" lon="5.48079">
        <ele>452.8</ele>
        <time>2022-01-22T13:23:53Z</time>
      </trkpt>
      <trkpt lat="46.58089" lon="5.48061">
        <ele>453.8</ele>
        <time>2022-01-22T13:23:59Z</time>
      </trkpt>
      <trkpt lat="46.58071" lon="5.48048">
        <ele>454.8</ele>
        <time>2022-01-22T13:24:05Z</time>
      </trkpt>
      <trkpt lat="46.58068" lon="5.48046">
        <ele>455</ele>
        <time>2022-01-22T13:24:06Z</time>
      </trkpt>
      <trkpt lat="46.58052" lon="5.48032">
        <ele>456.2</ele>
        <time>2022-01-22T13:24:12Z</time>
      </trkpt>
      <trkpt lat="46.58047" lon="5.48027">
        <ele>456.6</ele>
        <time>2022-01-22T13:24:14Z</time>
      </trkpt>
      <trkpt lat="46.58038" lon="5.48023">
        <ele>457.2</ele>
        <time>2022-01-22T13:24:17Z</time>
      </trkpt>
      <trkpt lat="46.58025" lon="5.4802">
        <ele>458</ele>
        <time>2022-01-22T13:24:21Z</time>
      </trkpt>
      <trkpt lat="46.58012" lon="5.48018">
        <ele>458.6</ele>
        <time>2022-01-22T13:24:25Z</time>
      </trkpt>
      <trkpt lat="46.58" lon="5.48015">
        <ele>459</ele>
        <time>2022-01-22T13:24:28Z</time>
      </trkpt>
      <trkpt lat="46.57982" lon="5.48011">
        <ele>459.6</ele>
        <time>2022-01-22T13:24:33Z</time>
      </trkpt>
      <trkpt lat="46.57978" lon="5.48009">
        <ele>459.6</ele>
        <time>2022-01-22T13:24:34Z</time>
      </trkpt>
      <trkpt lat="46.57964" lon="5.48002">
        <ele>460</ele>
        <time>2022-01-22T13:24:38Z</time>
      </trkpt>
      <trkpt lat="46.57946" lon="5.47983">
        <ele>460.8</ele>
        <time>2022-01-22T13:24:43Z</time>
      </trkpt>
      <trkpt lat="46.57933" lon="5.47953">
        <ele>461.6</ele>
        <time>2022-01-22T13:24:49Z</time>
      </trkpt>
      <trkpt lat="46.57931" lon="5.47949">
        <ele>461.8</ele>
        <time>2022-01-22T13:24:50Z</time>
      </trkpt>
      <trkpt lat="46.57916" lon="5.4792">
        <ele>463</ele>
        <time>2022-01-22T13:24:57Z</time>
      </trkpt>
      <trkpt lat="46.57899" lon="5.479">
        <ele>463.6</ele>
        <time>2022-01-22T13:25:04Z</time>
      </trkpt>
      <trkpt lat="46.5788" lon="5.47895">
        <ele>463.8</ele>
        <time>2022-01-22T13:25:09Z</time>
      </trkpt>
      <trkpt lat="46.57876" lon="5.47894">
        <ele>464</ele>
        <time>2022-01-22T13:25:10Z</time>
      </trkpt>
      <trkpt lat="46.57855" lon="5.47895">
        <ele>464.8</ele>
        <time>2022-01-22T13:25:16Z</time>
      </trkpt>
      <trkpt lat="46.57842" lon="5.47896">
        <ele>465</ele>
        <time>2022-01-22T13:25:19Z</time>
      </trkpt>
      <trkpt lat="46.57826" lon="5.47897">
        <ele>465.8</ele>
        <time>2022-01-22T13:25:23Z</time>
      </trkpt>
      <trkpt lat="46.57814" lon="5.479">
        <ele>466.2</ele>
        <time>2022-01-22T13:25:26Z</time>
      </trkpt>
      <trkpt lat="46.57807" lon="5.47901">
        <ele>466.4</ele>
        <time>2022-01-22T13:25:28Z</time>
      </trkpt>
      <trkpt lat="46.5778" lon="5.47901">
        <ele>467</ele>
        <time>2022-01-22T13:25:34Z</time>
      </trkpt>
      <trkpt lat="46.57773" lon="5.47902">
        <ele>467.2</ele>
        <time>2022-01-22T13:25:36Z</time>
      </trkpt>
      <trkpt lat="46.57757" lon="5.47901">
        <ele>467.8</ele>
        <time>2022-01-22T13:25:39Z</time>
      </trkpt>
      <trkpt lat="46.57731" lon="5.47889">
        <ele>468.2</ele>
        <time>2022-01-22T13:25:44Z</time>
      </trkpt>
      <trkpt lat="46.57719" lon="5.4787">
        <ele>469</ele>
        <time>2022-01-22T13:25:49Z</time>
      </trkpt>
      <trkpt lat="46.577" lon="5.47852">
        <ele>469.4</ele>
        <time>2022-01-22T13:25:55Z</time>
      </trkpt>
      <trkpt lat="46.5769" lon="5.47844">
        <ele>469.6</ele>
        <time>2022-01-22T13:25:58Z</time>
      </trkpt>
      <trkpt lat="46.5767" lon="5.47834">
        <ele>470.6</ele>
        <time>2022-01-22T13:26:03Z</time>
      </trkpt>
      <trkpt lat="46.57666" lon="5.47831">
        <ele>470.6</ele>
        <time>2022-01-22T13:26:04Z</time>
      </trkpt>
      <trkpt lat="46.57641" lon="5.4782">
        <ele>471.8</ele>
        <time>2022-01-22T13:26:10Z</time>
      </trkpt>
      <trkpt lat="46.57637" lon="5.47819">
        <ele>472</ele>
        <time>2022-01-22T13:26:11Z</time>
      </trkpt>
      <trkpt lat="46.57615" lon="5.47813">
        <ele>472.4</ele>
        <time>2022-01-22T13:26:16Z</time>
      </trkpt>
      <trkpt lat="46.57605" lon="5.47811">
        <ele>472.6</ele>
        <time>2022-01-22T13:26:18Z</time>
      </trkpt>
      <trkpt lat="46.57602" lon="5.4781">
        <ele>473</ele>
        <time>2022-01-22T13:26:19Z</time>
      </trkpt>
      <trkpt lat="46.57578" lon="5.478">
        <ele>473.4</ele>
        <time>2022-01-22T13:26:24Z</time>
      </trkpt>
      <trkpt lat="46.57574" lon="5.478">
        <ele>473.8</ele>
        <time>2022-01-22T13:26:25Z</time>
      </trkpt>
      <trkpt lat="46.5757" lon="5.47799">
        <ele>474</ele>
        <time>2022-01-22T13:26:26Z</time>
      </trkpt>
      <trkpt lat="46.57564" lon="5.47796">
        <ele>474.2</ele>
        <time>2022-01-22T13:26:27Z</time>
      </trkpt>
      <trkpt lat="46.57539" lon="5.47794">
        <ele>474.4</ele>
        <time>2022-01-22T13:26:31Z</time>
      </trkpt>
      <trkpt lat="46.57504" lon="5.47795">
        <ele>474.8</ele>
        <time>2022-01-22T13:26:37Z</time>
      </trkpt>
      <trkpt lat="46.57499" lon="5.47794">
        <ele>474.8</ele>
        <time>2022-01-22T13:26:38Z</time>
      </trkpt>
      <trkpt lat="46.5749" lon="5.47792">
        <ele>475</ele>
        <time>2022-01-22T13:26:41Z</time>
      </trkpt>
      <trkpt lat="46.57486" lon="5.47793">
        <ele>475</ele>
        <time>2022-01-22T13:26:42Z</time>
      </trkpt>
      <trkpt lat="46.57458" lon="5.47796">
        <ele>476</ele>
        <time>2022-01-22T13:26:49Z</time>
      </trkpt>
      <trkpt lat="46.57454" lon="5.47797">
        <ele>476</ele>
        <time>2022-01-22T13:26:50Z</time>
      </trkpt>
      <trkpt lat="46.5745" lon="5.47798">
        <ele>476</ele>
        <time>2022-01-22T13:26:51Z</time>
      </trkpt>
      <trkpt lat="46.57445" lon="5.478">
        <ele>476</ele>
        <time>2022-01-22T13:26:52Z</time>
      </trkpt>
      <trkpt lat="46.5744" lon="5.47803">
        <ele>476</ele>
        <time>2022-01-22T13:26:53Z</time>
      </trkpt>
      <trkpt lat="46.57422" lon="5.47816">
        <ele>476</ele>
        <time>2022-01-22T13:26:57Z</time>
      </trkpt>
      <trkpt lat="46.57418" lon="5.47819">
        <ele>476</ele>
        <time>2022-01-22T13:26:58Z</time>
      </trkpt>
      <trkpt lat="46.57382" lon="5.47849">
        <ele>475.6</ele>
        <time>2022-01-22T13:27:05Z</time>
      </trkpt>
      <trkpt lat="46.57342" lon="5.47881">
        <ele>475.4</ele>
        <time>2022-01-22T13:27:13Z</time>
      </trkpt>
      <trkpt lat="46.57323" lon="5.47891">
        <ele>475.4</ele>
        <time>2022-01-22T13:27:18Z</time>
      </trkpt>
      <trkpt lat="46.57319" lon="5.47892">
        <ele>475.4</ele>
        <time>2022-01-22T13:27:19Z</time>
      </trkpt>
      <trkpt lat="46.57302" lon="5.47892">
        <ele>475.6</ele>
        <time>2022-01-22T13:27:22Z</time>
      </trkpt>
      <trkpt lat="46.57284" lon="5.47894">
        <ele>476</ele>
        <time>2022-01-22T13:27:25Z</time>
      </trkpt>
      <trkpt lat="46.57269" lon="5.47894">
        <ele>476.2</ele>
        <time>2022-01-22T13:27:28Z</time>
      </trkpt>
      <trkpt lat="46.57237" lon="5.47901">
        <ele>477.2</ele>
        <time>2022-01-22T13:27:35Z</time>
      </trkpt>
      <trkpt lat="46.57232" lon="5.47901">
        <ele>477.4</ele>
        <time>2022-01-22T13:27:36Z</time>
      </trkpt>
      <trkpt lat="46.57196" lon="5.47905">
        <ele>478.4</ele>
        <time>2022-01-22T13:27:44Z</time>
      </trkpt>
      <trkpt lat="46.57192" lon="5.47905">
        <ele>478.4</ele>
        <time>2022-01-22T13:27:45Z</time>
      </trkpt>
      <trkpt lat="46.57167" lon="5.47895">
        <ele>479.2</ele>
        <time>2022-01-22T13:27:52Z</time>
      </trkpt>
      <trkpt lat="46.5716" lon="5.4789">
        <ele>479.4</ele>
        <time>2022-01-22T13:27:54Z</time>
      </trkpt>
      <trkpt lat="46.57145" lon="5.47876">
        <ele>480.6</ele>
        <time>2022-01-22T13:27:59Z</time>
      </trkpt>
      <trkpt lat="46.57131" lon="5.47861">
        <ele>482</ele>
        <time>2022-01-22T13:28:04Z</time>
      </trkpt>
      <trkpt lat="46.57122" lon="5.47854">
        <ele>482.4</ele>
        <time>2022-01-22T13:28:07Z</time>
      </trkpt>
      <trkpt lat="46.57106" lon="5.47842">
        <ele>483.2</ele>
        <time>2022-01-22T13:28:12Z</time>
      </trkpt>
      <trkpt lat="46.57099" lon="5.47838">
        <ele>483.6</ele>
        <time>2022-01-22T13:28:14Z</time>
      </trkpt>
      <trkpt lat="46.57087" lon="5.47831">
        <ele>484.2</ele>
        <time>2022-01-22T13:28:17Z</time>
      </trkpt>
      <trkpt lat="46.57069" lon="5.4782">
        <ele>485.4</ele>
        <time>2022-01-22T13:28:22Z</time>
      </trkpt>
      <trkpt lat="46.57066" lon="5.47817">
        <ele>485.6</ele>
        <time>2022-01-22T13:28:23Z</time>
      </trkpt>
      <trkpt lat="46.57055" lon="5.47811">
        <ele>486.4</ele>
        <time>2022-01-22T13:28:26Z</time>
      </trkpt>
      <trkpt lat="46.57035" lon="5.47801">
        <ele>487</ele>
        <time>2022-01-22T13:28:32Z</time>
      </trkpt>
      <trkpt lat="46.57023" lon="5.47798">
        <ele>487.4</ele>
        <time>2022-01-22T13:28:35Z</time>
      </trkpt>
      <trkpt lat="46.57003" lon="5.47798">
        <ele>488</ele>
        <time>2022-01-22T13:28:40Z</time>
      </trkpt>
      <trkpt lat="46.56996" lon="5.478">
        <ele>488.6</ele>
        <time>2022-01-22T13:28:42Z</time>
      </trkpt>
      <trkpt lat="46.56979" lon="5.47803">
        <ele>489.6</ele>
        <time>2022-01-22T13:28:47Z</time>
      </trkpt>
      <trkpt lat="46.56965" lon="5.47802">
        <ele>490.8</ele>
        <time>2022-01-22T13:28:51Z</time>
      </trkpt>
      <trkpt lat="46.56954" lon="5.47801">
        <ele>491.6</ele>
        <time>2022-01-22T13:28:54Z</time>
      </trkpt>
      <trkpt lat="46.56951" lon="5.478">
        <ele>492</ele>
        <time>2022-01-22T13:28:55Z</time>
      </trkpt>
      <trkpt lat="46.56934" lon="5.47796">
        <ele>493</ele>
        <time>2022-01-22T13:29:00Z</time>
      </trkpt>
      <trkpt lat="46.56918" lon="5.47793">
        <ele>493.8</ele>
        <time>2022-01-22T13:29:05Z</time>
      </trkpt>
      <trkpt lat="46.56915" lon="5.47792">
        <ele>494.2</ele>
        <time>2022-01-22T13:29:06Z</time>
      </trkpt>
      <trkpt lat="46.56895" lon="5.47783">
        <ele>495.2</ele>
        <time>2022-01-22T13:29:12Z</time>
      </trkpt>
      <trkpt lat="46.56887" lon="5.47779">
        <ele>495.4</ele>
        <time>2022-01-22T13:29:14Z</time>
      </trkpt>
      <trkpt lat="46.56866" lon="5.47761">
        <ele>496.2</ele>
        <time>2022-01-22T13:29:20Z</time>
      </trkpt>
      <trkpt lat="46.56843" lon="5.4774">
        <ele>497.4</ele>
        <time>2022-01-22T13:29:27Z</time>
      </trkpt>
      <trkpt lat="46.5684" lon="5.47738">
        <ele>497.6</ele>
        <time>2022-01-22T13:29:28Z</time>
      </trkpt>
      <trkpt lat="46.56829" lon="5.47727">
        <ele>498.6</ele>
        <time>2022-01-22T13:29:32Z</time>
      </trkpt>
      <trkpt lat="46.5682" lon="5.47719">
        <ele>499.2</ele>
        <time>2022-01-22T13:29:35Z</time>
      </trkpt>
      <trkpt lat="46.56811" lon="5.47712">
        <ele>499.8</ele>
        <time>2022-01-22T13:29:38Z</time>
      </trkpt>
      <trkpt lat="46.56795" lon="5.47703">
        <ele>500.6</ele>
        <time>2022-01-22T13:29:43Z</time>
      </trkpt>
      <trkpt lat="46.56789" lon="5.47699">
        <ele>500.8</ele>
        <time>2022-01-22T13:29:45Z</time>
      </trkpt>
      <trkpt lat="46.56773" lon="5.4769">
        <ele>501.8</ele>
        <time>2022-01-22T13:29:50Z</time>
      </trkpt>
      <trkpt lat="46.56766" lon="5.47686">
        <ele>502</ele>
        <time>2022-01-22T13:29:52Z</time>
      </trkpt>
      <trkpt lat="46.56759" lon="5.47683">
        <ele>502.2</ele>
        <time>2022-01-22T13:29:54Z</time>
      </trkpt>
      <trkpt lat="46.56745" lon="5.47675">
        <ele>503</ele>
        <time>2022-01-22T13:29:58Z</time>
      </trkpt>
      <trkpt lat="46.56731" lon="5.47667">
        <ele>503.4</ele>
        <time>2022-01-22T13:30:02Z</time>
      </trkpt>
      <trkpt lat="46.56726" lon="5.47664">
        <ele>504</ele>
        <time>2022-01-22T13:30:04Z</time>
      </trkpt>
      <trkpt lat="46.56706" lon="5.47651">
        <ele>505.2</ele>
        <time>2022-01-22T13:30:10Z</time>
      </trkpt>
      <trkpt lat="46.56703" lon="5.4765">
        <ele>505.2</ele>
        <time>2022-01-22T13:30:11Z</time>
      </trkpt>
      <trkpt lat="46.56675" lon="5.47633">
        <ele>506.2</ele>
        <time>2022-01-22T13:30:19Z</time>
      </trkpt>
      <trkpt lat="46.56672" lon="5.47631">
        <ele>506.2</ele>
        <time>2022-01-22T13:30:20Z</time>
      </trkpt>
      <trkpt lat="46.56653" lon="5.47618">
        <ele>507.4</ele>
        <time>2022-01-22T13:30:26Z</time>
      </trkpt>
      <trkpt lat="46.56636" lon="5.47607">
        <ele>508.2</ele>
        <time>2022-01-22T13:30:31Z</time>
      </trkpt>
      <trkpt lat="46.5663" lon="5.47602">
        <ele>508.4</ele>
        <time>2022-01-22T13:30:33Z</time>
      </trkpt>
      <trkpt lat="46.56611" lon="5.47588">
        <ele>509</ele>
        <time>2022-01-22T13:30:39Z</time>
      </trkpt>
      <trkpt lat="46.56602" lon="5.47581">
        <ele>509.6</ele>
        <time>2022-01-22T13:30:42Z</time>
      </trkpt>
      <trkpt lat="46.56595" lon="5.47572">
        <ele>509.8</ele>
        <time>2022-01-22T13:30:45Z</time>
      </trkpt>
      <trkpt lat="46.56589" lon="5.47566">
        <ele>510.8</ele>
        <time>2022-01-22T13:30:47Z</time>
      </trkpt>
      <trkpt lat="46.56579" lon="5.47552">
        <ele>511.8</ele>
        <time>2022-01-22T13:30:51Z</time>
      </trkpt>
      <trkpt lat="46.56572" lon="5.47542">
        <ele>512.2</ele>
        <time>2022-01-22T13:30:54Z</time>
      </trkpt>
      <trkpt lat="46.56562" lon="5.4753">
        <ele>513</ele>
        <time>2022-01-22T13:30:58Z</time>
      </trkpt>
      <trkpt lat="46.5655" lon="5.47518">
        <ele>514</ele>
        <time>2022-01-22T13:31:02Z</time>
      </trkpt>
      <trkpt lat="46.56544" lon="5.47512">
        <ele>514.4</ele>
        <time>2022-01-22T13:31:04Z</time>
      </trkpt>
      <trkpt lat="46.56532" lon="5.47502">
        <ele>515.2</ele>
        <time>2022-01-22T13:31:08Z</time>
      </trkpt>
      <trkpt lat="46.56526" lon="5.47497">
        <ele>515.4</ele>
        <time>2022-01-22T13:31:10Z</time>
      </trkpt>
      <trkpt lat="46.5652" lon="5.47492">
        <ele>515.6</ele>
        <time>2022-01-22T13:31:12Z</time>
      </trkpt>
      <trkpt lat="46.56511" lon="5.47486">
        <ele>516.2</ele>
        <time>2022-01-22T13:31:15Z</time>
      </trkpt>
      <trkpt lat="46.5649" lon="5.47468">
        <ele>517.2</ele>
        <time>2022-01-22T13:31:22Z</time>
      </trkpt>
      <trkpt lat="46.56487" lon="5.47465">
        <ele>517.4</ele>
        <time>2022-01-22T13:31:23Z</time>
      </trkpt>
      <trkpt lat="46.56474" lon="5.47453">
        <ele>518.4</ele>
        <time>2022-01-22T13:31:28Z</time>
      </trkpt>
      <trkpt lat="46.56465" lon="5.47444">
        <ele>519.4</ele>
        <time>2022-01-22T13:31:32Z</time>
      </trkpt>
      <trkpt lat="46.56463" lon="5.47442">
        <ele>519.4</ele>
        <time>2022-01-22T13:31:33Z</time>
      </trkpt>
      <trkpt lat="46.56455" lon="5.47433">
        <ele>520.8</ele>
        <time>2022-01-22T13:31:37Z</time>
      </trkpt>
      <trkpt lat="46.56447" lon="5.47425">
        <ele>521.8</ele>
        <time>2022-01-22T13:31:41Z</time>
      </trkpt>
      <trkpt lat="46.56437" lon="5.47413">
        <ele>523.2</ele>
        <time>2022-01-22T13:31:46Z</time>
      </trkpt>
      <trkpt lat="46.56428" lon="5.47404">
        <ele>524.4</ele>
        <time>2022-01-22T13:31:50Z</time>
      </trkpt>
      <trkpt lat="46.56418" lon="5.47393">
        <ele>525.6</ele>
        <time>2022-01-22T13:31:55Z</time>
      </trkpt>
      <trkpt lat="46.5641" lon="5.47385">
        <ele>526.8</ele>
        <time>2022-01-22T13:31:59Z</time>
      </trkpt>
      <trkpt lat="46.56402" lon="5.47376">
        <ele>527.8</ele>
        <time>2022-01-22T13:32:03Z</time>
      </trkpt>
      <trkpt lat="46.56393" lon="5.47367">
        <ele>529.2</ele>
        <time>2022-01-22T13:32:08Z</time>
      </trkpt>
      <trkpt lat="46.56389" lon="5.47364">
        <ele>529.8</ele>
        <time>2022-01-22T13:32:10Z</time>
      </trkpt>
      <trkpt lat="46.56383" lon="5.47358">
        <ele>530.6</ele>
        <time>2022-01-22T13:32:13Z</time>
      </trkpt>
      <trkpt lat="46.56375" lon="5.4735">
        <ele>532</ele>
        <time>2022-01-22T13:32:18Z</time>
      </trkpt>
      <trkpt lat="46.56371" lon="5.47346">
        <ele>532.6</ele>
        <time>2022-01-22T13:32:20Z</time>
      </trkpt>
      <trkpt lat="46.56368" lon="5.47343">
        <ele>533.2</ele>
        <time>2022-01-22T13:32:22Z</time>
      </trkpt>
      <trkpt lat="46.56363" lon="5.47338">
        <ele>534.2</ele>
        <time>2022-01-22T13:32:25Z</time>
      </trkpt>
      <trkpt lat="46.56362" lon="5.47337">
        <ele>534.4</ele>
        <time>2022-01-22T13:32:26Z</time>
      </trkpt>
      <trkpt lat="46.56357" lon="5.47331">
        <ele>535.2</ele>
        <time>2022-01-22T13:32:29Z</time>
      </trkpt>
      <trkpt lat="46.5635" lon="5.47325">
        <ele>536.4</ele>
        <time>2022-01-22T13:32:33Z</time>
      </trkpt>
      <trkpt lat="46.56343" lon="5.47319">
        <ele>537.8</ele>
        <time>2022-01-22T13:32:37Z</time>
      </trkpt>
      <trkpt lat="46.56342" lon="5.47316">
        <ele>538.2</ele>
        <time>2022-01-22T13:32:38Z</time>
      </trkpt>
      <trkpt lat="46.56337" lon="5.47311">
        <ele>538.8</ele>
        <time>2022-01-22T13:32:41Z</time>
      </trkpt>
      <trkpt lat="46.56331" lon="5.47303">
        <ele>540</ele>
        <time>2022-01-22T13:32:45Z</time>
      </trkpt>
      <trkpt lat="46.56323" lon="5.47292">
        <ele>541.4</ele>
        <time>2022-01-22T13:32:50Z</time>
      </trkpt>
      <trkpt lat="46.5631" lon="5.47278">
        <ele>542.4</ele>
        <time>2022-01-22T13:32:56Z</time>
      </trkpt>
      <trkpt lat="46.56305" lon="5.47274">
        <ele>543</ele>
        <time>2022-01-22T13:32:58Z</time>
      </trkpt>
      <trkpt lat="46.56287" lon="5.47265">
        <ele>543.2</ele>
        <time>2022-01-22T13:33:03Z</time>
      </trkpt>
      <trkpt lat="46.56279" lon="5.47264">
        <ele>543</ele>
        <time>2022-01-22T13:33:05Z</time>
      </trkpt>
      <trkpt lat="46.56264" lon="5.47266">
        <ele>542.8</ele>
        <time>2022-01-22T13:33:08Z</time>
      </trkpt>
      <trkpt lat="46.56232" lon="5.47274">
        <ele>542</ele>
        <time>2022-01-22T13:33:13Z</time>
      </trkpt>
      <trkpt lat="46.56218" lon="5.47277">
        <ele>541.6</ele>
        <time>2022-01-22T13:33:15Z</time>
      </trkpt>
      <trkpt lat="46.56195" lon="5.47275">
        <ele>541</ele>
        <time>2022-01-22T13:33:18Z</time>
      </trkpt>
      <trkpt lat="46.56172" lon="5.47267">
        <ele>540</ele>
        <time>2022-01-22T13:33:21Z</time>
      </trkpt>
      <trkpt lat="46.56145" lon="5.47258">
        <ele>538.8</ele>
        <time>2022-01-22T13:33:24Z</time>
      </trkpt>
      <trkpt lat="46.56085" lon="5.47238">
        <ele>537.4</ele>
        <time>2022-01-22T13:33:30Z</time>
      </trkpt>
      <trkpt lat="46.56065" lon="5.47231">
        <ele>535.6</ele>
        <time>2022-01-22T13:33:32Z</time>
      </trkpt>
      <trkpt lat="46.56046" lon="5.47225">
        <ele>534.4</ele>
        <time>2022-01-22T13:33:34Z</time>
      </trkpt>
      <trkpt lat="46.56024" lon="5.47219">
        <ele>533.4</ele>
        <time>2022-01-22T13:33:36Z</time>
      </trkpt>
      <trkpt lat="46.56013" lon="5.47215">
        <ele>532.4</ele>
        <time>2022-01-22T13:33:37Z</time>
      </trkpt>
      <trkpt lat="46.55991" lon="5.47207">
        <ele>531</ele>
        <time>2022-01-22T13:33:39Z</time>
      </trkpt>
      <trkpt lat="46.55966" lon="5.47199">
        <ele>530.2</ele>
        <time>2022-01-22T13:33:41Z</time>
      </trkpt>
      <trkpt lat="46.55954" lon="5.47197">
        <ele>529.4</ele>
        <time>2022-01-22T13:33:42Z</time>
      </trkpt>
      <trkpt lat="46.55921" lon="5.47193">
        <ele>528.6</ele>
        <time>2022-01-22T13:33:45Z</time>
      </trkpt>
      <trkpt lat="46.55909" lon="5.47188">
        <ele>528.2</ele>
        <time>2022-01-22T13:33:46Z</time>
      </trkpt>
      <trkpt lat="46.55883" lon="5.47176">
        <ele>526.2</ele>
        <time>2022-01-22T13:33:48Z</time>
      </trkpt>
      <trkpt lat="46.55874" lon="5.47171">
        <ele>525</ele>
        <time>2022-01-22T13:33:49Z</time>
      </trkpt>
      <trkpt lat="46.55851" lon="5.47158">
        <ele>523.6</ele>
        <time>2022-01-22T13:33:51Z</time>
      </trkpt>
      <trkpt lat="46.55826" lon="5.47146">
        <ele>522.4</ele>
        <time>2022-01-22T13:33:53Z</time>
      </trkpt>
      <trkpt lat="46.55802" lon="5.47138">
        <ele>521</ele>
        <time>2022-01-22T13:33:55Z</time>
      </trkpt>
      <trkpt lat="46.5579" lon="5.47135">
        <ele>519.8</ele>
        <time>2022-01-22T13:33:56Z</time>
      </trkpt>
      <trkpt lat="46.55766" lon="5.47127">
        <ele>518.2</ele>
        <time>2022-01-22T13:33:58Z</time>
      </trkpt>
      <trkpt lat="46.55754" lon="5.47122">
        <ele>517.8</ele>
        <time>2022-01-22T13:33:59Z</time>
      </trkpt>
      <trkpt lat="46.55743" lon="5.47115">
        <ele>517</ele>
        <time>2022-01-22T13:34:00Z</time>
      </trkpt>
      <trkpt lat="46.55732" lon="5.47107">
        <ele>516.4</ele>
        <time>2022-01-22T13:34:01Z</time>
      </trkpt>
      <trkpt lat="46.55723" lon="5.471">
        <ele>515</ele>
        <time>2022-01-22T13:34:02Z</time>
      </trkpt>
      <trkpt lat="46.55701" lon="5.47083">
        <ele>513.8</ele>
        <time>2022-01-22T13:34:04Z</time>
      </trkpt>
      <trkpt lat="46.55691" lon="5.47073">
        <ele>513</ele>
        <time>2022-01-22T13:34:05Z</time>
      </trkpt>
      <trkpt lat="46.55681" lon="5.47062">
        <ele>512.6</ele>
        <time>2022-01-22T13:34:06Z</time>
      </trkpt>
      <trkpt lat="46.5567" lon="5.47046">
        <ele>511.4</ele>
        <time>2022-01-22T13:34:07Z</time>
      </trkpt>
      <trkpt lat="46.55658" lon="5.4702">
        <ele>510.2</ele>
        <time>2022-01-22T13:34:09Z</time>
      </trkpt>
      <trkpt lat="46.55647" lon="5.46989">
        <ele>508.6</ele>
        <time>2022-01-22T13:34:11Z</time>
      </trkpt>
      <trkpt lat="46.55638" lon="5.46961">
        <ele>507.4</ele>
        <time>2022-01-22T13:34:13Z</time>
      </trkpt>
      <trkpt lat="46.55633" lon="5.46949">
        <ele>506</ele>
        <time>2022-01-22T13:34:14Z</time>
      </trkpt>
      <trkpt lat="46.55622" lon="5.46925">
        <ele>504.6</ele>
        <time>2022-01-22T13:34:16Z</time>
      </trkpt>
      <trkpt lat="46.55606" lon="5.46907">
        <ele>503.4</ele>
        <time>2022-01-22T13:34:18Z</time>
      </trkpt>
      <trkpt lat="46.55576" lon="5.46892">
        <ele>502.6</ele>
        <time>2022-01-22T13:34:21Z</time>
      </trkpt>
      <trkpt lat="46.55567" lon="5.46889">
        <ele>501.6</ele>
        <time>2022-01-22T13:34:22Z</time>
      </trkpt>
      <trkpt lat="46.55559" lon="5.46886">
        <ele>500.4</ele>
        <time>2022-01-22T13:34:23Z</time>
      </trkpt>
      <trkpt lat="46.55544" lon="5.46881">
        <ele>499</ele>
        <time>2022-01-22T13:34:25Z</time>
      </trkpt>
      <trkpt lat="46.55537" lon="5.46877">
        <ele>498.8</ele>
        <time>2022-01-22T13:34:26Z</time>
      </trkpt>
      <trkpt lat="46.5553" lon="5.46872">
        <ele>497.8</ele>
        <time>2022-01-22T13:34:27Z</time>
      </trkpt>
      <trkpt lat="46.55524" lon="5.46865">
        <ele>497.4</ele>
        <time>2022-01-22T13:34:28Z</time>
      </trkpt>
      <trkpt lat="46.55518" lon="5.46858">
        <ele>496.6</ele>
        <time>2022-01-22T13:34:29Z</time>
      </trkpt>
      <trkpt lat="46.55505" lon="5.4684">
        <ele>495.2</ele>
        <time>2022-01-22T13:34:32Z</time>
      </trkpt>
      <trkpt lat="46.55501" lon="5.46834">
        <ele>495.2</ele>
        <time>2022-01-22T13:34:33Z</time>
      </trkpt>
      <trkpt lat="46.55485" lon="5.46811">
        <ele>494.8</ele>
        <time>2022-01-22T13:34:37Z</time>
      </trkpt>
      <trkpt lat="46.55482" lon="5.46803">
        <ele>494.6</ele>
        <time>2022-01-22T13:34:38Z</time>
      </trkpt>
      <trkpt lat="46.55479" lon="5.46795">
        <ele>494.6</ele>
        <time>2022-01-22T13:34:39Z</time>
      </trkpt>
      <trkpt lat="46.55477" lon="5.46778">
        <ele>494.6</ele>
        <time>2022-01-22T13:34:41Z</time>
      </trkpt>
      <trkpt lat="46.55482" lon="5.46734">
        <ele>494.4</ele>
        <time>2022-01-22T13:34:46Z</time>
      </trkpt>
      <trkpt lat="46.55482" lon="5.46727">
        <ele>494.4</ele>
        <time>2022-01-22T13:34:47Z</time>
      </trkpt>
      <trkpt lat="46.55479" lon="5.46715">
        <ele>494.2</ele>
        <time>2022-01-22T13:34:49Z</time>
      </trkpt>
      <trkpt lat="46.55471" lon="5.46704">
        <ele>494.2</ele>
        <time>2022-01-22T13:34:51Z</time>
      </trkpt>
      <trkpt lat="46.55467" lon="5.46699">
        <ele>494.2</ele>
        <time>2022-01-22T13:34:52Z</time>
      </trkpt>
      <trkpt lat="46.55456" lon="5.46687">
        <ele>494</ele>
        <time>2022-01-22T13:34:54Z</time>
      </trkpt>
      <trkpt lat="46.55426" lon="5.46656">
        <ele>493</ele>
        <time>2022-01-22T13:34:59Z</time>
      </trkpt>
      <trkpt lat="46.55419" lon="5.46651">
        <ele>492.8</ele>
        <time>2022-01-22T13:35:00Z</time>
      </trkpt>
      <trkpt lat="46.55406" lon="5.46639">
        <ele>491.8</ele>
        <time>2022-01-22T13:35:02Z</time>
      </trkpt>
      <trkpt lat="46.55385" lon="5.46621">
        <ele>490.8</ele>
        <time>2022-01-22T13:35:05Z</time>
      </trkpt>
      <trkpt lat="46.55379" lon="5.46612">
        <ele>489.8</ele>
        <time>2022-01-22T13:35:06Z</time>
      </trkpt>
      <trkpt lat="46.55372" lon="5.46603">
        <ele>489.4</ele>
        <time>2022-01-22T13:35:07Z</time>
      </trkpt>
      <trkpt lat="46.55358" lon="5.46581">
        <ele>488.2</ele>
        <time>2022-01-22T13:35:09Z</time>
      </trkpt>
      <trkpt lat="46.55351" lon="5.46569">
        <ele>487.4</ele>
        <time>2022-01-22T13:35:10Z</time>
      </trkpt>
      <trkpt lat="46.55344" lon="5.46557">
        <ele>486.8</ele>
        <time>2022-01-22T13:35:11Z</time>
      </trkpt>
      <trkpt lat="46.55338" lon="5.46543">
        <ele>485.8</ele>
        <time>2022-01-22T13:35:12Z</time>
      </trkpt>
      <trkpt lat="46.55328" lon="5.46517">
        <ele>483.8</ele>
        <time>2022-01-22T13:35:14Z</time>
      </trkpt>
      <trkpt lat="46.55324" lon="5.46504">
        <ele>482.4</ele>
        <time>2022-01-22T13:35:15Z</time>
      </trkpt>
      <trkpt lat="46.55315" lon="5.46481">
        <ele>481.2</ele>
        <time>2022-01-22T13:35:17Z</time>
      </trkpt>
      <trkpt lat="46.5531" lon="5.46471">
        <ele>481.2</ele>
        <time>2022-01-22T13:35:18Z</time>
      </trkpt>
      <trkpt lat="46.55305" lon="5.46463">
        <ele>480.6</ele>
        <time>2022-01-22T13:35:19Z</time>
      </trkpt>
      <trkpt lat="46.55287" lon="5.46443">
        <ele>480.2</ele>
        <time>2022-01-22T13:35:22Z</time>
      </trkpt>
      <trkpt lat="46.55281" lon="5.46438">
        <ele>480.2</ele>
        <time>2022-01-22T13:35:23Z</time>
      </trkpt>
      <trkpt lat="46.55244" lon="5.46402">
        <ele>480</ele>
        <time>2022-01-22T13:35:29Z</time>
      </trkpt>
      <trkpt lat="46.55219" lon="5.46377">
        <ele>479</ele>
        <time>2022-01-22T13:35:34Z</time>
      </trkpt>
      <trkpt lat="46.55203" lon="5.46362">
        <ele>478</ele>
        <time>2022-01-22T13:35:37Z</time>
      </trkpt>
      <trkpt lat="46.55173" lon="5.46338">
        <ele>477.6</ele>
        <time>2022-01-22T13:35:42Z</time>
      </trkpt>
      <trkpt lat="46.55141" lon="5.46324">
        <ele>477.4</ele>
        <time>2022-01-22T13:35:47Z</time>
      </trkpt>
      <trkpt lat="46.55125" lon="5.4632">
        <ele>477.2</ele>
        <time>2022-01-22T13:35:49Z</time>
      </trkpt>
      <trkpt lat="46.55117" lon="5.46317">
        <ele>477</ele>
        <time>2022-01-22T13:35:50Z</time>
      </trkpt>
      <trkpt lat="46.55108" lon="5.46313">
        <ele>476.6</ele>
        <time>2022-01-22T13:35:51Z</time>
      </trkpt>
      <trkpt lat="46.55082" lon="5.46296">
        <ele>475.8</ele>
        <time>2022-01-22T13:35:54Z</time>
      </trkpt>
      <trkpt lat="46.55065" lon="5.46285">
        <ele>474.4</ele>
        <time>2022-01-22T13:35:56Z</time>
      </trkpt>
      <trkpt lat="46.55056" lon="5.4628">
        <ele>474</ele>
        <time>2022-01-22T13:35:57Z</time>
      </trkpt>
      <trkpt lat="46.55048" lon="5.46274">
        <ele>473.4</ele>
        <time>2022-01-22T13:35:58Z</time>
      </trkpt>
      <trkpt lat="46.5503" lon="5.46264">
        <ele>472.2</ele>
        <time>2022-01-22T13:36:00Z</time>
      </trkpt>
      <trkpt lat="46.55015" lon="5.46256">
        <ele>470.8</ele>
        <time>2022-01-22T13:36:02Z</time>
      </trkpt>
      <trkpt lat="46.55008" lon="5.46252">
        <ele>469.4</ele>
        <time>2022-01-22T13:36:03Z</time>
      </trkpt>
      <trkpt lat="46.55001" lon="5.46249">
        <ele>468.4</ele>
        <time>2022-01-22T13:36:04Z</time>
      </trkpt>
      <trkpt lat="46.54996" lon="5.46245">
        <ele>466.6</ele>
        <time>2022-01-22T13:36:05Z</time>
      </trkpt>
      <trkpt lat="46.54987" lon="5.46241">
        <ele>464.8</ele>
        <time>2022-01-22T13:36:07Z</time>
      </trkpt>
      <trkpt lat="46.54984" lon="5.4624">
        <ele>464.2</ele>
        <time>2022-01-22T13:36:08Z</time>
      </trkpt>
      <trkpt lat="46.5498" lon="5.4624">
        <ele>463</ele>
        <time>2022-01-22T13:36:09Z</time>
      </trkpt>
      <trkpt lat="46.54976" lon="5.46242">
        <ele>462.4</ele>
        <time>2022-01-22T13:36:10Z</time>
      </trkpt>
      <trkpt lat="46.54972" lon="5.46246">
        <ele>461.4</ele>
        <time>2022-01-22T13:36:11Z</time>
      </trkpt>
      <trkpt lat="46.54969" lon="5.46251">
        <ele>460.4</ele>
        <time>2022-01-22T13:36:12Z</time>
      </trkpt>
      <trkpt lat="46.54964" lon="5.46264">
        <ele>459.2</ele>
        <time>2022-01-22T13:36:14Z</time>
      </trkpt>
      <trkpt lat="46.54963" lon="5.46269">
        <ele>459</ele>
        <time>2022-01-22T13:36:15Z</time>
      </trkpt>
      <trkpt lat="46.54957" lon="5.46283">
        <ele>458.8</ele>
        <time>2022-01-22T13:36:17Z</time>
      </trkpt>
      <trkpt lat="46.54948" lon="5.463">
        <ele>458.6</ele>
        <time>2022-01-22T13:36:20Z</time>
      </trkpt>
      <trkpt lat="46.5494" lon="5.46308">
        <ele>458.8</ele>
        <time>2022-01-22T13:36:22Z</time>
      </trkpt>
      <trkpt lat="46.54926" lon="5.46315">
        <ele>459</ele>
        <time>2022-01-22T13:36:25Z</time>
      </trkpt>
      <trkpt lat="46.54916" lon="5.46319">
        <ele>459.4</ele>
        <time>2022-01-22T13:36:27Z</time>
      </trkpt>
      <trkpt lat="46.54911" lon="5.46322">
        <ele>459.6</ele>
        <time>2022-01-22T13:36:28Z</time>
      </trkpt>
      <trkpt lat="46.54902" lon="5.46328">
        <ele>459.8</ele>
        <time>2022-01-22T13:36:30Z</time>
      </trkpt>
      <trkpt lat="46.54892" lon="5.46329">
        <ele>460.2</ele>
        <time>2022-01-22T13:36:32Z</time>
      </trkpt>
      <trkpt lat="46.54881" lon="5.46327">
        <ele>460.4</ele>
        <time>2022-01-22T13:36:34Z</time>
      </trkpt>
      <trkpt lat="46.54871" lon="5.46321">
        <ele>460.4</ele>
        <time>2022-01-22T13:36:36Z</time>
      </trkpt>
      <trkpt lat="46.54866" lon="5.46315">
        <ele>460.4</ele>
        <time>2022-01-22T13:36:37Z</time>
      </trkpt>
      <trkpt lat="46.54861" lon="5.46308">
        <ele>460.4</ele>
        <time>2022-01-22T13:36:38Z</time>
      </trkpt>
      <trkpt lat="46.54845" lon="5.46278">
        <ele>460.2</ele>
        <time>2022-01-22T13:36:42Z</time>
      </trkpt>
      <trkpt lat="46.54826" lon="5.46252">
        <ele>459.8</ele>
        <time>2022-01-22T13:36:46Z</time>
      </trkpt>
      <trkpt lat="46.54816" lon="5.46243">
        <ele>459.8</ele>
        <time>2022-01-22T13:36:48Z</time>
      </trkpt>
      <trkpt lat="46.54789" lon="5.46235">
        <ele>459.8</ele>
        <time>2022-01-22T13:36:53Z</time>
      </trkpt>
      <trkpt lat="46.54758" lon="5.46223">
        <ele>461.2</ele>
        <time>2022-01-22T13:37:00Z</time>
      </trkpt>
      <trkpt lat="46.54754" lon="5.46221">
        <ele>461.4</ele>
        <time>2022-01-22T13:37:01Z</time>
      </trkpt>
      <trkpt lat="46.54729" lon="5.46208">
        <ele>462.6</ele>
        <time>2022-01-22T13:37:08Z</time>
      </trkpt>
      <trkpt lat="46.54726" lon="5.46206">
        <ele>462.6</ele>
        <time>2022-01-22T13:37:09Z</time>
      </trkpt>
      <trkpt lat="46.54706" lon="5.46194">
        <ele>463.8</ele>
        <time>2022-01-22T13:37:15Z</time>
      </trkpt>
      <trkpt lat="46.54697" lon="5.46189">
        <ele>464.4</ele>
        <time>2022-01-22T13:37:18Z</time>
      </trkpt>
      <trkpt lat="46.54691" lon="5.46186">
        <ele>465.2</ele>
        <time>2022-01-22T13:37:20Z</time>
      </trkpt>
      <trkpt lat="46.54678" lon="5.46178">
        <ele>466.2</ele>
        <time>2022-01-22T13:37:25Z</time>
      </trkpt>
      <trkpt lat="46.54675" lon="5.46177">
        <ele>466.4</ele>
        <time>2022-01-22T13:37:26Z</time>
      </trkpt>
      <trkpt lat="46.54667" lon="5.46173">
        <ele>467.4</ele>
        <time>2022-01-22T13:37:29Z</time>
      </trkpt>
      <trkpt lat="46.54656" lon="5.46167">
        <ele>468.4</ele>
        <time>2022-01-22T13:37:33Z</time>
      </trkpt>
      <trkpt lat="46.54643" lon="5.4616">
        <ele>469.8</ele>
        <time>2022-01-22T13:37:38Z</time>
      </trkpt>
      <trkpt lat="46.54631" lon="5.46157">
        <ele>471</ele>
        <time>2022-01-22T13:37:43Z</time>
      </trkpt>
      <trkpt lat="46.54624" lon="5.46156">
        <ele>472.2</ele>
        <time>2022-01-22T13:37:46Z</time>
      </trkpt>
      <trkpt lat="46.54613" lon="5.46156">
        <ele>473.6</ele>
        <time>2022-01-22T13:37:51Z</time>
      </trkpt>
      <trkpt lat="46.54607" lon="5.46156">
        <ele>474.8</ele>
        <time>2022-01-22T13:37:54Z</time>
      </trkpt>
      <trkpt lat="46.54602" lon="5.46157">
        <ele>475.2</ele>
        <time>2022-01-22T13:37:56Z</time>
      </trkpt>
      <trkpt lat="46.54598" lon="5.46158">
        <ele>475.8</ele>
        <time>2022-01-22T13:37:58Z</time>
      </trkpt>
      <trkpt lat="46.54589" lon="5.46159">
        <ele>476.8</ele>
        <time>2022-01-22T13:38:02Z</time>
      </trkpt>
      <trkpt lat="46.54582" lon="5.46159">
        <ele>477.4</ele>
        <time>2022-01-22T13:38:05Z</time>
      </trkpt>
      <trkpt lat="46.54578" lon="5.46158">
        <ele>478.2</ele>
        <time>2022-01-22T13:38:07Z</time>
      </trkpt>
      <trkpt lat="46.54569" lon="5.46159">
        <ele>479.4</ele>
        <time>2022-01-22T13:38:11Z</time>
      </trkpt>
      <trkpt lat="46.54559" lon="5.46158">
        <ele>480.6</ele>
        <time>2022-01-22T13:38:16Z</time>
      </trkpt>
      <trkpt lat="46.54549" lon="5.46158">
        <ele>482</ele>
        <time>2022-01-22T13:38:21Z</time>
      </trkpt>
      <trkpt lat="46.54538" lon="5.46156">
        <ele>482.8</ele>
        <time>2022-01-22T13:38:26Z</time>
      </trkpt>
      <trkpt lat="46.54535" lon="5.46156">
        <ele>483.2</ele>
        <time>2022-01-22T13:38:27Z</time>
      </trkpt>
      <trkpt lat="46.54519" lon="5.46154">
        <ele>484.2</ele>
        <time>2022-01-22T13:38:34Z</time>
      </trkpt>
      <trkpt lat="46.54516" lon="5.46154">
        <ele>484.4</ele>
        <time>2022-01-22T13:38:35Z</time>
      </trkpt>
      <trkpt lat="46.54493" lon="5.46147">
        <ele>485.2</ele>
        <time>2022-01-22T13:38:43Z</time>
      </trkpt>
      <trkpt lat="46.54462" lon="5.46139">
        <ele>485.6</ele>
        <time>2022-01-22T13:38:51Z</time>
      </trkpt>
      <trkpt lat="46.54453" lon="5.46135">
        <ele>485.4</ele>
        <time>2022-01-22T13:38:56Z</time>
      </trkpt>
      <trkpt lat="46.54453" lon="5.46135">
        <ele>485.4</ele>
        <time>2022-01-22T13:38:57Z</time>
      </trkpt>
      <trkpt lat="46.5445" lon="5.46135">
        <ele>485.2</ele>
        <time>2022-01-22T13:39:27Z</time>
      </trkpt>
      <trkpt lat="46.54443" lon="5.46133">
        <ele>485.2</ele>
        <time>2022-01-22T13:39:29Z</time>
      </trkpt>
      <trkpt lat="46.5442" lon="5.46128">
        <ele>485.2</ele>
        <time>2022-01-22T13:39:34Z</time>
      </trkpt>
      <trkpt lat="46.5441" lon="5.46126">
        <ele>485</ele>
        <time>2022-01-22T13:39:36Z</time>
      </trkpt>
      <trkpt lat="46.5439" lon="5.46126">
        <ele>485</ele>
        <time>2022-01-22T13:39:40Z</time>
      </trkpt>
      <trkpt lat="46.54346" lon="5.4612">
        <ele>484.4</ele>
        <time>2022-01-22T13:39:49Z</time>
      </trkpt>
      <trkpt lat="46.54338" lon="5.46115">
        <ele>484.4</ele>
        <time>2022-01-22T13:39:51Z</time>
      </trkpt>
      <trkpt lat="46.5433" lon="5.46109">
        <ele>484.4</ele>
        <time>2022-01-22T13:39:53Z</time>
      </trkpt>
      <trkpt lat="46.54316" lon="5.46097">
        <ele>484.6</ele>
        <time>2022-01-22T13:39:56Z</time>
      </trkpt>
      <trkpt lat="46.54294" lon="5.4607">
        <ele>485</ele>
        <time>2022-01-22T13:40:01Z</time>
      </trkpt>
      <trkpt lat="46.54278" lon="5.46049">
        <ele>485.6</ele>
        <time>2022-01-22T13:40:05Z</time>
      </trkpt>
      <trkpt lat="46.5427" lon="5.46041">
        <ele>485.6</ele>
        <time>2022-01-22T13:40:07Z</time>
      </trkpt>
      <trkpt lat="46.54232" lon="5.46007">
        <ele>486</ele>
        <time>2022-01-22T13:40:16Z</time>
      </trkpt>
      <trkpt lat="46.54224" lon="5.46">
        <ele>486</ele>
        <time>2022-01-22T13:40:18Z</time>
      </trkpt>
      <trkpt lat="46.54204" lon="5.45981">
        <ele>486.4</ele>
        <time>2022-01-22T13:40:23Z</time>
      </trkpt>
      <trkpt lat="46.54188" lon="5.45965">
        <ele>486.6</ele>
        <time>2022-01-22T13:40:27Z</time>
      </trkpt>
      <trkpt lat="46.54169" lon="5.45946">
        <ele>487.4</ele>
        <time>2022-01-22T13:40:32Z</time>
      </trkpt>
      <trkpt lat="46.54161" lon="5.4594">
        <ele>488</ele>
        <time>2022-01-22T13:40:34Z</time>
      </trkpt>
      <trkpt lat="46.54147" lon="5.45928">
        <ele>489</ele>
        <time>2022-01-22T13:40:38Z</time>
      </trkpt>
      <trkpt lat="46.5414" lon="5.45922">
        <ele>489.8</ele>
        <time>2022-01-22T13:40:40Z</time>
      </trkpt>
      <trkpt lat="46.54136" lon="5.45919">
        <ele>490.6</ele>
        <time>2022-01-22T13:40:41Z</time>
      </trkpt>
      <trkpt lat="46.54116" lon="5.45905">
        <ele>491.6</ele>
        <time>2022-01-22T13:40:46Z</time>
      </trkpt>
      <trkpt lat="46.54102" lon="5.45895">
        <ele>492</ele>
        <time>2022-01-22T13:40:49Z</time>
      </trkpt>
      <trkpt lat="46.54076" lon="5.45879">
        <ele>492.2</ele>
        <time>2022-01-22T13:40:54Z</time>
      </trkpt>
      <trkpt lat="46.54027" lon="5.45847">
        <ele>491.6</ele>
        <time>2022-01-22T13:41:02Z</time>
      </trkpt>
      <trkpt lat="46.53978" lon="5.45814">
        <ele>491.4</ele>
        <time>2022-01-22T13:41:10Z</time>
      </trkpt>
      <trkpt lat="46.53971" lon="5.45811">
        <ele>491.4</ele>
        <time>2022-01-22T13:41:11Z</time>
      </trkpt>
      <trkpt lat="46.5393" lon="5.4579">
        <ele>490.8</ele>
        <time>2022-01-22T13:41:17Z</time>
      </trkpt>
      <trkpt lat="46.53923" lon="5.45787">
        <ele>490.6</ele>
        <time>2022-01-22T13:41:18Z</time>
      </trkpt>
      <trkpt lat="46.53869" lon="5.45759">
        <ele>490.2</ele>
        <time>2022-01-22T13:41:26Z</time>
      </trkpt>
      <trkpt lat="46.53833" lon="5.45739">
        <ele>490.6</ele>
        <time>2022-01-22T13:41:32Z</time>
      </trkpt>
      <trkpt lat="46.53822" lon="5.45732">
        <ele>491</ele>
        <time>2022-01-22T13:41:34Z</time>
      </trkpt>
      <trkpt lat="46.53797" lon="5.45717">
        <ele>491.8</ele>
        <time>2022-01-22T13:41:38Z</time>
      </trkpt>
      <trkpt lat="46.5376" lon="5.45701">
        <ele>492</ele>
        <time>2022-01-22T13:41:44Z</time>
      </trkpt>
      <trkpt lat="46.53754" lon="5.45698">
        <ele>492</ele>
        <time>2022-01-22T13:41:45Z</time>
      </trkpt>
      <trkpt lat="46.5371" lon="5.45678">
        <ele>492.2</ele>
        <time>2022-01-22T13:41:52Z</time>
      </trkpt>
      <trkpt lat="46.53661" lon="5.45657">
        <ele>491.6</ele>
        <time>2022-01-22T13:41:59Z</time>
      </trkpt>
      <trkpt lat="46.53636" lon="5.45648">
        <ele>491</ele>
        <time>2022-01-22T13:42:02Z</time>
      </trkpt>
      <trkpt lat="46.53617" lon="5.45642">
        <ele>490</ele>
        <time>2022-01-22T13:42:04Z</time>
      </trkpt>
      <trkpt lat="46.53607" lon="5.45638">
        <ele>489.6</ele>
        <time>2022-01-22T13:42:05Z</time>
      </trkpt>
      <trkpt lat="46.53597" lon="5.45634">
        <ele>489.2</ele>
        <time>2022-01-22T13:42:06Z</time>
      </trkpt>
      <trkpt lat="46.53587" lon="5.45628">
        <ele>488.6</ele>
        <time>2022-01-22T13:42:07Z</time>
      </trkpt>
      <trkpt lat="46.53578" lon="5.45622">
        <ele>488.2</ele>
        <time>2022-01-22T13:42:08Z</time>
      </trkpt>
      <trkpt lat="46.53561" lon="5.4561">
        <ele>487.4</ele>
        <time>2022-01-22T13:42:10Z</time>
      </trkpt>
      <trkpt lat="46.53538" lon="5.45591">
        <ele>487</ele>
        <time>2022-01-22T13:42:13Z</time>
      </trkpt>
      <trkpt lat="46.53511" lon="5.45572">
        <ele>487.2</ele>
        <time>2022-01-22T13:42:17Z</time>
      </trkpt>
      <trkpt lat="46.53491" lon="5.45562">
        <ele>488.6</ele>
        <time>2022-01-22T13:42:20Z</time>
      </trkpt>
      <trkpt lat="46.53485" lon="5.45558">
        <ele>490</ele>
        <time>2022-01-22T13:42:21Z</time>
      </trkpt>
      <trkpt lat="46.53478" lon="5.45555">
        <ele>490.6</ele>
        <time>2022-01-22T13:42:22Z</time>
      </trkpt>
      <trkpt lat="46.53471" lon="5.45551">
        <ele>491.2</ele>
        <time>2022-01-22T13:42:23Z</time>
      </trkpt>
      <trkpt lat="46.53435" lon="5.45533">
        <ele>492</ele>
        <time>2022-01-22T13:42:28Z</time>
      </trkpt>
      <trkpt lat="46.53384" lon="5.45508">
        <ele>490.8</ele>
        <time>2022-01-22T13:42:34Z</time>
      </trkpt>
      <trkpt lat="46.53367" lon="5.45499">
        <ele>490.2</ele>
        <time>2022-01-22T13:42:36Z</time>
      </trkpt>
      <trkpt lat="46.53342" lon="5.45487">
        <ele>489</ele>
        <time>2022-01-22T13:42:39Z</time>
      </trkpt>
      <trkpt lat="46.53334" lon="5.45483">
        <ele>488.8</ele>
        <time>2022-01-22T13:42:40Z</time>
      </trkpt>
      <trkpt lat="46.53305" lon="5.45468">
        <ele>487.8</ele>
        <time>2022-01-22T13:42:44Z</time>
      </trkpt>
      <trkpt lat="46.53298" lon="5.45465">
        <ele>487.8</ele>
        <time>2022-01-22T13:42:45Z</time>
      </trkpt>
      <trkpt lat="46.53268" lon="5.45452">
        <ele>487.8</ele>
        <time>2022-01-22T13:42:50Z</time>
      </trkpt>
      <trkpt lat="46.53242" lon="5.45424">
        <ele>487.8</ele>
        <time>2022-01-22T13:42:54Z</time>
      </trkpt>
      <trkpt lat="46.53221" lon="5.45395">
        <ele>487.2</ele>
        <time>2022-01-22T13:42:57Z</time>
      </trkpt>
      <trkpt lat="46.53215" lon="5.45384">
        <ele>486.8</ele>
        <time>2022-01-22T13:42:58Z</time>
      </trkpt>
      <trkpt lat="46.53205" lon="5.45362">
        <ele>485.4</ele>
        <time>2022-01-22T13:43:00Z</time>
      </trkpt>
      <trkpt lat="46.53199" lon="5.4534">
        <ele>484.2</ele>
        <time>2022-01-22T13:43:02Z</time>
      </trkpt>
      <trkpt lat="46.53195" lon="5.45325">
        <ele>483.8</ele>
        <time>2022-01-22T13:43:04Z</time>
      </trkpt>
      <trkpt lat="46.53191" lon="5.45318">
        <ele>483.8</ele>
        <time>2022-01-22T13:43:05Z</time>
      </trkpt>
      <trkpt lat="46.53187" lon="5.45312">
        <ele>483.6</ele>
        <time>2022-01-22T13:43:06Z</time>
      </trkpt>
      <trkpt lat="46.53167" lon="5.45295">
        <ele>483.4</ele>
        <time>2022-01-22T13:43:09Z</time>
      </trkpt>
      <trkpt lat="46.53154" lon="5.45284">
        <ele>482.6</ele>
        <time>2022-01-22T13:43:11Z</time>
      </trkpt>
      <trkpt lat="46.53145" lon="5.45271">
        <ele>481.4</ele>
        <time>2022-01-22T13:43:13Z</time>
      </trkpt>
      <trkpt lat="46.53142" lon="5.45252">
        <ele>479.6</ele>
        <time>2022-01-22T13:43:15Z</time>
      </trkpt>
      <trkpt lat="46.53143" lon="5.45241">
        <ele>479</ele>
        <time>2022-01-22T13:43:16Z</time>
      </trkpt>
      <trkpt lat="46.53146" lon="5.45231">
        <ele>478</ele>
        <time>2022-01-22T13:43:17Z</time>
      </trkpt>
      <trkpt lat="46.53154" lon="5.45214">
        <ele>476.8</ele>
        <time>2022-01-22T13:43:19Z</time>
      </trkpt>
      <trkpt lat="46.53159" lon="5.45206">
        <ele>475.6</ele>
        <time>2022-01-22T13:43:20Z</time>
      </trkpt>
      <trkpt lat="46.53164" lon="5.45199">
        <ele>475.2</ele>
        <time>2022-01-22T13:43:21Z</time>
      </trkpt>
      <trkpt lat="46.53168" lon="5.45192">
        <ele>474.4</ele>
        <time>2022-01-22T13:43:22Z</time>
      </trkpt>
      <trkpt lat="46.53173" lon="5.45184">
        <ele>473.6</ele>
        <time>2022-01-22T13:43:23Z</time>
      </trkpt>
      <trkpt lat="46.53179" lon="5.45178">
        <ele>472.6</ele>
        <time>2022-01-22T13:43:24Z</time>
      </trkpt>
      <trkpt lat="46.53185" lon="5.45173">
        <ele>472.2</ele>
        <time>2022-01-22T13:43:25Z</time>
      </trkpt>
      <trkpt lat="46.53193" lon="5.45168">
        <ele>471.2</ele>
        <time>2022-01-22T13:43:26Z</time>
      </trkpt>
      <trkpt lat="46.53208" lon="5.45162">
        <ele>469.8</ele>
        <time>2022-01-22T13:43:28Z</time>
      </trkpt>
      <trkpt lat="46.53233" lon="5.45157">
        <ele>468.4</ele>
        <time>2022-01-22T13:43:31Z</time>
      </trkpt>
      <trkpt lat="46.53248" lon="5.45155">
        <ele>467.2</ele>
        <time>2022-01-22T13:43:33Z</time>
      </trkpt>
      <trkpt lat="46.53262" lon="5.45161">
        <ele>466.8</ele>
        <time>2022-01-22T13:43:35Z</time>
      </trkpt>
      <trkpt lat="46.53269" lon="5.45163">
        <ele>466</ele>
        <time>2022-01-22T13:43:36Z</time>
      </trkpt>
      <trkpt lat="46.53282" lon="5.4516">
        <ele>465.4</ele>
        <time>2022-01-22T13:43:38Z</time>
      </trkpt>
      <trkpt lat="46.53288" lon="5.45148">
        <ele>464.6</ele>
        <time>2022-01-22T13:43:40Z</time>
      </trkpt>
      <trkpt lat="46.53283" lon="5.45134">
        <ele>464</ele>
        <time>2022-01-22T13:43:42Z</time>
      </trkpt>
      <trkpt lat="46.53271" lon="5.45128">
        <ele>463.4</ele>
        <time>2022-01-22T13:43:44Z</time>
      </trkpt>
      <trkpt lat="46.53258" lon="5.45126">
        <ele>462.8</ele>
        <time>2022-01-22T13:43:46Z</time>
      </trkpt>
      <trkpt lat="46.5325" lon="5.45124">
        <ele>462.4</ele>
        <time>2022-01-22T13:43:47Z</time>
      </trkpt>
      <trkpt lat="46.53243" lon="5.45122">
        <ele>462.4</ele>
        <time>2022-01-22T13:43:48Z</time>
      </trkpt>
      <trkpt lat="46.5323" lon="5.45117">
        <ele>461.8</ele>
        <time>2022-01-22T13:43:50Z</time>
      </trkpt>
      <trkpt lat="46.5322" lon="5.45114">
        <ele>461.2</ele>
        <time>2022-01-22T13:43:51Z</time>
      </trkpt>
      <trkpt lat="46.53196" lon="5.45103">
        <ele>460</ele>
        <time>2022-01-22T13:43:54Z</time>
      </trkpt>
      <trkpt lat="46.53188" lon="5.45099">
        <ele>459.8</ele>
        <time>2022-01-22T13:43:55Z</time>
      </trkpt>
      <trkpt lat="46.53166" lon="5.45084">
        <ele>458.4</ele>
        <time>2022-01-22T13:43:58Z</time>
      </trkpt>
      <trkpt lat="46.53153" lon="5.45077">
        <ele>457.6</ele>
        <time>2022-01-22T13:44:00Z</time>
      </trkpt>
      <trkpt lat="46.53147" lon="5.45074">
        <ele>456.8</ele>
        <time>2022-01-22T13:44:01Z</time>
      </trkpt>
      <trkpt lat="46.53136" lon="5.45068">
        <ele>455.6</ele>
        <time>2022-01-22T13:44:03Z</time>
      </trkpt>
      <trkpt lat="46.5313" lon="5.45054">
        <ele>454.6</ele>
        <time>2022-01-22T13:44:05Z</time>
      </trkpt>
      <trkpt lat="46.53129" lon="5.45046">
        <ele>454.2</ele>
        <time>2022-01-22T13:44:06Z</time>
      </trkpt>
      <trkpt lat="46.53127" lon="5.45038">
        <ele>453.4</ele>
        <time>2022-01-22T13:44:07Z</time>
      </trkpt>
      <trkpt lat="46.53125" lon="5.45027">
        <ele>453</ele>
        <time>2022-01-22T13:44:08Z</time>
      </trkpt>
      <trkpt lat="46.53121" lon="5.45009">
        <ele>451.6</ele>
        <time>2022-01-22T13:44:10Z</time>
      </trkpt>
      <trkpt lat="46.53119" lon="5.45002">
        <ele>450.8</ele>
        <time>2022-01-22T13:44:11Z</time>
      </trkpt>
      <trkpt lat="46.53117" lon="5.44997">
        <ele>449.6</ele>
        <time>2022-01-22T13:44:12Z</time>
      </trkpt>
      <trkpt lat="46.53113" lon="5.44995">
        <ele>449</ele>
        <time>2022-01-22T13:44:13Z</time>
      </trkpt>
      <trkpt lat="46.53109" lon="5.44996">
        <ele>447.2</ele>
        <time>2022-01-22T13:44:14Z</time>
      </trkpt>
      <trkpt lat="46.53098" lon="5.45003">
        <ele>445.6</ele>
        <time>2022-01-22T13:44:16Z</time>
      </trkpt>
      <trkpt lat="46.53093" lon="5.45007">
        <ele>444.8</ele>
        <time>2022-01-22T13:44:17Z</time>
      </trkpt>
      <trkpt lat="46.53087" lon="5.45012">
        <ele>444.4</ele>
        <time>2022-01-22T13:44:18Z</time>
      </trkpt>
      <trkpt lat="46.53081" lon="5.45016">
        <ele>443.8</ele>
        <time>2022-01-22T13:44:19Z</time>
      </trkpt>
      <trkpt lat="46.53068" lon="5.45021">
        <ele>443</ele>
        <time>2022-01-22T13:44:21Z</time>
      </trkpt>
      <trkpt lat="46.53056" lon="5.45015">
        <ele>442.8</ele>
        <time>2022-01-22T13:44:23Z</time>
      </trkpt>
      <trkpt lat="46.53051" lon="5.4501">
        <ele>442.6</ele>
        <time>2022-01-22T13:44:24Z</time>
      </trkpt>
      <trkpt lat="46.53048" lon="5.45005">
        <ele>442.4</ele>
        <time>2022-01-22T13:44:25Z</time>
      </trkpt>
      <trkpt lat="46.53038" lon="5.44981">
        <ele>442</ele>
        <time>2022-01-22T13:44:28Z</time>
      </trkpt>
      <trkpt lat="46.53032" lon="5.44966">
        <ele>442</ele>
        <time>2022-01-22T13:44:30Z</time>
      </trkpt>
      <trkpt lat="46.53024" lon="5.44952">
        <ele>442</ele>
        <time>2022-01-22T13:44:32Z</time>
      </trkpt>
      <trkpt lat="46.53007" lon="5.44936">
        <ele>441.8</ele>
        <time>2022-01-22T13:44:35Z</time>
      </trkpt>
      <trkpt lat="46.53003" lon="5.44928">
        <ele>441.6</ele>
        <time>2022-01-22T13:44:36Z</time>
      </trkpt>
      <trkpt lat="46.53002" lon="5.44918">
        <ele>441.4</ele>
        <time>2022-01-22T13:44:37Z</time>
      </trkpt>
      <trkpt lat="46.53003" lon="5.44908">
        <ele>441.4</ele>
        <time>2022-01-22T13:44:38Z</time>
      </trkpt>
      <trkpt lat="46.53006" lon="5.44897">
        <ele>440.6</ele>
        <time>2022-01-22T13:44:39Z</time>
      </trkpt>
      <trkpt lat="46.53009" lon="5.44885">
        <ele>440.4</ele>
        <time>2022-01-22T13:44:40Z</time>
      </trkpt>
      <trkpt lat="46.53012" lon="5.4486">
        <ele>439.4</ele>
        <time>2022-01-22T13:44:42Z</time>
      </trkpt>
      <trkpt lat="46.5301" lon="5.4482">
        <ele>438.4</ele>
        <time>2022-01-22T13:44:45Z</time>
      </trkpt>
      <trkpt lat="46.53008" lon="5.44806">
        <ele>438</ele>
        <time>2022-01-22T13:44:46Z</time>
      </trkpt>
      <trkpt lat="46.53003" lon="5.44772">
        <ele>436.6</ele>
        <time>2022-01-22T13:44:48Z</time>
      </trkpt>
      <trkpt lat="46.52997" lon="5.44729">
        <ele>435.2</ele>
        <time>2022-01-22T13:44:51Z</time>
      </trkpt>
      <trkpt lat="46.52993" lon="5.44697">
        <ele>433.4</ele>
        <time>2022-01-22T13:44:53Z</time>
      </trkpt>
      <trkpt lat="46.5299" lon="5.44664">
        <ele>432</ele>
        <time>2022-01-22T13:44:55Z</time>
      </trkpt>
      <trkpt lat="46.52986" lon="5.44632">
        <ele>430.6</ele>
        <time>2022-01-22T13:44:57Z</time>
      </trkpt>
      <trkpt lat="46.52983" lon="5.44599">
        <ele>429.4</ele>
        <time>2022-01-22T13:44:59Z</time>
      </trkpt>
      <trkpt lat="46.52979" lon="5.44567">
        <ele>428.2</ele>
        <time>2022-01-22T13:45:01Z</time>
      </trkpt>
      <trkpt lat="46.52978" lon="5.44551">
        <ele>427.6</ele>
        <time>2022-01-22T13:45:02Z</time>
      </trkpt>
      <trkpt lat="46.52974" lon="5.44519">
        <ele>426.2</ele>
        <time>2022-01-22T13:45:04Z</time>
      </trkpt>
      <trkpt lat="46.52971" lon="5.44487">
        <ele>425</ele>
        <time>2022-01-22T13:45:06Z</time>
      </trkpt>
      <trkpt lat="46.52971" lon="5.44457">
        <ele>423.8</ele>
        <time>2022-01-22T13:45:08Z</time>
      </trkpt>
      <trkpt lat="46.52972" lon="5.44442">
        <ele>423.2</ele>
        <time>2022-01-22T13:45:09Z</time>
      </trkpt>
      <trkpt lat="46.52977" lon="5.44414">
        <ele>422.2</ele>
        <time>2022-01-22T13:45:11Z</time>
      </trkpt>
      <trkpt lat="46.52982" lon="5.44389">
        <ele>421</ele>
        <time>2022-01-22T13:45:13Z</time>
      </trkpt>
      <trkpt lat="46.52987" lon="5.44369">
        <ele>419.8</ele>
        <time>2022-01-22T13:45:15Z</time>
      </trkpt>
      <trkpt lat="46.52989" lon="5.44361">
        <ele>419.2</ele>
        <time>2022-01-22T13:45:16Z</time>
      </trkpt>
      <trkpt lat="46.52989" lon="5.44353">
        <ele>418.8</ele>
        <time>2022-01-22T13:45:17Z</time>
      </trkpt>
      <trkpt lat="46.52988" lon="5.44346">
        <ele>418.4</ele>
        <time>2022-01-22T13:45:18Z</time>
      </trkpt>
      <trkpt lat="46.52981" lon="5.44337">
        <ele>417.4</ele>
        <time>2022-01-22T13:45:20Z</time>
      </trkpt>
      <trkpt lat="46.52968" lon="5.4433">
        <ele>416</ele>
        <time>2022-01-22T13:45:22Z</time>
      </trkpt>
      <trkpt lat="46.52955" lon="5.44324">
        <ele>415.4</ele>
        <time>2022-01-22T13:45:24Z</time>
      </trkpt>
      <trkpt lat="46.52939" lon="5.44315">
        <ele>415.2</ele>
        <time>2022-01-22T13:45:26Z</time>
      </trkpt>
      <trkpt lat="46.52931" lon="5.44311">
        <ele>415</ele>
        <time>2022-01-22T13:45:27Z</time>
      </trkpt>
      <trkpt lat="46.52916" lon="5.44303">
        <ele>414.8</ele>
        <time>2022-01-22T13:45:29Z</time>
      </trkpt>
      <trkpt lat="46.52864" lon="5.44271">
        <ele>414</ele>
        <time>2022-01-22T13:45:36Z</time>
      </trkpt>
      <trkpt lat="46.52857" lon="5.44268">
        <ele>413.8</ele>
        <time>2022-01-22T13:45:37Z</time>
      </trkpt>
      <trkpt lat="46.52826" lon="5.44255">
        <ele>413.6</ele>
        <time>2022-01-22T13:45:41Z</time>
      </trkpt>
      <trkpt lat="46.52812" lon="5.44247">
        <ele>413.4</ele>
        <time>2022-01-22T13:45:43Z</time>
      </trkpt>
      <trkpt lat="46.528" lon="5.44236">
        <ele>413.4</ele>
        <time>2022-01-22T13:45:45Z</time>
      </trkpt>
      <trkpt lat="46.52773" lon="5.44209">
        <ele>413.4</ele>
        <time>2022-01-22T13:45:49Z</time>
      </trkpt>
      <trkpt lat="46.52759" lon="5.44199">
        <ele>413.2</ele>
        <time>2022-01-22T13:45:51Z</time>
      </trkpt>
      <trkpt lat="46.5275" lon="5.44193">
        <ele>413</ele>
        <time>2022-01-22T13:45:52Z</time>
      </trkpt>
      <trkpt lat="46.52744" lon="5.44187">
        <ele>412.8</ele>
        <time>2022-01-22T13:45:53Z</time>
      </trkpt>
      <trkpt lat="46.52734" lon="5.44172">
        <ele>412.6</ele>
        <time>2022-01-22T13:45:55Z</time>
      </trkpt>
      <trkpt lat="46.5272" lon="5.44145">
        <ele>412.4</ele>
        <time>2022-01-22T13:45:58Z</time>
      </trkpt>
      <trkpt lat="46.52714" lon="5.44137">
        <ele>412.4</ele>
        <time>2022-01-22T13:45:59Z</time>
      </trkpt>
      <trkpt lat="46.52709" lon="5.4413">
        <ele>412.4</ele>
        <time>2022-01-22T13:46:00Z</time>
      </trkpt>
      <trkpt lat="46.5269" lon="5.44116">
        <ele>412.4</ele>
        <time>2022-01-22T13:46:03Z</time>
      </trkpt>
      <trkpt lat="46.5265" lon="5.44094">
        <ele>413.4</ele>
        <time>2022-01-22T13:46:10Z</time>
      </trkpt>
      <trkpt lat="46.52615" lon="5.44085">
        <ele>413.6</ele>
        <time>2022-01-22T13:46:15Z</time>
      </trkpt>
      <trkpt lat="46.52608" lon="5.44087">
        <ele>413.6</ele>
        <time>2022-01-22T13:46:16Z</time>
      </trkpt>
      <trkpt lat="46.52602" lon="5.44089">
        <ele>413.6</ele>
        <time>2022-01-22T13:46:17Z</time>
      </trkpt>
      <trkpt lat="46.5258" lon="5.44105">
        <ele>413.6</ele>
        <time>2022-01-22T13:46:20Z</time>
      </trkpt>
      <trkpt lat="46.52536" lon="5.44142">
        <ele>412.6</ele>
        <time>2022-01-22T13:46:27Z</time>
      </trkpt>
      <trkpt lat="46.52524" lon="5.44149">
        <ele>412.6</ele>
        <time>2022-01-22T13:46:29Z</time>
      </trkpt>
      <trkpt lat="46.52511" lon="5.44151">
        <ele>412.6</ele>
        <time>2022-01-22T13:46:31Z</time>
      </trkpt>
      <trkpt lat="46.52495" lon="5.44143">
        <ele>412.8</ele>
        <time>2022-01-22T13:46:34Z</time>
      </trkpt>
      <trkpt lat="46.52478" lon="5.44126">
        <ele>413.8</ele>
        <time>2022-01-22T13:46:37Z</time>
      </trkpt>
      <trkpt lat="46.52469" lon="5.44114">
        <ele>414</ele>
        <time>2022-01-22T13:46:39Z</time>
      </trkpt>
      <trkpt lat="46.5246" lon="5.441">
        <ele>414.4</ele>
        <time>2022-01-22T13:46:41Z</time>
      </trkpt>
      <trkpt lat="46.52438" lon="5.44068">
        <ele>415.4</ele>
        <time>2022-01-22T13:46:46Z</time>
      </trkpt>
      <trkpt lat="46.52434" lon="5.44061">
        <ele>415.6</ele>
        <time>2022-01-22T13:46:47Z</time>
      </trkpt>
      <trkpt lat="46.5242" lon="5.44042">
        <ele>416</ele>
        <time>2022-01-22T13:46:50Z</time>
      </trkpt>
      <trkpt lat="46.52406" lon="5.44029">
        <ele>416</ele>
        <time>2022-01-22T13:46:53Z</time>
      </trkpt>
      <trkpt lat="46.52373" lon="5.44009">
        <ele>416</ele>
        <time>2022-01-22T13:46:59Z</time>
      </trkpt>
      <trkpt lat="46.52363" lon="5.43998">
        <ele>416.2</ele>
        <time>2022-01-22T13:47:01Z</time>
      </trkpt>
      <trkpt lat="46.52352" lon="5.4398">
        <ele>416.6</ele>
        <time>2022-01-22T13:47:04Z</time>
      </trkpt>
      <trkpt lat="46.52347" lon="5.43974">
        <ele>416.6</ele>
        <time>2022-01-22T13:47:05Z</time>
      </trkpt>
      <trkpt lat="46.52329" lon="5.43957">
        <ele>417.4</ele>
        <time>2022-01-22T13:47:09Z</time>
      </trkpt>
      <trkpt lat="46.52323" lon="5.43953">
        <ele>417.4</ele>
        <time>2022-01-22T13:47:10Z</time>
      </trkpt>
      <trkpt lat="46.52314" lon="5.43948">
        <ele>417.6</ele>
        <time>2022-01-22T13:47:12Z</time>
      </trkpt>
      <trkpt lat="46.523" lon="5.43939">
        <ele>418.2</ele>
        <time>2022-01-22T13:47:15Z</time>
      </trkpt>
      <trkpt lat="46.52295" lon="5.43936">
        <ele>418.6</ele>
        <time>2022-01-22T13:47:16Z</time>
      </trkpt>
      <trkpt lat="46.52291" lon="5.43934">
        <ele>418.8</ele>
        <time>2022-01-22T13:47:17Z</time>
      </trkpt>
      <trkpt lat="46.52272" lon="5.43924">
        <ele>419.8</ele>
        <time>2022-01-22T13:47:21Z</time>
      </trkpt>
      <trkpt lat="46.52253" lon="5.43912">
        <ele>421</ele>
        <time>2022-01-22T13:47:25Z</time>
      </trkpt>
      <trkpt lat="46.52244" lon="5.43907">
        <ele>421.4</ele>
        <time>2022-01-22T13:47:27Z</time>
      </trkpt>
      <trkpt lat="46.52223" lon="5.439">
        <ele>422</ele>
        <time>2022-01-22T13:47:31Z</time>
      </trkpt>
      <trkpt lat="46.52203" lon="5.43897">
        <ele>422.4</ele>
        <time>2022-01-22T13:47:35Z</time>
      </trkpt>
      <trkpt lat="46.52168" lon="5.43902">
        <ele>422.6</ele>
        <time>2022-01-22T13:47:41Z</time>
      </trkpt>
      <trkpt lat="46.52128" lon="5.43918">
        <ele>422.8</ele>
        <time>2022-01-22T13:47:48Z</time>
      </trkpt>
      <trkpt lat="46.52113" lon="5.43923">
        <ele>423</ele>
        <time>2022-01-22T13:47:51Z</time>
      </trkpt>
      <trkpt lat="46.52098" lon="5.43928">
        <ele>423.6</ele>
        <time>2022-01-22T13:47:54Z</time>
      </trkpt>
      <trkpt lat="46.52084" lon="5.43933">
        <ele>424</ele>
        <time>2022-01-22T13:47:57Z</time>
      </trkpt>
      <trkpt lat="46.52066" lon="5.43939">
        <ele>424.8</ele>
        <time>2022-01-22T13:48:01Z</time>
      </trkpt>
      <trkpt lat="46.52057" lon="5.43943">
        <ele>425.2</ele>
        <time>2022-01-22T13:48:03Z</time>
      </trkpt>
      <trkpt lat="46.52038" lon="5.4395">
        <ele>425.6</ele>
        <time>2022-01-22T13:48:07Z</time>
      </trkpt>
      <trkpt lat="46.52024" lon="5.43955">
        <ele>426</ele>
        <time>2022-01-22T13:48:10Z</time>
      </trkpt>
      <trkpt lat="46.52016" lon="5.43958">
        <ele>426.4</ele>
        <time>2022-01-22T13:48:12Z</time>
      </trkpt>
      <trkpt lat="46.52009" lon="5.4396">
        <ele>426.8</ele>
        <time>2022-01-22T13:48:14Z</time>
      </trkpt>
      <trkpt lat="46.51995" lon="5.43962">
        <ele>427.6</ele>
        <time>2022-01-22T13:48:17Z</time>
      </trkpt>
      <trkpt lat="46.51992" lon="5.43963">
        <ele>427.6</ele>
        <time>2022-01-22T13:48:18Z</time>
      </trkpt>
      <trkpt lat="46.51987" lon="5.43966">
        <ele>427.8</ele>
        <time>2022-01-22T13:48:19Z</time>
      </trkpt>
      <trkpt lat="46.51973" lon="5.43972">
        <ele>428.8</ele>
        <time>2022-01-22T13:48:23Z</time>
      </trkpt>
      <trkpt lat="46.51966" lon="5.43973">
        <ele>429.2</ele>
        <time>2022-01-22T13:48:25Z</time>
      </trkpt>
      <trkpt lat="46.51959" lon="5.4397">
        <ele>429.6</ele>
        <time>2022-01-22T13:48:27Z</time>
      </trkpt>
      <trkpt lat="46.51953" lon="5.43968">
        <ele>430</ele>
        <time>2022-01-22T13:48:28Z</time>
      </trkpt>
      <trkpt lat="46.5194" lon="5.43961">
        <ele>430.2</ele>
        <time>2022-01-22T13:48:30Z</time>
      </trkpt>
      <trkpt lat="46.51934" lon="5.43958">
        <ele>430.4</ele>
        <time>2022-01-22T13:48:31Z</time>
      </trkpt>
      <trkpt lat="46.51919" lon="5.43947">
        <ele>430.8</ele>
        <time>2022-01-22T13:48:35Z</time>
      </trkpt>
      <trkpt lat="46.5191" lon="5.43938">
        <ele>431</ele>
        <time>2022-01-22T13:48:37Z</time>
      </trkpt>
      <trkpt lat="46.51897" lon="5.43923">
        <ele>431.4</ele>
        <time>2022-01-22T13:48:40Z</time>
      </trkpt>
      <trkpt lat="46.5189" lon="5.43911">
        <ele>432</ele>
        <time>2022-01-22T13:48:42Z</time>
      </trkpt>
      <trkpt lat="46.51887" lon="5.43906">
        <ele>432.2</ele>
        <time>2022-01-22T13:48:43Z</time>
      </trkpt>
      <trkpt lat="46.51871" lon="5.43897">
        <ele>432.6</ele>
        <time>2022-01-22T13:48:45Z</time>
      </trkpt>
      <trkpt lat="46.5186" lon="5.43882">
        <ele>433.2</ele>
        <time>2022-01-22T13:48:48Z</time>
      </trkpt>
      <trkpt lat="46.51857" lon="5.43877">
        <ele>433.2</ele>
        <time>2022-01-22T13:48:49Z</time>
      </trkpt>
      <trkpt lat="46.51851" lon="5.43869">
        <ele>433.6</ele>
        <time>2022-01-22T13:48:51Z</time>
      </trkpt>
      <trkpt lat="46.51845" lon="5.43863">
        <ele>433.8</ele>
        <time>2022-01-22T13:48:53Z</time>
      </trkpt>
      <trkpt lat="46.51835" lon="5.43856">
        <ele>434.2</ele>
        <time>2022-01-22T13:48:56Z</time>
      </trkpt>
      <trkpt lat="46.51832" lon="5.43853">
        <ele>434.4</ele>
        <time>2022-01-22T13:48:57Z</time>
      </trkpt>
      <trkpt lat="46.51822" lon="5.43848">
        <ele>435</ele>
        <time>2022-01-22T13:49:00Z</time>
      </trkpt>
      <trkpt lat="46.51814" lon="5.43845">
        <ele>435.4</ele>
        <time>2022-01-22T13:49:02Z</time>
      </trkpt>
      <trkpt lat="46.51801" lon="5.43839">
        <ele>436.4</ele>
        <time>2022-01-22T13:49:06Z</time>
      </trkpt>
      <trkpt lat="46.51797" lon="5.43837">
        <ele>436.8</ele>
        <time>2022-01-22T13:49:07Z</time>
      </trkpt>
      <trkpt lat="46.51785" lon="5.43838">
        <ele>438</ele>
        <time>2022-01-22T13:49:10Z</time>
      </trkpt>
      <trkpt lat="46.51776" lon="5.43837">
        <ele>438.6</ele>
        <time>2022-01-22T13:49:12Z</time>
      </trkpt>
      <trkpt lat="46.51771" lon="5.43837">
        <ele>438.8</ele>
        <time>2022-01-22T13:49:13Z</time>
      </trkpt>
      <trkpt lat="46.51766" lon="5.43833">
        <ele>439.4</ele>
        <time>2022-01-22T13:49:15Z</time>
      </trkpt>
      <trkpt lat="46.51754" lon="5.43829">
        <ele>440.2</ele>
        <time>2022-01-22T13:49:18Z</time>
      </trkpt>
      <trkpt lat="46.5175" lon="5.43827">
        <ele>440.4</ele>
        <time>2022-01-22T13:49:19Z</time>
      </trkpt>
      <trkpt lat="46.5174" lon="5.43824">
        <ele>441.2</ele>
        <time>2022-01-22T13:49:22Z</time>
      </trkpt>
      <trkpt lat="46.51738" lon="5.43823">
        <ele>441.4</ele>
        <time>2022-01-22T13:49:23Z</time>
      </trkpt>
      <trkpt lat="46.51725" lon="5.43821">
        <ele>442.6</ele>
        <time>2022-01-22T13:49:27Z</time>
      </trkpt>
      <trkpt lat="46.51711" lon="5.43815">
        <ele>443</ele>
        <time>2022-01-22T13:49:30Z</time>
      </trkpt>
      <trkpt lat="46.51696" lon="5.43797">
        <ele>443.4</ele>
        <time>2022-01-22T13:49:34Z</time>
      </trkpt>
      <trkpt lat="46.51693" lon="5.43792">
        <ele>443.4</ele>
        <time>2022-01-22T13:49:35Z</time>
      </trkpt>
      <trkpt lat="46.51681" lon="5.43775">
        <ele>443.6</ele>
        <time>2022-01-22T13:49:38Z</time>
      </trkpt>
      <trkpt lat="46.51666" lon="5.43753">
        <ele>444</ele>
        <time>2022-01-22T13:49:42Z</time>
      </trkpt>
      <trkpt lat="46.51631" lon="5.4372">
        <ele>444</ele>
        <time>2022-01-22T13:49:49Z</time>
      </trkpt>
      <trkpt lat="46.51613" lon="5.43701">
        <ele>443.8</ele>
        <time>2022-01-22T13:49:53Z</time>
      </trkpt>
      <trkpt lat="46.51602" lon="5.43696">
        <ele>443.4</ele>
        <time>2022-01-22T13:49:55Z</time>
      </trkpt>
      <trkpt lat="46.51596" lon="5.43694">
        <ele>443.2</ele>
        <time>2022-01-22T13:49:56Z</time>
      </trkpt>
      <trkpt lat="46.51564" lon="5.43694">
        <ele>442.6</ele>
        <time>2022-01-22T13:50:01Z</time>
      </trkpt>
      <trkpt lat="46.51551" lon="5.43693">
        <ele>442.6</ele>
        <time>2022-01-22T13:50:03Z</time>
      </trkpt>
      <trkpt lat="46.51539" lon="5.43687">
        <ele>442.8</ele>
        <time>2022-01-22T13:50:05Z</time>
      </trkpt>
      <trkpt lat="46.51529" lon="5.43675">
        <ele>442.8</ele>
        <time>2022-01-22T13:50:07Z</time>
      </trkpt>
      <trkpt lat="46.5152" lon="5.43659">
        <ele>442.8</ele>
        <time>2022-01-22T13:50:09Z</time>
      </trkpt>
      <trkpt lat="46.51502" lon="5.43629">
        <ele>442.6</ele>
        <time>2022-01-22T13:50:13Z</time>
      </trkpt>
      <trkpt lat="46.51489" lon="5.43612">
        <ele>442.4</ele>
        <time>2022-01-22T13:50:16Z</time>
      </trkpt>
      <trkpt lat="46.51472" lon="5.43592">
        <ele>442.6</ele>
        <time>2022-01-22T13:50:20Z</time>
      </trkpt>
      <trkpt lat="46.51459" lon="5.43577">
        <ele>442.8</ele>
        <time>2022-01-22T13:50:23Z</time>
      </trkpt>
      <trkpt lat="46.51431" lon="5.43554">
        <ele>443</ele>
        <time>2022-01-22T13:50:29Z</time>
      </trkpt>
      <trkpt lat="46.51397" lon="5.43543">
        <ele>443</ele>
        <time>2022-01-22T13:50:35Z</time>
      </trkpt>
      <trkpt lat="46.51391" lon="5.4354">
        <ele>442.8</ele>
        <time>2022-01-22T13:50:36Z</time>
      </trkpt>
      <trkpt lat="46.51367" lon="5.43528">
        <ele>442.8</ele>
        <time>2022-01-22T13:50:40Z</time>
      </trkpt>
      <trkpt lat="46.51336" lon="5.43515">
        <ele>442.8</ele>
        <time>2022-01-22T13:50:45Z</time>
      </trkpt>
      <trkpt lat="46.51311" lon="5.4351">
        <ele>442.6</ele>
        <time>2022-01-22T13:50:49Z</time>
      </trkpt>
      <trkpt lat="46.51279" lon="5.43506">
        <ele>442.4</ele>
        <time>2022-01-22T13:50:54Z</time>
      </trkpt>
      <trkpt lat="46.51273" lon="5.43503">
        <ele>442.4</ele>
        <time>2022-01-22T13:50:55Z</time>
      </trkpt>
      <trkpt lat="46.51261" lon="5.43496">
        <ele>442.4</ele>
        <time>2022-01-22T13:50:57Z</time>
      </trkpt>
      <trkpt lat="46.5125" lon="5.43486">
        <ele>442.4</ele>
        <time>2022-01-22T13:50:59Z</time>
      </trkpt>
      <trkpt lat="46.51219" lon="5.43445">
        <ele>443</ele>
        <time>2022-01-22T13:51:06Z</time>
      </trkpt>
      <trkpt lat="46.51198" lon="5.43418">
        <ele>443.6</ele>
        <time>2022-01-22T13:51:11Z</time>
      </trkpt>
      <trkpt lat="46.51189" lon="5.43408">
        <ele>443.8</ele>
        <time>2022-01-22T13:51:13Z</time>
      </trkpt>
      <trkpt lat="46.51183" lon="5.43404">
        <ele>443.8</ele>
        <time>2022-01-22T13:51:14Z</time>
      </trkpt>
      <trkpt lat="46.51171" lon="5.43397">
        <ele>443.8</ele>
        <time>2022-01-22T13:51:16Z</time>
      </trkpt>
      <trkpt lat="46.51165" lon="5.43396">
        <ele>443.8</ele>
        <time>2022-01-22T13:51:17Z</time>
      </trkpt>
      <trkpt lat="46.51158" lon="5.43395">
        <ele>443.8</ele>
        <time>2022-01-22T13:51:18Z</time>
      </trkpt>
      <trkpt lat="46.51131" lon="5.43396">
        <ele>443.6</ele>
        <time>2022-01-22T13:51:22Z</time>
      </trkpt>
      <trkpt lat="46.51105" lon="5.43391">
        <ele>443.4</ele>
        <time>2022-01-22T13:51:26Z</time>
      </trkpt>
      <trkpt lat="46.51099" lon="5.43387">
        <ele>443.4</ele>
        <time>2022-01-22T13:51:27Z</time>
      </trkpt>
      <trkpt lat="46.51089" lon="5.4338">
        <ele>443.4</ele>
        <time>2022-01-22T13:51:29Z</time>
      </trkpt>
      <trkpt lat="46.51073" lon="5.43371">
        <ele>443.6</ele>
        <time>2022-01-22T13:51:32Z</time>
      </trkpt>
      <trkpt lat="46.51062" lon="5.43366">
        <ele>443.8</ele>
        <time>2022-01-22T13:51:34Z</time>
      </trkpt>
      <trkpt lat="46.5104" lon="5.43358">
        <ele>444.6</ele>
        <time>2022-01-22T13:51:38Z</time>
      </trkpt>
      <trkpt lat="46.51029" lon="5.43353">
        <ele>444.8</ele>
        <time>2022-01-22T13:51:40Z</time>
      </trkpt>
      <trkpt lat="46.51024" lon="5.43352">
        <ele>444.8</ele>
        <time>2022-01-22T13:51:41Z</time>
      </trkpt>
      <trkpt lat="46.51012" lon="5.43351">
        <ele>445</ele>
        <time>2022-01-22T13:51:43Z</time>
      </trkpt>
      <trkpt lat="46.51006" lon="5.43352">
        <ele>445.2</ele>
        <time>2022-01-22T13:51:44Z</time>
      </trkpt>
      <trkpt lat="46.50991" lon="5.43358">
        <ele>445.4</ele>
        <time>2022-01-22T13:51:47Z</time>
      </trkpt>
      <trkpt lat="46.50982" lon="5.43366">
        <ele>445.4</ele>
        <time>2022-01-22T13:51:49Z</time>
      </trkpt>
      <trkpt lat="46.50973" lon="5.43379">
        <ele>445.6</ele>
        <time>2022-01-22T13:51:51Z</time>
      </trkpt>
      <trkpt lat="46.50965" lon="5.4339">
        <ele>445.8</ele>
        <time>2022-01-22T13:51:53Z</time>
      </trkpt>
      <trkpt lat="46.5096" lon="5.43394">
        <ele>445.8</ele>
        <time>2022-01-22T13:51:54Z</time>
      </trkpt>
      <trkpt lat="46.50946" lon="5.43405">
        <ele>446</ele>
        <time>2022-01-22T13:51:56Z</time>
      </trkpt>
      <trkpt lat="46.50931" lon="5.43411">
        <ele>446.2</ele>
        <time>2022-01-22T13:51:58Z</time>
      </trkpt>
      <trkpt lat="46.50918" lon="5.4341">
        <ele>446.2</ele>
        <time>2022-01-22T13:52:00Z</time>
      </trkpt>
      <trkpt lat="46.50904" lon="5.43407">
        <ele>446.2</ele>
        <time>2022-01-22T13:52:02Z</time>
      </trkpt>
      <trkpt lat="46.50893" lon="5.434">
        <ele>446.2</ele>
        <time>2022-01-22T13:52:04Z</time>
      </trkpt>
      <trkpt lat="46.50881" lon="5.43391">
        <ele>446.4</ele>
        <time>2022-01-22T13:52:06Z</time>
      </trkpt>
      <trkpt lat="46.50871" lon="5.43382">
        <ele>446.6</ele>
        <time>2022-01-22T13:52:08Z</time>
      </trkpt>
      <trkpt lat="46.50848" lon="5.43368">
        <ele>446.6</ele>
        <time>2022-01-22T13:52:12Z</time>
      </trkpt>
      <trkpt lat="46.50842" lon="5.43366">
        <ele>446.6</ele>
        <time>2022-01-22T13:52:13Z</time>
      </trkpt>
      <trkpt lat="46.50815" lon="5.4335">
        <ele>446.6</ele>
        <time>2022-01-22T13:52:18Z</time>
      </trkpt>
      <trkpt lat="46.50779" lon="5.43326">
        <ele>446.4</ele>
        <time>2022-01-22T13:52:24Z</time>
      </trkpt>
      <trkpt lat="46.50763" lon="5.43314">
        <ele>446.2</ele>
        <time>2022-01-22T13:52:27Z</time>
      </trkpt>
      <trkpt lat="46.50744" lon="5.43311">
        <ele>446.2</ele>
        <time>2022-01-22T13:52:30Z</time>
      </trkpt>
      <trkpt lat="46.50739" lon="5.43311">
        <ele>446.2</ele>
        <time>2022-01-22T13:52:31Z</time>
      </trkpt>
      <trkpt lat="46.50723" lon="5.43318">
        <ele>446.4</ele>
        <time>2022-01-22T13:52:34Z</time>
      </trkpt>
      <trkpt lat="46.50713" lon="5.43325">
        <ele>446.4</ele>
        <time>2022-01-22T13:52:36Z</time>
      </trkpt>
      <trkpt lat="46.50703" lon="5.43328">
        <ele>446.8</ele>
        <time>2022-01-22T13:52:38Z</time>
      </trkpt>
      <trkpt lat="46.50697" lon="5.43328">
        <ele>446.8</ele>
        <time>2022-01-22T13:52:39Z</time>
      </trkpt>
      <trkpt lat="46.5069" lon="5.43327">
        <ele>446.8</ele>
        <time>2022-01-22T13:52:40Z</time>
      </trkpt>
      <trkpt lat="46.50685" lon="5.43324">
        <ele>446.8</ele>
        <time>2022-01-22T13:52:41Z</time>
      </trkpt>
      <trkpt lat="46.50679" lon="5.43321">
        <ele>447</ele>
        <time>2022-01-22T13:52:42Z</time>
      </trkpt>
      <trkpt lat="46.50669" lon="5.43316">
        <ele>447</ele>
        <time>2022-01-22T13:52:44Z</time>
      </trkpt>
      <trkpt lat="46.50664" lon="5.43312">
        <ele>447.2</ele>
        <time>2022-01-22T13:52:45Z</time>
      </trkpt>
      <trkpt lat="46.50653" lon="5.43301">
        <ele>447.8</ele>
        <time>2022-01-22T13:52:48Z</time>
      </trkpt>
      <trkpt lat="46.50648" lon="5.43298">
        <ele>447.8</ele>
        <time>2022-01-22T13:52:49Z</time>
      </trkpt>
      <trkpt lat="46.50643" lon="5.43295">
        <ele>448</ele>
        <time>2022-01-22T13:52:50Z</time>
      </trkpt>
      <trkpt lat="46.50634" lon="5.4329">
        <ele>448.2</ele>
        <time>2022-01-22T13:52:52Z</time>
      </trkpt>
      <trkpt lat="46.50619" lon="5.43278">
        <ele>448.6</ele>
        <time>2022-01-22T13:52:55Z</time>
      </trkpt>
      <trkpt lat="46.50616" lon="5.43274">
        <ele>448.8</ele>
        <time>2022-01-22T13:52:56Z</time>
      </trkpt>
      <trkpt lat="46.50611" lon="5.43271">
        <ele>448.8</ele>
        <time>2022-01-22T13:52:57Z</time>
      </trkpt>
      <trkpt lat="46.50601" lon="5.43268">
        <ele>449</ele>
        <time>2022-01-22T13:52:58Z</time>
      </trkpt>
      <trkpt lat="46.50594" lon="5.43264">
        <ele>449.4</ele>
        <time>2022-01-22T13:52:59Z</time>
      </trkpt>
      <trkpt lat="46.5059" lon="5.43261">
        <ele>449.6</ele>
        <time>2022-01-22T13:53:00Z</time>
      </trkpt>
      <trkpt lat="46.50572" lon="5.43251">
        <ele>450</ele>
        <time>2022-01-22T13:53:04Z</time>
      </trkpt>
      <trkpt lat="46.50565" lon="5.43248">
        <ele>450.2</ele>
        <time>2022-01-22T13:53:05Z</time>
      </trkpt>
      <trkpt lat="46.50541" lon="5.43238">
        <ele>450.4</ele>
        <time>2022-01-22T13:53:08Z</time>
      </trkpt>
      <trkpt lat="46.50533" lon="5.43237">
        <ele>450.4</ele>
        <time>2022-01-22T13:53:09Z</time>
      </trkpt>
      <trkpt lat="46.50528" lon="5.43235">
        <ele>450.6</ele>
        <time>2022-01-22T13:53:10Z</time>
      </trkpt>
      <trkpt lat="46.50504" lon="5.4323">
        <ele>450.8</ele>
        <time>2022-01-22T13:53:13Z</time>
      </trkpt>
      <trkpt lat="46.50498" lon="5.43227">
        <ele>450.8</ele>
        <time>2022-01-22T13:53:14Z</time>
      </trkpt>
      <trkpt lat="46.50492" lon="5.43221">
        <ele>450.8</ele>
        <time>2022-01-22T13:53:16Z</time>
      </trkpt>
      <trkpt lat="46.50484" lon="5.43215">
        <ele>451</ele>
        <time>2022-01-22T13:53:19Z</time>
      </trkpt>
      <trkpt lat="46.50479" lon="5.43213">
        <ele>451.2</ele>
        <time>2022-01-22T13:53:21Z</time>
      </trkpt>
      <trkpt lat="46.50471" lon="5.4321">
        <ele>451.2</ele>
        <time>2022-01-22T13:53:23Z</time>
      </trkpt>
      <trkpt lat="46.50466" lon="5.43208">
        <ele>451.2</ele>
        <time>2022-01-22T13:53:24Z</time>
      </trkpt>
      <trkpt lat="46.50462" lon="5.43205">
        <ele>451.4</ele>
        <time>2022-01-22T13:53:25Z</time>
      </trkpt>
      <trkpt lat="46.50457" lon="5.43203">
        <ele>451.4</ele>
        <time>2022-01-22T13:53:26Z</time>
      </trkpt>
      <trkpt lat="46.50435" lon="5.43194">
        <ele>451.8</ele>
        <time>2022-01-22T13:53:30Z</time>
      </trkpt>
      <trkpt lat="46.50411" lon="5.43182">
        <ele>452.2</ele>
        <time>2022-01-22T13:53:35Z</time>
      </trkpt>
      <trkpt lat="46.50398" lon="5.43173">
        <ele>452.4</ele>
        <time>2022-01-22T13:53:38Z</time>
      </trkpt>
      <trkpt lat="46.50391" lon="5.4317">
        <ele>452.4</ele>
        <time>2022-01-22T13:53:39Z</time>
      </trkpt>
      <trkpt lat="46.50381" lon="5.43165">
        <ele>452.6</ele>
        <time>2022-01-22T13:53:41Z</time>
      </trkpt>
      <trkpt lat="46.50366" lon="5.43159">
        <ele>453</ele>
        <time>2022-01-22T13:53:44Z</time>
      </trkpt>
      <trkpt lat="46.5035" lon="5.4315">
        <ele>453.2</ele>
        <time>2022-01-22T13:53:47Z</time>
      </trkpt>
      <trkpt lat="46.50339" lon="5.43145">
        <ele>453.2</ele>
        <time>2022-01-22T13:53:49Z</time>
      </trkpt>
      <trkpt lat="46.50296" lon="5.43123">
        <ele>454</ele>
        <time>2022-01-22T13:53:57Z</time>
      </trkpt>
      <trkpt lat="46.50287" lon="5.43117">
        <ele>454.2</ele>
        <time>2022-01-22T13:53:59Z</time>
      </trkpt>
      <trkpt lat="46.50258" lon="5.43105">
        <ele>454.8</ele>
        <time>2022-01-22T13:54:05Z</time>
      </trkpt>
      <trkpt lat="46.50247" lon="5.43103">
        <ele>454.8</ele>
        <time>2022-01-22T13:54:07Z</time>
      </trkpt>
      <trkpt lat="46.50221" lon="5.43102">
        <ele>455.2</ele>
        <time>2022-01-22T13:54:12Z</time>
      </trkpt>
      <trkpt lat="46.50216" lon="5.43102">
        <ele>455.2</ele>
        <time>2022-01-22T13:54:13Z</time>
      </trkpt>
      <trkpt lat="46.50176" lon="5.43095">
        <ele>456.2</ele>
        <time>2022-01-22T13:54:21Z</time>
      </trkpt>
      <trkpt lat="46.50129" lon="5.43088">
        <ele>456.6</ele>
        <time>2022-01-22T13:54:29Z</time>
      </trkpt>
      <trkpt lat="46.50099" lon="5.43081">
        <ele>457.4</ele>
        <time>2022-01-22T13:54:35Z</time>
      </trkpt>
      <trkpt lat="46.50093" lon="5.4308">
        <ele>457.6</ele>
        <time>2022-01-22T13:54:36Z</time>
      </trkpt>
      <trkpt lat="46.50057" lon="5.43075">
        <ele>458</ele>
        <time>2022-01-22T13:54:42Z</time>
      </trkpt>
      <trkpt lat="46.50044" lon="5.43075">
        <ele>458</ele>
        <time>2022-01-22T13:54:44Z</time>
      </trkpt>
      <trkpt lat="46.50023" lon="5.43074">
        <ele>458</ele>
        <time>2022-01-22T13:54:47Z</time>
      </trkpt>
      <trkpt lat="46.49981" lon="5.4307">
        <ele>458.2</ele>
        <time>2022-01-22T13:54:54Z</time>
      </trkpt>
      <trkpt lat="46.49977" lon="5.4307">
        <ele>458.6</ele>
        <time>2022-01-22T13:54:55Z</time>
      </trkpt>
      <trkpt lat="46.49972" lon="5.43069">
        <ele>459</ele>
        <time>2022-01-22T13:54:56Z</time>
      </trkpt>
      <trkpt lat="46.49964" lon="5.43069">
        <ele>459.8</ele>
        <time>2022-01-22T13:54:58Z</time>
      </trkpt>
      <trkpt lat="46.49953" lon="5.43068">
        <ele>461</ele>
        <time>2022-01-22T13:55:01Z</time>
      </trkpt>
      <trkpt lat="46.49949" lon="5.43066">
        <ele>461.4</ele>
        <time>2022-01-22T13:55:03Z</time>
      </trkpt>
      <trkpt lat="46.49943" lon="5.43063">
        <ele>462.2</ele>
        <time>2022-01-22T13:55:05Z</time>
      </trkpt>
      <trkpt lat="46.49931" lon="5.43062">
        <ele>462.6</ele>
        <time>2022-01-22T13:55:07Z</time>
      </trkpt>
      <trkpt lat="46.49909" lon="5.43062">
        <ele>463</ele>
        <time>2022-01-22T13:55:10Z</time>
      </trkpt>
      <trkpt lat="46.49892" lon="5.43061">
        <ele>463.2</ele>
        <time>2022-01-22T13:55:11Z</time>
      </trkpt>
      <trkpt lat="46.49887" lon="5.4306">
        <ele>463.4</ele>
        <time>2022-01-22T13:55:12Z</time>
      </trkpt>
      <trkpt lat="46.49867" lon="5.43059">
        <ele>463.8</ele>
        <time>2022-01-22T13:55:16Z</time>
      </trkpt>
      <trkpt lat="46.4985" lon="5.43056">
        <ele>464</ele>
        <time>2022-01-22T13:55:18Z</time>
      </trkpt>
      <trkpt lat="46.49803" lon="5.43051">
        <ele>464.2</ele>
        <time>2022-01-22T13:55:25Z</time>
      </trkpt>
      <trkpt lat="46.49759" lon="5.43042">
        <ele>465</ele>
        <time>2022-01-22T13:55:33Z</time>
      </trkpt>
      <trkpt lat="46.49737" lon="5.43035">
        <ele>465.4</ele>
        <time>2022-01-22T13:55:37Z</time>
      </trkpt>
      <trkpt lat="46.49713" lon="5.43027">
        <ele>465.6</ele>
        <time>2022-01-22T13:55:41Z</time>
      </trkpt>
      <trkpt lat="46.49668" lon="5.4301">
        <ele>466.4</ele>
        <time>2022-01-22T13:55:49Z</time>
      </trkpt>
      <trkpt lat="46.49662" lon="5.43008">
        <ele>466.4</ele>
        <time>2022-01-22T13:55:50Z</time>
      </trkpt>
      <trkpt lat="46.4962" lon="5.42992">
        <ele>467.4</ele>
        <time>2022-01-22T13:55:58Z</time>
      </trkpt>
      <trkpt lat="46.49592" lon="5.42981">
        <ele>468.4</ele>
        <time>2022-01-22T13:56:04Z</time>
      </trkpt>
      <trkpt lat="46.49579" lon="5.42976">
        <ele>469.2</ele>
        <time>2022-01-22T13:56:07Z</time>
      </trkpt>
      <trkpt lat="46.49574" lon="5.42974">
        <ele>469.4</ele>
        <time>2022-01-22T13:56:08Z</time>
      </trkpt>
      <trkpt lat="46.49562" lon="5.42969">
        <ele>470.4</ele>
        <time>2022-01-22T13:56:11Z</time>
      </trkpt>
      <trkpt lat="46.49551" lon="5.42963">
        <ele>471.2</ele>
        <time>2022-01-22T13:56:14Z</time>
      </trkpt>
      <trkpt lat="46.49542" lon="5.42959">
        <ele>471.8</ele>
        <time>2022-01-22T13:56:16Z</time>
      </trkpt>
      <trkpt lat="46.49513" lon="5.42942">
        <ele>472.8</ele>
        <time>2022-01-22T13:56:23Z</time>
      </trkpt>
      <trkpt lat="46.49508" lon="5.42939">
        <ele>473</ele>
        <time>2022-01-22T13:56:24Z</time>
      </trkpt>
      <trkpt lat="46.49504" lon="5.42936">
        <ele>473.2</ele>
        <time>2022-01-22T13:56:25Z</time>
      </trkpt>
      <trkpt lat="46.49473" lon="5.4291">
        <ele>473.6</ele>
        <time>2022-01-22T13:56:32Z</time>
      </trkpt>
      <trkpt lat="46.49469" lon="5.42906">
        <ele>473.6</ele>
        <time>2022-01-22T13:56:33Z</time>
      </trkpt>
      <trkpt lat="46.49458" lon="5.42892">
        <ele>473.8</ele>
        <time>2022-01-22T13:56:36Z</time>
      </trkpt>
      <trkpt lat="46.49454" lon="5.42886">
        <ele>474</ele>
        <time>2022-01-22T13:56:37Z</time>
      </trkpt>
      <trkpt lat="46.4945" lon="5.4288">
        <ele>474</ele>
        <time>2022-01-22T13:56:38Z</time>
      </trkpt>
      <trkpt lat="46.49425" lon="5.42839">
        <ele>475</ele>
        <time>2022-01-22T13:56:45Z</time>
      </trkpt>
      <trkpt lat="46.49422" lon="5.42832">
        <ele>475</ele>
        <time>2022-01-22T13:56:46Z</time>
      </trkpt>
      <trkpt lat="46.49412" lon="5.42815">
        <ele>475</ele>
        <time>2022-01-22T13:56:49Z</time>
      </trkpt>
      <trkpt lat="46.49383" lon="5.42766">
        <ele>476</ele>
        <time>2022-01-22T13:56:57Z</time>
      </trkpt>
      <trkpt lat="46.49377" lon="5.42754">
        <ele>476.2</ele>
        <time>2022-01-22T13:56:59Z</time>
      </trkpt>
      <trkpt lat="46.49368" lon="5.42736">
        <ele>476.2</ele>
        <time>2022-01-22T13:57:02Z</time>
      </trkpt>
      <trkpt lat="46.49344" lon="5.42705">
        <ele>476.8</ele>
        <time>2022-01-22T13:57:08Z</time>
      </trkpt>
      <trkpt lat="46.4934" lon="5.42701">
        <ele>477.2</ele>
        <time>2022-01-22T13:57:09Z</time>
      </trkpt>
      <trkpt lat="46.49333" lon="5.42693">
        <ele>477.4</ele>
        <time>2022-01-22T13:57:11Z</time>
      </trkpt>
      <trkpt lat="46.49325" lon="5.42686">
        <ele>477.6</ele>
        <time>2022-01-22T13:57:13Z</time>
      </trkpt>
      <trkpt lat="46.4932" lon="5.42683">
        <ele>477.6</ele>
        <time>2022-01-22T13:57:14Z</time>
      </trkpt>
      <trkpt lat="46.49311" lon="5.42673">
        <ele>477.8</ele>
        <time>2022-01-22T13:57:16Z</time>
      </trkpt>
      <trkpt lat="46.49307" lon="5.42668">
        <ele>478</ele>
        <time>2022-01-22T13:57:17Z</time>
      </trkpt>
      <trkpt lat="46.49302" lon="5.42662">
        <ele>478</ele>
        <time>2022-01-22T13:57:18Z</time>
      </trkpt>
      <trkpt lat="46.49291" lon="5.42649">
        <ele>478.4</ele>
        <time>2022-01-22T13:57:21Z</time>
      </trkpt>
      <trkpt lat="46.49279" lon="5.42634">
        <ele>479</ele>
        <time>2022-01-22T13:57:24Z</time>
      </trkpt>
      <trkpt lat="46.49273" lon="5.42625">
        <ele>479</ele>
        <time>2022-01-22T13:57:26Z</time>
      </trkpt>
      <trkpt lat="46.49271" lon="5.42623">
        <ele>479.2</ele>
        <time>2022-01-22T13:57:27Z</time>
      </trkpt>
      <trkpt lat="46.49257" lon="5.42606">
        <ele>480.2</ele>
        <time>2022-01-22T13:57:31Z</time>
      </trkpt>
      <trkpt lat="46.49252" lon="5.426">
        <ele>480.6</ele>
        <time>2022-01-22T13:57:33Z</time>
      </trkpt>
      <trkpt lat="46.49242" lon="5.42587">
        <ele>481.2</ele>
        <time>2022-01-22T13:57:36Z</time>
      </trkpt>
      <trkpt lat="46.4923" lon="5.42577">
        <ele>481.2</ele>
        <time>2022-01-22T13:57:39Z</time>
      </trkpt>
      <trkpt lat="46.49211" lon="5.42557">
        <ele>482</ele>
        <time>2022-01-22T13:57:45Z</time>
      </trkpt>
      <trkpt lat="46.49206" lon="5.42553">
        <ele>482</ele>
        <time>2022-01-22T13:57:46Z</time>
      </trkpt>
      <trkpt lat="46.4919" lon="5.42541">
        <ele>482.4</ele>
        <time>2022-01-22T13:57:49Z</time>
      </trkpt>
      <trkpt lat="46.49185" lon="5.42537">
        <ele>482.4</ele>
        <time>2022-01-22T13:57:50Z</time>
      </trkpt>
      <trkpt lat="46.49168" lon="5.4252">
        <ele>483</ele>
        <time>2022-01-22T13:57:55Z</time>
      </trkpt>
      <trkpt lat="46.49164" lon="5.42516">
        <ele>483.2</ele>
        <time>2022-01-22T13:57:56Z</time>
      </trkpt>
      <trkpt lat="46.49149" lon="5.425">
        <ele>483.6</ele>
        <time>2022-01-22T13:58:01Z</time>
      </trkpt>
      <trkpt lat="46.49142" lon="5.42492">
        <ele>484.2</ele>
        <time>2022-01-22T13:58:03Z</time>
      </trkpt>
      <trkpt lat="46.49125" lon="5.42471">
        <ele>484.8</ele>
        <time>2022-01-22T13:58:09Z</time>
      </trkpt>
      <trkpt lat="46.49121" lon="5.42467">
        <ele>485</ele>
        <time>2022-01-22T13:58:10Z</time>
      </trkpt>
      <trkpt lat="46.49099" lon="5.42444">
        <ele>486.2</ele>
        <time>2022-01-22T13:58:15Z</time>
      </trkpt>
      <trkpt lat="46.49094" lon="5.4244">
        <ele>486.2</ele>
        <time>2022-01-22T13:58:16Z</time>
      </trkpt>
      <trkpt lat="46.49087" lon="5.42431">
        <ele>486.6</ele>
        <time>2022-01-22T13:58:18Z</time>
      </trkpt>
      <trkpt lat="46.49081" lon="5.42423">
        <ele>487</ele>
        <time>2022-01-22T13:58:20Z</time>
      </trkpt>
      <trkpt lat="46.49069" lon="5.42409">
        <ele>487.4</ele>
        <time>2022-01-22T13:58:23Z</time>
      </trkpt>
      <trkpt lat="46.49049" lon="5.42389">
        <ele>488.2</ele>
        <time>2022-01-22T13:58:28Z</time>
      </trkpt>
      <trkpt lat="46.49039" lon="5.42381">
        <ele>488.6</ele>
        <time>2022-01-22T13:58:30Z</time>
      </trkpt>
      <trkpt lat="46.49023" lon="5.42368">
        <ele>489</ele>
        <time>2022-01-22T13:58:34Z</time>
      </trkpt>
      <trkpt lat="46.49019" lon="5.42365">
        <ele>489</ele>
        <time>2022-01-22T13:58:35Z</time>
      </trkpt>
      <trkpt lat="46.48994" lon="5.4235">
        <ele>489.6</ele>
        <time>2022-01-22T13:58:41Z</time>
      </trkpt>
      <trkpt lat="46.4899" lon="5.42348">
        <ele>489.8</ele>
        <time>2022-01-22T13:58:42Z</time>
      </trkpt>
      <trkpt lat="46.48982" lon="5.42344">
        <ele>490.2</ele>
        <time>2022-01-22T13:58:44Z</time>
      </trkpt>
      <trkpt lat="46.48975" lon="5.42339">
        <ele>490.8</ele>
        <time>2022-01-22T13:58:46Z</time>
      </trkpt>
      <trkpt lat="46.48968" lon="5.42334">
        <ele>491.2</ele>
        <time>2022-01-22T13:58:48Z</time>
      </trkpt>
      <trkpt lat="46.48961" lon="5.42329">
        <ele>492</ele>
        <time>2022-01-22T13:58:50Z</time>
      </trkpt>
      <trkpt lat="46.48942" lon="5.42319">
        <ele>493</ele>
        <time>2022-01-22T13:58:55Z</time>
      </trkpt>
      <trkpt lat="46.48938" lon="5.42317">
        <ele>493.2</ele>
        <time>2022-01-22T13:58:56Z</time>
      </trkpt>
      <trkpt lat="46.48926" lon="5.42313">
        <ele>493.6</ele>
        <time>2022-01-22T13:58:59Z</time>
      </trkpt>
      <trkpt lat="46.48918" lon="5.42312">
        <ele>494</ele>
        <time>2022-01-22T13:59:01Z</time>
      </trkpt>
      <trkpt lat="46.4891" lon="5.42313">
        <ele>494.4</ele>
        <time>2022-01-22T13:59:03Z</time>
      </trkpt>
      <trkpt lat="46.4889" lon="5.42318">
        <ele>495.2</ele>
        <time>2022-01-22T13:59:08Z</time>
      </trkpt>
      <trkpt lat="46.48874" lon="5.42322">
        <ele>495.8</ele>
        <time>2022-01-22T13:59:12Z</time>
      </trkpt>
      <trkpt lat="46.48861" lon="5.42323">
        <ele>496.4</ele>
        <time>2022-01-22T13:59:15Z</time>
      </trkpt>
      <trkpt lat="46.4884" lon="5.4232">
        <ele>497</ele>
        <time>2022-01-22T13:59:20Z</time>
      </trkpt>
      <trkpt lat="46.48824" lon="5.42313">
        <ele>497.4</ele>
        <time>2022-01-22T13:59:24Z</time>
      </trkpt>
      <trkpt lat="46.48819" lon="5.42311">
        <ele>497.4</ele>
        <time>2022-01-22T13:59:25Z</time>
      </trkpt>
      <trkpt lat="46.48782" lon="5.42292">
        <ele>497.6</ele>
        <time>2022-01-22T13:59:32Z</time>
      </trkpt>
      <trkpt lat="46.48749" lon="5.42276">
        <ele>497.4</ele>
        <time>2022-01-22T13:59:38Z</time>
      </trkpt>
      <trkpt lat="46.48705" lon="5.4226">
        <ele>498</ele>
        <time>2022-01-22T13:59:46Z</time>
      </trkpt>
      <trkpt lat="46.48678" lon="5.42254">
        <ele>498.6</ele>
        <time>2022-01-22T13:59:51Z</time>
      </trkpt>
      <trkpt lat="46.48656" lon="5.42248">
        <ele>499</ele>
        <time>2022-01-22T13:59:55Z</time>
      </trkpt>
      <trkpt lat="46.48641" lon="5.4225">
        <ele>499.2</ele>
        <time>2022-01-22T13:59:58Z</time>
      </trkpt>
      <trkpt lat="46.48636" lon="5.42252">
        <ele>499.4</ele>
        <time>2022-01-22T13:59:59Z</time>
      </trkpt>
      <trkpt lat="46.48625" lon="5.42259">
        <ele>499.8</ele>
        <time>2022-01-22T14:00:02Z</time>
      </trkpt>
      <trkpt lat="46.48621" lon="5.42262">
        <ele>500</ele>
        <time>2022-01-22T14:00:03Z</time>
      </trkpt>
      <trkpt lat="46.48606" lon="5.42274">
        <ele>501.4</ele>
        <time>2022-01-22T14:00:07Z</time>
      </trkpt>
      <trkpt lat="46.486" lon="5.42279">
        <ele>502</ele>
        <time>2022-01-22T14:00:09Z</time>
      </trkpt>
      <trkpt lat="46.48594" lon="5.42284">
        <ele>502.6</ele>
        <time>2022-01-22T14:00:11Z</time>
      </trkpt>
      <trkpt lat="46.48583" lon="5.42293">
        <ele>504</ele>
        <time>2022-01-22T14:00:14Z</time>
      </trkpt>
      <trkpt lat="46.48567" lon="5.42297">
        <ele>505.2</ele>
        <time>2022-01-22T14:00:18Z</time>
      </trkpt>
      <trkpt lat="46.48563" lon="5.42295">
        <ele>505.4</ele>
        <time>2022-01-22T14:00:19Z</time>
      </trkpt>
      <trkpt lat="46.48547" lon="5.42281">
        <ele>506</ele>
        <time>2022-01-22T14:00:23Z</time>
      </trkpt>
      <trkpt lat="46.48543" lon="5.42277">
        <ele>506.4</ele>
        <time>2022-01-22T14:00:24Z</time>
      </trkpt>
      <trkpt lat="46.48518" lon="5.42257">
        <ele>507.8</ele>
        <time>2022-01-22T14:00:30Z</time>
      </trkpt>
      <trkpt lat="46.4851" lon="5.42252">
        <ele>508</ele>
        <time>2022-01-22T14:00:32Z</time>
      </trkpt>
      <trkpt lat="46.48501" lon="5.42245">
        <ele>508.2</ele>
        <time>2022-01-22T14:00:34Z</time>
      </trkpt>
      <trkpt lat="46.48491" lon="5.42238">
        <ele>508.2</ele>
        <time>2022-01-22T14:00:36Z</time>
      </trkpt>
      <trkpt lat="46.48478" lon="5.42228">
        <ele>508.6</ele>
        <time>2022-01-22T14:00:39Z</time>
      </trkpt>
      <trkpt lat="46.48459" lon="5.42213">
        <ele>508.6</ele>
        <time>2022-01-22T14:00:43Z</time>
      </trkpt>
      <trkpt lat="46.48443" lon="5.422">
        <ele>508.8</ele>
        <time>2022-01-22T14:00:47Z</time>
      </trkpt>
      <trkpt lat="46.48439" lon="5.42197">
        <ele>509</ele>
        <time>2022-01-22T14:00:48Z</time>
      </trkpt>
      <trkpt lat="46.48412" lon="5.42179">
        <ele>509.6</ele>
        <time>2022-01-22T14:00:54Z</time>
      </trkpt>
      <trkpt lat="46.48399" lon="5.42171">
        <ele>510</ele>
        <time>2022-01-22T14:00:57Z</time>
      </trkpt>
      <trkpt lat="46.4839" lon="5.42166">
        <ele>510.6</ele>
        <time>2022-01-22T14:00:59Z</time>
      </trkpt>
      <trkpt lat="46.48386" lon="5.42164">
        <ele>510.6</ele>
        <time>2022-01-22T14:01:00Z</time>
      </trkpt>
      <trkpt lat="46.48379" lon="5.42159">
        <ele>511.2</ele>
        <time>2022-01-22T14:01:02Z</time>
      </trkpt>
      <trkpt lat="46.48352" lon="5.42145">
        <ele>512.4</ele>
        <time>2022-01-22T14:01:08Z</time>
      </trkpt>
      <trkpt lat="46.48341" lon="5.42139">
        <ele>512.4</ele>
        <time>2022-01-22T14:01:10Z</time>
      </trkpt>
      <trkpt lat="46.48304" lon="5.42116">
        <ele>512.4</ele>
        <time>2022-01-22T14:01:17Z</time>
      </trkpt>
      <trkpt lat="46.48294" lon="5.42111">
        <ele>512.6</ele>
        <time>2022-01-22T14:01:19Z</time>
      </trkpt>
      <trkpt lat="46.4828" lon="5.42102">
        <ele>513</ele>
        <time>2022-01-22T14:01:22Z</time>
      </trkpt>
      <trkpt lat="46.48268" lon="5.42095">
        <ele>513.6</ele>
        <time>2022-01-22T14:01:25Z</time>
      </trkpt>
      <trkpt lat="46.48257" lon="5.42088">
        <ele>514.4</ele>
        <time>2022-01-22T14:01:28Z</time>
      </trkpt>
      <trkpt lat="46.48252" lon="5.42086">
        <ele>514.6</ele>
        <time>2022-01-22T14:01:29Z</time>
      </trkpt>
      <trkpt lat="46.48235" lon="5.42078">
        <ele>515.8</ele>
        <time>2022-01-22T14:01:33Z</time>
      </trkpt>
      <trkpt lat="46.48217" lon="5.42069">
        <ele>516.6</ele>
        <time>2022-01-22T14:01:37Z</time>
      </trkpt>
      <trkpt lat="46.48209" lon="5.42065">
        <ele>516.8</ele>
        <time>2022-01-22T14:01:39Z</time>
      </trkpt>
      <trkpt lat="46.48189" lon="5.42053">
        <ele>517.8</ele>
        <time>2022-01-22T14:01:44Z</time>
      </trkpt>
      <trkpt lat="46.48175" lon="5.42042">
        <ele>518.6</ele>
        <time>2022-01-22T14:01:48Z</time>
      </trkpt>
      <trkpt lat="46.48172" lon="5.4204">
        <ele>519</ele>
        <time>2022-01-22T14:01:49Z</time>
      </trkpt>
      <trkpt lat="46.48152" lon="5.42024">
        <ele>520.2</ele>
        <time>2022-01-22T14:01:55Z</time>
      </trkpt>
      <trkpt lat="46.48144" lon="5.42018">
        <ele>520.4</ele>
        <time>2022-01-22T14:01:57Z</time>
      </trkpt>
      <trkpt lat="46.48126" lon="5.42002">
        <ele>521.4</ele>
        <time>2022-01-22T14:02:02Z</time>
      </trkpt>
      <trkpt lat="46.48116" lon="5.41993">
        <ele>521.8</ele>
        <time>2022-01-22T14:02:05Z</time>
      </trkpt>
      <trkpt lat="46.48107" lon="5.41989">
        <ele>522</ele>
        <time>2022-01-22T14:02:07Z</time>
      </trkpt>
      <trkpt lat="46.48099" lon="5.41988">
        <ele>522.2</ele>
        <time>2022-01-22T14:02:09Z</time>
      </trkpt>
      <trkpt lat="46.48089" lon="5.41989">
        <ele>522.6</ele>
        <time>2022-01-22T14:02:11Z</time>
      </trkpt>
      <trkpt lat="46.4808" lon="5.41991">
        <ele>522.8</ele>
        <time>2022-01-22T14:02:13Z</time>
      </trkpt>
      <trkpt lat="46.48066" lon="5.41994">
        <ele>523.2</ele>
        <time>2022-01-22T14:02:16Z</time>
      </trkpt>
      <trkpt lat="46.48051" lon="5.41996">
        <ele>523.4</ele>
        <time>2022-01-22T14:02:19Z</time>
      </trkpt>
      <trkpt lat="46.48041" lon="5.41994">
        <ele>523.4</ele>
        <time>2022-01-22T14:02:21Z</time>
      </trkpt>
      <trkpt lat="46.48037" lon="5.41992">
        <ele>523.6</ele>
        <time>2022-01-22T14:02:22Z</time>
      </trkpt>
      <trkpt lat="46.48019" lon="5.41977">
        <ele>523.8</ele>
        <time>2022-01-22T14:02:26Z</time>
      </trkpt>
      <trkpt lat="46.47991" lon="5.41941">
        <ele>524</ele>
        <time>2022-01-22T14:02:33Z</time>
      </trkpt>
      <trkpt lat="46.47966" lon="5.41908">
        <ele>524</ele>
        <time>2022-01-22T14:02:38Z</time>
      </trkpt>
      <trkpt lat="46.47947" lon="5.41894">
        <ele>523.8</ele>
        <time>2022-01-22T14:02:41Z</time>
      </trkpt>
      <trkpt lat="46.4794" lon="5.41891">
        <ele>523.8</ele>
        <time>2022-01-22T14:02:42Z</time>
      </trkpt>
      <trkpt lat="46.47892" lon="5.41875">
        <ele>523.2</ele>
        <time>2022-01-22T14:02:49Z</time>
      </trkpt>
      <trkpt lat="46.47839" lon="5.41857">
        <ele>523</ele>
        <time>2022-01-22T14:02:57Z</time>
      </trkpt>
      <trkpt lat="46.47812" lon="5.41848">
        <ele>523</ele>
        <time>2022-01-22T14:03:01Z</time>
      </trkpt>
      <trkpt lat="46.47759" lon="5.41832">
        <ele>523.6</ele>
        <time>2022-01-22T14:03:09Z</time>
      </trkpt>
      <trkpt lat="46.47752" lon="5.41829">
        <ele>523.6</ele>
        <time>2022-01-22T14:03:10Z</time>
      </trkpt>
      <trkpt lat="46.47699" lon="5.41811">
        <ele>523.6</ele>
        <time>2022-01-22T14:03:18Z</time>
      </trkpt>
      <trkpt lat="46.47643" lon="5.41791">
        <ele>523.2</ele>
        <time>2022-01-22T14:03:26Z</time>
      </trkpt>
      <trkpt lat="46.47636" lon="5.41788">
        <ele>523.2</ele>
        <time>2022-01-22T14:03:27Z</time>
      </trkpt>
      <trkpt lat="46.47614" lon="5.41776">
        <ele>522.8</ele>
        <time>2022-01-22T14:03:30Z</time>
      </trkpt>
      <trkpt lat="46.47603" lon="5.41767">
        <ele>522.8</ele>
        <time>2022-01-22T14:03:32Z</time>
      </trkpt>
      <trkpt lat="46.47593" lon="5.41753">
        <ele>522.8</ele>
        <time>2022-01-22T14:03:34Z</time>
      </trkpt>
      <trkpt lat="46.47583" lon="5.41737">
        <ele>522.8</ele>
        <time>2022-01-22T14:03:36Z</time>
      </trkpt>
      <trkpt lat="46.4757" lon="5.41722">
        <ele>523</ele>
        <time>2022-01-22T14:03:39Z</time>
      </trkpt>
      <trkpt lat="46.4756" lon="5.41714">
        <ele>523.4</ele>
        <time>2022-01-22T14:03:41Z</time>
      </trkpt>
      <trkpt lat="46.4755" lon="5.41706">
        <ele>524</ele>
        <time>2022-01-22T14:03:43Z</time>
      </trkpt>
      <trkpt lat="46.47533" lon="5.41695">
        <ele>524.8</ele>
        <time>2022-01-22T14:03:47Z</time>
      </trkpt>
      <trkpt lat="46.47529" lon="5.41692">
        <ele>525.2</ele>
        <time>2022-01-22T14:03:48Z</time>
      </trkpt>
      <trkpt lat="46.47524" lon="5.41689">
        <ele>525.6</ele>
        <time>2022-01-22T14:03:49Z</time>
      </trkpt>
      <trkpt lat="46.47514" lon="5.41682">
        <ele>526.2</ele>
        <time>2022-01-22T14:03:52Z</time>
      </trkpt>
      <trkpt lat="46.4751" lon="5.41679">
        <ele>526.4</ele>
        <time>2022-01-22T14:03:53Z</time>
      </trkpt>
      <trkpt lat="46.47498" lon="5.4167">
        <ele>527.8</ele>
        <time>2022-01-22T14:03:56Z</time>
      </trkpt>
      <trkpt lat="46.47473" lon="5.41647">
        <ele>528.8</ele>
        <time>2022-01-22T14:04:02Z</time>
      </trkpt>
      <trkpt lat="46.47444" lon="5.41625">
        <ele>529.8</ele>
        <time>2022-01-22T14:04:09Z</time>
      </trkpt>
      <trkpt lat="46.47439" lon="5.41622">
        <ele>530</ele>
        <time>2022-01-22T14:04:10Z</time>
      </trkpt>
      <trkpt lat="46.47424" lon="5.41613">
        <ele>530.8</ele>
        <time>2022-01-22T14:04:14Z</time>
      </trkpt>
      <trkpt lat="46.47407" lon="5.41603">
        <ele>531.4</ele>
        <time>2022-01-22T14:04:18Z</time>
      </trkpt>
      <trkpt lat="46.47384" lon="5.41592">
        <ele>532</ele>
        <time>2022-01-22T14:04:23Z</time>
      </trkpt>
      <trkpt lat="46.47366" lon="5.41583">
        <ele>532.2</ele>
        <time>2022-01-22T14:04:27Z</time>
      </trkpt>
      <trkpt lat="46.47347" lon="5.4157">
        <ele>533.6</ele>
        <time>2022-01-22T14:04:32Z</time>
      </trkpt>
      <trkpt lat="46.47339" lon="5.41564">
        <ele>534</ele>
        <time>2022-01-22T14:04:34Z</time>
      </trkpt>
      <trkpt lat="46.47332" lon="5.41558">
        <ele>534.6</ele>
        <time>2022-01-22T14:04:36Z</time>
      </trkpt>
      <trkpt lat="46.47317" lon="5.41539">
        <ele>535.4</ele>
        <time>2022-01-22T14:04:41Z</time>
      </trkpt>
      <trkpt lat="46.47315" lon="5.41536">
        <ele>535.6</ele>
        <time>2022-01-22T14:04:42Z</time>
      </trkpt>
      <trkpt lat="46.47304" lon="5.41522">
        <ele>536.8</ele>
        <time>2022-01-22T14:04:46Z</time>
      </trkpt>
      <trkpt lat="46.47301" lon="5.41519">
        <ele>537</ele>
        <time>2022-01-22T14:04:47Z</time>
      </trkpt>
      <trkpt lat="46.47293" lon="5.41509">
        <ele>538</ele>
        <time>2022-01-22T14:04:50Z</time>
      </trkpt>
      <trkpt lat="46.47284" lon="5.41495">
        <ele>539.2</ele>
        <time>2022-01-22T14:04:54Z</time>
      </trkpt>
      <trkpt lat="46.47279" lon="5.41486">
        <ele>539.8</ele>
        <time>2022-01-22T14:04:56Z</time>
      </trkpt>
      <trkpt lat="46.47274" lon="5.41479">
        <ele>540.4</ele>
        <time>2022-01-22T14:04:58Z</time>
      </trkpt>
      <trkpt lat="46.47263" lon="5.4146">
        <ele>541.6</ele>
        <time>2022-01-22T14:05:03Z</time>
      </trkpt>
      <trkpt lat="46.47257" lon="5.41449">
        <ele>542.2</ele>
        <time>2022-01-22T14:05:06Z</time>
      </trkpt>
      <trkpt lat="46.47253" lon="5.41441">
        <ele>542.8</ele>
        <time>2022-01-22T14:05:08Z</time>
      </trkpt>
      <trkpt lat="46.47245" lon="5.41426">
        <ele>543.8</ele>
        <time>2022-01-22T14:05:12Z</time>
      </trkpt>
      <trkpt lat="46.47236" lon="5.41409">
        <ele>545</ele>
        <time>2022-01-22T14:05:17Z</time>
      </trkpt>
      <trkpt lat="46.47235" lon="5.41406">
        <ele>545</ele>
        <time>2022-01-22T14:05:18Z</time>
      </trkpt>
      <trkpt lat="46.47223" lon="5.41386">
        <ele>546.2</ele>
        <time>2022-01-22T14:05:24Z</time>
      </trkpt>
      <trkpt lat="46.47216" lon="5.41374">
        <ele>547.2</ele>
        <time>2022-01-22T14:05:28Z</time>
      </trkpt>
      <trkpt lat="46.47214" lon="5.4137">
        <ele>547.4</ele>
        <time>2022-01-22T14:05:29Z</time>
      </trkpt>
      <trkpt lat="46.47201" lon="5.41349">
        <ele>548</ele>
        <time>2022-01-22T14:05:34Z</time>
      </trkpt>
      <trkpt lat="46.47188" lon="5.41322">
        <ele>548.4</ele>
        <time>2022-01-22T14:05:39Z</time>
      </trkpt>
      <trkpt lat="46.47184" lon="5.41309">
        <ele>548.8</ele>
        <time>2022-01-22T14:05:41Z</time>
      </trkpt>
      <trkpt lat="46.47171" lon="5.41258">
        <ele>549.8</ele>
        <time>2022-01-22T14:05:49Z</time>
      </trkpt>
      <trkpt lat="46.4717" lon="5.41251">
        <ele>549.8</ele>
        <time>2022-01-22T14:05:50Z</time>
      </trkpt>
      <trkpt lat="46.47167" lon="5.41229">
        <ele>550.2</ele>
        <time>2022-01-22T14:05:53Z</time>
      </trkpt>
      <trkpt lat="46.47166" lon="5.41222">
        <ele>550.4</ele>
        <time>2022-01-22T14:05:55Z</time>
      </trkpt>
      <trkpt lat="46.47152" lon="5.41167">
        <ele>550</ele>
        <time>2022-01-22T14:06:01Z</time>
      </trkpt>
      <trkpt lat="46.47129" lon="5.41113">
        <ele>549.4</ele>
        <time>2022-01-22T14:06:08Z</time>
      </trkpt>
      <trkpt lat="46.47104" lon="5.41071">
        <ele>548.6</ele>
        <time>2022-01-22T14:06:15Z</time>
      </trkpt>
      <trkpt lat="46.471" lon="5.41065">
        <ele>548.6</ele>
        <time>2022-01-22T14:06:16Z</time>
      </trkpt>
      <trkpt lat="46.47091" lon="5.41055">
        <ele>548.6</ele>
        <time>2022-01-22T14:06:17Z</time>
      </trkpt>
      <trkpt lat="46.47078" lon="5.41042">
        <ele>549</ele>
        <time>2022-01-22T14:06:20Z</time>
      </trkpt>
      <trkpt lat="46.47052" lon="5.41019">
        <ele>550</ele>
        <time>2022-01-22T14:06:26Z</time>
      </trkpt>
      <trkpt lat="46.47047" lon="5.41014">
        <ele>550.8</ele>
        <time>2022-01-22T14:06:27Z</time>
      </trkpt>
      <trkpt lat="46.47043" lon="5.4101">
        <ele>551.4</ele>
        <time>2022-01-22T14:06:28Z</time>
      </trkpt>
      <trkpt lat="46.47012" lon="5.40973">
        <ele>552.4</ele>
        <time>2022-01-22T14:06:35Z</time>
      </trkpt>
      <trkpt lat="46.46997" lon="5.40943">
        <ele>553</ele>
        <time>2022-01-22T14:06:41Z</time>
      </trkpt>
      <trkpt lat="46.4699" lon="5.40923">
        <ele>553.4</ele>
        <time>2022-01-22T14:06:43Z</time>
      </trkpt>
      <trkpt lat="46.46986" lon="5.40906">
        <ele>554</ele>
        <time>2022-01-22T14:06:46Z</time>
      </trkpt>
      <trkpt lat="46.46984" lon="5.40891">
        <ele>554.6</ele>
        <time>2022-01-22T14:06:48Z</time>
      </trkpt>
      <trkpt lat="46.46978" lon="5.40842">
        <ele>555.8</ele>
        <time>2022-01-22T14:06:55Z</time>
      </trkpt>
      <trkpt lat="46.46971" lon="5.40784">
        <ele>556.8</ele>
        <time>2022-01-22T14:07:03Z</time>
      </trkpt>
      <trkpt lat="46.4697" lon="5.40778">
        <ele>556.8</ele>
        <time>2022-01-22T14:07:04Z</time>
      </trkpt>
      <trkpt lat="46.46964" lon="5.40741">
        <ele>556.6</ele>
        <time>2022-01-22T14:07:09Z</time>
      </trkpt>
      <trkpt lat="46.46953" lon="5.40679">
        <ele>555</ele>
        <time>2022-01-22T14:07:15Z</time>
      </trkpt>
      <trkpt lat="46.46952" lon="5.40671">
        <ele>554.8</ele>
        <time>2022-01-22T14:07:16Z</time>
      </trkpt>
      <trkpt lat="46.4695" lon="5.40648">
        <ele>553.6</ele>
        <time>2022-01-22T14:07:19Z</time>
      </trkpt>
      <trkpt lat="46.46949" lon="5.40642">
        <ele>552.8</ele>
        <time>2022-01-22T14:07:20Z</time>
      </trkpt>
      <trkpt lat="46.46947" lon="5.40626">
        <ele>552</ele>
        <time>2022-01-22T14:07:22Z</time>
      </trkpt>
      <trkpt lat="46.46942" lon="5.40576">
        <ele>551.6</ele>
        <time>2022-01-22T14:07:28Z</time>
      </trkpt>
      <trkpt lat="46.46938" lon="5.40527">
        <ele>551</ele>
        <time>2022-01-22T14:07:33Z</time>
      </trkpt>
      <trkpt lat="46.46936" lon="5.40507">
        <ele>550.8</ele>
        <time>2022-01-22T14:07:35Z</time>
      </trkpt>
      <trkpt lat="46.46929" lon="5.40448">
        <ele>550.2</ele>
        <time>2022-01-22T14:07:41Z</time>
      </trkpt>
      <trkpt lat="46.46927" lon="5.40437">
        <ele>550</ele>
        <time>2022-01-22T14:07:42Z</time>
      </trkpt>
      <trkpt lat="46.4692" lon="5.4037">
        <ele>549</ele>
        <time>2022-01-22T14:07:48Z</time>
      </trkpt>
      <trkpt lat="46.4692" lon="5.40359">
        <ele>548.8</ele>
        <time>2022-01-22T14:07:49Z</time>
      </trkpt>
      <trkpt lat="46.46918" lon="5.40331">
        <ele>547.8</ele>
        <time>2022-01-22T14:07:52Z</time>
      </trkpt>
      <trkpt lat="46.46917" lon="5.40322">
        <ele>547.4</ele>
        <time>2022-01-22T14:07:53Z</time>
      </trkpt>
      <trkpt lat="46.46916" lon="5.40294">
        <ele>546.8</ele>
        <time>2022-01-22T14:07:58Z</time>
      </trkpt>
      <trkpt lat="46.46918" lon="5.40284">
        <ele>546.6</ele>
        <time>2022-01-22T14:08:01Z</time>
      </trkpt>
      <trkpt lat="46.46927" lon="5.40284">
        <ele>546.8</ele>
        <time>2022-01-22T14:08:06Z</time>
      </trkpt>
      <trkpt lat="46.46944" lon="5.40294">
        <ele>547.2</ele>
        <time>2022-01-22T14:08:11Z</time>
      </trkpt>
      <trkpt lat="46.46964" lon="5.40301">
        <ele>547.4</ele>
        <time>2022-01-22T14:08:15Z</time>
      </trkpt>
      <trkpt lat="46.46968" lon="5.40302">
        <ele>547.4</ele>
        <time>2022-01-22T14:08:16Z</time>
      </trkpt>
      <trkpt lat="46.46977" lon="5.40305">
        <ele>547.8</ele>
        <time>2022-01-22T14:08:18Z</time>
      </trkpt>
      <trkpt lat="46.46985" lon="5.40311">
        <ele>548.4</ele>
        <time>2022-01-22T14:08:20Z</time>
      </trkpt>
      <trkpt lat="46.4699" lon="5.40313">
        <ele>548.8</ele>
        <time>2022-01-22T14:08:21Z</time>
      </trkpt>
      <trkpt lat="46.4699" lon="5.40313">
        <ele>549</ele>
        <time>2022-01-22T14:08:22Z</time>
      </trkpt>
      <trkpt lat="46.47026" lon="5.40323">
        <ele>550</ele>
        <time>2022-01-22T14:08:28Z</time>
      </trkpt>
      <trkpt lat="46.47038" lon="5.40324">
        <ele>550.2</ele>
        <time>2022-01-22T14:08:30Z</time>
      </trkpt>
      <trkpt lat="46.47083" lon="5.40328">
        <ele>550</ele>
        <time>2022-01-22T14:08:39Z</time>
      </trkpt>
      <trkpt lat="46.47103" lon="5.40329">
        <ele>549.2</ele>
        <time>2022-01-22T14:08:43Z</time>
      </trkpt>
      <trkpt lat="46.47115" lon="5.40329">
        <ele>548.8</ele>
        <time>2022-01-22T14:08:44Z</time>
      </trkpt>
      <trkpt lat="46.47128" lon="5.40332">
        <ele>547.4</ele>
        <time>2022-01-22T14:08:46Z</time>
      </trkpt>
      <trkpt lat="46.47139" lon="5.40333">
        <ele>546.4</ele>
        <time>2022-01-22T14:08:48Z</time>
      </trkpt>
      <trkpt lat="46.47158" lon="5.40336">
        <ele>545.2</ele>
        <time>2022-01-22T14:08:51Z</time>
      </trkpt>
      <trkpt lat="46.47178" lon="5.40344">
        <ele>545</ele>
        <time>2022-01-22T14:08:52Z</time>
      </trkpt>
      <trkpt lat="46.47197" lon="5.40359">
        <ele>544.8</ele>
        <time>2022-01-22T14:08:54Z</time>
      </trkpt>
      <trkpt lat="46.47214" lon="5.40377">
        <ele>544.4</ele>
        <time>2022-01-22T14:08:56Z</time>
      </trkpt>
      <trkpt lat="46.47219" lon="5.40385">
        <ele>543.4</ele>
        <time>2022-01-22T14:08:57Z</time>
      </trkpt>
      <trkpt lat="46.47226" lon="5.40395">
        <ele>543</ele>
        <time>2022-01-22T14:08:58Z</time>
      </trkpt>
      <trkpt lat="46.47232" lon="5.40403">
        <ele>542.2</ele>
        <time>2022-01-22T14:08:59Z</time>
      </trkpt>
      <trkpt lat="46.47239" lon="5.40409">
        <ele>541.6</ele>
        <time>2022-01-22T14:09:00Z</time>
      </trkpt>
      <trkpt lat="46.47257" lon="5.40416">
        <ele>541</ele>
        <time>2022-01-22T14:09:02Z</time>
      </trkpt>
      <trkpt lat="46.47293" lon="5.4043">
        <ele>539.6</ele>
        <time>2022-01-22T14:09:06Z</time>
      </trkpt>
      <trkpt lat="46.47312" lon="5.40435">
        <ele>538.8</ele>
        <time>2022-01-22T14:09:08Z</time>
      </trkpt>
      <trkpt lat="46.47321" lon="5.40437">
        <ele>538</ele>
        <time>2022-01-22T14:09:09Z</time>
      </trkpt>
      <trkpt lat="46.4734" lon="5.4044">
        <ele>536.8</ele>
        <time>2022-01-22T14:09:11Z</time>
      </trkpt>
      <trkpt lat="46.47367" lon="5.40442">
        <ele>535.8</ele>
        <time>2022-01-22T14:09:14Z</time>
      </trkpt>
      <trkpt lat="46.47377" lon="5.40442">
        <ele>535.6</ele>
        <time>2022-01-22T14:09:15Z</time>
      </trkpt>
      <trkpt lat="46.47386" lon="5.40443">
        <ele>534.8</ele>
        <time>2022-01-22T14:09:16Z</time>
      </trkpt>
      <trkpt lat="46.47415" lon="5.40439">
        <ele>533.4</ele>
        <time>2022-01-22T14:09:19Z</time>
      </trkpt>
      <trkpt lat="46.47425" lon="5.40439">
        <ele>532.8</ele>
        <time>2022-01-22T14:09:20Z</time>
      </trkpt>
      <trkpt lat="46.47444" lon="5.40438">
        <ele>532.2</ele>
        <time>2022-01-22T14:09:22Z</time>
      </trkpt>
      <trkpt lat="46.47455" lon="5.40439">
        <ele>531</ele>
        <time>2022-01-22T14:09:24Z</time>
      </trkpt>
      <trkpt lat="46.47475" lon="5.40441">
        <ele>529.8</ele>
        <time>2022-01-22T14:09:25Z</time>
      </trkpt>
      <trkpt lat="46.47483" lon="5.40443">
        <ele>529.4</ele>
        <time>2022-01-22T14:09:26Z</time>
      </trkpt>
      <trkpt lat="46.47488" lon="5.40445">
        <ele>528.6</ele>
        <time>2022-01-22T14:09:27Z</time>
      </trkpt>
      <trkpt lat="46.47499" lon="5.40451">
        <ele>527.8</ele>
        <time>2022-01-22T14:09:29Z</time>
      </trkpt>
      <trkpt lat="46.47499" lon="5.40451">
        <ele>527.2</ele>
        <time>2022-01-22T14:09:30Z</time>
      </trkpt>
      <trkpt lat="46.47507" lon="5.40463">
        <ele>526.6</ele>
        <time>2022-01-22T14:09:31Z</time>
      </trkpt>
      <trkpt lat="46.47511" lon="5.40469">
        <ele>526.2</ele>
        <time>2022-01-22T14:09:32Z</time>
      </trkpt>
      <trkpt lat="46.47514" lon="5.40472">
        <ele>525.2</ele>
        <time>2022-01-22T14:09:33Z</time>
      </trkpt>
      <trkpt lat="46.47521" lon="5.40475">
        <ele>524.6</ele>
        <time>2022-01-22T14:09:34Z</time>
      </trkpt>
      <trkpt lat="46.47527" lon="5.40475">
        <ele>524.2</ele>
        <time>2022-01-22T14:09:35Z</time>
      </trkpt>
      <trkpt lat="46.47535" lon="5.4047">
        <ele>523.8</ele>
        <time>2022-01-22T14:09:37Z</time>
      </trkpt>
      <trkpt lat="46.47538" lon="5.40464">
        <ele>523.6</ele>
        <time>2022-01-22T14:09:38Z</time>
      </trkpt>
      <trkpt lat="46.4754" lon="5.40458">
        <ele>523.2</ele>
        <time>2022-01-22T14:09:39Z</time>
      </trkpt>
      <trkpt lat="46.47542" lon="5.40442">
        <ele>522.4</ele>
        <time>2022-01-22T14:09:41Z</time>
      </trkpt>
      <trkpt lat="46.47543" lon="5.40435">
        <ele>522</ele>
        <time>2022-01-22T14:09:42Z</time>
      </trkpt>
      <trkpt lat="46.47545" lon="5.40415">
        <ele>521.4</ele>
        <time>2022-01-22T14:09:44Z</time>
      </trkpt>
      <trkpt lat="46.47544" lon="5.40406">
        <ele>521</ele>
        <time>2022-01-22T14:09:45Z</time>
      </trkpt>
      <trkpt lat="46.47543" lon="5.40397">
        <ele>521</ele>
        <time>2022-01-22T14:09:46Z</time>
      </trkpt>
      <trkpt lat="46.4754" lon="5.40388">
        <ele>520.2</ele>
        <time>2022-01-22T14:09:47Z</time>
      </trkpt>
      <trkpt lat="46.47537" lon="5.4038">
        <ele>519.6</ele>
        <time>2022-01-22T14:09:48Z</time>
      </trkpt>
      <trkpt lat="46.47534" lon="5.40372">
        <ele>519</ele>
        <time>2022-01-22T14:09:49Z</time>
      </trkpt>
      <trkpt lat="46.47528" lon="5.40349">
        <ele>518.6</ele>
        <time>2022-01-22T14:09:51Z</time>
      </trkpt>
      <trkpt lat="46.47527" lon="5.40339">
        <ele>518.4</ele>
        <time>2022-01-22T14:09:52Z</time>
      </trkpt>
      <trkpt lat="46.47527" lon="5.40327">
        <ele>518.2</ele>
        <time>2022-01-22T14:09:53Z</time>
      </trkpt>
      <trkpt lat="46.47527" lon="5.40327">
        <ele>517.8</ele>
        <time>2022-01-22T14:09:54Z</time>
      </trkpt>
      <trkpt lat="46.47534" lon="5.40304">
        <ele>517.6</ele>
        <time>2022-01-22T14:09:55Z</time>
      </trkpt>
      <trkpt lat="46.47543" lon="5.40287">
        <ele>516.8</ele>
        <time>2022-01-22T14:09:57Z</time>
      </trkpt>
      <trkpt lat="46.47549" lon="5.40279">
        <ele>516.2</ele>
        <time>2022-01-22T14:09:58Z</time>
      </trkpt>
      <trkpt lat="46.47558" lon="5.40268">
        <ele>516</ele>
        <time>2022-01-22T14:09:59Z</time>
      </trkpt>
      <trkpt lat="46.47573" lon="5.40256">
        <ele>514.8</ele>
        <time>2022-01-22T14:10:01Z</time>
      </trkpt>
      <trkpt lat="46.47582" lon="5.40252">
        <ele>514.6</ele>
        <time>2022-01-22T14:10:02Z</time>
      </trkpt>
      <trkpt lat="46.47596" lon="5.40248">
        <ele>513.8</ele>
        <time>2022-01-22T14:10:04Z</time>
      </trkpt>
      <trkpt lat="46.47617" lon="5.40244">
        <ele>512.8</ele>
        <time>2022-01-22T14:10:06Z</time>
      </trkpt>
      <trkpt lat="46.47625" lon="5.40243">
        <ele>512.2</ele>
        <time>2022-01-22T14:10:07Z</time>
      </trkpt>
      <trkpt lat="46.47634" lon="5.40241">
        <ele>511.6</ele>
        <time>2022-01-22T14:10:08Z</time>
      </trkpt>
      <trkpt lat="46.4766" lon="5.40238">
        <ele>510.4</ele>
        <time>2022-01-22T14:10:11Z</time>
      </trkpt>
      <trkpt lat="46.47668" lon="5.40238">
        <ele>509.8</ele>
        <time>2022-01-22T14:10:12Z</time>
      </trkpt>
      <trkpt lat="46.47675" lon="5.40237">
        <ele>509.2</ele>
        <time>2022-01-22T14:10:13Z</time>
      </trkpt>
      <trkpt lat="46.47684" lon="5.40235">
        <ele>508.6</ele>
        <time>2022-01-22T14:10:14Z</time>
      </trkpt>
      <trkpt lat="46.47692" lon="5.40231">
        <ele>508.2</ele>
        <time>2022-01-22T14:10:15Z</time>
      </trkpt>
      <trkpt lat="46.47699" lon="5.40227">
        <ele>507.6</ele>
        <time>2022-01-22T14:10:16Z</time>
      </trkpt>
      <trkpt lat="46.47705" lon="5.40222">
        <ele>507.2</ele>
        <time>2022-01-22T14:10:17Z</time>
      </trkpt>
      <trkpt lat="46.4771" lon="5.40214">
        <ele>507</ele>
        <time>2022-01-22T14:10:18Z</time>
      </trkpt>
      <trkpt lat="46.47718" lon="5.40193">
        <ele>506.4</ele>
        <time>2022-01-22T14:10:20Z</time>
      </trkpt>
      <trkpt lat="46.47722" lon="5.40183">
        <ele>505.8</ele>
        <time>2022-01-22T14:10:21Z</time>
      </trkpt>
      <trkpt lat="46.47727" lon="5.40173">
        <ele>505.4</ele>
        <time>2022-01-22T14:10:22Z</time>
      </trkpt>
      <trkpt lat="46.47739" lon="5.40159">
        <ele>504.8</ele>
        <time>2022-01-22T14:10:24Z</time>
      </trkpt>
      <trkpt lat="46.47746" lon="5.40148">
        <ele>504.6</ele>
        <time>2022-01-22T14:10:25Z</time>
      </trkpt>
      <trkpt lat="46.47756" lon="5.40126">
        <ele>504.4</ele>
        <time>2022-01-22T14:10:27Z</time>
      </trkpt>
      <trkpt lat="46.47761" lon="5.40111">
        <ele>503.6</ele>
        <time>2022-01-22T14:10:28Z</time>
      </trkpt>
      <trkpt lat="46.47767" lon="5.40075">
        <ele>502.4</ele>
        <time>2022-01-22T14:10:31Z</time>
      </trkpt>
      <trkpt lat="46.47766" lon="5.4006">
        <ele>501.4</ele>
        <time>2022-01-22T14:10:32Z</time>
      </trkpt>
      <trkpt lat="46.47765" lon="5.40032">
        <ele>500.2</ele>
        <time>2022-01-22T14:10:34Z</time>
      </trkpt>
      <trkpt lat="46.47766" lon="5.40019">
        <ele>499.6</ele>
        <time>2022-01-22T14:10:35Z</time>
      </trkpt>
      <trkpt lat="46.47768" lon="5.40011">
        <ele>499.2</ele>
        <time>2022-01-22T14:10:36Z</time>
      </trkpt>
      <trkpt lat="46.47771" lon="5.40002">
        <ele>498.6</ele>
        <time>2022-01-22T14:10:37Z</time>
      </trkpt>
      <trkpt lat="46.47776" lon="5.39995">
        <ele>498.4</ele>
        <time>2022-01-22T14:10:38Z</time>
      </trkpt>
      <trkpt lat="46.47784" lon="5.39991">
        <ele>497.8</ele>
        <time>2022-01-22T14:10:39Z</time>
      </trkpt>
      <trkpt lat="46.47792" lon="5.39988">
        <ele>497.6</ele>
        <time>2022-01-22T14:10:40Z</time>
      </trkpt>
      <trkpt lat="46.47809" lon="5.39981">
        <ele>496.6</ele>
        <time>2022-01-22T14:10:42Z</time>
      </trkpt>
      <trkpt lat="46.47817" lon="5.39977">
        <ele>496.2</ele>
        <time>2022-01-22T14:10:43Z</time>
      </trkpt>
      <trkpt lat="46.47843" lon="5.39963">
        <ele>494.8</ele>
        <time>2022-01-22T14:10:46Z</time>
      </trkpt>
      <trkpt lat="46.47854" lon="5.39958">
        <ele>494.4</ele>
        <time>2022-01-22T14:10:47Z</time>
      </trkpt>
      <trkpt lat="46.47861" lon="5.39954">
        <ele>493.6</ele>
        <time>2022-01-22T14:10:48Z</time>
      </trkpt>
      <trkpt lat="46.4787" lon="5.39949">
        <ele>492.2</ele>
        <time>2022-01-22T14:10:49Z</time>
      </trkpt>
      <trkpt lat="46.47888" lon="5.3994">
        <ele>491</ele>
        <time>2022-01-22T14:10:51Z</time>
      </trkpt>
      <trkpt lat="46.47906" lon="5.3993">
        <ele>490</ele>
        <time>2022-01-22T14:10:53Z</time>
      </trkpt>
      <trkpt lat="46.47915" lon="5.39925">
        <ele>489.8</ele>
        <time>2022-01-22T14:10:54Z</time>
      </trkpt>
      <trkpt lat="46.47935" lon="5.39915">
        <ele>489</ele>
        <time>2022-01-22T14:10:56Z</time>
      </trkpt>
      <trkpt lat="46.47953" lon="5.39905">
        <ele>488</ele>
        <time>2022-01-22T14:10:58Z</time>
      </trkpt>
      <trkpt lat="46.47969" lon="5.39898">
        <ele>486.8</ele>
        <time>2022-01-22T14:11:00Z</time>
      </trkpt>
      <trkpt lat="46.47986" lon="5.3989">
        <ele>486</ele>
        <time>2022-01-22T14:11:02Z</time>
      </trkpt>
      <trkpt lat="46.47994" lon="5.39886">
        <ele>485.6</ele>
        <time>2022-01-22T14:11:03Z</time>
      </trkpt>
      <trkpt lat="46.48011" lon="5.39882">
        <ele>485</ele>
        <time>2022-01-22T14:11:05Z</time>
      </trkpt>
      <trkpt lat="46.4802" lon="5.39882">
        <ele>484.8</ele>
        <time>2022-01-22T14:11:06Z</time>
      </trkpt>
      <trkpt lat="46.48026" lon="5.39883">
        <ele>484.6</ele>
        <time>2022-01-22T14:11:07Z</time>
      </trkpt>
      <trkpt lat="46.48048" lon="5.39895">
        <ele>484.4</ele>
        <time>2022-01-22T14:11:10Z</time>
      </trkpt>
      <trkpt lat="46.48079" lon="5.39909">
        <ele>484.2</ele>
        <time>2022-01-22T14:11:15Z</time>
      </trkpt>
      <trkpt lat="46.48087" lon="5.3991">
        <ele>484.2</ele>
        <time>2022-01-22T14:11:16Z</time>
      </trkpt>
      <trkpt lat="46.48111" lon="5.39906">
        <ele>483.8</ele>
        <time>2022-01-22T14:11:20Z</time>
      </trkpt>
      <trkpt lat="46.48161" lon="5.39885">
        <ele>484</ele>
        <time>2022-01-22T14:11:28Z</time>
      </trkpt>
      <trkpt lat="46.48185" lon="5.39869">
        <ele>483.8</ele>
        <time>2022-01-22T14:11:32Z</time>
      </trkpt>
      <trkpt lat="46.48195" lon="5.39857">
        <ele>483.4</ele>
        <time>2022-01-22T14:11:34Z</time>
      </trkpt>
      <trkpt lat="46.48201" lon="5.39841">
        <ele>483.2</ele>
        <time>2022-01-22T14:11:36Z</time>
      </trkpt>
      <trkpt lat="46.48202" lon="5.39831">
        <ele>483</ele>
        <time>2022-01-22T14:11:37Z</time>
      </trkpt>
      <trkpt lat="46.482" lon="5.39822">
        <ele>483</ele>
        <time>2022-01-22T14:11:38Z</time>
      </trkpt>
      <trkpt lat="46.48194" lon="5.39785">
        <ele>482.6</ele>
        <time>2022-01-22T14:11:42Z</time>
      </trkpt>
      <trkpt lat="46.48193" lon="5.39775">
        <ele>482.4</ele>
        <time>2022-01-22T14:11:43Z</time>
      </trkpt>
      <trkpt lat="46.48182" lon="5.39693">
        <ele>481.2</ele>
        <time>2022-01-22T14:11:51Z</time>
      </trkpt>
      <trkpt lat="46.48185" lon="5.39647">
        <ele>480.6</ele>
        <time>2022-01-22T14:11:55Z</time>
      </trkpt>
      <trkpt lat="46.48191" lon="5.39624">
        <ele>480.4</ele>
        <time>2022-01-22T14:11:57Z</time>
      </trkpt>
      <trkpt lat="46.48197" lon="5.3961">
        <ele>480.2</ele>
        <time>2022-01-22T14:11:58Z</time>
      </trkpt>
      <trkpt lat="46.48201" lon="5.39598">
        <ele>479.6</ele>
        <time>2022-01-22T14:11:59Z</time>
      </trkpt>
      <trkpt lat="46.48205" lon="5.39585">
        <ele>479.2</ele>
        <time>2022-01-22T14:12:00Z</time>
      </trkpt>
      <trkpt lat="46.48208" lon="5.39575">
        <ele>477.8</ele>
        <time>2022-01-22T14:12:01Z</time>
      </trkpt>
      <trkpt lat="46.48214" lon="5.39548">
        <ele>476.6</ele>
        <time>2022-01-22T14:12:03Z</time>
      </trkpt>
      <trkpt lat="46.48217" lon="5.39533">
        <ele>476.4</ele>
        <time>2022-01-22T14:12:04Z</time>
      </trkpt>
      <trkpt lat="46.48222" lon="5.3951">
        <ele>475.4</ele>
        <time>2022-01-22T14:12:06Z</time>
      </trkpt>
      <trkpt lat="46.48226" lon="5.39499">
        <ele>474</ele>
        <time>2022-01-22T14:12:07Z</time>
      </trkpt>
      <trkpt lat="46.48226" lon="5.39499">
        <ele>472.8</ele>
        <time>2022-01-22T14:12:08Z</time>
      </trkpt>
      <trkpt lat="46.48237" lon="5.39481">
        <ele>472.6</ele>
        <time>2022-01-22T14:12:09Z</time>
      </trkpt>
      <trkpt lat="46.48244" lon="5.39473">
        <ele>472</ele>
        <time>2022-01-22T14:12:10Z</time>
      </trkpt>
      <trkpt lat="46.48249" lon="5.3947">
        <ele>471.6</ele>
        <time>2022-01-22T14:12:11Z</time>
      </trkpt>
      <trkpt lat="46.48256" lon="5.39467">
        <ele>470.2</ele>
        <time>2022-01-22T14:12:12Z</time>
      </trkpt>
      <trkpt lat="46.48272" lon="5.39463">
        <ele>468.8</ele>
        <time>2022-01-22T14:12:14Z</time>
      </trkpt>
      <trkpt lat="46.48279" lon="5.39462">
        <ele>467.4</ele>
        <time>2022-01-22T14:12:15Z</time>
      </trkpt>
      <trkpt lat="46.48286" lon="5.39459">
        <ele>466.8</ele>
        <time>2022-01-22T14:12:16Z</time>
      </trkpt>
      <trkpt lat="46.48293" lon="5.39454">
        <ele>465.6</ele>
        <time>2022-01-22T14:12:17Z</time>
      </trkpt>
      <trkpt lat="46.48298" lon="5.39447">
        <ele>465</ele>
        <time>2022-01-22T14:12:18Z</time>
      </trkpt>
      <trkpt lat="46.48303" lon="5.39434">
        <ele>464.2</ele>
        <time>2022-01-22T14:12:19Z</time>
      </trkpt>
      <trkpt lat="46.48307" lon="5.3941">
        <ele>463</ele>
        <time>2022-01-22T14:12:21Z</time>
      </trkpt>
      <trkpt lat="46.48312" lon="5.39387">
        <ele>462</ele>
        <time>2022-01-22T14:12:23Z</time>
      </trkpt>
      <trkpt lat="46.48323" lon="5.3936">
        <ele>460.8</ele>
        <time>2022-01-22T14:12:25Z</time>
      </trkpt>
      <trkpt lat="46.48344" lon="5.3933">
        <ele>459.6</ele>
        <time>2022-01-22T14:12:28Z</time>
      </trkpt>
      <trkpt lat="46.48353" lon="5.39322">
        <ele>459</ele>
        <time>2022-01-22T14:12:29Z</time>
      </trkpt>
      <trkpt lat="46.48362" lon="5.39317">
        <ele>457.6</ele>
        <time>2022-01-22T14:12:30Z</time>
      </trkpt>
      <trkpt lat="46.48378" lon="5.39312">
        <ele>456.4</ele>
        <time>2022-01-22T14:12:32Z</time>
      </trkpt>
      <trkpt lat="46.48388" lon="5.39313">
        <ele>455.4</ele>
        <time>2022-01-22T14:12:33Z</time>
      </trkpt>
      <trkpt lat="46.4841" lon="5.39317">
        <ele>453.2</ele>
        <time>2022-01-22T14:12:35Z</time>
      </trkpt>
      <trkpt lat="46.48422" lon="5.39318">
        <ele>452.6</ele>
        <time>2022-01-22T14:12:36Z</time>
      </trkpt>
      <trkpt lat="46.4843" lon="5.39317">
        <ele>451.6</ele>
        <time>2022-01-22T14:12:37Z</time>
      </trkpt>
      <trkpt lat="46.48455" lon="5.39311">
        <ele>450.6</ele>
        <time>2022-01-22T14:12:39Z</time>
      </trkpt>
      <trkpt lat="46.48467" lon="5.39308">
        <ele>450.2</ele>
        <time>2022-01-22T14:12:40Z</time>
      </trkpt>
      <trkpt lat="46.4848" lon="5.39306">
        <ele>449</ele>
        <time>2022-01-22T14:12:41Z</time>
      </trkpt>
      <trkpt lat="46.48489" lon="5.39304">
        <ele>447.6</ele>
        <time>2022-01-22T14:12:42Z</time>
      </trkpt>
      <trkpt lat="46.48517" lon="5.39298">
        <ele>446</ele>
        <time>2022-01-22T14:12:44Z</time>
      </trkpt>
      <trkpt lat="46.48529" lon="5.39295">
        <ele>445</ele>
        <time>2022-01-22T14:12:45Z</time>
      </trkpt>
      <trkpt lat="46.48541" lon="5.3929">
        <ele>443.8</ele>
        <time>2022-01-22T14:12:46Z</time>
      </trkpt>
      <trkpt lat="46.48563" lon="5.39286">
        <ele>442.6</ele>
        <time>2022-01-22T14:12:48Z</time>
      </trkpt>
      <trkpt lat="46.48589" lon="5.39281">
        <ele>440.4</ele>
        <time>2022-01-22T14:12:50Z</time>
      </trkpt>
      <trkpt lat="46.48601" lon="5.39278">
        <ele>439.2</ele>
        <time>2022-01-22T14:12:51Z</time>
      </trkpt>
      <trkpt lat="46.48611" lon="5.39276">
        <ele>438.6</ele>
        <time>2022-01-22T14:12:52Z</time>
      </trkpt>
      <trkpt lat="46.48623" lon="5.39274">
        <ele>437.6</ele>
        <time>2022-01-22T14:12:53Z</time>
      </trkpt>
      <trkpt lat="46.48647" lon="5.39271">
        <ele>436</ele>
        <time>2022-01-22T14:12:55Z</time>
      </trkpt>
      <trkpt lat="46.48658" lon="5.39272">
        <ele>435.4</ele>
        <time>2022-01-22T14:12:56Z</time>
      </trkpt>
      <trkpt lat="46.48668" lon="5.39274">
        <ele>434</ele>
        <time>2022-01-22T14:12:57Z</time>
      </trkpt>
      <trkpt lat="46.48677" lon="5.39276">
        <ele>432.4</ele>
        <time>2022-01-22T14:12:59Z</time>
      </trkpt>
      <trkpt lat="46.48694" lon="5.39283">
        <ele>431.2</ele>
        <time>2022-01-22T14:13:00Z</time>
      </trkpt>
      <trkpt lat="46.48709" lon="5.39293">
        <ele>429.8</ele>
        <time>2022-01-22T14:13:02Z</time>
      </trkpt>
      <trkpt lat="46.48716" lon="5.39297">
        <ele>429.2</ele>
        <time>2022-01-22T14:13:03Z</time>
      </trkpt>
      <trkpt lat="46.48722" lon="5.39299">
        <ele>427.6</ele>
        <time>2022-01-22T14:13:04Z</time>
      </trkpt>
      <trkpt lat="46.48728" lon="5.39297">
        <ele>427</ele>
        <time>2022-01-22T14:13:05Z</time>
      </trkpt>
      <trkpt lat="46.48732" lon="5.39292">
        <ele>426.2</ele>
        <time>2022-01-22T14:13:06Z</time>
      </trkpt>
      <trkpt lat="46.48733" lon="5.39284">
        <ele>424.4</ele>
        <time>2022-01-22T14:13:07Z</time>
      </trkpt>
      <trkpt lat="46.48732" lon="5.39276">
        <ele>423.8</ele>
        <time>2022-01-22T14:13:08Z</time>
      </trkpt>
      <trkpt lat="46.4873" lon="5.39268">
        <ele>422.6</ele>
        <time>2022-01-22T14:13:09Z</time>
      </trkpt>
      <trkpt lat="46.48727" lon="5.39261">
        <ele>422</ele>
        <time>2022-01-22T14:13:10Z</time>
      </trkpt>
      <trkpt lat="46.48722" lon="5.39254">
        <ele>420.8</ele>
        <time>2022-01-22T14:13:11Z</time>
      </trkpt>
      <trkpt lat="46.48715" lon="5.39245">
        <ele>420.2</ele>
        <time>2022-01-22T14:13:12Z</time>
      </trkpt>
      <trkpt lat="46.48707" lon="5.39234">
        <ele>419.4</ele>
        <time>2022-01-22T14:13:13Z</time>
      </trkpt>
      <trkpt lat="46.48691" lon="5.39212">
        <ele>417.8</ele>
        <time>2022-01-22T14:13:15Z</time>
      </trkpt>
      <trkpt lat="46.48682" lon="5.392">
        <ele>416.8</ele>
        <time>2022-01-22T14:13:16Z</time>
      </trkpt>
      <trkpt lat="46.48666" lon="5.39174">
        <ele>415.4</ele>
        <time>2022-01-22T14:13:18Z</time>
      </trkpt>
      <trkpt lat="46.48657" lon="5.3916">
        <ele>415</ele>
        <time>2022-01-22T14:13:19Z</time>
      </trkpt>
      <trkpt lat="46.48647" lon="5.39147">
        <ele>414</ele>
        <time>2022-01-22T14:13:20Z</time>
      </trkpt>
      <trkpt lat="46.48625" lon="5.39126">
        <ele>412.8</ele>
        <time>2022-01-22T14:13:22Z</time>
      </trkpt>
      <trkpt lat="46.48602" lon="5.39108">
        <ele>411.2</ele>
        <time>2022-01-22T14:13:24Z</time>
      </trkpt>
      <trkpt lat="46.4859" lon="5.391">
        <ele>409.6</ele>
        <time>2022-01-22T14:13:25Z</time>
      </trkpt>
      <trkpt lat="46.48565" lon="5.39085">
        <ele>408</ele>
        <time>2022-01-22T14:13:27Z</time>
      </trkpt>
      <trkpt lat="46.48539" lon="5.39071">
        <ele>406.2</ele>
        <time>2022-01-22T14:13:29Z</time>
      </trkpt>
      <trkpt lat="46.48527" lon="5.39061">
        <ele>405.6</ele>
        <time>2022-01-22T14:13:30Z</time>
      </trkpt>
      <trkpt lat="46.48527" lon="5.39061">
        <ele>404.6</ele>
        <time>2022-01-22T14:13:31Z</time>
      </trkpt>
      <trkpt lat="46.48506" lon="5.39036">
        <ele>402.8</ele>
        <time>2022-01-22T14:13:32Z</time>
      </trkpt>
      <trkpt lat="46.48499" lon="5.3902">
        <ele>402</ele>
        <time>2022-01-22T14:13:33Z</time>
      </trkpt>
      <trkpt lat="46.48494" lon="5.39001">
        <ele>399.4</ele>
        <time>2022-01-22T14:13:34Z</time>
      </trkpt>
      <trkpt lat="46.48484" lon="5.38968">
        <ele>397.4</ele>
        <time>2022-01-22T14:13:36Z</time>
      </trkpt>
      <trkpt lat="46.48472" lon="5.3894">
        <ele>395</ele>
        <time>2022-01-22T14:13:38Z</time>
      </trkpt>
      <trkpt lat="46.48465" lon="5.38929">
        <ele>394.2</ele>
        <time>2022-01-22T14:13:39Z</time>
      </trkpt>
      <trkpt lat="46.4846" lon="5.38917">
        <ele>393</ele>
        <time>2022-01-22T14:13:40Z</time>
      </trkpt>
      <trkpt lat="46.48455" lon="5.38905">
        <ele>391.6</ele>
        <time>2022-01-22T14:13:41Z</time>
      </trkpt>
      <trkpt lat="46.48452" lon="5.38892">
        <ele>391</ele>
        <time>2022-01-22T14:13:42Z</time>
      </trkpt>
      <trkpt lat="46.48452" lon="5.38878">
        <ele>389.6</ele>
        <time>2022-01-22T14:13:43Z</time>
      </trkpt>
      <trkpt lat="46.48454" lon="5.38867">
        <ele>389.2</ele>
        <time>2022-01-22T14:13:44Z</time>
      </trkpt>
      <trkpt lat="46.48458" lon="5.38855">
        <ele>388.4</ele>
        <time>2022-01-22T14:13:45Z</time>
      </trkpt>
      <trkpt lat="46.48465" lon="5.38846">
        <ele>388</ele>
        <time>2022-01-22T14:13:46Z</time>
      </trkpt>
      <trkpt lat="46.48474" lon="5.38837">
        <ele>386.8</ele>
        <time>2022-01-22T14:13:47Z</time>
      </trkpt>
      <trkpt lat="46.48491" lon="5.38826">
        <ele>385.4</ele>
        <time>2022-01-22T14:13:49Z</time>
      </trkpt>
      <trkpt lat="46.48521" lon="5.38809">
        <ele>383.8</ele>
        <time>2022-01-22T14:13:52Z</time>
      </trkpt>
      <trkpt lat="46.48541" lon="5.38796">
        <ele>382.8</ele>
        <time>2022-01-22T14:13:54Z</time>
      </trkpt>
      <trkpt lat="46.48552" lon="5.38788">
        <ele>382.4</ele>
        <time>2022-01-22T14:13:55Z</time>
      </trkpt>
      <trkpt lat="46.48569" lon="5.38777">
        <ele>381.2</ele>
        <time>2022-01-22T14:13:57Z</time>
      </trkpt>
      <trkpt lat="46.4858" lon="5.38773">
        <ele>380</ele>
        <time>2022-01-22T14:13:58Z</time>
      </trkpt>
      <trkpt lat="46.48587" lon="5.38772">
        <ele>379.2</ele>
        <time>2022-01-22T14:13:59Z</time>
      </trkpt>
      <trkpt lat="46.48596" lon="5.38774">
        <ele>378.8</ele>
        <time>2022-01-22T14:14:00Z</time>
      </trkpt>
      <trkpt lat="46.48602" lon="5.38774">
        <ele>377.4</ele>
        <time>2022-01-22T14:14:01Z</time>
      </trkpt>
      <trkpt lat="46.48607" lon="5.38773">
        <ele>377</ele>
        <time>2022-01-22T14:14:02Z</time>
      </trkpt>
      <trkpt lat="46.48614" lon="5.38769">
        <ele>376.2</ele>
        <time>2022-01-22T14:14:03Z</time>
      </trkpt>
      <trkpt lat="46.48627" lon="5.38749">
        <ele>374.2</ele>
        <time>2022-01-22T14:14:05Z</time>
      </trkpt>
      <trkpt lat="46.48632" lon="5.38737">
        <ele>373</ele>
        <time>2022-01-22T14:14:06Z</time>
      </trkpt>
      <trkpt lat="46.48639" lon="5.38714">
        <ele>370.8</ele>
        <time>2022-01-22T14:14:08Z</time>
      </trkpt>
      <trkpt lat="46.48642" lon="5.38683">
        <ele>369</ele>
        <time>2022-01-22T14:14:10Z</time>
      </trkpt>
      <trkpt lat="46.48642" lon="5.38667">
        <ele>368.4</ele>
        <time>2022-01-22T14:14:11Z</time>
      </trkpt>
      <trkpt lat="46.4864" lon="5.38654">
        <ele>367.8</ele>
        <time>2022-01-22T14:14:12Z</time>
      </trkpt>
      <trkpt lat="46.48634" lon="5.38621">
        <ele>367.2</ele>
        <time>2022-01-22T14:14:14Z</time>
      </trkpt>
      <trkpt lat="46.4863" lon="5.38606">
        <ele>366.6</ele>
        <time>2022-01-22T14:14:15Z</time>
      </trkpt>
      <trkpt lat="46.48623" lon="5.38579">
        <ele>365.4</ele>
        <time>2022-01-22T14:14:17Z</time>
      </trkpt>
      <trkpt lat="46.48614" lon="5.38545">
        <ele>364.4</ele>
        <time>2022-01-22T14:14:19Z</time>
      </trkpt>
      <trkpt lat="46.48611" lon="5.38533">
        <ele>364</ele>
        <time>2022-01-22T14:14:20Z</time>
      </trkpt>
      <trkpt lat="46.48606" lon="5.38518">
        <ele>363</ele>
        <time>2022-01-22T14:14:21Z</time>
      </trkpt>
    </trkseg>
  </trk>
</gpx>